<?xml version="1.0" encoding="UTF-8" standalone="no" ?>
<gpx xmlns="http://www.topografix.com/GPX/1/1" xmlns:xsi="http://www.w3.org/2001/XMLSchema-instance" xsi:schemaLocation="http://www.topografix.com/GPX/1/1 http://www.topografix.com/GPX/1/1/gpx.xsd" version="1.1" creator="VisuGPX - https://www.visugpx.com">
  <metadata>
    <name>Glisy, Blangy-tronville</name>
  </metadata>
  <trk>
    <name><![CDATA[Glisy, Blangy-tronville_1]]></name>
    <trkseg>
      <trkpt lat="49.87485" lon="2.39815">
        <ele>57.5</ele>
        <time>2022-04-13T11:58:27Z</time>
      </trkpt>
      <trkpt lat="49.87485" lon="2.39815">
        <ele>57.5</ele>
        <time>2022-04-13T11:58:28Z</time>
      </trkpt>
      <trkpt lat="49.87485" lon="2.39815">
        <ele>57.5</ele>
        <time>2022-04-13T11:58:29Z</time>
      </trkpt>
      <trkpt lat="49.87485" lon="2.39815">
        <ele>57.5</ele>
        <time>2022-04-13T11:58:30Z</time>
      </trkpt>
      <trkpt lat="49.87485" lon="2.39815">
        <ele>57.5</ele>
        <time>2022-04-13T11:58:31Z</time>
      </trkpt>
      <trkpt lat="49.87485" lon="2.39815">
        <ele>57.5</ele>
        <time>2022-04-13T11:58:32Z</time>
      </trkpt>
      <trkpt lat="49.87485" lon="2.39815">
        <ele>57.5</ele>
        <time>2022-04-13T11:58:33Z</time>
      </trkpt>
      <trkpt lat="49.87485" lon="2.39815">
        <ele>57.5</ele>
        <time>2022-04-13T11:58:34Z</time>
      </trkpt>
      <trkpt lat="49.87485" lon="2.39815">
        <ele>57.5</ele>
        <time>2022-04-13T11:58:35Z</time>
      </trkpt>
      <trkpt lat="49.87485" lon="2.39815">
        <ele>57.5</ele>
        <time>2022-04-13T11:58:36Z</time>
      </trkpt>
      <trkpt lat="49.87485" lon="2.39814">
        <ele>57.5</ele>
        <time>2022-04-13T11:58:37Z</time>
      </trkpt>
      <trkpt lat="49.87484" lon="2.39814">
        <ele>57.5</ele>
        <time>2022-04-13T11:58:38Z</time>
      </trkpt>
      <trkpt lat="49.87484" lon="2.39814">
        <ele>57.5</ele>
        <time>2022-04-13T11:58:39Z</time>
      </trkpt>
      <trkpt lat="49.87484" lon="2.39814">
        <ele>57.5</ele>
        <time>2022-04-13T11:58:40Z</time>
      </trkpt>
      <trkpt lat="49.87484" lon="2.39814">
        <ele>57.5</ele>
        <time>2022-04-13T11:58:41Z</time>
      </trkpt>
      <trkpt lat="49.87484" lon="2.39814">
        <ele>57.5</ele>
        <time>2022-04-13T11:58:42Z</time>
      </trkpt>
      <trkpt lat="49.87484" lon="2.39814">
        <ele>57.5</ele>
        <time>2022-04-13T11:58:43Z</time>
      </trkpt>
      <trkpt lat="49.87484" lon="2.39814">
        <ele>57.5</ele>
        <time>2022-04-13T11:58:44Z</time>
      </trkpt>
      <trkpt lat="49.87484" lon="2.39814">
        <ele>57.5</ele>
        <time>2022-04-13T11:58:45Z</time>
      </trkpt>
      <trkpt lat="49.87484" lon="2.39814">
        <ele>57.5</ele>
        <time>2022-04-13T11:58:46Z</time>
      </trkpt>
      <trkpt lat="49.87484" lon="2.39814">
        <ele>57.5</ele>
        <time>2022-04-13T11:58:47Z</time>
      </trkpt>
      <trkpt lat="49.87484" lon="2.39814">
        <ele>57.5</ele>
        <time>2022-04-13T11:58:48Z</time>
      </trkpt>
      <trkpt lat="49.87484" lon="2.39814">
        <ele>57.5</ele>
        <time>2022-04-13T11:58:49Z</time>
      </trkpt>
      <trkpt lat="49.87484" lon="2.39814">
        <ele>57.5</ele>
        <time>2022-04-13T11:58:50Z</time>
      </trkpt>
      <trkpt lat="49.87484" lon="2.39814">
        <ele>57.5</ele>
        <time>2022-04-13T11:58:51Z</time>
      </trkpt>
      <trkpt lat="49.87484" lon="2.39814">
        <ele>57.5</ele>
        <time>2022-04-13T11:58:52Z</time>
      </trkpt>
      <trkpt lat="49.87484" lon="2.39814">
        <ele>57.5</ele>
        <time>2022-04-13T11:58:53Z</time>
      </trkpt>
      <trkpt lat="49.87484" lon="2.39814">
        <ele>57.5</ele>
        <time>2022-04-13T11:58:54Z</time>
      </trkpt>
      <trkpt lat="49.87484" lon="2.39814">
        <ele>57.5</ele>
        <time>2022-04-13T11:58:55Z</time>
      </trkpt>
      <trkpt lat="49.87484" lon="2.39814">
        <ele>57.5</ele>
        <time>2022-04-13T11:58:56Z</time>
      </trkpt>
      <trkpt lat="49.87484" lon="2.39814">
        <ele>57.5</ele>
        <time>2022-04-13T11:58:57Z</time>
      </trkpt>
      <trkpt lat="49.87484" lon="2.39814">
        <ele>57.5</ele>
        <time>2022-04-13T11:58:58Z</time>
      </trkpt>
      <trkpt lat="49.87484" lon="2.39814">
        <ele>57.5</ele>
        <time>2022-04-13T11:58:59Z</time>
      </trkpt>
      <trkpt lat="49.87484" lon="2.39814">
        <ele>57.5</ele>
        <time>2022-04-13T11:59:00Z</time>
      </trkpt>
      <trkpt lat="49.87484" lon="2.39814">
        <ele>57.5</ele>
        <time>2022-04-13T11:59:01Z</time>
      </trkpt>
      <trkpt lat="49.87484" lon="2.39814">
        <ele>57.5</ele>
        <time>2022-04-13T11:59:02Z</time>
      </trkpt>
      <trkpt lat="49.87484" lon="2.39814">
        <ele>57.5</ele>
        <time>2022-04-13T11:59:03Z</time>
      </trkpt>
      <trkpt lat="49.87484" lon="2.39814">
        <ele>57.5</ele>
        <time>2022-04-13T11:59:04Z</time>
      </trkpt>
      <trkpt lat="49.87484" lon="2.39814">
        <ele>57.5</ele>
        <time>2022-04-13T11:59:05Z</time>
      </trkpt>
      <trkpt lat="49.87484" lon="2.39814">
        <ele>57.5</ele>
        <time>2022-04-13T11:59:06Z</time>
      </trkpt>
      <trkpt lat="49.87484" lon="2.39814">
        <ele>57.5</ele>
        <time>2022-04-13T11:59:07Z</time>
      </trkpt>
      <trkpt lat="49.87484" lon="2.39814">
        <ele>57.5</ele>
        <time>2022-04-13T11:59:08Z</time>
      </trkpt>
      <trkpt lat="49.87484" lon="2.39814">
        <ele>57.5</ele>
        <time>2022-04-13T11:59:09Z</time>
      </trkpt>
      <trkpt lat="49.87484" lon="2.39814">
        <ele>57.5</ele>
        <time>2022-04-13T11:59:10Z</time>
      </trkpt>
      <trkpt lat="49.87484" lon="2.39814">
        <ele>57.5</ele>
        <time>2022-04-13T11:59:11Z</time>
      </trkpt>
      <trkpt lat="49.87484" lon="2.39814">
        <ele>57.5</ele>
        <time>2022-04-13T11:59:12Z</time>
      </trkpt>
      <trkpt lat="49.87484" lon="2.39814">
        <ele>57.5</ele>
        <time>2022-04-13T11:59:13Z</time>
      </trkpt>
      <trkpt lat="49.87484" lon="2.39814">
        <ele>57.5</ele>
        <time>2022-04-13T11:59:14Z</time>
      </trkpt>
      <trkpt lat="49.87484" lon="2.39814">
        <ele>57.5</ele>
        <time>2022-04-13T11:59:15Z</time>
      </trkpt>
      <trkpt lat="49.87484" lon="2.39814">
        <ele>57.5</ele>
        <time>2022-04-13T11:59:16Z</time>
      </trkpt>
      <trkpt lat="49.87484" lon="2.39814">
        <ele>57.5</ele>
        <time>2022-04-13T11:59:17Z</time>
      </trkpt>
      <trkpt lat="49.87484" lon="2.39814">
        <ele>57.5</ele>
        <time>2022-04-13T11:59:18Z</time>
      </trkpt>
      <trkpt lat="49.87484" lon="2.39814">
        <ele>57.5</ele>
        <time>2022-04-13T11:59:19Z</time>
      </trkpt>
      <trkpt lat="49.87484" lon="2.39814">
        <ele>57.5</ele>
        <time>2022-04-13T11:59:20Z</time>
      </trkpt>
      <trkpt lat="49.87484" lon="2.39814">
        <ele>57.5</ele>
        <time>2022-04-13T11:59:21Z</time>
      </trkpt>
      <trkpt lat="49.87484" lon="2.39814">
        <ele>57.5</ele>
        <time>2022-04-13T11:59:22Z</time>
      </trkpt>
      <trkpt lat="49.87484" lon="2.39814">
        <ele>57.5</ele>
        <time>2022-04-13T11:59:23Z</time>
      </trkpt>
      <trkpt lat="49.87484" lon="2.39814">
        <ele>57.5</ele>
        <time>2022-04-13T11:59:24Z</time>
      </trkpt>
      <trkpt lat="49.87484" lon="2.39814">
        <ele>57.5</ele>
        <time>2022-04-13T11:59:25Z</time>
      </trkpt>
      <trkpt lat="49.87484" lon="2.39814">
        <ele>57.5</ele>
        <time>2022-04-13T11:59:26Z</time>
      </trkpt>
      <trkpt lat="49.87484" lon="2.39814">
        <ele>57.5</ele>
        <time>2022-04-13T11:59:27Z</time>
      </trkpt>
      <trkpt lat="49.87484" lon="2.39814">
        <ele>57.5</ele>
        <time>2022-04-13T11:59:28Z</time>
      </trkpt>
      <trkpt lat="49.87484" lon="2.39814">
        <ele>57.5</ele>
        <time>2022-04-13T11:59:29Z</time>
      </trkpt>
      <trkpt lat="49.87484" lon="2.39814">
        <ele>57.5</ele>
        <time>2022-04-13T11:59:30Z</time>
      </trkpt>
      <trkpt lat="49.87484" lon="2.39814">
        <ele>57.5</ele>
        <time>2022-04-13T11:59:31Z</time>
      </trkpt>
      <trkpt lat="49.87484" lon="2.39814">
        <ele>57.5</ele>
        <time>2022-04-13T11:59:32Z</time>
      </trkpt>
      <trkpt lat="49.87484" lon="2.39814">
        <ele>57.5</ele>
        <time>2022-04-13T11:59:33Z</time>
      </trkpt>
      <trkpt lat="49.87484" lon="2.39814">
        <ele>57.5</ele>
        <time>2022-04-13T11:59:34Z</time>
      </trkpt>
      <trkpt lat="49.87484" lon="2.39814">
        <ele>57.5</ele>
        <time>2022-04-13T11:59:35Z</time>
      </trkpt>
      <trkpt lat="49.87484" lon="2.39814">
        <ele>57.5</ele>
        <time>2022-04-13T11:59:36Z</time>
      </trkpt>
      <trkpt lat="49.87484" lon="2.39814">
        <ele>57.5</ele>
        <time>2022-04-13T11:59:37Z</time>
      </trkpt>
      <trkpt lat="49.87484" lon="2.39814">
        <ele>57.5</ele>
        <time>2022-04-13T11:59:38Z</time>
      </trkpt>
      <trkpt lat="49.87484" lon="2.39814">
        <ele>57.5</ele>
        <time>2022-04-13T11:59:39Z</time>
      </trkpt>
      <trkpt lat="49.87484" lon="2.39814">
        <ele>57.5</ele>
        <time>2022-04-13T11:59:40Z</time>
      </trkpt>
      <trkpt lat="49.87484" lon="2.39814">
        <ele>57.5</ele>
        <time>2022-04-13T11:59:41Z</time>
      </trkpt>
      <trkpt lat="49.87484" lon="2.39814">
        <ele>57.5</ele>
        <time>2022-04-13T11:59:42Z</time>
      </trkpt>
      <trkpt lat="49.87484" lon="2.39814">
        <ele>57.5</ele>
        <time>2022-04-13T11:59:43Z</time>
      </trkpt>
      <trkpt lat="49.87484" lon="2.39814">
        <ele>57.5</ele>
        <time>2022-04-13T11:59:44Z</time>
      </trkpt>
      <trkpt lat="49.87484" lon="2.39814">
        <ele>57.5</ele>
        <time>2022-04-13T11:59:45Z</time>
      </trkpt>
      <trkpt lat="49.87484" lon="2.39814">
        <ele>57.5</ele>
        <time>2022-04-13T11:59:46Z</time>
      </trkpt>
      <trkpt lat="49.87484" lon="2.39814">
        <ele>57.5</ele>
        <time>2022-04-13T11:59:47Z</time>
      </trkpt>
      <trkpt lat="49.87484" lon="2.39814">
        <ele>57.5</ele>
        <time>2022-04-13T11:59:48Z</time>
      </trkpt>
      <trkpt lat="49.87484" lon="2.39814">
        <ele>57.5</ele>
        <time>2022-04-13T11:59:49Z</time>
      </trkpt>
      <trkpt lat="49.87484" lon="2.39814">
        <ele>57.5</ele>
        <time>2022-04-13T11:59:50Z</time>
      </trkpt>
      <trkpt lat="49.87484" lon="2.39814">
        <ele>57.5</ele>
        <time>2022-04-13T11:59:51Z</time>
      </trkpt>
      <trkpt lat="49.87484" lon="2.39814">
        <ele>57.5</ele>
        <time>2022-04-13T11:59:52Z</time>
      </trkpt>
      <trkpt lat="49.87484" lon="2.39814">
        <ele>57.5</ele>
        <time>2022-04-13T11:59:53Z</time>
      </trkpt>
      <trkpt lat="49.87484" lon="2.39814">
        <ele>57.5</ele>
        <time>2022-04-13T11:59:54Z</time>
      </trkpt>
      <trkpt lat="49.87484" lon="2.39814">
        <ele>57.5</ele>
        <time>2022-04-13T11:59:55Z</time>
      </trkpt>
      <trkpt lat="49.87484" lon="2.39814">
        <ele>57.5</ele>
        <time>2022-04-13T11:59:56Z</time>
      </trkpt>
      <trkpt lat="49.87484" lon="2.39814">
        <ele>57.5</ele>
        <time>2022-04-13T11:59:57Z</time>
      </trkpt>
      <trkpt lat="49.87484" lon="2.39814">
        <ele>57.5</ele>
        <time>2022-04-13T11:59:58Z</time>
      </trkpt>
      <trkpt lat="49.87484" lon="2.39814">
        <ele>57.5</ele>
        <time>2022-04-13T11:59:59Z</time>
      </trkpt>
      <trkpt lat="49.87484" lon="2.39814">
        <ele>57.5</ele>
        <time>2022-04-13T12:00:00Z</time>
      </trkpt>
      <trkpt lat="49.87484" lon="2.39814">
        <ele>57.5</ele>
        <time>2022-04-13T12:00:01Z</time>
      </trkpt>
      <trkpt lat="49.87484" lon="2.39814">
        <ele>57.5</ele>
        <time>2022-04-13T12:00:02Z</time>
      </trkpt>
      <trkpt lat="49.87484" lon="2.39814">
        <ele>57.5</ele>
        <time>2022-04-13T12:00:04Z</time>
      </trkpt>
      <trkpt lat="49.87484" lon="2.39814">
        <ele>57.5</ele>
        <time>2022-04-13T12:00:05Z</time>
      </trkpt>
      <trkpt lat="49.87484" lon="2.39814">
        <ele>57.5</ele>
        <time>2022-04-13T12:00:06Z</time>
      </trkpt>
      <trkpt lat="49.87484" lon="2.39814">
        <ele>57.5</ele>
        <time>2022-04-13T12:00:07Z</time>
      </trkpt>
      <trkpt lat="49.87484" lon="2.39814">
        <ele>57.5</ele>
        <time>2022-04-13T12:00:08Z</time>
      </trkpt>
      <trkpt lat="49.87484" lon="2.39814">
        <ele>57.5</ele>
        <time>2022-04-13T12:00:09Z</time>
      </trkpt>
      <trkpt lat="49.87484" lon="2.39814">
        <ele>57.5</ele>
        <time>2022-04-13T12:00:10Z</time>
      </trkpt>
      <trkpt lat="49.87484" lon="2.39814">
        <ele>57.5</ele>
        <time>2022-04-13T12:00:11Z</time>
      </trkpt>
      <trkpt lat="49.87484" lon="2.39814">
        <ele>57.5</ele>
        <time>2022-04-13T12:00:12Z</time>
      </trkpt>
      <trkpt lat="49.87484" lon="2.39814">
        <ele>57.5</ele>
        <time>2022-04-13T12:00:13Z</time>
      </trkpt>
      <trkpt lat="49.87484" lon="2.39814">
        <ele>57.5</ele>
        <time>2022-04-13T12:00:14Z</time>
      </trkpt>
      <trkpt lat="49.87484" lon="2.39814">
        <ele>57.5</ele>
        <time>2022-04-13T12:00:15Z</time>
      </trkpt>
      <trkpt lat="49.87484" lon="2.39814">
        <ele>57.5</ele>
        <time>2022-04-13T12:00:16Z</time>
      </trkpt>
      <trkpt lat="49.87484" lon="2.39814">
        <ele>57.5</ele>
        <time>2022-04-13T12:00:17Z</time>
      </trkpt>
      <trkpt lat="49.87484" lon="2.39814">
        <ele>57.5</ele>
        <time>2022-04-13T12:00:18Z</time>
      </trkpt>
      <trkpt lat="49.87484" lon="2.39814">
        <ele>57.5</ele>
        <time>2022-04-13T12:00:19Z</time>
      </trkpt>
      <trkpt lat="49.87484" lon="2.39814">
        <ele>57.5</ele>
        <time>2022-04-13T12:00:20Z</time>
      </trkpt>
      <trkpt lat="49.87484" lon="2.39814">
        <ele>57.5</ele>
        <time>2022-04-13T12:00:21Z</time>
      </trkpt>
      <trkpt lat="49.87484" lon="2.39814">
        <ele>57.5</ele>
        <time>2022-04-13T12:00:22Z</time>
      </trkpt>
      <trkpt lat="49.87484" lon="2.39814">
        <ele>57.5</ele>
        <time>2022-04-13T12:00:23Z</time>
      </trkpt>
      <trkpt lat="49.87484" lon="2.39814">
        <ele>57.5</ele>
        <time>2022-04-13T12:00:24Z</time>
      </trkpt>
      <trkpt lat="49.87484" lon="2.39814">
        <ele>57.5</ele>
        <time>2022-04-13T12:00:25Z</time>
      </trkpt>
      <trkpt lat="49.87484" lon="2.39814">
        <ele>57.5</ele>
        <time>2022-04-13T12:00:26Z</time>
      </trkpt>
      <trkpt lat="49.87484" lon="2.39814">
        <ele>57.5</ele>
        <time>2022-04-13T12:00:27Z</time>
      </trkpt>
      <trkpt lat="49.87484" lon="2.39814">
        <ele>57.5</ele>
        <time>2022-04-13T12:00:28Z</time>
      </trkpt>
      <trkpt lat="49.87484" lon="2.39814">
        <ele>57.5</ele>
        <time>2022-04-13T12:00:29Z</time>
      </trkpt>
      <trkpt lat="49.87484" lon="2.39814">
        <ele>57.5</ele>
        <time>2022-04-13T12:00:30Z</time>
      </trkpt>
      <trkpt lat="49.87484" lon="2.39814">
        <ele>57.5</ele>
        <time>2022-04-13T12:00:31Z</time>
      </trkpt>
      <trkpt lat="49.87484" lon="2.39814">
        <ele>57.5</ele>
        <time>2022-04-13T12:00:32Z</time>
      </trkpt>
      <trkpt lat="49.87484" lon="2.39814">
        <ele>57.5</ele>
        <time>2022-04-13T12:00:33Z</time>
      </trkpt>
      <trkpt lat="49.87484" lon="2.39814">
        <ele>57.5</ele>
        <time>2022-04-13T12:00:34Z</time>
      </trkpt>
      <trkpt lat="49.87484" lon="2.39814">
        <ele>57.5</ele>
        <time>2022-04-13T12:00:35Z</time>
      </trkpt>
      <trkpt lat="49.87484" lon="2.39814">
        <ele>57.5</ele>
        <time>2022-04-13T12:00:36Z</time>
      </trkpt>
      <trkpt lat="49.87485" lon="2.39813">
        <ele>57.5</ele>
        <time>2022-04-13T12:00:37Z</time>
      </trkpt>
      <trkpt lat="49.87486" lon="2.39813">
        <ele>57.5</ele>
        <time>2022-04-13T12:00:38Z</time>
      </trkpt>
      <trkpt lat="49.87486" lon="2.39813">
        <ele>57.5</ele>
        <time>2022-04-13T12:00:39Z</time>
      </trkpt>
      <trkpt lat="49.87487" lon="2.39813">
        <ele>57.5</ele>
        <time>2022-04-13T12:00:40Z</time>
      </trkpt>
      <trkpt lat="49.87488" lon="2.39813">
        <ele>57.5</ele>
        <time>2022-04-13T12:00:41Z</time>
      </trkpt>
      <trkpt lat="49.87488" lon="2.39812">
        <ele>57.5</ele>
        <time>2022-04-13T12:00:43Z</time>
      </trkpt>
      <trkpt lat="49.87488" lon="2.39812">
        <ele>57.5</ele>
        <time>2022-04-13T12:00:46Z</time>
      </trkpt>
      <trkpt lat="49.87488" lon="2.39812">
        <ele>57.5</ele>
        <time>2022-04-13T12:00:48Z</time>
      </trkpt>
      <trkpt lat="49.87489" lon="2.39812">
        <ele>57.5</ele>
        <time>2022-04-13T12:00:49Z</time>
      </trkpt>
      <trkpt lat="49.87489" lon="2.39812">
        <ele>57.5</ele>
        <time>2022-04-13T12:00:50Z</time>
      </trkpt>
      <trkpt lat="49.87489" lon="2.39812">
        <ele>57.5</ele>
        <time>2022-04-13T12:00:51Z</time>
      </trkpt>
      <trkpt lat="49.87489" lon="2.39812">
        <ele>57.5</ele>
        <time>2022-04-13T12:00:53Z</time>
      </trkpt>
      <trkpt lat="49.8749" lon="2.39811">
        <ele>57.5</ele>
        <time>2022-04-13T12:00:54Z</time>
      </trkpt>
      <trkpt lat="49.8749" lon="2.39812">
        <ele>57.5</ele>
        <time>2022-04-13T12:00:55Z</time>
      </trkpt>
      <trkpt lat="49.87491" lon="2.39812">
        <ele>57.5</ele>
        <time>2022-04-13T12:00:56Z</time>
      </trkpt>
      <trkpt lat="49.87492" lon="2.39812">
        <ele>57.5</ele>
        <time>2022-04-13T12:00:57Z</time>
      </trkpt>
      <trkpt lat="49.87493" lon="2.39812">
        <ele>57.5</ele>
        <time>2022-04-13T12:00:58Z</time>
      </trkpt>
      <trkpt lat="49.87493" lon="2.39812">
        <ele>57.5</ele>
        <time>2022-04-13T12:00:59Z</time>
      </trkpt>
      <trkpt lat="49.87494" lon="2.39812">
        <ele>57.5</ele>
        <time>2022-04-13T12:01:00Z</time>
      </trkpt>
      <trkpt lat="49.87494" lon="2.39812">
        <ele>57.5</ele>
        <time>2022-04-13T12:01:01Z</time>
      </trkpt>
      <trkpt lat="49.87494" lon="2.39812">
        <ele>57.5</ele>
        <time>2022-04-13T12:01:03Z</time>
      </trkpt>
      <trkpt lat="49.87495" lon="2.39812">
        <ele>57.5</ele>
        <time>2022-04-13T12:01:04Z</time>
      </trkpt>
      <trkpt lat="49.87496" lon="2.39812">
        <ele>57.5</ele>
        <time>2022-04-13T12:01:05Z</time>
      </trkpt>
      <trkpt lat="49.87497" lon="2.39813">
        <ele>57.5</ele>
        <time>2022-04-13T12:01:06Z</time>
      </trkpt>
      <trkpt lat="49.87497" lon="2.39813">
        <ele>57.5</ele>
        <time>2022-04-13T12:01:07Z</time>
      </trkpt>
      <trkpt lat="49.87497" lon="2.39813">
        <ele>57.5</ele>
        <time>2022-04-13T12:01:08Z</time>
      </trkpt>
      <trkpt lat="49.87498" lon="2.39813">
        <ele>57.5</ele>
        <time>2022-04-13T12:01:09Z</time>
      </trkpt>
      <trkpt lat="49.87498" lon="2.39813">
        <ele>57.5</ele>
        <time>2022-04-13T12:01:10Z</time>
      </trkpt>
      <trkpt lat="49.87499" lon="2.39813">
        <ele>57.5</ele>
        <time>2022-04-13T12:01:12Z</time>
      </trkpt>
      <trkpt lat="49.875" lon="2.39812">
        <ele>57.5</ele>
        <time>2022-04-13T12:01:13Z</time>
      </trkpt>
      <trkpt lat="49.87501" lon="2.39809">
        <ele>57.5</ele>
        <time>2022-04-13T12:01:15Z</time>
      </trkpt>
      <trkpt lat="49.87502" lon="2.39809">
        <ele>57.5</ele>
        <time>2022-04-13T12:01:16Z</time>
      </trkpt>
      <trkpt lat="49.87503" lon="2.39808">
        <ele>57.5</ele>
        <time>2022-04-13T12:01:17Z</time>
      </trkpt>
      <trkpt lat="49.87504" lon="2.39807">
        <ele>57.5</ele>
        <time>2022-04-13T12:01:19Z</time>
      </trkpt>
      <trkpt lat="49.87505" lon="2.39807">
        <ele>57.5</ele>
        <time>2022-04-13T12:01:20Z</time>
      </trkpt>
      <trkpt lat="49.87506" lon="2.39806">
        <ele>57.5</ele>
        <time>2022-04-13T12:01:21Z</time>
      </trkpt>
      <trkpt lat="49.87506" lon="2.39805">
        <ele>57.5</ele>
        <time>2022-04-13T12:01:22Z</time>
      </trkpt>
      <trkpt lat="49.87507" lon="2.39804">
        <ele>57.5</ele>
        <time>2022-04-13T12:01:23Z</time>
      </trkpt>
      <trkpt lat="49.87507" lon="2.39804">
        <ele>57.5</ele>
        <time>2022-04-13T12:01:25Z</time>
      </trkpt>
      <trkpt lat="49.87508" lon="2.39804">
        <ele>57.5</ele>
        <time>2022-04-13T12:01:27Z</time>
      </trkpt>
      <trkpt lat="49.87508" lon="2.39804">
        <ele>57.5</ele>
        <time>2022-04-13T12:01:28Z</time>
      </trkpt>
      <trkpt lat="49.87508" lon="2.39804">
        <ele>57.5</ele>
        <time>2022-04-13T12:01:29Z</time>
      </trkpt>
      <trkpt lat="49.87508" lon="2.39804">
        <ele>57.5</ele>
        <time>2022-04-13T12:01:31Z</time>
      </trkpt>
      <trkpt lat="49.87508" lon="2.39804">
        <ele>57.5</ele>
        <time>2022-04-13T12:01:32Z</time>
      </trkpt>
      <trkpt lat="49.87508" lon="2.39804">
        <ele>57.5</ele>
        <time>2022-04-13T12:01:33Z</time>
      </trkpt>
      <trkpt lat="49.87508" lon="2.39804">
        <ele>57.5</ele>
        <time>2022-04-13T12:01:34Z</time>
      </trkpt>
      <trkpt lat="49.87509" lon="2.39804">
        <ele>57.5</ele>
        <time>2022-04-13T12:01:36Z</time>
      </trkpt>
      <trkpt lat="49.87509" lon="2.39804">
        <ele>57.5</ele>
        <time>2022-04-13T12:01:37Z</time>
      </trkpt>
      <trkpt lat="49.8751" lon="2.39804">
        <ele>57.5</ele>
        <time>2022-04-13T12:01:38Z</time>
      </trkpt>
      <trkpt lat="49.8751" lon="2.39804">
        <ele>57.5</ele>
        <time>2022-04-13T12:01:39Z</time>
      </trkpt>
      <trkpt lat="49.87511" lon="2.39804">
        <ele>57.5</ele>
        <time>2022-04-13T12:01:41Z</time>
      </trkpt>
      <trkpt lat="49.87511" lon="2.39805">
        <ele>57.5</ele>
        <time>2022-04-13T12:01:42Z</time>
      </trkpt>
      <trkpt lat="49.87512" lon="2.39805">
        <ele>57.5</ele>
        <time>2022-04-13T12:01:43Z</time>
      </trkpt>
      <trkpt lat="49.87513" lon="2.39805">
        <ele>57.5</ele>
        <time>2022-04-13T12:01:44Z</time>
      </trkpt>
      <trkpt lat="49.87513" lon="2.39805">
        <ele>57.5</ele>
        <time>2022-04-13T12:01:45Z</time>
      </trkpt>
      <trkpt lat="49.87514" lon="2.39805">
        <ele>57.5</ele>
        <time>2022-04-13T12:01:47Z</time>
      </trkpt>
      <trkpt lat="49.87514" lon="2.39804">
        <ele>57.5</ele>
        <time>2022-04-13T12:01:48Z</time>
      </trkpt>
      <trkpt lat="49.87515" lon="2.39803">
        <ele>57.5</ele>
        <time>2022-04-13T12:01:49Z</time>
      </trkpt>
      <trkpt lat="49.87515" lon="2.39802">
        <ele>57.5</ele>
        <time>2022-04-13T12:01:50Z</time>
      </trkpt>
      <trkpt lat="49.87516" lon="2.39802">
        <ele>57.5</ele>
        <time>2022-04-13T12:01:52Z</time>
      </trkpt>
      <trkpt lat="49.87516" lon="2.39801">
        <ele>57.5</ele>
        <time>2022-04-13T12:01:53Z</time>
      </trkpt>
      <trkpt lat="49.87516" lon="2.39801">
        <ele>57.5</ele>
        <time>2022-04-13T12:01:54Z</time>
      </trkpt>
      <trkpt lat="49.87515" lon="2.39801">
        <ele>57.5</ele>
        <time>2022-04-13T12:01:55Z</time>
      </trkpt>
      <trkpt lat="49.87515" lon="2.39801">
        <ele>57.5</ele>
        <time>2022-04-13T12:01:57Z</time>
      </trkpt>
      <trkpt lat="49.87515" lon="2.39801">
        <ele>57.5</ele>
        <time>2022-04-13T12:01:58Z</time>
      </trkpt>
      <trkpt lat="49.87515" lon="2.39801">
        <ele>57.5</ele>
        <time>2022-04-13T12:02:00Z</time>
      </trkpt>
      <trkpt lat="49.87515" lon="2.39801">
        <ele>57.5</ele>
        <time>2022-04-13T12:02:01Z</time>
      </trkpt>
      <trkpt lat="49.87516" lon="2.39801">
        <ele>57.5</ele>
        <time>2022-04-13T12:02:03Z</time>
      </trkpt>
      <trkpt lat="49.87516" lon="2.39801">
        <ele>57.5</ele>
        <time>2022-04-13T12:02:04Z</time>
      </trkpt>
      <trkpt lat="49.87516" lon="2.39801">
        <ele>57.5</ele>
        <time>2022-04-13T12:02:05Z</time>
      </trkpt>
      <trkpt lat="49.87516" lon="2.39801">
        <ele>57.5</ele>
        <time>2022-04-13T12:02:06Z</time>
      </trkpt>
      <trkpt lat="49.87517" lon="2.39802">
        <ele>57.5</ele>
        <time>2022-04-13T12:02:07Z</time>
      </trkpt>
      <trkpt lat="49.87517" lon="2.39802">
        <ele>57.5</ele>
        <time>2022-04-13T12:02:08Z</time>
      </trkpt>
      <trkpt lat="49.87518" lon="2.39802">
        <ele>57.5</ele>
        <time>2022-04-13T12:02:09Z</time>
      </trkpt>
      <trkpt lat="49.87519" lon="2.39803">
        <ele>57.5</ele>
        <time>2022-04-13T12:02:11Z</time>
      </trkpt>
      <trkpt lat="49.8752" lon="2.39803">
        <ele>57.5</ele>
        <time>2022-04-13T12:02:12Z</time>
      </trkpt>
      <trkpt lat="49.87521" lon="2.39803">
        <ele>57.5</ele>
        <time>2022-04-13T12:02:13Z</time>
      </trkpt>
      <trkpt lat="49.87522" lon="2.39804">
        <ele>57.5</ele>
        <time>2022-04-13T12:02:14Z</time>
      </trkpt>
      <trkpt lat="49.87523" lon="2.39805">
        <ele>57.5</ele>
        <time>2022-04-13T12:02:15Z</time>
      </trkpt>
      <trkpt lat="49.87525" lon="2.39806">
        <ele>57.5</ele>
        <time>2022-04-13T12:02:17Z</time>
      </trkpt>
      <trkpt lat="49.87526" lon="2.39806">
        <ele>57.5</ele>
        <time>2022-04-13T12:02:18Z</time>
      </trkpt>
      <trkpt lat="49.87526" lon="2.39806">
        <ele>57.5</ele>
        <time>2022-04-13T12:02:19Z</time>
      </trkpt>
      <trkpt lat="49.87527" lon="2.39807">
        <ele>57.5</ele>
        <time>2022-04-13T12:02:20Z</time>
      </trkpt>
      <trkpt lat="49.87528" lon="2.39807">
        <ele>57.5</ele>
        <time>2022-04-13T12:02:21Z</time>
      </trkpt>
      <trkpt lat="49.87527" lon="2.39807">
        <ele>57.5</ele>
        <time>2022-04-13T12:02:22Z</time>
      </trkpt>
      <trkpt lat="49.87527" lon="2.39807">
        <ele>57.5</ele>
        <time>2022-04-13T12:02:23Z</time>
      </trkpt>
      <trkpt lat="49.87527" lon="2.39806">
        <ele>57.5</ele>
        <time>2022-04-13T12:02:24Z</time>
      </trkpt>
      <trkpt lat="49.87528" lon="2.39806">
        <ele>57.5</ele>
        <time>2022-04-13T12:02:25Z</time>
      </trkpt>
      <trkpt lat="49.87528" lon="2.39807">
        <ele>57.5</ele>
        <time>2022-04-13T12:02:26Z</time>
      </trkpt>
      <trkpt lat="49.87528" lon="2.39807">
        <ele>57.5</ele>
        <time>2022-04-13T12:02:27Z</time>
      </trkpt>
      <trkpt lat="49.87527" lon="2.39807">
        <ele>57.5</ele>
        <time>2022-04-13T12:02:28Z</time>
      </trkpt>
      <trkpt lat="49.87527" lon="2.39807">
        <ele>57.5</ele>
        <time>2022-04-13T12:02:29Z</time>
      </trkpt>
      <trkpt lat="49.87527" lon="2.39807">
        <ele>57.5</ele>
        <time>2022-04-13T12:02:30Z</time>
      </trkpt>
      <trkpt lat="49.87527" lon="2.39806">
        <ele>57.5</ele>
        <time>2022-04-13T12:02:31Z</time>
      </trkpt>
      <trkpt lat="49.87527" lon="2.39806">
        <ele>57.5</ele>
        <time>2022-04-13T12:02:32Z</time>
      </trkpt>
      <trkpt lat="49.87527" lon="2.39806">
        <ele>57.5</ele>
        <time>2022-04-13T12:02:33Z</time>
      </trkpt>
      <trkpt lat="49.87527" lon="2.39806">
        <ele>57.5</ele>
        <time>2022-04-13T12:02:34Z</time>
      </trkpt>
      <trkpt lat="49.87527" lon="2.39806">
        <ele>57.5</ele>
        <time>2022-04-13T12:02:36Z</time>
      </trkpt>
      <trkpt lat="49.87527" lon="2.39806">
        <ele>57.4</ele>
        <time>2022-04-13T12:02:37Z</time>
      </trkpt>
      <trkpt lat="49.87528" lon="2.39806">
        <ele>57.4</ele>
        <time>2022-04-13T12:02:38Z</time>
      </trkpt>
      <trkpt lat="49.87528" lon="2.39806">
        <ele>57.4</ele>
        <time>2022-04-13T12:02:39Z</time>
      </trkpt>
      <trkpt lat="49.8753" lon="2.39807">
        <ele>57.4</ele>
        <time>2022-04-13T12:02:40Z</time>
      </trkpt>
      <trkpt lat="49.87531" lon="2.39807">
        <ele>57.4</ele>
        <time>2022-04-13T12:02:41Z</time>
      </trkpt>
      <trkpt lat="49.87532" lon="2.39808">
        <ele>57.4</ele>
        <time>2022-04-13T12:02:42Z</time>
      </trkpt>
      <trkpt lat="49.87534" lon="2.39809">
        <ele>57.4</ele>
        <time>2022-04-13T12:02:43Z</time>
      </trkpt>
      <trkpt lat="49.87535" lon="2.3981">
        <ele>57.4</ele>
        <time>2022-04-13T12:02:45Z</time>
      </trkpt>
      <trkpt lat="49.87536" lon="2.39811">
        <ele>57.4</ele>
        <time>2022-04-13T12:02:46Z</time>
      </trkpt>
      <trkpt lat="49.87539" lon="2.39813">
        <ele>57.4</ele>
        <time>2022-04-13T12:02:47Z</time>
      </trkpt>
      <trkpt lat="49.8754" lon="2.39814">
        <ele>57.4</ele>
        <time>2022-04-13T12:02:48Z</time>
      </trkpt>
      <trkpt lat="49.87542" lon="2.39816">
        <ele>57.4</ele>
        <time>2022-04-13T12:02:49Z</time>
      </trkpt>
      <trkpt lat="49.87543" lon="2.39817">
        <ele>57.4</ele>
        <time>2022-04-13T12:02:50Z</time>
      </trkpt>
      <trkpt lat="49.87544" lon="2.39818">
        <ele>57.4</ele>
        <time>2022-04-13T12:02:51Z</time>
      </trkpt>
      <trkpt lat="49.87546" lon="2.39819">
        <ele>57.4</ele>
        <time>2022-04-13T12:02:53Z</time>
      </trkpt>
      <trkpt lat="49.87548" lon="2.3982">
        <ele>57.4</ele>
        <time>2022-04-13T12:02:54Z</time>
      </trkpt>
      <trkpt lat="49.87549" lon="2.39821">
        <ele>57.4</ele>
        <time>2022-04-13T12:02:55Z</time>
      </trkpt>
      <trkpt lat="49.8755" lon="2.39822">
        <ele>57.4</ele>
        <time>2022-04-13T12:02:56Z</time>
      </trkpt>
      <trkpt lat="49.87551" lon="2.39823">
        <ele>57.4</ele>
        <time>2022-04-13T12:02:57Z</time>
      </trkpt>
      <trkpt lat="49.87552" lon="2.39824">
        <ele>57.4</ele>
        <time>2022-04-13T12:02:58Z</time>
      </trkpt>
      <trkpt lat="49.87553" lon="2.39824">
        <ele>57.4</ele>
        <time>2022-04-13T12:03:00Z</time>
      </trkpt>
      <trkpt lat="49.87553" lon="2.39825">
        <ele>57.4</ele>
        <time>2022-04-13T12:03:01Z</time>
      </trkpt>
      <trkpt lat="49.87554" lon="2.39825">
        <ele>57.4</ele>
        <time>2022-04-13T12:03:02Z</time>
      </trkpt>
      <trkpt lat="49.87555" lon="2.39826">
        <ele>57.4</ele>
        <time>2022-04-13T12:03:03Z</time>
      </trkpt>
      <trkpt lat="49.87556" lon="2.39827">
        <ele>57.4</ele>
        <time>2022-04-13T12:03:04Z</time>
      </trkpt>
      <trkpt lat="49.87557" lon="2.39828">
        <ele>57.4</ele>
        <time>2022-04-13T12:03:05Z</time>
      </trkpt>
      <trkpt lat="49.87559" lon="2.3983">
        <ele>57.4</ele>
        <time>2022-04-13T12:03:07Z</time>
      </trkpt>
      <trkpt lat="49.87561" lon="2.39831">
        <ele>57.4</ele>
        <time>2022-04-13T12:03:08Z</time>
      </trkpt>
      <trkpt lat="49.87564" lon="2.39833">
        <ele>57.4</ele>
        <time>2022-04-13T12:03:09Z</time>
      </trkpt>
      <trkpt lat="49.87566" lon="2.39835">
        <ele>57.3</ele>
        <time>2022-04-13T12:03:10Z</time>
      </trkpt>
      <trkpt lat="49.87567" lon="2.39836">
        <ele>57.3</ele>
        <time>2022-04-13T12:03:12Z</time>
      </trkpt>
      <trkpt lat="49.87568" lon="2.39837">
        <ele>57.3</ele>
        <time>2022-04-13T12:03:13Z</time>
      </trkpt>
      <trkpt lat="49.87569" lon="2.39837">
        <ele>57.3</ele>
        <time>2022-04-13T12:03:14Z</time>
      </trkpt>
      <trkpt lat="49.8757" lon="2.39838">
        <ele>57.3</ele>
        <time>2022-04-13T12:03:15Z</time>
      </trkpt>
      <trkpt lat="49.87572" lon="2.39839">
        <ele>57.3</ele>
        <time>2022-04-13T12:03:16Z</time>
      </trkpt>
      <trkpt lat="49.87573" lon="2.3984">
        <ele>57.3</ele>
        <time>2022-04-13T12:03:18Z</time>
      </trkpt>
      <trkpt lat="49.87574" lon="2.3984">
        <ele>57.3</ele>
        <time>2022-04-13T12:03:19Z</time>
      </trkpt>
      <trkpt lat="49.87576" lon="2.39841">
        <ele>57.3</ele>
        <time>2022-04-13T12:03:20Z</time>
      </trkpt>
      <trkpt lat="49.87576" lon="2.39842">
        <ele>57.3</ele>
        <time>2022-04-13T12:03:21Z</time>
      </trkpt>
      <trkpt lat="49.87577" lon="2.39842">
        <ele>57.3</ele>
        <time>2022-04-13T12:03:22Z</time>
      </trkpt>
      <trkpt lat="49.87578" lon="2.39843">
        <ele>57.3</ele>
        <time>2022-04-13T12:03:23Z</time>
      </trkpt>
      <trkpt lat="49.87579" lon="2.39844">
        <ele>57.2</ele>
        <time>2022-04-13T12:03:25Z</time>
      </trkpt>
      <trkpt lat="49.8758" lon="2.39845">
        <ele>57.2</ele>
        <time>2022-04-13T12:03:26Z</time>
      </trkpt>
      <trkpt lat="49.87581" lon="2.39846">
        <ele>57.2</ele>
        <time>2022-04-13T12:03:27Z</time>
      </trkpt>
      <trkpt lat="49.87582" lon="2.39847">
        <ele>57.2</ele>
        <time>2022-04-13T12:03:28Z</time>
      </trkpt>
      <trkpt lat="49.87583" lon="2.39848">
        <ele>57.2</ele>
        <time>2022-04-13T12:03:29Z</time>
      </trkpt>
      <trkpt lat="49.87584" lon="2.3985">
        <ele>57.2</ele>
        <time>2022-04-13T12:03:30Z</time>
      </trkpt>
      <trkpt lat="49.87585" lon="2.39852">
        <ele>57.2</ele>
        <time>2022-04-13T12:03:31Z</time>
      </trkpt>
      <trkpt lat="49.87585" lon="2.39853">
        <ele>57.2</ele>
        <time>2022-04-13T12:03:32Z</time>
      </trkpt>
      <trkpt lat="49.87586" lon="2.39854">
        <ele>57.2</ele>
        <time>2022-04-13T12:03:33Z</time>
      </trkpt>
      <trkpt lat="49.87588" lon="2.39855">
        <ele>57.2</ele>
        <time>2022-04-13T12:03:35Z</time>
      </trkpt>
      <trkpt lat="49.87589" lon="2.39856">
        <ele>57.1</ele>
        <time>2022-04-13T12:03:36Z</time>
      </trkpt>
      <trkpt lat="49.8759" lon="2.39857">
        <ele>57.1</ele>
        <time>2022-04-13T12:03:37Z</time>
      </trkpt>
      <trkpt lat="49.87592" lon="2.39859">
        <ele>57.1</ele>
        <time>2022-04-13T12:03:38Z</time>
      </trkpt>
      <trkpt lat="49.87592" lon="2.3986">
        <ele>57.1</ele>
        <time>2022-04-13T12:03:39Z</time>
      </trkpt>
      <trkpt lat="49.87593" lon="2.3986">
        <ele>57.1</ele>
        <time>2022-04-13T12:03:40Z</time>
      </trkpt>
      <trkpt lat="49.87594" lon="2.39861">
        <ele>57.1</ele>
        <time>2022-04-13T12:03:42Z</time>
      </trkpt>
      <trkpt lat="49.87595" lon="2.39862">
        <ele>57.1</ele>
        <time>2022-04-13T12:03:43Z</time>
      </trkpt>
      <trkpt lat="49.87596" lon="2.39862">
        <ele>57.1</ele>
        <time>2022-04-13T12:03:44Z</time>
      </trkpt>
      <trkpt lat="49.87597" lon="2.39863">
        <ele>57.1</ele>
        <time>2022-04-13T12:03:45Z</time>
      </trkpt>
      <trkpt lat="49.87598" lon="2.39864">
        <ele>57.1</ele>
        <time>2022-04-13T12:03:46Z</time>
      </trkpt>
      <trkpt lat="49.87599" lon="2.39865">
        <ele>57</ele>
        <time>2022-04-13T12:03:47Z</time>
      </trkpt>
      <trkpt lat="49.876" lon="2.39867">
        <ele>57</ele>
        <time>2022-04-13T12:03:49Z</time>
      </trkpt>
      <trkpt lat="49.87601" lon="2.39868">
        <ele>57</ele>
        <time>2022-04-13T12:03:50Z</time>
      </trkpt>
      <trkpt lat="49.87601" lon="2.39869">
        <ele>57</ele>
        <time>2022-04-13T12:03:51Z</time>
      </trkpt>
      <trkpt lat="49.87602" lon="2.3987">
        <ele>57</ele>
        <time>2022-04-13T12:03:52Z</time>
      </trkpt>
      <trkpt lat="49.87603" lon="2.39871">
        <ele>57</ele>
        <time>2022-04-13T12:03:53Z</time>
      </trkpt>
      <trkpt lat="49.87604" lon="2.39872">
        <ele>57</ele>
        <time>2022-04-13T12:03:54Z</time>
      </trkpt>
      <trkpt lat="49.87605" lon="2.39872">
        <ele>57</ele>
        <time>2022-04-13T12:03:56Z</time>
      </trkpt>
      <trkpt lat="49.87606" lon="2.39873">
        <ele>57</ele>
        <time>2022-04-13T12:03:57Z</time>
      </trkpt>
      <trkpt lat="49.87607" lon="2.39874">
        <ele>57</ele>
        <time>2022-04-13T12:03:58Z</time>
      </trkpt>
      <trkpt lat="49.87607" lon="2.39875">
        <ele>57</ele>
        <time>2022-04-13T12:03:59Z</time>
      </trkpt>
      <trkpt lat="49.87608" lon="2.39876">
        <ele>56.9</ele>
        <time>2022-04-13T12:04:00Z</time>
      </trkpt>
      <trkpt lat="49.87609" lon="2.39877">
        <ele>56.9</ele>
        <time>2022-04-13T12:04:01Z</time>
      </trkpt>
      <trkpt lat="49.8761" lon="2.39878">
        <ele>56.9</ele>
        <time>2022-04-13T12:04:03Z</time>
      </trkpt>
      <trkpt lat="49.87611" lon="2.39879">
        <ele>56.9</ele>
        <time>2022-04-13T12:04:04Z</time>
      </trkpt>
      <trkpt lat="49.87612" lon="2.3988">
        <ele>56.9</ele>
        <time>2022-04-13T12:04:05Z</time>
      </trkpt>
      <trkpt lat="49.87612" lon="2.39881">
        <ele>56.9</ele>
        <time>2022-04-13T12:04:06Z</time>
      </trkpt>
      <trkpt lat="49.87612" lon="2.39882">
        <ele>56.9</ele>
        <time>2022-04-13T12:04:07Z</time>
      </trkpt>
      <trkpt lat="49.87613" lon="2.39884">
        <ele>56.9</ele>
        <time>2022-04-13T12:04:08Z</time>
      </trkpt>
      <trkpt lat="49.87614" lon="2.39886">
        <ele>56.9</ele>
        <time>2022-04-13T12:04:09Z</time>
      </trkpt>
      <trkpt lat="49.87614" lon="2.39887">
        <ele>56.9</ele>
        <time>2022-04-13T12:04:10Z</time>
      </trkpt>
      <trkpt lat="49.87615" lon="2.39889">
        <ele>56.8</ele>
        <time>2022-04-13T12:04:12Z</time>
      </trkpt>
      <trkpt lat="49.87616" lon="2.3989">
        <ele>56.8</ele>
        <time>2022-04-13T12:04:13Z</time>
      </trkpt>
      <trkpt lat="49.87617" lon="2.39891">
        <ele>56.8</ele>
        <time>2022-04-13T12:04:14Z</time>
      </trkpt>
      <trkpt lat="49.87618" lon="2.39892">
        <ele>56.8</ele>
        <time>2022-04-13T12:04:15Z</time>
      </trkpt>
      <trkpt lat="49.87619" lon="2.39892">
        <ele>56.8</ele>
        <time>2022-04-13T12:04:16Z</time>
      </trkpt>
      <trkpt lat="49.8762" lon="2.39893">
        <ele>56.8</ele>
        <time>2022-04-13T12:04:17Z</time>
      </trkpt>
      <trkpt lat="49.87621" lon="2.39894">
        <ele>56.8</ele>
        <time>2022-04-13T12:04:18Z</time>
      </trkpt>
      <trkpt lat="49.87622" lon="2.39894">
        <ele>56.8</ele>
        <time>2022-04-13T12:04:20Z</time>
      </trkpt>
      <trkpt lat="49.87623" lon="2.39895">
        <ele>56.7</ele>
        <time>2022-04-13T12:04:21Z</time>
      </trkpt>
      <trkpt lat="49.87624" lon="2.39895">
        <ele>56.7</ele>
        <time>2022-04-13T12:04:22Z</time>
      </trkpt>
      <trkpt lat="49.87626" lon="2.39896">
        <ele>56.7</ele>
        <time>2022-04-13T12:04:23Z</time>
      </trkpt>
      <trkpt lat="49.87627" lon="2.39896">
        <ele>56.7</ele>
        <time>2022-04-13T12:04:24Z</time>
      </trkpt>
      <trkpt lat="49.87628" lon="2.39896">
        <ele>56.7</ele>
        <time>2022-04-13T12:04:25Z</time>
      </trkpt>
      <trkpt lat="49.87629" lon="2.39897">
        <ele>56.6</ele>
        <time>2022-04-13T12:04:26Z</time>
      </trkpt>
      <trkpt lat="49.87631" lon="2.39897">
        <ele>56.6</ele>
        <time>2022-04-13T12:04:27Z</time>
      </trkpt>
      <trkpt lat="49.87632" lon="2.39899">
        <ele>56.6</ele>
        <time>2022-04-13T12:04:28Z</time>
      </trkpt>
      <trkpt lat="49.87633" lon="2.39899">
        <ele>56.6</ele>
        <time>2022-04-13T12:04:30Z</time>
      </trkpt>
      <trkpt lat="49.87634" lon="2.399">
        <ele>56.6</ele>
        <time>2022-04-13T12:04:31Z</time>
      </trkpt>
      <trkpt lat="49.87635" lon="2.399">
        <ele>56.6</ele>
        <time>2022-04-13T12:04:32Z</time>
      </trkpt>
      <trkpt lat="49.87636" lon="2.399">
        <ele>56.5</ele>
        <time>2022-04-13T12:04:33Z</time>
      </trkpt>
      <trkpt lat="49.87637" lon="2.39901">
        <ele>56.5</ele>
        <time>2022-04-13T12:04:34Z</time>
      </trkpt>
      <trkpt lat="49.87638" lon="2.39901">
        <ele>56.5</ele>
        <time>2022-04-13T12:04:35Z</time>
      </trkpt>
      <trkpt lat="49.87639" lon="2.39901">
        <ele>56.5</ele>
        <time>2022-04-13T12:04:36Z</time>
      </trkpt>
      <trkpt lat="49.87641" lon="2.39901">
        <ele>56.5</ele>
        <time>2022-04-13T12:04:38Z</time>
      </trkpt>
      <trkpt lat="49.87642" lon="2.39901">
        <ele>56.4</ele>
        <time>2022-04-13T12:04:39Z</time>
      </trkpt>
      <trkpt lat="49.87644" lon="2.39902">
        <ele>56.4</ele>
        <time>2022-04-13T12:04:41Z</time>
      </trkpt>
      <trkpt lat="49.87646" lon="2.39902">
        <ele>56.4</ele>
        <time>2022-04-13T12:04:42Z</time>
      </trkpt>
      <trkpt lat="49.87647" lon="2.39902">
        <ele>56.4</ele>
        <time>2022-04-13T12:04:43Z</time>
      </trkpt>
      <trkpt lat="49.87648" lon="2.39902">
        <ele>56.4</ele>
        <time>2022-04-13T12:04:44Z</time>
      </trkpt>
      <trkpt lat="49.87649" lon="2.39903">
        <ele>56.3</ele>
        <time>2022-04-13T12:04:45Z</time>
      </trkpt>
      <trkpt lat="49.8765" lon="2.39903">
        <ele>56.3</ele>
        <time>2022-04-13T12:04:46Z</time>
      </trkpt>
      <trkpt lat="49.87651" lon="2.39904">
        <ele>56.3</ele>
        <time>2022-04-13T12:04:47Z</time>
      </trkpt>
      <trkpt lat="49.87651" lon="2.39904">
        <ele>56.3</ele>
        <time>2022-04-13T12:04:48Z</time>
      </trkpt>
      <trkpt lat="49.87652" lon="2.39905">
        <ele>56.3</ele>
        <time>2022-04-13T12:04:49Z</time>
      </trkpt>
      <trkpt lat="49.87653" lon="2.39905">
        <ele>56.3</ele>
        <time>2022-04-13T12:04:50Z</time>
      </trkpt>
      <trkpt lat="49.87655" lon="2.39907">
        <ele>56.2</ele>
        <time>2022-04-13T12:04:52Z</time>
      </trkpt>
      <trkpt lat="49.87656" lon="2.39907">
        <ele>56.2</ele>
        <time>2022-04-13T12:04:53Z</time>
      </trkpt>
      <trkpt lat="49.87657" lon="2.39907">
        <ele>56.2</ele>
        <time>2022-04-13T12:04:54Z</time>
      </trkpt>
      <trkpt lat="49.87659" lon="2.39908">
        <ele>56.1</ele>
        <time>2022-04-13T12:04:55Z</time>
      </trkpt>
      <trkpt lat="49.8766" lon="2.39909">
        <ele>56.1</ele>
        <time>2022-04-13T12:04:56Z</time>
      </trkpt>
      <trkpt lat="49.87661" lon="2.39909">
        <ele>56.1</ele>
        <time>2022-04-13T12:04:57Z</time>
      </trkpt>
      <trkpt lat="49.87662" lon="2.3991">
        <ele>56.1</ele>
        <time>2022-04-13T12:04:58Z</time>
      </trkpt>
      <trkpt lat="49.87663" lon="2.3991">
        <ele>56.1</ele>
        <time>2022-04-13T12:04:59Z</time>
      </trkpt>
      <trkpt lat="49.87665" lon="2.3991">
        <ele>56</ele>
        <time>2022-04-13T12:05:01Z</time>
      </trkpt>
      <trkpt lat="49.87666" lon="2.39909">
        <ele>56</ele>
        <time>2022-04-13T12:05:02Z</time>
      </trkpt>
      <trkpt lat="49.87667" lon="2.3991">
        <ele>56</ele>
        <time>2022-04-13T12:05:03Z</time>
      </trkpt>
      <trkpt lat="49.87668" lon="2.3991">
        <ele>56</ele>
        <time>2022-04-13T12:05:04Z</time>
      </trkpt>
      <trkpt lat="49.8767" lon="2.3991">
        <ele>55.9</ele>
        <time>2022-04-13T12:05:05Z</time>
      </trkpt>
      <trkpt lat="49.87671" lon="2.39911">
        <ele>55.9</ele>
        <time>2022-04-13T12:05:06Z</time>
      </trkpt>
      <trkpt lat="49.87673" lon="2.39911">
        <ele>55.8</ele>
        <time>2022-04-13T12:05:07Z</time>
      </trkpt>
      <trkpt lat="49.87674" lon="2.39911">
        <ele>55.8</ele>
        <time>2022-04-13T12:05:08Z</time>
      </trkpt>
      <trkpt lat="49.87675" lon="2.39912">
        <ele>55.8</ele>
        <time>2022-04-13T12:05:09Z</time>
      </trkpt>
      <trkpt lat="49.87677" lon="2.39912">
        <ele>55.8</ele>
        <time>2022-04-13T12:05:10Z</time>
      </trkpt>
      <trkpt lat="49.87678" lon="2.39913">
        <ele>55.7</ele>
        <time>2022-04-13T12:05:12Z</time>
      </trkpt>
      <trkpt lat="49.87679" lon="2.39913">
        <ele>55.7</ele>
        <time>2022-04-13T12:05:13Z</time>
      </trkpt>
      <trkpt lat="49.87681" lon="2.39914">
        <ele>55.7</ele>
        <time>2022-04-13T12:05:14Z</time>
      </trkpt>
      <trkpt lat="49.87682" lon="2.39914">
        <ele>55.6</ele>
        <time>2022-04-13T12:05:15Z</time>
      </trkpt>
      <trkpt lat="49.87682" lon="2.39915">
        <ele>55.6</ele>
        <time>2022-04-13T12:05:16Z</time>
      </trkpt>
      <trkpt lat="49.87683" lon="2.39915">
        <ele>55.6</ele>
        <time>2022-04-13T12:05:17Z</time>
      </trkpt>
      <trkpt lat="49.87685" lon="2.39914">
        <ele>55.6</ele>
        <time>2022-04-13T12:05:18Z</time>
      </trkpt>
      <trkpt lat="49.87686" lon="2.39914">
        <ele>55.5</ele>
        <time>2022-04-13T12:05:19Z</time>
      </trkpt>
      <trkpt lat="49.87688" lon="2.39914">
        <ele>55.5</ele>
        <time>2022-04-13T12:05:20Z</time>
      </trkpt>
      <trkpt lat="49.87689" lon="2.39914">
        <ele>55.5</ele>
        <time>2022-04-13T12:05:21Z</time>
      </trkpt>
      <trkpt lat="49.87689" lon="2.39914">
        <ele>55.5</ele>
        <time>2022-04-13T12:05:22Z</time>
      </trkpt>
      <trkpt lat="49.87692" lon="2.39914">
        <ele>55.4</ele>
        <time>2022-04-13T12:05:24Z</time>
      </trkpt>
      <trkpt lat="49.87692" lon="2.39914">
        <ele>55.4</ele>
        <time>2022-04-13T12:05:25Z</time>
      </trkpt>
      <trkpt lat="49.87693" lon="2.39914">
        <ele>55.4</ele>
        <time>2022-04-13T12:05:26Z</time>
      </trkpt>
      <trkpt lat="49.87694" lon="2.39914">
        <ele>55.3</ele>
        <time>2022-04-13T12:05:27Z</time>
      </trkpt>
      <trkpt lat="49.87696" lon="2.39915">
        <ele>55.3</ele>
        <time>2022-04-13T12:05:28Z</time>
      </trkpt>
      <trkpt lat="49.87697" lon="2.39916">
        <ele>55.3</ele>
        <time>2022-04-13T12:05:30Z</time>
      </trkpt>
      <trkpt lat="49.87699" lon="2.39917">
        <ele>55.2</ele>
        <time>2022-04-13T12:05:31Z</time>
      </trkpt>
      <trkpt lat="49.877" lon="2.39917">
        <ele>55.2</ele>
        <time>2022-04-13T12:05:32Z</time>
      </trkpt>
      <trkpt lat="49.87702" lon="2.39918">
        <ele>55.2</ele>
        <time>2022-04-13T12:05:33Z</time>
      </trkpt>
      <trkpt lat="49.87703" lon="2.39919">
        <ele>55.1</ele>
        <time>2022-04-13T12:05:34Z</time>
      </trkpt>
      <trkpt lat="49.87705" lon="2.39921">
        <ele>55.1</ele>
        <time>2022-04-13T12:05:35Z</time>
      </trkpt>
      <trkpt lat="49.87706" lon="2.39921">
        <ele>55</ele>
        <time>2022-04-13T12:05:36Z</time>
      </trkpt>
      <trkpt lat="49.87709" lon="2.39922">
        <ele>55</ele>
        <time>2022-04-13T12:05:37Z</time>
      </trkpt>
      <trkpt lat="49.8771" lon="2.39922">
        <ele>55</ele>
        <time>2022-04-13T12:05:39Z</time>
      </trkpt>
      <trkpt lat="49.8771" lon="2.39922">
        <ele>54.9</ele>
        <time>2022-04-13T12:05:40Z</time>
      </trkpt>
      <trkpt lat="49.87711" lon="2.39923">
        <ele>54.9</ele>
        <time>2022-04-13T12:05:41Z</time>
      </trkpt>
      <trkpt lat="49.87712" lon="2.39923">
        <ele>54.9</ele>
        <time>2022-04-13T12:05:42Z</time>
      </trkpt>
      <trkpt lat="49.87713" lon="2.39924">
        <ele>54.9</ele>
        <time>2022-04-13T12:05:43Z</time>
      </trkpt>
      <trkpt lat="49.87715" lon="2.39926">
        <ele>54.8</ele>
        <time>2022-04-13T12:05:44Z</time>
      </trkpt>
      <trkpt lat="49.87716" lon="2.39927">
        <ele>54.8</ele>
        <time>2022-04-13T12:05:45Z</time>
      </trkpt>
      <trkpt lat="49.87716" lon="2.39927">
        <ele>54.8</ele>
        <time>2022-04-13T12:05:46Z</time>
      </trkpt>
      <trkpt lat="49.87718" lon="2.39928">
        <ele>54.7</ele>
        <time>2022-04-13T12:05:48Z</time>
      </trkpt>
      <trkpt lat="49.87719" lon="2.39929">
        <ele>54.7</ele>
        <time>2022-04-13T12:05:49Z</time>
      </trkpt>
      <trkpt lat="49.87721" lon="2.39931">
        <ele>54.6</ele>
        <time>2022-04-13T12:05:50Z</time>
      </trkpt>
      <trkpt lat="49.87722" lon="2.39932">
        <ele>54.6</ele>
        <time>2022-04-13T12:05:51Z</time>
      </trkpt>
      <trkpt lat="49.87723" lon="2.39933">
        <ele>54.6</ele>
        <time>2022-04-13T12:05:52Z</time>
      </trkpt>
      <trkpt lat="49.87724" lon="2.39934">
        <ele>54.5</ele>
        <time>2022-04-13T12:05:54Z</time>
      </trkpt>
      <trkpt lat="49.87726" lon="2.39934">
        <ele>54.5</ele>
        <time>2022-04-13T12:05:55Z</time>
      </trkpt>
      <trkpt lat="49.87727" lon="2.39934">
        <ele>54.4</ele>
        <time>2022-04-13T12:05:56Z</time>
      </trkpt>
      <trkpt lat="49.87728" lon="2.39935">
        <ele>54.4</ele>
        <time>2022-04-13T12:05:57Z</time>
      </trkpt>
      <trkpt lat="49.87729" lon="2.39935">
        <ele>54.3</ele>
        <time>2022-04-13T12:05:58Z</time>
      </trkpt>
      <trkpt lat="49.87731" lon="2.39936">
        <ele>54.3</ele>
        <time>2022-04-13T12:05:59Z</time>
      </trkpt>
      <trkpt lat="49.87732" lon="2.39936">
        <ele>54.2</ele>
        <time>2022-04-13T12:06:00Z</time>
      </trkpt>
      <trkpt lat="49.87733" lon="2.39936">
        <ele>54.2</ele>
        <time>2022-04-13T12:06:01Z</time>
      </trkpt>
      <trkpt lat="49.87734" lon="2.39937">
        <ele>54.2</ele>
        <time>2022-04-13T12:06:02Z</time>
      </trkpt>
      <trkpt lat="49.87735" lon="2.39937">
        <ele>54.1</ele>
        <time>2022-04-13T12:06:03Z</time>
      </trkpt>
      <trkpt lat="49.87737" lon="2.39938">
        <ele>54.1</ele>
        <time>2022-04-13T12:06:05Z</time>
      </trkpt>
      <trkpt lat="49.87739" lon="2.39939">
        <ele>54</ele>
        <time>2022-04-13T12:06:06Z</time>
      </trkpt>
      <trkpt lat="49.87739" lon="2.3994">
        <ele>54</ele>
        <time>2022-04-13T12:06:07Z</time>
      </trkpt>
      <trkpt lat="49.8774" lon="2.3994">
        <ele>53.9</ele>
        <time>2022-04-13T12:06:08Z</time>
      </trkpt>
      <trkpt lat="49.87741" lon="2.3994">
        <ele>53.9</ele>
        <time>2022-04-13T12:06:09Z</time>
      </trkpt>
      <trkpt lat="49.87742" lon="2.39941">
        <ele>53.9</ele>
        <time>2022-04-13T12:06:10Z</time>
      </trkpt>
      <trkpt lat="49.87743" lon="2.39941">
        <ele>53.8</ele>
        <time>2022-04-13T12:06:11Z</time>
      </trkpt>
      <trkpt lat="49.87744" lon="2.39942">
        <ele>53.8</ele>
        <time>2022-04-13T12:06:12Z</time>
      </trkpt>
      <trkpt lat="49.87745" lon="2.39942">
        <ele>53.8</ele>
        <time>2022-04-13T12:06:13Z</time>
      </trkpt>
      <trkpt lat="49.87747" lon="2.39942">
        <ele>53.7</ele>
        <time>2022-04-13T12:06:14Z</time>
      </trkpt>
      <trkpt lat="49.87748" lon="2.39943">
        <ele>53.7</ele>
        <time>2022-04-13T12:06:15Z</time>
      </trkpt>
      <trkpt lat="49.87749" lon="2.39944">
        <ele>53.6</ele>
        <time>2022-04-13T12:06:16Z</time>
      </trkpt>
      <trkpt lat="49.8775" lon="2.39944">
        <ele>53.6</ele>
        <time>2022-04-13T12:06:18Z</time>
      </trkpt>
      <trkpt lat="49.87752" lon="2.39945">
        <ele>53.5</ele>
        <time>2022-04-13T12:06:19Z</time>
      </trkpt>
      <trkpt lat="49.87753" lon="2.39945">
        <ele>53.5</ele>
        <time>2022-04-13T12:06:20Z</time>
      </trkpt>
      <trkpt lat="49.87754" lon="2.39946">
        <ele>53.4</ele>
        <time>2022-04-13T12:06:21Z</time>
      </trkpt>
      <trkpt lat="49.87756" lon="2.39947">
        <ele>53.4</ele>
        <time>2022-04-13T12:06:22Z</time>
      </trkpt>
      <trkpt lat="49.87758" lon="2.39948">
        <ele>53.3</ele>
        <time>2022-04-13T12:06:23Z</time>
      </trkpt>
      <trkpt lat="49.87759" lon="2.39948">
        <ele>53.2</ele>
        <time>2022-04-13T12:06:24Z</time>
      </trkpt>
      <trkpt lat="49.8776" lon="2.39949">
        <ele>53.2</ele>
        <time>2022-04-13T12:06:25Z</time>
      </trkpt>
      <trkpt lat="49.87761" lon="2.3995">
        <ele>53.2</ele>
        <time>2022-04-13T12:06:26Z</time>
      </trkpt>
      <trkpt lat="49.87762" lon="2.3995">
        <ele>53.1</ele>
        <time>2022-04-13T12:06:27Z</time>
      </trkpt>
      <trkpt lat="49.87763" lon="2.39951">
        <ele>53.1</ele>
        <time>2022-04-13T12:06:28Z</time>
      </trkpt>
      <trkpt lat="49.87765" lon="2.39951">
        <ele>53</ele>
        <time>2022-04-13T12:06:29Z</time>
      </trkpt>
      <trkpt lat="49.87766" lon="2.39951">
        <ele>53</ele>
        <time>2022-04-13T12:06:31Z</time>
      </trkpt>
      <trkpt lat="49.87767" lon="2.39952">
        <ele>52.9</ele>
        <time>2022-04-13T12:06:32Z</time>
      </trkpt>
      <trkpt lat="49.87768" lon="2.39953">
        <ele>52.9</ele>
        <time>2022-04-13T12:06:33Z</time>
      </trkpt>
      <trkpt lat="49.8777" lon="2.39954">
        <ele>52.8</ele>
        <time>2022-04-13T12:06:34Z</time>
      </trkpt>
      <trkpt lat="49.87771" lon="2.39954">
        <ele>52.7</ele>
        <time>2022-04-13T12:06:35Z</time>
      </trkpt>
      <trkpt lat="49.87772" lon="2.39955">
        <ele>52.7</ele>
        <time>2022-04-13T12:06:36Z</time>
      </trkpt>
      <trkpt lat="49.87774" lon="2.39955">
        <ele>52.6</ele>
        <time>2022-04-13T12:06:38Z</time>
      </trkpt>
      <trkpt lat="49.87775" lon="2.39955">
        <ele>52.6</ele>
        <time>2022-04-13T12:06:39Z</time>
      </trkpt>
      <trkpt lat="49.87776" lon="2.39956">
        <ele>52.6</ele>
        <time>2022-04-13T12:06:40Z</time>
      </trkpt>
      <trkpt lat="49.87777" lon="2.39956">
        <ele>52.5</ele>
        <time>2022-04-13T12:06:41Z</time>
      </trkpt>
      <trkpt lat="49.87777" lon="2.39956">
        <ele>52.5</ele>
        <time>2022-04-13T12:06:42Z</time>
      </trkpt>
      <trkpt lat="49.87778" lon="2.39957">
        <ele>52.5</ele>
        <time>2022-04-13T12:06:43Z</time>
      </trkpt>
      <trkpt lat="49.87778" lon="2.39957">
        <ele>52.5</ele>
        <time>2022-04-13T12:06:44Z</time>
      </trkpt>
      <trkpt lat="49.87779" lon="2.39957">
        <ele>52.4</ele>
        <time>2022-04-13T12:06:45Z</time>
      </trkpt>
      <trkpt lat="49.8778" lon="2.39957">
        <ele>52.4</ele>
        <time>2022-04-13T12:06:46Z</time>
      </trkpt>
      <trkpt lat="49.8778" lon="2.39957">
        <ele>52.4</ele>
        <time>2022-04-13T12:06:47Z</time>
      </trkpt>
      <trkpt lat="49.87781" lon="2.39957">
        <ele>52.4</ele>
        <time>2022-04-13T12:06:48Z</time>
      </trkpt>
      <trkpt lat="49.87781" lon="2.39956">
        <ele>52.4</ele>
        <time>2022-04-13T12:06:49Z</time>
      </trkpt>
      <trkpt lat="49.87781" lon="2.39956">
        <ele>52.4</ele>
        <time>2022-04-13T12:06:50Z</time>
      </trkpt>
      <trkpt lat="49.87782" lon="2.39956">
        <ele>52.3</ele>
        <time>2022-04-13T12:06:52Z</time>
      </trkpt>
      <trkpt lat="49.87782" lon="2.39956">
        <ele>52.3</ele>
        <time>2022-04-13T12:06:53Z</time>
      </trkpt>
      <trkpt lat="49.87784" lon="2.39956">
        <ele>52.2</ele>
        <time>2022-04-13T12:06:54Z</time>
      </trkpt>
      <trkpt lat="49.87785" lon="2.39956">
        <ele>52.2</ele>
        <time>2022-04-13T12:06:55Z</time>
      </trkpt>
      <trkpt lat="49.87786" lon="2.39956">
        <ele>52.2</ele>
        <time>2022-04-13T12:06:56Z</time>
      </trkpt>
      <trkpt lat="49.87788" lon="2.39956">
        <ele>52.1</ele>
        <time>2022-04-13T12:06:57Z</time>
      </trkpt>
      <trkpt lat="49.87789" lon="2.39956">
        <ele>52</ele>
        <time>2022-04-13T12:06:59Z</time>
      </trkpt>
      <trkpt lat="49.8779" lon="2.39956">
        <ele>52</ele>
        <time>2022-04-13T12:07:00Z</time>
      </trkpt>
      <trkpt lat="49.87791" lon="2.39956">
        <ele>52</ele>
        <time>2022-04-13T12:07:01Z</time>
      </trkpt>
      <trkpt lat="49.87793" lon="2.39955">
        <ele>51.9</ele>
        <time>2022-04-13T12:07:02Z</time>
      </trkpt>
      <trkpt lat="49.87793" lon="2.39955">
        <ele>51.9</ele>
        <time>2022-04-13T12:07:03Z</time>
      </trkpt>
      <trkpt lat="49.87794" lon="2.39954">
        <ele>51.8</ele>
        <time>2022-04-13T12:07:04Z</time>
      </trkpt>
      <trkpt lat="49.87795" lon="2.39954">
        <ele>51.8</ele>
        <time>2022-04-13T12:07:05Z</time>
      </trkpt>
      <trkpt lat="49.87796" lon="2.39953">
        <ele>51.8</ele>
        <time>2022-04-13T12:07:06Z</time>
      </trkpt>
      <trkpt lat="49.87798" lon="2.39953">
        <ele>51.7</ele>
        <time>2022-04-13T12:07:07Z</time>
      </trkpt>
      <trkpt lat="49.87799" lon="2.39952">
        <ele>51.7</ele>
        <time>2022-04-13T12:07:08Z</time>
      </trkpt>
      <trkpt lat="49.878" lon="2.39951">
        <ele>51.6</ele>
        <time>2022-04-13T12:07:09Z</time>
      </trkpt>
      <trkpt lat="49.87801" lon="2.3995">
        <ele>51.6</ele>
        <time>2022-04-13T12:07:10Z</time>
      </trkpt>
      <trkpt lat="49.87803" lon="2.3995">
        <ele>51.5</ele>
        <time>2022-04-13T12:07:12Z</time>
      </trkpt>
      <trkpt lat="49.87803" lon="2.39949">
        <ele>51.5</ele>
        <time>2022-04-13T12:07:13Z</time>
      </trkpt>
      <trkpt lat="49.87804" lon="2.39949">
        <ele>51.4</ele>
        <time>2022-04-13T12:07:14Z</time>
      </trkpt>
      <trkpt lat="49.87805" lon="2.39948">
        <ele>51.4</ele>
        <time>2022-04-13T12:07:15Z</time>
      </trkpt>
      <trkpt lat="49.87805" lon="2.39948">
        <ele>51.4</ele>
        <time>2022-04-13T12:07:16Z</time>
      </trkpt>
      <trkpt lat="49.87805" lon="2.39947">
        <ele>51.4</ele>
        <time>2022-04-13T12:07:17Z</time>
      </trkpt>
      <trkpt lat="49.87806" lon="2.39947">
        <ele>51.3</ele>
        <time>2022-04-13T12:07:18Z</time>
      </trkpt>
      <trkpt lat="49.87808" lon="2.39946">
        <ele>51.3</ele>
        <time>2022-04-13T12:07:19Z</time>
      </trkpt>
      <trkpt lat="49.87809" lon="2.39946">
        <ele>51.2</ele>
        <time>2022-04-13T12:07:20Z</time>
      </trkpt>
      <trkpt lat="49.87811" lon="2.39946">
        <ele>51.2</ele>
        <time>2022-04-13T12:07:21Z</time>
      </trkpt>
      <trkpt lat="49.87813" lon="2.39946">
        <ele>51.1</ele>
        <time>2022-04-13T12:07:22Z</time>
      </trkpt>
      <trkpt lat="49.87816" lon="2.39945">
        <ele>51</ele>
        <time>2022-04-13T12:07:23Z</time>
      </trkpt>
      <trkpt lat="49.87817" lon="2.39945">
        <ele>50.9</ele>
        <time>2022-04-13T12:07:24Z</time>
      </trkpt>
      <trkpt lat="49.8782" lon="2.39945">
        <ele>50.8</ele>
        <time>2022-04-13T12:07:25Z</time>
      </trkpt>
      <trkpt lat="49.87821" lon="2.39945">
        <ele>50.8</ele>
        <time>2022-04-13T12:07:26Z</time>
      </trkpt>
      <trkpt lat="49.87825" lon="2.39945">
        <ele>50.7</ele>
        <time>2022-04-13T12:07:28Z</time>
      </trkpt>
      <trkpt lat="49.87825" lon="2.39945">
        <ele>50.6</ele>
        <time>2022-04-13T12:07:29Z</time>
      </trkpt>
      <trkpt lat="49.87828" lon="2.39947">
        <ele>50.5</ele>
        <time>2022-04-13T12:07:30Z</time>
      </trkpt>
      <trkpt lat="49.87829" lon="2.39948">
        <ele>50.5</ele>
        <time>2022-04-13T12:07:31Z</time>
      </trkpt>
      <trkpt lat="49.87831" lon="2.39948">
        <ele>50.4</ele>
        <time>2022-04-13T12:07:32Z</time>
      </trkpt>
      <trkpt lat="49.87833" lon="2.39948">
        <ele>50.4</ele>
        <time>2022-04-13T12:07:33Z</time>
      </trkpt>
      <trkpt lat="49.87834" lon="2.39948">
        <ele>50.3</ele>
        <time>2022-04-13T12:07:34Z</time>
      </trkpt>
      <trkpt lat="49.87836" lon="2.39948">
        <ele>50.3</ele>
        <time>2022-04-13T12:07:35Z</time>
      </trkpt>
      <trkpt lat="49.87839" lon="2.39948">
        <ele>50.2</ele>
        <time>2022-04-13T12:07:37Z</time>
      </trkpt>
      <trkpt lat="49.8784" lon="2.39948">
        <ele>50.1</ele>
        <time>2022-04-13T12:07:39Z</time>
      </trkpt>
      <trkpt lat="49.87842" lon="2.39948">
        <ele>50</ele>
        <time>2022-04-13T12:07:40Z</time>
      </trkpt>
      <trkpt lat="49.87845" lon="2.39949">
        <ele>49.9</ele>
        <time>2022-04-13T12:07:41Z</time>
      </trkpt>
      <trkpt lat="49.87846" lon="2.39949">
        <ele>49.9</ele>
        <time>2022-04-13T12:07:42Z</time>
      </trkpt>
      <trkpt lat="49.87848" lon="2.39949">
        <ele>49.9</ele>
        <time>2022-04-13T12:07:43Z</time>
      </trkpt>
      <trkpt lat="49.87849" lon="2.3995">
        <ele>49.8</ele>
        <time>2022-04-13T12:07:44Z</time>
      </trkpt>
      <trkpt lat="49.87851" lon="2.3995">
        <ele>49.7</ele>
        <time>2022-04-13T12:07:46Z</time>
      </trkpt>
      <trkpt lat="49.87852" lon="2.39951">
        <ele>49.6</ele>
        <time>2022-04-13T12:07:47Z</time>
      </trkpt>
      <trkpt lat="49.87854" lon="2.39951">
        <ele>49.6</ele>
        <time>2022-04-13T12:07:48Z</time>
      </trkpt>
      <trkpt lat="49.87855" lon="2.39951">
        <ele>49.5</ele>
        <time>2022-04-13T12:07:49Z</time>
      </trkpt>
      <trkpt lat="49.87856" lon="2.39952">
        <ele>49.4</ele>
        <time>2022-04-13T12:07:50Z</time>
      </trkpt>
      <trkpt lat="49.87858" lon="2.39952">
        <ele>49.4</ele>
        <time>2022-04-13T12:07:51Z</time>
      </trkpt>
      <trkpt lat="49.87859" lon="2.39952">
        <ele>49.3</ele>
        <time>2022-04-13T12:07:53Z</time>
      </trkpt>
      <trkpt lat="49.8786" lon="2.39952">
        <ele>49.3</ele>
        <time>2022-04-13T12:07:54Z</time>
      </trkpt>
      <trkpt lat="49.87861" lon="2.39953">
        <ele>49.2</ele>
        <time>2022-04-13T12:07:55Z</time>
      </trkpt>
      <trkpt lat="49.87863" lon="2.39952">
        <ele>49.1</ele>
        <time>2022-04-13T12:07:56Z</time>
      </trkpt>
      <trkpt lat="49.87864" lon="2.39952">
        <ele>49.1</ele>
        <time>2022-04-13T12:07:57Z</time>
      </trkpt>
      <trkpt lat="49.87865" lon="2.39952">
        <ele>49</ele>
        <time>2022-04-13T12:07:58Z</time>
      </trkpt>
      <trkpt lat="49.87868" lon="2.39953">
        <ele>48.9</ele>
        <time>2022-04-13T12:07:59Z</time>
      </trkpt>
      <trkpt lat="49.87868" lon="2.39953">
        <ele>48.9</ele>
        <time>2022-04-13T12:08:00Z</time>
      </trkpt>
      <trkpt lat="49.87869" lon="2.39953">
        <ele>48.8</ele>
        <time>2022-04-13T12:08:01Z</time>
      </trkpt>
      <trkpt lat="49.8787" lon="2.39954">
        <ele>48.8</ele>
        <time>2022-04-13T12:08:02Z</time>
      </trkpt>
      <trkpt lat="49.87871" lon="2.39954">
        <ele>48.7</ele>
        <time>2022-04-13T12:08:03Z</time>
      </trkpt>
      <trkpt lat="49.87872" lon="2.39955">
        <ele>48.7</ele>
        <time>2022-04-13T12:08:04Z</time>
      </trkpt>
      <trkpt lat="49.87874" lon="2.39955">
        <ele>48.6</ele>
        <time>2022-04-13T12:08:06Z</time>
      </trkpt>
      <trkpt lat="49.87875" lon="2.39956">
        <ele>48.5</ele>
        <time>2022-04-13T12:08:07Z</time>
      </trkpt>
      <trkpt lat="49.87877" lon="2.39956">
        <ele>48.4</ele>
        <time>2022-04-13T12:08:09Z</time>
      </trkpt>
      <trkpt lat="49.87878" lon="2.39957">
        <ele>48.4</ele>
        <time>2022-04-13T12:08:10Z</time>
      </trkpt>
      <trkpt lat="49.87879" lon="2.39958">
        <ele>48.3</ele>
        <time>2022-04-13T12:08:11Z</time>
      </trkpt>
      <trkpt lat="49.8788" lon="2.39958">
        <ele>48.3</ele>
        <time>2022-04-13T12:08:12Z</time>
      </trkpt>
      <trkpt lat="49.87881" lon="2.39959">
        <ele>48.3</ele>
        <time>2022-04-13T12:08:13Z</time>
      </trkpt>
      <trkpt lat="49.87882" lon="2.3996">
        <ele>48.2</ele>
        <time>2022-04-13T12:08:14Z</time>
      </trkpt>
      <trkpt lat="49.87883" lon="2.39961">
        <ele>48.2</ele>
        <time>2022-04-13T12:08:15Z</time>
      </trkpt>
      <trkpt lat="49.87883" lon="2.39961">
        <ele>48.1</ele>
        <time>2022-04-13T12:08:16Z</time>
      </trkpt>
      <trkpt lat="49.87885" lon="2.39963">
        <ele>48</ele>
        <time>2022-04-13T12:08:17Z</time>
      </trkpt>
      <trkpt lat="49.87886" lon="2.39964">
        <ele>48</ele>
        <time>2022-04-13T12:08:18Z</time>
      </trkpt>
      <trkpt lat="49.87887" lon="2.39965">
        <ele>47.9</ele>
        <time>2022-04-13T12:08:19Z</time>
      </trkpt>
      <trkpt lat="49.87888" lon="2.39966">
        <ele>47.9</ele>
        <time>2022-04-13T12:08:20Z</time>
      </trkpt>
      <trkpt lat="49.87889" lon="2.39967">
        <ele>47.8</ele>
        <time>2022-04-13T12:08:22Z</time>
      </trkpt>
      <trkpt lat="49.8789" lon="2.39968">
        <ele>47.7</ele>
        <time>2022-04-13T12:08:23Z</time>
      </trkpt>
      <trkpt lat="49.87891" lon="2.3997">
        <ele>47.6</ele>
        <time>2022-04-13T12:08:24Z</time>
      </trkpt>
      <trkpt lat="49.87893" lon="2.39971">
        <ele>47.5</ele>
        <time>2022-04-13T12:08:25Z</time>
      </trkpt>
      <trkpt lat="49.87894" lon="2.39973">
        <ele>47.4</ele>
        <time>2022-04-13T12:08:26Z</time>
      </trkpt>
      <trkpt lat="49.87895" lon="2.39973">
        <ele>47.4</ele>
        <time>2022-04-13T12:08:27Z</time>
      </trkpt>
      <trkpt lat="49.87897" lon="2.39974">
        <ele>47.3</ele>
        <time>2022-04-13T12:08:28Z</time>
      </trkpt>
      <trkpt lat="49.87898" lon="2.39975">
        <ele>47.2</ele>
        <time>2022-04-13T12:08:30Z</time>
      </trkpt>
      <trkpt lat="49.87899" lon="2.39976">
        <ele>47.1</ele>
        <time>2022-04-13T12:08:31Z</time>
      </trkpt>
      <trkpt lat="49.879" lon="2.39976">
        <ele>47.1</ele>
        <time>2022-04-13T12:08:32Z</time>
      </trkpt>
      <trkpt lat="49.87901" lon="2.39976">
        <ele>47</ele>
        <time>2022-04-13T12:08:33Z</time>
      </trkpt>
      <trkpt lat="49.87903" lon="2.39976">
        <ele>46.9</ele>
        <time>2022-04-13T12:08:34Z</time>
      </trkpt>
      <trkpt lat="49.87904" lon="2.39975">
        <ele>46.8</ele>
        <time>2022-04-13T12:08:35Z</time>
      </trkpt>
      <trkpt lat="49.87905" lon="2.39975">
        <ele>46.8</ele>
        <time>2022-04-13T12:08:36Z</time>
      </trkpt>
      <trkpt lat="49.87906" lon="2.39974">
        <ele>46.7</ele>
        <time>2022-04-13T12:08:37Z</time>
      </trkpt>
      <trkpt lat="49.87907" lon="2.39973">
        <ele>46.6</ele>
        <time>2022-04-13T12:08:38Z</time>
      </trkpt>
      <trkpt lat="49.87909" lon="2.39972">
        <ele>46.5</ele>
        <time>2022-04-13T12:08:39Z</time>
      </trkpt>
      <trkpt lat="49.8791" lon="2.3997">
        <ele>46.4</ele>
        <time>2022-04-13T12:08:40Z</time>
      </trkpt>
      <trkpt lat="49.87911" lon="2.39969">
        <ele>46.3</ele>
        <time>2022-04-13T12:08:41Z</time>
      </trkpt>
      <trkpt lat="49.87912" lon="2.39968">
        <ele>46.2</ele>
        <time>2022-04-13T12:08:42Z</time>
      </trkpt>
      <trkpt lat="49.87913" lon="2.39966">
        <ele>46.1</ele>
        <time>2022-04-13T12:08:43Z</time>
      </trkpt>
      <trkpt lat="49.87914" lon="2.39964">
        <ele>46</ele>
        <time>2022-04-13T12:08:44Z</time>
      </trkpt>
      <trkpt lat="49.87915" lon="2.39963">
        <ele>45.9</ele>
        <time>2022-04-13T12:08:45Z</time>
      </trkpt>
      <trkpt lat="49.87916" lon="2.39961">
        <ele>45.8</ele>
        <time>2022-04-13T12:08:46Z</time>
      </trkpt>
      <trkpt lat="49.87916" lon="2.39959">
        <ele>45.7</ele>
        <time>2022-04-13T12:08:48Z</time>
      </trkpt>
      <trkpt lat="49.87917" lon="2.39956">
        <ele>45.5</ele>
        <time>2022-04-13T12:08:49Z</time>
      </trkpt>
      <trkpt lat="49.87917" lon="2.39955">
        <ele>45.5</ele>
        <time>2022-04-13T12:08:50Z</time>
      </trkpt>
      <trkpt lat="49.87917" lon="2.39953">
        <ele>45.4</ele>
        <time>2022-04-13T12:08:51Z</time>
      </trkpt>
      <trkpt lat="49.87918" lon="2.3995">
        <ele>45.2</ele>
        <time>2022-04-13T12:08:52Z</time>
      </trkpt>
      <trkpt lat="49.87918" lon="2.39948">
        <ele>45.2</ele>
        <time>2022-04-13T12:08:53Z</time>
      </trkpt>
      <trkpt lat="49.87918" lon="2.39947">
        <ele>45.1</ele>
        <time>2022-04-13T12:08:54Z</time>
      </trkpt>
      <trkpt lat="49.87918" lon="2.39945">
        <ele>44.9</ele>
        <time>2022-04-13T12:08:55Z</time>
      </trkpt>
      <trkpt lat="49.87919" lon="2.39943">
        <ele>44.8</ele>
        <time>2022-04-13T12:08:56Z</time>
      </trkpt>
      <trkpt lat="49.87919" lon="2.39941">
        <ele>44.6</ele>
        <time>2022-04-13T12:08:57Z</time>
      </trkpt>
      <trkpt lat="49.8792" lon="2.39939">
        <ele>44.4</ele>
        <time>2022-04-13T12:08:58Z</time>
      </trkpt>
      <trkpt lat="49.8792" lon="2.39937">
        <ele>44.3</ele>
        <time>2022-04-13T12:08:59Z</time>
      </trkpt>
      <trkpt lat="49.8792" lon="2.39934">
        <ele>44.1</ele>
        <time>2022-04-13T12:09:01Z</time>
      </trkpt>
      <trkpt lat="49.8792" lon="2.39932">
        <ele>44</ele>
        <time>2022-04-13T12:09:02Z</time>
      </trkpt>
      <trkpt lat="49.8792" lon="2.39929">
        <ele>43.8</ele>
        <time>2022-04-13T12:09:03Z</time>
      </trkpt>
      <trkpt lat="49.8792" lon="2.39927">
        <ele>43.6</ele>
        <time>2022-04-13T12:09:04Z</time>
      </trkpt>
      <trkpt lat="49.87921" lon="2.39925">
        <ele>43.4</ele>
        <time>2022-04-13T12:09:06Z</time>
      </trkpt>
      <trkpt lat="49.87921" lon="2.39923">
        <ele>43.3</ele>
        <time>2022-04-13T12:09:07Z</time>
      </trkpt>
      <trkpt lat="49.87921" lon="2.3992">
        <ele>43.1</ele>
        <time>2022-04-13T12:09:08Z</time>
      </trkpt>
      <trkpt lat="49.8792" lon="2.39917">
        <ele>42.8</ele>
        <time>2022-04-13T12:09:09Z</time>
      </trkpt>
      <trkpt lat="49.8792" lon="2.39915">
        <ele>42.7</ele>
        <time>2022-04-13T12:09:10Z</time>
      </trkpt>
      <trkpt lat="49.87921" lon="2.39912">
        <ele>42.4</ele>
        <time>2022-04-13T12:09:12Z</time>
      </trkpt>
      <trkpt lat="49.87921" lon="2.3991">
        <ele>42.2</ele>
        <time>2022-04-13T12:09:13Z</time>
      </trkpt>
      <trkpt lat="49.87921" lon="2.39907">
        <ele>42</ele>
        <time>2022-04-13T12:09:14Z</time>
      </trkpt>
      <trkpt lat="49.87921" lon="2.39904">
        <ele>41.8</ele>
        <time>2022-04-13T12:09:15Z</time>
      </trkpt>
      <trkpt lat="49.87921" lon="2.39902">
        <ele>41.6</ele>
        <time>2022-04-13T12:09:16Z</time>
      </trkpt>
      <trkpt lat="49.87922" lon="2.399">
        <ele>41.5</ele>
        <time>2022-04-13T12:09:17Z</time>
      </trkpt>
      <trkpt lat="49.87922" lon="2.39898">
        <ele>41.3</ele>
        <time>2022-04-13T12:09:18Z</time>
      </trkpt>
      <trkpt lat="49.87922" lon="2.39896">
        <ele>41.2</ele>
        <time>2022-04-13T12:09:19Z</time>
      </trkpt>
      <trkpt lat="49.87922" lon="2.39894">
        <ele>41</ele>
        <time>2022-04-13T12:09:20Z</time>
      </trkpt>
      <trkpt lat="49.87923" lon="2.39892">
        <ele>40.8</ele>
        <time>2022-04-13T12:09:21Z</time>
      </trkpt>
      <trkpt lat="49.87923" lon="2.39889">
        <ele>40.7</ele>
        <time>2022-04-13T12:09:22Z</time>
      </trkpt>
      <trkpt lat="49.87923" lon="2.39887">
        <ele>40.5</ele>
        <time>2022-04-13T12:09:24Z</time>
      </trkpt>
      <trkpt lat="49.87924" lon="2.39885">
        <ele>40.3</ele>
        <time>2022-04-13T12:09:25Z</time>
      </trkpt>
      <trkpt lat="49.87924" lon="2.39882">
        <ele>40.1</ele>
        <time>2022-04-13T12:09:26Z</time>
      </trkpt>
      <trkpt lat="49.87925" lon="2.3988">
        <ele>40</ele>
        <time>2022-04-13T12:09:27Z</time>
      </trkpt>
      <trkpt lat="49.87926" lon="2.39876">
        <ele>39.7</ele>
        <time>2022-04-13T12:09:29Z</time>
      </trkpt>
      <trkpt lat="49.87926" lon="2.39874">
        <ele>39.5</ele>
        <time>2022-04-13T12:09:30Z</time>
      </trkpt>
      <trkpt lat="49.87927" lon="2.39872">
        <ele>39.4</ele>
        <time>2022-04-13T12:09:31Z</time>
      </trkpt>
      <trkpt lat="49.87928" lon="2.39869">
        <ele>39.1</ele>
        <time>2022-04-13T12:09:32Z</time>
      </trkpt>
      <trkpt lat="49.87928" lon="2.39868">
        <ele>39</ele>
        <time>2022-04-13T12:09:33Z</time>
      </trkpt>
      <trkpt lat="49.87928" lon="2.39866">
        <ele>38.9</ele>
        <time>2022-04-13T12:09:34Z</time>
      </trkpt>
      <trkpt lat="49.87929" lon="2.39864">
        <ele>38.8</ele>
        <time>2022-04-13T12:09:35Z</time>
      </trkpt>
      <trkpt lat="49.87929" lon="2.39862">
        <ele>38.3</ele>
        <time>2022-04-13T12:09:36Z</time>
      </trkpt>
      <trkpt lat="49.8793" lon="2.39859">
        <ele>38.1</ele>
        <time>2022-04-13T12:09:37Z</time>
      </trkpt>
      <trkpt lat="49.87931" lon="2.39858">
        <ele>38</ele>
        <time>2022-04-13T12:09:38Z</time>
      </trkpt>
      <trkpt lat="49.87931" lon="2.39857">
        <ele>37.9</ele>
        <time>2022-04-13T12:09:39Z</time>
      </trkpt>
      <trkpt lat="49.87932" lon="2.39854">
        <ele>37.7</ele>
        <time>2022-04-13T12:09:41Z</time>
      </trkpt>
      <trkpt lat="49.87933" lon="2.39853">
        <ele>37.6</ele>
        <time>2022-04-13T12:09:42Z</time>
      </trkpt>
      <trkpt lat="49.87934" lon="2.39851">
        <ele>37.4</ele>
        <time>2022-04-13T12:09:43Z</time>
      </trkpt>
      <trkpt lat="49.87935" lon="2.3985">
        <ele>37.3</ele>
        <time>2022-04-13T12:09:44Z</time>
      </trkpt>
      <trkpt lat="49.87935" lon="2.39849">
        <ele>37.2</ele>
        <time>2022-04-13T12:09:45Z</time>
      </trkpt>
      <trkpt lat="49.87937" lon="2.39848">
        <ele>37</ele>
        <time>2022-04-13T12:09:46Z</time>
      </trkpt>
      <trkpt lat="49.87938" lon="2.39848">
        <ele>36.8</ele>
        <time>2022-04-13T12:09:47Z</time>
      </trkpt>
      <trkpt lat="49.87939" lon="2.39847">
        <ele>36.7</ele>
        <time>2022-04-13T12:09:48Z</time>
      </trkpt>
      <trkpt lat="49.8794" lon="2.39846">
        <ele>36.6</ele>
        <time>2022-04-13T12:09:49Z</time>
      </trkpt>
      <trkpt lat="49.87941" lon="2.39846">
        <ele>36.5</ele>
        <time>2022-04-13T12:09:50Z</time>
      </trkpt>
      <trkpt lat="49.87942" lon="2.39846">
        <ele>36.3</ele>
        <time>2022-04-13T12:09:51Z</time>
      </trkpt>
      <trkpt lat="49.87943" lon="2.39846">
        <ele>36.2</ele>
        <time>2022-04-13T12:09:53Z</time>
      </trkpt>
      <trkpt lat="49.87944" lon="2.39845">
        <ele>36.1</ele>
        <time>2022-04-13T12:09:54Z</time>
      </trkpt>
      <trkpt lat="49.87945" lon="2.39845">
        <ele>36</ele>
        <time>2022-04-13T12:09:55Z</time>
      </trkpt>
      <trkpt lat="49.87946" lon="2.39845">
        <ele>35.9</ele>
        <time>2022-04-13T12:09:56Z</time>
      </trkpt>
      <trkpt lat="49.87947" lon="2.39845">
        <ele>35.7</ele>
        <time>2022-04-13T12:09:57Z</time>
      </trkpt>
      <trkpt lat="49.87949" lon="2.39845">
        <ele>35.4</ele>
        <time>2022-04-13T12:09:58Z</time>
      </trkpt>
      <trkpt lat="49.8795" lon="2.39845">
        <ele>35.3</ele>
        <time>2022-04-13T12:09:59Z</time>
      </trkpt>
      <trkpt lat="49.87951" lon="2.39845">
        <ele>35.2</ele>
        <time>2022-04-13T12:10:00Z</time>
      </trkpt>
      <trkpt lat="49.87953" lon="2.39845">
        <ele>34.9</ele>
        <time>2022-04-13T12:10:01Z</time>
      </trkpt>
      <trkpt lat="49.87954" lon="2.39845">
        <ele>34.8</ele>
        <time>2022-04-13T12:10:02Z</time>
      </trkpt>
      <trkpt lat="49.87954" lon="2.39845">
        <ele>34.7</ele>
        <time>2022-04-13T12:10:03Z</time>
      </trkpt>
      <trkpt lat="49.87956" lon="2.39844">
        <ele>34.4</ele>
        <time>2022-04-13T12:10:05Z</time>
      </trkpt>
      <trkpt lat="49.87957" lon="2.39844">
        <ele>34.3</ele>
        <time>2022-04-13T12:10:06Z</time>
      </trkpt>
      <trkpt lat="49.87958" lon="2.39844">
        <ele>34.2</ele>
        <time>2022-04-13T12:10:07Z</time>
      </trkpt>
      <trkpt lat="49.8796" lon="2.39843">
        <ele>33.9</ele>
        <time>2022-04-13T12:10:08Z</time>
      </trkpt>
      <trkpt lat="49.87961" lon="2.39842">
        <ele>33.8</ele>
        <time>2022-04-13T12:10:09Z</time>
      </trkpt>
      <trkpt lat="49.87962" lon="2.39841">
        <ele>33.7</ele>
        <time>2022-04-13T12:10:10Z</time>
      </trkpt>
      <trkpt lat="49.87963" lon="2.3984">
        <ele>33.5</ele>
        <time>2022-04-13T12:10:11Z</time>
      </trkpt>
      <trkpt lat="49.87964" lon="2.39839">
        <ele>33.3</ele>
        <time>2022-04-13T12:10:12Z</time>
      </trkpt>
      <trkpt lat="49.87966" lon="2.39838">
        <ele>33</ele>
        <time>2022-04-13T12:10:14Z</time>
      </trkpt>
      <trkpt lat="49.87967" lon="2.39835">
        <ele>32.8</ele>
        <time>2022-04-13T12:10:15Z</time>
      </trkpt>
      <trkpt lat="49.87967" lon="2.39833">
        <ele>32.6</ele>
        <time>2022-04-13T12:10:16Z</time>
      </trkpt>
      <trkpt lat="49.87968" lon="2.39832">
        <ele>32.4</ele>
        <time>2022-04-13T12:10:17Z</time>
      </trkpt>
      <trkpt lat="49.87969" lon="2.3983">
        <ele>32.2</ele>
        <time>2022-04-13T12:10:18Z</time>
      </trkpt>
      <trkpt lat="49.8797" lon="2.39829">
        <ele>32.1</ele>
        <time>2022-04-13T12:10:19Z</time>
      </trkpt>
      <trkpt lat="49.8797" lon="2.39828">
        <ele>32</ele>
        <time>2022-04-13T12:10:20Z</time>
      </trkpt>
      <trkpt lat="49.87971" lon="2.39827">
        <ele>31.9</ele>
        <time>2022-04-13T12:10:21Z</time>
      </trkpt>
      <trkpt lat="49.87971" lon="2.39826">
        <ele>31.8</ele>
        <time>2022-04-13T12:10:22Z</time>
      </trkpt>
      <trkpt lat="49.87972" lon="2.39825">
        <ele>31.7</ele>
        <time>2022-04-13T12:10:23Z</time>
      </trkpt>
      <trkpt lat="49.87973" lon="2.39824">
        <ele>31.6</ele>
        <time>2022-04-13T12:10:24Z</time>
      </trkpt>
      <trkpt lat="49.87974" lon="2.39822">
        <ele>31.4</ele>
        <time>2022-04-13T12:10:26Z</time>
      </trkpt>
      <trkpt lat="49.87974" lon="2.39821">
        <ele>31.3</ele>
        <time>2022-04-13T12:10:27Z</time>
      </trkpt>
      <trkpt lat="49.87975" lon="2.39819">
        <ele>31.2</ele>
        <time>2022-04-13T12:10:28Z</time>
      </trkpt>
      <trkpt lat="49.87975" lon="2.39818">
        <ele>31.1</ele>
        <time>2022-04-13T12:10:29Z</time>
      </trkpt>
      <trkpt lat="49.87976" lon="2.39817">
        <ele>31</ele>
        <time>2022-04-13T12:10:30Z</time>
      </trkpt>
      <trkpt lat="49.87977" lon="2.39816">
        <ele>30.8</ele>
        <time>2022-04-13T12:10:31Z</time>
      </trkpt>
      <trkpt lat="49.87977" lon="2.39814">
        <ele>30.7</ele>
        <time>2022-04-13T12:10:32Z</time>
      </trkpt>
      <trkpt lat="49.87978" lon="2.39813">
        <ele>30.6</ele>
        <time>2022-04-13T12:10:33Z</time>
      </trkpt>
      <trkpt lat="49.87979" lon="2.39811">
        <ele>30.4</ele>
        <time>2022-04-13T12:10:35Z</time>
      </trkpt>
      <trkpt lat="49.87979" lon="2.3981">
        <ele>30.3</ele>
        <time>2022-04-13T12:10:36Z</time>
      </trkpt>
      <trkpt lat="49.8798" lon="2.39808">
        <ele>30.2</ele>
        <time>2022-04-13T12:10:37Z</time>
      </trkpt>
      <trkpt lat="49.8798" lon="2.39807">
        <ele>30.1</ele>
        <time>2022-04-13T12:10:38Z</time>
      </trkpt>
      <trkpt lat="49.87981" lon="2.39805">
        <ele>30</ele>
        <time>2022-04-13T12:10:39Z</time>
      </trkpt>
      <trkpt lat="49.87982" lon="2.39803">
        <ele>29.8</ele>
        <time>2022-04-13T12:10:40Z</time>
      </trkpt>
      <trkpt lat="49.87982" lon="2.39801">
        <ele>29.7</ele>
        <time>2022-04-13T12:10:41Z</time>
      </trkpt>
      <trkpt lat="49.87983" lon="2.398">
        <ele>29.6</ele>
        <time>2022-04-13T12:10:42Z</time>
      </trkpt>
      <trkpt lat="49.87984" lon="2.39798">
        <ele>29.4</ele>
        <time>2022-04-13T12:10:43Z</time>
      </trkpt>
      <trkpt lat="49.87984" lon="2.39797">
        <ele>29.3</ele>
        <time>2022-04-13T12:10:44Z</time>
      </trkpt>
      <trkpt lat="49.87985" lon="2.39796">
        <ele>29.2</ele>
        <time>2022-04-13T12:10:46Z</time>
      </trkpt>
      <trkpt lat="49.87986" lon="2.39794">
        <ele>29.1</ele>
        <time>2022-04-13T12:10:47Z</time>
      </trkpt>
      <trkpt lat="49.87987" lon="2.39792">
        <ele>29</ele>
        <time>2022-04-13T12:10:48Z</time>
      </trkpt>
      <trkpt lat="49.87987" lon="2.39791">
        <ele>28.9</ele>
        <time>2022-04-13T12:10:49Z</time>
      </trkpt>
      <trkpt lat="49.87988" lon="2.3979">
        <ele>28.8</ele>
        <time>2022-04-13T12:10:50Z</time>
      </trkpt>
      <trkpt lat="49.87988" lon="2.39789">
        <ele>28.7</ele>
        <time>2022-04-13T12:10:51Z</time>
      </trkpt>
      <trkpt lat="49.87989" lon="2.39786">
        <ele>28.5</ele>
        <time>2022-04-13T12:10:53Z</time>
      </trkpt>
      <trkpt lat="49.8799" lon="2.39785">
        <ele>28.5</ele>
        <time>2022-04-13T12:10:54Z</time>
      </trkpt>
      <trkpt lat="49.8799" lon="2.39784">
        <ele>28.4</ele>
        <time>2022-04-13T12:10:55Z</time>
      </trkpt>
      <trkpt lat="49.87991" lon="2.39783">
        <ele>28.3</ele>
        <time>2022-04-13T12:10:56Z</time>
      </trkpt>
      <trkpt lat="49.87991" lon="2.39782">
        <ele>28.2</ele>
        <time>2022-04-13T12:10:57Z</time>
      </trkpt>
      <trkpt lat="49.87991" lon="2.39781">
        <ele>28.1</ele>
        <time>2022-04-13T12:10:59Z</time>
      </trkpt>
      <trkpt lat="49.87992" lon="2.39779">
        <ele>28</ele>
        <time>2022-04-13T12:11:00Z</time>
      </trkpt>
      <trkpt lat="49.87993" lon="2.39778">
        <ele>27.9</ele>
        <time>2022-04-13T12:11:01Z</time>
      </trkpt>
      <trkpt lat="49.87993" lon="2.39777">
        <ele>27.9</ele>
        <time>2022-04-13T12:11:02Z</time>
      </trkpt>
      <trkpt lat="49.87994" lon="2.39775">
        <ele>27.8</ele>
        <time>2022-04-13T12:11:03Z</time>
      </trkpt>
      <trkpt lat="49.87994" lon="2.39774">
        <ele>27.7</ele>
        <time>2022-04-13T12:11:04Z</time>
      </trkpt>
      <trkpt lat="49.87995" lon="2.39772">
        <ele>27.6</ele>
        <time>2022-04-13T12:11:05Z</time>
      </trkpt>
      <trkpt lat="49.87995" lon="2.39771">
        <ele>27.5</ele>
        <time>2022-04-13T12:11:06Z</time>
      </trkpt>
      <trkpt lat="49.87995" lon="2.39769">
        <ele>27.4</ele>
        <time>2022-04-13T12:11:08Z</time>
      </trkpt>
      <trkpt lat="49.87996" lon="2.39768">
        <ele>27.3</ele>
        <time>2022-04-13T12:11:09Z</time>
      </trkpt>
      <trkpt lat="49.87996" lon="2.39766">
        <ele>27.2</ele>
        <time>2022-04-13T12:11:10Z</time>
      </trkpt>
      <trkpt lat="49.87996" lon="2.39766">
        <ele>27.2</ele>
        <time>2022-04-13T12:11:11Z</time>
      </trkpt>
      <trkpt lat="49.87996" lon="2.39766">
        <ele>27.2</ele>
        <time>2022-04-13T12:11:13Z</time>
      </trkpt>
      <trkpt lat="49.87996" lon="2.39766">
        <ele>27.2</ele>
        <time>2022-04-13T12:11:14Z</time>
      </trkpt>
      <trkpt lat="49.87996" lon="2.39766">
        <ele>27.2</ele>
        <time>2022-04-13T12:11:15Z</time>
      </trkpt>
      <trkpt lat="49.87996" lon="2.39766">
        <ele>27.2</ele>
        <time>2022-04-13T12:11:16Z</time>
      </trkpt>
      <trkpt lat="49.87996" lon="2.39766">
        <ele>27.2</ele>
        <time>2022-04-13T12:11:17Z</time>
      </trkpt>
      <trkpt lat="49.87996" lon="2.39766">
        <ele>27.2</ele>
        <time>2022-04-13T12:11:18Z</time>
      </trkpt>
      <trkpt lat="49.87996" lon="2.39766">
        <ele>27.2</ele>
        <time>2022-04-13T12:11:19Z</time>
      </trkpt>
      <trkpt lat="49.87996" lon="2.39766">
        <ele>27.2</ele>
        <time>2022-04-13T12:11:20Z</time>
      </trkpt>
      <trkpt lat="49.87996" lon="2.39766">
        <ele>27.2</ele>
        <time>2022-04-13T12:11:21Z</time>
      </trkpt>
      <trkpt lat="49.87996" lon="2.39766">
        <ele>27.2</ele>
        <time>2022-04-13T12:11:22Z</time>
      </trkpt>
      <trkpt lat="49.87996" lon="2.39766">
        <ele>27.2</ele>
        <time>2022-04-13T12:11:23Z</time>
      </trkpt>
      <trkpt lat="49.87996" lon="2.39766">
        <ele>27.1</ele>
        <time>2022-04-13T12:11:24Z</time>
      </trkpt>
      <trkpt lat="49.87996" lon="2.39766">
        <ele>27.1</ele>
        <time>2022-04-13T12:11:25Z</time>
      </trkpt>
      <trkpt lat="49.87996" lon="2.39766">
        <ele>27.1</ele>
        <time>2022-04-13T12:11:26Z</time>
      </trkpt>
      <trkpt lat="49.87996" lon="2.39766">
        <ele>27.1</ele>
        <time>2022-04-13T12:11:27Z</time>
      </trkpt>
      <trkpt lat="49.87996" lon="2.39766">
        <ele>27.1</ele>
        <time>2022-04-13T12:11:28Z</time>
      </trkpt>
      <trkpt lat="49.87995" lon="2.39766">
        <ele>27.1</ele>
        <time>2022-04-13T12:11:29Z</time>
      </trkpt>
      <trkpt lat="49.87995" lon="2.39766">
        <ele>27.1</ele>
        <time>2022-04-13T12:11:30Z</time>
      </trkpt>
      <trkpt lat="49.87995" lon="2.39766">
        <ele>27.1</ele>
        <time>2022-04-13T12:11:31Z</time>
      </trkpt>
      <trkpt lat="49.87995" lon="2.39766">
        <ele>27.1</ele>
        <time>2022-04-13T12:11:32Z</time>
      </trkpt>
      <trkpt lat="49.87995" lon="2.39766">
        <ele>27.1</ele>
        <time>2022-04-13T12:11:33Z</time>
      </trkpt>
      <trkpt lat="49.87995" lon="2.39766">
        <ele>27.1</ele>
        <time>2022-04-13T12:11:34Z</time>
      </trkpt>
      <trkpt lat="49.87995" lon="2.39766">
        <ele>27.1</ele>
        <time>2022-04-13T12:11:35Z</time>
      </trkpt>
      <trkpt lat="49.87995" lon="2.39766">
        <ele>27.1</ele>
        <time>2022-04-13T12:11:36Z</time>
      </trkpt>
      <trkpt lat="49.87995" lon="2.39766">
        <ele>27.1</ele>
        <time>2022-04-13T12:11:37Z</time>
      </trkpt>
      <trkpt lat="49.87995" lon="2.39766">
        <ele>27.1</ele>
        <time>2022-04-13T12:11:38Z</time>
      </trkpt>
      <trkpt lat="49.87995" lon="2.39766">
        <ele>27.1</ele>
        <time>2022-04-13T12:11:39Z</time>
      </trkpt>
      <trkpt lat="49.87995" lon="2.39766">
        <ele>27.1</ele>
        <time>2022-04-13T12:11:40Z</time>
      </trkpt>
      <trkpt lat="49.87995" lon="2.39766">
        <ele>27.1</ele>
        <time>2022-04-13T12:11:41Z</time>
      </trkpt>
      <trkpt lat="49.87995" lon="2.39766">
        <ele>27.1</ele>
        <time>2022-04-13T12:11:42Z</time>
      </trkpt>
      <trkpt lat="49.87995" lon="2.39766">
        <ele>27.1</ele>
        <time>2022-04-13T12:11:43Z</time>
      </trkpt>
      <trkpt lat="49.87995" lon="2.39766">
        <ele>27.1</ele>
        <time>2022-04-13T12:11:44Z</time>
      </trkpt>
      <trkpt lat="49.87995" lon="2.39766">
        <ele>27.1</ele>
        <time>2022-04-13T12:11:45Z</time>
      </trkpt>
      <trkpt lat="49.87995" lon="2.39766">
        <ele>27.1</ele>
        <time>2022-04-13T12:11:46Z</time>
      </trkpt>
      <trkpt lat="49.87995" lon="2.39766">
        <ele>27.1</ele>
        <time>2022-04-13T12:11:47Z</time>
      </trkpt>
      <trkpt lat="49.87995" lon="2.39766">
        <ele>27.1</ele>
        <time>2022-04-13T12:11:48Z</time>
      </trkpt>
      <trkpt lat="49.87995" lon="2.39766">
        <ele>27.1</ele>
        <time>2022-04-13T12:11:49Z</time>
      </trkpt>
      <trkpt lat="49.87995" lon="2.39766">
        <ele>27.1</ele>
        <time>2022-04-13T12:11:50Z</time>
      </trkpt>
      <trkpt lat="49.87995" lon="2.39766">
        <ele>27.1</ele>
        <time>2022-04-13T12:11:51Z</time>
      </trkpt>
      <trkpt lat="49.87994" lon="2.39766">
        <ele>27</ele>
        <time>2022-04-13T12:11:52Z</time>
      </trkpt>
      <trkpt lat="49.87994" lon="2.39766">
        <ele>27</ele>
        <time>2022-04-13T12:11:53Z</time>
      </trkpt>
      <trkpt lat="49.87994" lon="2.39766">
        <ele>27</ele>
        <time>2022-04-13T12:11:54Z</time>
      </trkpt>
      <trkpt lat="49.87994" lon="2.39766">
        <ele>27</ele>
        <time>2022-04-13T12:11:55Z</time>
      </trkpt>
      <trkpt lat="49.87994" lon="2.39766">
        <ele>27</ele>
        <time>2022-04-13T12:11:56Z</time>
      </trkpt>
      <trkpt lat="49.87994" lon="2.39766">
        <ele>27</ele>
        <time>2022-04-13T12:11:57Z</time>
      </trkpt>
      <trkpt lat="49.87994" lon="2.39766">
        <ele>27</ele>
        <time>2022-04-13T12:11:58Z</time>
      </trkpt>
      <trkpt lat="49.87994" lon="2.39766">
        <ele>27</ele>
        <time>2022-04-13T12:11:59Z</time>
      </trkpt>
      <trkpt lat="49.87994" lon="2.39766">
        <ele>27</ele>
        <time>2022-04-13T12:12:00Z</time>
      </trkpt>
      <trkpt lat="49.87994" lon="2.39766">
        <ele>27</ele>
        <time>2022-04-13T12:12:01Z</time>
      </trkpt>
      <trkpt lat="49.87994" lon="2.39766">
        <ele>27</ele>
        <time>2022-04-13T12:12:02Z</time>
      </trkpt>
      <trkpt lat="49.87994" lon="2.39766">
        <ele>27</ele>
        <time>2022-04-13T12:12:03Z</time>
      </trkpt>
      <trkpt lat="49.87994" lon="2.39766">
        <ele>27</ele>
        <time>2022-04-13T12:12:04Z</time>
      </trkpt>
      <trkpt lat="49.87994" lon="2.39766">
        <ele>27</ele>
        <time>2022-04-13T12:12:05Z</time>
      </trkpt>
      <trkpt lat="49.87994" lon="2.39766">
        <ele>27</ele>
        <time>2022-04-13T12:12:06Z</time>
      </trkpt>
      <trkpt lat="49.87994" lon="2.39766">
        <ele>27</ele>
        <time>2022-04-13T12:12:07Z</time>
      </trkpt>
      <trkpt lat="49.87994" lon="2.39766">
        <ele>27</ele>
        <time>2022-04-13T12:12:08Z</time>
      </trkpt>
      <trkpt lat="49.87994" lon="2.39766">
        <ele>27</ele>
        <time>2022-04-13T12:12:09Z</time>
      </trkpt>
      <trkpt lat="49.87994" lon="2.39766">
        <ele>27</ele>
        <time>2022-04-13T12:12:10Z</time>
      </trkpt>
      <trkpt lat="49.87994" lon="2.39766">
        <ele>27</ele>
        <time>2022-04-13T12:12:11Z</time>
      </trkpt>
      <trkpt lat="49.87994" lon="2.39766">
        <ele>27</ele>
        <time>2022-04-13T12:12:12Z</time>
      </trkpt>
      <trkpt lat="49.87994" lon="2.39766">
        <ele>27</ele>
        <time>2022-04-13T12:12:13Z</time>
      </trkpt>
      <trkpt lat="49.87994" lon="2.39766">
        <ele>27</ele>
        <time>2022-04-13T12:12:14Z</time>
      </trkpt>
      <trkpt lat="49.87994" lon="2.39766">
        <ele>27</ele>
        <time>2022-04-13T12:12:15Z</time>
      </trkpt>
      <trkpt lat="49.87993" lon="2.39766">
        <ele>27</ele>
        <time>2022-04-13T12:12:16Z</time>
      </trkpt>
      <trkpt lat="49.87993" lon="2.39766">
        <ele>27</ele>
        <time>2022-04-13T12:12:17Z</time>
      </trkpt>
      <trkpt lat="49.87993" lon="2.39766">
        <ele>27</ele>
        <time>2022-04-13T12:12:18Z</time>
      </trkpt>
      <trkpt lat="49.87993" lon="2.39766">
        <ele>26.9</ele>
        <time>2022-04-13T12:12:19Z</time>
      </trkpt>
      <trkpt lat="49.87993" lon="2.39766">
        <ele>26.9</ele>
        <time>2022-04-13T12:12:20Z</time>
      </trkpt>
      <trkpt lat="49.87993" lon="2.39766">
        <ele>26.9</ele>
        <time>2022-04-13T12:12:21Z</time>
      </trkpt>
      <trkpt lat="49.87993" lon="2.39766">
        <ele>26.9</ele>
        <time>2022-04-13T12:12:22Z</time>
      </trkpt>
      <trkpt lat="49.87993" lon="2.39766">
        <ele>26.9</ele>
        <time>2022-04-13T12:12:23Z</time>
      </trkpt>
      <trkpt lat="49.87993" lon="2.39766">
        <ele>26.9</ele>
        <time>2022-04-13T12:12:24Z</time>
      </trkpt>
      <trkpt lat="49.87993" lon="2.39765">
        <ele>26.9</ele>
        <time>2022-04-13T12:12:25Z</time>
      </trkpt>
      <trkpt lat="49.87994" lon="2.39765">
        <ele>26.9</ele>
        <time>2022-04-13T12:12:26Z</time>
      </trkpt>
      <trkpt lat="49.87994" lon="2.39765">
        <ele>26.9</ele>
        <time>2022-04-13T12:12:27Z</time>
      </trkpt>
      <trkpt lat="49.87994" lon="2.39765">
        <ele>26.8</ele>
        <time>2022-04-13T12:12:28Z</time>
      </trkpt>
      <trkpt lat="49.87994" lon="2.39764">
        <ele>26.8</ele>
        <time>2022-04-13T12:12:29Z</time>
      </trkpt>
      <trkpt lat="49.87994" lon="2.39764">
        <ele>26.8</ele>
        <time>2022-04-13T12:12:30Z</time>
      </trkpt>
      <trkpt lat="49.87995" lon="2.39764">
        <ele>26.8</ele>
        <time>2022-04-13T12:12:31Z</time>
      </trkpt>
      <trkpt lat="49.87995" lon="2.39764">
        <ele>26.7</ele>
        <time>2022-04-13T12:12:32Z</time>
      </trkpt>
      <trkpt lat="49.87995" lon="2.39763">
        <ele>26.7</ele>
        <time>2022-04-13T12:12:34Z</time>
      </trkpt>
      <trkpt lat="49.87995" lon="2.39763">
        <ele>26.7</ele>
        <time>2022-04-13T12:12:35Z</time>
      </trkpt>
      <trkpt lat="49.87996" lon="2.39763">
        <ele>26.7</ele>
        <time>2022-04-13T12:12:36Z</time>
      </trkpt>
      <trkpt lat="49.87996" lon="2.39763">
        <ele>26.6</ele>
        <time>2022-04-13T12:12:38Z</time>
      </trkpt>
      <trkpt lat="49.87996" lon="2.39762">
        <ele>26.6</ele>
        <time>2022-04-13T12:12:39Z</time>
      </trkpt>
      <trkpt lat="49.87997" lon="2.3976">
        <ele>26.5</ele>
        <time>2022-04-13T12:12:40Z</time>
      </trkpt>
      <trkpt lat="49.87998" lon="2.39759">
        <ele>26.4</ele>
        <time>2022-04-13T12:12:41Z</time>
      </trkpt>
      <trkpt lat="49.87998" lon="2.39757">
        <ele>26.3</ele>
        <time>2022-04-13T12:12:42Z</time>
      </trkpt>
      <trkpt lat="49.87999" lon="2.39754">
        <ele>26.1</ele>
        <time>2022-04-13T12:12:43Z</time>
      </trkpt>
      <trkpt lat="49.88" lon="2.39751">
        <ele>26.1</ele>
        <time>2022-04-13T12:12:45Z</time>
      </trkpt>
      <trkpt lat="49.88001" lon="2.39748">
        <ele>26.1</ele>
        <time>2022-04-13T12:12:46Z</time>
      </trkpt>
      <trkpt lat="49.88002" lon="2.39746">
        <ele>26.1</ele>
        <time>2022-04-13T12:12:47Z</time>
      </trkpt>
      <trkpt lat="49.88004" lon="2.39743">
        <ele>26</ele>
        <time>2022-04-13T12:12:48Z</time>
      </trkpt>
      <trkpt lat="49.88004" lon="2.39741">
        <ele>26</ele>
        <time>2022-04-13T12:12:49Z</time>
      </trkpt>
      <trkpt lat="49.88005" lon="2.39737">
        <ele>26</ele>
        <time>2022-04-13T12:12:51Z</time>
      </trkpt>
      <trkpt lat="49.88006" lon="2.39736">
        <ele>26</ele>
        <time>2022-04-13T12:12:52Z</time>
      </trkpt>
      <trkpt lat="49.88006" lon="2.39732">
        <ele>26</ele>
        <time>2022-04-13T12:12:53Z</time>
      </trkpt>
      <trkpt lat="49.88006" lon="2.3973">
        <ele>26</ele>
        <time>2022-04-13T12:12:54Z</time>
      </trkpt>
      <trkpt lat="49.88007" lon="2.39728">
        <ele>26</ele>
        <time>2022-04-13T12:12:55Z</time>
      </trkpt>
      <trkpt lat="49.88007" lon="2.39725">
        <ele>26</ele>
        <time>2022-04-13T12:12:56Z</time>
      </trkpt>
      <trkpt lat="49.88007" lon="2.39723">
        <ele>25.9</ele>
        <time>2022-04-13T12:12:57Z</time>
      </trkpt>
      <trkpt lat="49.88007" lon="2.39721">
        <ele>25.9</ele>
        <time>2022-04-13T12:12:58Z</time>
      </trkpt>
      <trkpt lat="49.88007" lon="2.39719">
        <ele>25.9</ele>
        <time>2022-04-13T12:13:00Z</time>
      </trkpt>
      <trkpt lat="49.88006" lon="2.39719">
        <ele>25.9</ele>
        <time>2022-04-13T12:13:01Z</time>
      </trkpt>
      <trkpt lat="49.88005" lon="2.39718">
        <ele>25.9</ele>
        <time>2022-04-13T12:13:02Z</time>
      </trkpt>
      <trkpt lat="49.88005" lon="2.39716">
        <ele>25.9</ele>
        <time>2022-04-13T12:13:03Z</time>
      </trkpt>
      <trkpt lat="49.88005" lon="2.39714">
        <ele>25.9</ele>
        <time>2022-04-13T12:13:04Z</time>
      </trkpt>
      <trkpt lat="49.88005" lon="2.39712">
        <ele>25.9</ele>
        <time>2022-04-13T12:13:05Z</time>
      </trkpt>
      <trkpt lat="49.88004" lon="2.3971">
        <ele>25.9</ele>
        <time>2022-04-13T12:13:07Z</time>
      </trkpt>
      <trkpt lat="49.88004" lon="2.39709">
        <ele>25.9</ele>
        <time>2022-04-13T12:13:08Z</time>
      </trkpt>
      <trkpt lat="49.88004" lon="2.39707">
        <ele>25.9</ele>
        <time>2022-04-13T12:13:09Z</time>
      </trkpt>
      <trkpt lat="49.88003" lon="2.39705">
        <ele>25.9</ele>
        <time>2022-04-13T12:13:10Z</time>
      </trkpt>
      <trkpt lat="49.88003" lon="2.39703">
        <ele>25.9</ele>
        <time>2022-04-13T12:13:11Z</time>
      </trkpt>
      <trkpt lat="49.88003" lon="2.39701">
        <ele>25.9</ele>
        <time>2022-04-13T12:13:12Z</time>
      </trkpt>
      <trkpt lat="49.88002" lon="2.39699">
        <ele>25.9</ele>
        <time>2022-04-13T12:13:14Z</time>
      </trkpt>
      <trkpt lat="49.88002" lon="2.39697">
        <ele>25.9</ele>
        <time>2022-04-13T12:13:15Z</time>
      </trkpt>
      <trkpt lat="49.88001" lon="2.39695">
        <ele>25.9</ele>
        <time>2022-04-13T12:13:16Z</time>
      </trkpt>
      <trkpt lat="49.88" lon="2.39692">
        <ele>25.9</ele>
        <time>2022-04-13T12:13:17Z</time>
      </trkpt>
      <trkpt lat="49.87999" lon="2.39689">
        <ele>25.9</ele>
        <time>2022-04-13T12:13:19Z</time>
      </trkpt>
      <trkpt lat="49.87998" lon="2.39686">
        <ele>26</ele>
        <time>2022-04-13T12:13:20Z</time>
      </trkpt>
      <trkpt lat="49.87998" lon="2.39685">
        <ele>26</ele>
        <time>2022-04-13T12:13:21Z</time>
      </trkpt>
      <trkpt lat="49.87998" lon="2.39683">
        <ele>26</ele>
        <time>2022-04-13T12:13:22Z</time>
      </trkpt>
      <trkpt lat="49.87997" lon="2.3968">
        <ele>26</ele>
        <time>2022-04-13T12:13:23Z</time>
      </trkpt>
      <trkpt lat="49.87996" lon="2.39679">
        <ele>26</ele>
        <time>2022-04-13T12:13:24Z</time>
      </trkpt>
      <trkpt lat="49.87996" lon="2.39678">
        <ele>26</ele>
        <time>2022-04-13T12:13:25Z</time>
      </trkpt>
      <trkpt lat="49.87995" lon="2.39675">
        <ele>26</ele>
        <time>2022-04-13T12:13:26Z</time>
      </trkpt>
      <trkpt lat="49.87994" lon="2.39674">
        <ele>26</ele>
        <time>2022-04-13T12:13:27Z</time>
      </trkpt>
      <trkpt lat="49.87994" lon="2.39673">
        <ele>26</ele>
        <time>2022-04-13T12:13:28Z</time>
      </trkpt>
      <trkpt lat="49.87993" lon="2.39671">
        <ele>26</ele>
        <time>2022-04-13T12:13:29Z</time>
      </trkpt>
      <trkpt lat="49.87993" lon="2.39669">
        <ele>26</ele>
        <time>2022-04-13T12:13:30Z</time>
      </trkpt>
      <trkpt lat="49.87992" lon="2.39667">
        <ele>26</ele>
        <time>2022-04-13T12:13:32Z</time>
      </trkpt>
      <trkpt lat="49.87991" lon="2.39665">
        <ele>26</ele>
        <time>2022-04-13T12:13:33Z</time>
      </trkpt>
      <trkpt lat="49.87991" lon="2.39664">
        <ele>26</ele>
        <time>2022-04-13T12:13:34Z</time>
      </trkpt>
      <trkpt lat="49.8799" lon="2.39662">
        <ele>26</ele>
        <time>2022-04-13T12:13:35Z</time>
      </trkpt>
      <trkpt lat="49.8799" lon="2.39661">
        <ele>26</ele>
        <time>2022-04-13T12:13:37Z</time>
      </trkpt>
      <trkpt lat="49.8799" lon="2.3966">
        <ele>26</ele>
        <time>2022-04-13T12:13:38Z</time>
      </trkpt>
      <trkpt lat="49.8799" lon="2.39659">
        <ele>26</ele>
        <time>2022-04-13T12:13:39Z</time>
      </trkpt>
      <trkpt lat="49.8799" lon="2.39657">
        <ele>26</ele>
        <time>2022-04-13T12:13:40Z</time>
      </trkpt>
      <trkpt lat="49.87991" lon="2.39656">
        <ele>26</ele>
        <time>2022-04-13T12:13:41Z</time>
      </trkpt>
      <trkpt lat="49.87991" lon="2.39654">
        <ele>26</ele>
        <time>2022-04-13T12:13:43Z</time>
      </trkpt>
      <trkpt lat="49.87991" lon="2.39653">
        <ele>26</ele>
        <time>2022-04-13T12:13:44Z</time>
      </trkpt>
      <trkpt lat="49.87992" lon="2.39651">
        <ele>26</ele>
        <time>2022-04-13T12:13:45Z</time>
      </trkpt>
      <trkpt lat="49.87992" lon="2.3965">
        <ele>26</ele>
        <time>2022-04-13T12:13:46Z</time>
      </trkpt>
      <trkpt lat="49.87992" lon="2.39649">
        <ele>26</ele>
        <time>2022-04-13T12:13:47Z</time>
      </trkpt>
      <trkpt lat="49.87992" lon="2.39647">
        <ele>26</ele>
        <time>2022-04-13T12:13:49Z</time>
      </trkpt>
      <trkpt lat="49.87992" lon="2.39646">
        <ele>26</ele>
        <time>2022-04-13T12:13:50Z</time>
      </trkpt>
      <trkpt lat="49.87992" lon="2.39643">
        <ele>26</ele>
        <time>2022-04-13T12:13:51Z</time>
      </trkpt>
      <trkpt lat="49.87992" lon="2.39642">
        <ele>26</ele>
        <time>2022-04-13T12:13:52Z</time>
      </trkpt>
      <trkpt lat="49.87991" lon="2.3964">
        <ele>25.9</ele>
        <time>2022-04-13T12:13:53Z</time>
      </trkpt>
      <trkpt lat="49.87991" lon="2.39638">
        <ele>25.9</ele>
        <time>2022-04-13T12:13:55Z</time>
      </trkpt>
      <trkpt lat="49.87991" lon="2.39636">
        <ele>25.9</ele>
        <time>2022-04-13T12:13:56Z</time>
      </trkpt>
      <trkpt lat="49.8799" lon="2.39634">
        <ele>25.9</ele>
        <time>2022-04-13T12:13:58Z</time>
      </trkpt>
      <trkpt lat="49.87989" lon="2.3963">
        <ele>25.9</ele>
        <time>2022-04-13T12:13:59Z</time>
      </trkpt>
      <trkpt lat="49.87989" lon="2.39629">
        <ele>25.9</ele>
        <time>2022-04-13T12:14:00Z</time>
      </trkpt>
      <trkpt lat="49.87989" lon="2.39628">
        <ele>25.9</ele>
        <time>2022-04-13T12:14:01Z</time>
      </trkpt>
      <trkpt lat="49.87989" lon="2.39625">
        <ele>25.8</ele>
        <time>2022-04-13T12:14:02Z</time>
      </trkpt>
      <trkpt lat="49.87988" lon="2.39623">
        <ele>25.8</ele>
        <time>2022-04-13T12:14:03Z</time>
      </trkpt>
      <trkpt lat="49.87988" lon="2.39622">
        <ele>25.8</ele>
        <time>2022-04-13T12:14:04Z</time>
      </trkpt>
      <trkpt lat="49.87988" lon="2.39619">
        <ele>25.8</ele>
        <time>2022-04-13T12:14:05Z</time>
      </trkpt>
      <trkpt lat="49.87987" lon="2.39617">
        <ele>25.8</ele>
        <time>2022-04-13T12:14:06Z</time>
      </trkpt>
      <trkpt lat="49.87987" lon="2.39614">
        <ele>25.8</ele>
        <time>2022-04-13T12:14:07Z</time>
      </trkpt>
      <trkpt lat="49.87987" lon="2.39612">
        <ele>25.8</ele>
        <time>2022-04-13T12:14:09Z</time>
      </trkpt>
      <trkpt lat="49.87986" lon="2.39611">
        <ele>25.8</ele>
        <time>2022-04-13T12:14:10Z</time>
      </trkpt>
      <trkpt lat="49.87986" lon="2.39609">
        <ele>25.8</ele>
        <time>2022-04-13T12:14:11Z</time>
      </trkpt>
      <trkpt lat="49.87986" lon="2.39606">
        <ele>25.8</ele>
        <time>2022-04-13T12:14:12Z</time>
      </trkpt>
      <trkpt lat="49.87985" lon="2.39604">
        <ele>25.8</ele>
        <time>2022-04-13T12:14:13Z</time>
      </trkpt>
      <trkpt lat="49.87985" lon="2.39602">
        <ele>25.7</ele>
        <time>2022-04-13T12:14:14Z</time>
      </trkpt>
      <trkpt lat="49.87984" lon="2.39599">
        <ele>25.7</ele>
        <time>2022-04-13T12:14:15Z</time>
      </trkpt>
      <trkpt lat="49.87984" lon="2.39598">
        <ele>25.7</ele>
        <time>2022-04-13T12:14:16Z</time>
      </trkpt>
      <trkpt lat="49.87984" lon="2.39596">
        <ele>25.7</ele>
        <time>2022-04-13T12:14:17Z</time>
      </trkpt>
      <trkpt lat="49.87983" lon="2.39593">
        <ele>25.7</ele>
        <time>2022-04-13T12:14:19Z</time>
      </trkpt>
      <trkpt lat="49.87983" lon="2.39592">
        <ele>25.7</ele>
        <time>2022-04-13T12:14:20Z</time>
      </trkpt>
      <trkpt lat="49.87983" lon="2.3959">
        <ele>25.7</ele>
        <time>2022-04-13T12:14:21Z</time>
      </trkpt>
      <trkpt lat="49.87983" lon="2.39589">
        <ele>25.7</ele>
        <time>2022-04-13T12:14:22Z</time>
      </trkpt>
      <trkpt lat="49.87983" lon="2.39587">
        <ele>25.7</ele>
        <time>2022-04-13T12:14:23Z</time>
      </trkpt>
      <trkpt lat="49.87983" lon="2.39585">
        <ele>25.7</ele>
        <time>2022-04-13T12:14:24Z</time>
      </trkpt>
      <trkpt lat="49.87984" lon="2.39583">
        <ele>25.7</ele>
        <time>2022-04-13T12:14:25Z</time>
      </trkpt>
      <trkpt lat="49.87984" lon="2.39581">
        <ele>25.7</ele>
        <time>2022-04-13T12:14:26Z</time>
      </trkpt>
      <trkpt lat="49.87985" lon="2.39578">
        <ele>25.7</ele>
        <time>2022-04-13T12:14:27Z</time>
      </trkpt>
      <trkpt lat="49.87985" lon="2.39576">
        <ele>25.7</ele>
        <time>2022-04-13T12:14:28Z</time>
      </trkpt>
      <trkpt lat="49.87985" lon="2.39575">
        <ele>25.7</ele>
        <time>2022-04-13T12:14:29Z</time>
      </trkpt>
      <trkpt lat="49.87986" lon="2.39573">
        <ele>25.7</ele>
        <time>2022-04-13T12:14:31Z</time>
      </trkpt>
      <trkpt lat="49.87986" lon="2.39571">
        <ele>25.7</ele>
        <time>2022-04-13T12:14:32Z</time>
      </trkpt>
      <trkpt lat="49.87986" lon="2.39568">
        <ele>25.7</ele>
        <time>2022-04-13T12:14:34Z</time>
      </trkpt>
      <trkpt lat="49.87986" lon="2.39566">
        <ele>25.7</ele>
        <time>2022-04-13T12:14:35Z</time>
      </trkpt>
      <trkpt lat="49.87986" lon="2.39564">
        <ele>25.7</ele>
        <time>2022-04-13T12:14:36Z</time>
      </trkpt>
      <trkpt lat="49.87986" lon="2.39561">
        <ele>25.6</ele>
        <time>2022-04-13T12:14:37Z</time>
      </trkpt>
      <trkpt lat="49.87986" lon="2.39558">
        <ele>25.6</ele>
        <time>2022-04-13T12:14:39Z</time>
      </trkpt>
      <trkpt lat="49.87987" lon="2.39556">
        <ele>25.6</ele>
        <time>2022-04-13T12:14:40Z</time>
      </trkpt>
      <trkpt lat="49.87987" lon="2.39554">
        <ele>25.6</ele>
        <time>2022-04-13T12:14:41Z</time>
      </trkpt>
      <trkpt lat="49.87987" lon="2.39552">
        <ele>25.6</ele>
        <time>2022-04-13T12:14:42Z</time>
      </trkpt>
      <trkpt lat="49.87987" lon="2.39548">
        <ele>25.6</ele>
        <time>2022-04-13T12:14:43Z</time>
      </trkpt>
      <trkpt lat="49.87987" lon="2.39547">
        <ele>25.6</ele>
        <time>2022-04-13T12:14:44Z</time>
      </trkpt>
      <trkpt lat="49.87987" lon="2.39546">
        <ele>25.6</ele>
        <time>2022-04-13T12:14:45Z</time>
      </trkpt>
      <trkpt lat="49.87987" lon="2.39543">
        <ele>25.6</ele>
        <time>2022-04-13T12:14:46Z</time>
      </trkpt>
      <trkpt lat="49.87987" lon="2.39541">
        <ele>25.6</ele>
        <time>2022-04-13T12:14:47Z</time>
      </trkpt>
      <trkpt lat="49.87987" lon="2.39539">
        <ele>25.6</ele>
        <time>2022-04-13T12:14:48Z</time>
      </trkpt>
      <trkpt lat="49.87987" lon="2.39536">
        <ele>25.6</ele>
        <time>2022-04-13T12:14:49Z</time>
      </trkpt>
      <trkpt lat="49.87987" lon="2.39534">
        <ele>25.6</ele>
        <time>2022-04-13T12:14:51Z</time>
      </trkpt>
      <trkpt lat="49.87987" lon="2.39532">
        <ele>25.6</ele>
        <time>2022-04-13T12:14:52Z</time>
      </trkpt>
      <trkpt lat="49.87986" lon="2.39529">
        <ele>25.6</ele>
        <time>2022-04-13T12:14:53Z</time>
      </trkpt>
      <trkpt lat="49.87986" lon="2.39527">
        <ele>25.6</ele>
        <time>2022-04-13T12:14:54Z</time>
      </trkpt>
      <trkpt lat="49.87986" lon="2.39525">
        <ele>25.6</ele>
        <time>2022-04-13T12:14:55Z</time>
      </trkpt>
      <trkpt lat="49.87986" lon="2.39523">
        <ele>25.6</ele>
        <time>2022-04-13T12:14:56Z</time>
      </trkpt>
      <trkpt lat="49.87986" lon="2.39521">
        <ele>25.6</ele>
        <time>2022-04-13T12:14:57Z</time>
      </trkpt>
      <trkpt lat="49.87986" lon="2.39517">
        <ele>25.6</ele>
        <time>2022-04-13T12:14:59Z</time>
      </trkpt>
      <trkpt lat="49.87987" lon="2.39515">
        <ele>25.6</ele>
        <time>2022-04-13T12:15:00Z</time>
      </trkpt>
      <trkpt lat="49.87987" lon="2.39513">
        <ele>25.6</ele>
        <time>2022-04-13T12:15:01Z</time>
      </trkpt>
      <trkpt lat="49.87988" lon="2.39511">
        <ele>25.6</ele>
        <time>2022-04-13T12:15:02Z</time>
      </trkpt>
      <trkpt lat="49.87988" lon="2.39508">
        <ele>25.6</ele>
        <time>2022-04-13T12:15:03Z</time>
      </trkpt>
      <trkpt lat="49.87988" lon="2.39506">
        <ele>25.6</ele>
        <time>2022-04-13T12:15:04Z</time>
      </trkpt>
      <trkpt lat="49.87989" lon="2.39504">
        <ele>25.6</ele>
        <time>2022-04-13T12:15:05Z</time>
      </trkpt>
      <trkpt lat="49.87989" lon="2.39502">
        <ele>25.6</ele>
        <time>2022-04-13T12:15:06Z</time>
      </trkpt>
      <trkpt lat="49.8799" lon="2.395">
        <ele>25.6</ele>
        <time>2022-04-13T12:15:08Z</time>
      </trkpt>
      <trkpt lat="49.8799" lon="2.39498">
        <ele>25.6</ele>
        <time>2022-04-13T12:15:09Z</time>
      </trkpt>
      <trkpt lat="49.87991" lon="2.39496">
        <ele>25.6</ele>
        <time>2022-04-13T12:15:10Z</time>
      </trkpt>
      <trkpt lat="49.87991" lon="2.39493">
        <ele>25.6</ele>
        <time>2022-04-13T12:15:11Z</time>
      </trkpt>
      <trkpt lat="49.87992" lon="2.39491">
        <ele>25.6</ele>
        <time>2022-04-13T12:15:12Z</time>
      </trkpt>
      <trkpt lat="49.87992" lon="2.3949">
        <ele>25.7</ele>
        <time>2022-04-13T12:15:13Z</time>
      </trkpt>
      <trkpt lat="49.87992" lon="2.39487">
        <ele>25.7</ele>
        <time>2022-04-13T12:15:15Z</time>
      </trkpt>
      <trkpt lat="49.87993" lon="2.39486">
        <ele>25.7</ele>
        <time>2022-04-13T12:15:16Z</time>
      </trkpt>
      <trkpt lat="49.87993" lon="2.39486">
        <ele>25.7</ele>
        <time>2022-04-13T12:15:17Z</time>
      </trkpt>
      <trkpt lat="49.87994" lon="2.39488">
        <ele>25.7</ele>
        <time>2022-04-13T12:15:18Z</time>
      </trkpt>
      <trkpt lat="49.87994" lon="2.3949">
        <ele>25.7</ele>
        <time>2022-04-13T12:15:19Z</time>
      </trkpt>
      <trkpt lat="49.87993" lon="2.39492">
        <ele>25.7</ele>
        <time>2022-04-13T12:15:20Z</time>
      </trkpt>
      <trkpt lat="49.87993" lon="2.39493">
        <ele>25.7</ele>
        <time>2022-04-13T12:15:21Z</time>
      </trkpt>
      <trkpt lat="49.87993" lon="2.39494">
        <ele>25.7</ele>
        <time>2022-04-13T12:15:22Z</time>
      </trkpt>
      <trkpt lat="49.87992" lon="2.39494">
        <ele>25.7</ele>
        <time>2022-04-13T12:15:23Z</time>
      </trkpt>
      <trkpt lat="49.87992" lon="2.39495">
        <ele>25.7</ele>
        <time>2022-04-13T12:15:25Z</time>
      </trkpt>
      <trkpt lat="49.87992" lon="2.39496">
        <ele>25.7</ele>
        <time>2022-04-13T12:15:26Z</time>
      </trkpt>
      <trkpt lat="49.88528" lon="2.40855">
        <ele>26.4</ele>
        <time>2022-04-13T13:12:12Z</time>
      </trkpt>
      <trkpt lat="49.88528" lon="2.40856">
        <ele>26.4</ele>
        <time>2022-04-13T13:12:13Z</time>
      </trkpt>
      <trkpt lat="49.88527" lon="2.40857">
        <ele>26.4</ele>
        <time>2022-04-13T13:12:14Z</time>
      </trkpt>
      <trkpt lat="49.88527" lon="2.40858">
        <ele>26.4</ele>
        <time>2022-04-13T13:12:15Z</time>
      </trkpt>
      <trkpt lat="49.88526" lon="2.4086">
        <ele>26.4</ele>
        <time>2022-04-13T13:12:16Z</time>
      </trkpt>
      <trkpt lat="49.88525" lon="2.40864">
        <ele>26.3</ele>
        <time>2022-04-13T13:12:17Z</time>
      </trkpt>
      <trkpt lat="49.88524" lon="2.40866">
        <ele>26.3</ele>
        <time>2022-04-13T13:12:18Z</time>
      </trkpt>
      <trkpt lat="49.88524" lon="2.40868">
        <ele>26.3</ele>
        <time>2022-04-13T13:12:19Z</time>
      </trkpt>
      <trkpt lat="49.88524" lon="2.40871">
        <ele>26.3</ele>
        <time>2022-04-13T13:12:20Z</time>
      </trkpt>
      <trkpt lat="49.88524" lon="2.40873">
        <ele>26.3</ele>
        <time>2022-04-13T13:12:21Z</time>
      </trkpt>
      <trkpt lat="49.88524" lon="2.40874">
        <ele>26.3</ele>
        <time>2022-04-13T13:12:23Z</time>
      </trkpt>
      <trkpt lat="49.88524" lon="2.40876">
        <ele>26.3</ele>
        <time>2022-04-13T13:12:24Z</time>
      </trkpt>
      <trkpt lat="49.88524" lon="2.40876">
        <ele>26.3</ele>
        <time>2022-04-13T13:12:25Z</time>
      </trkpt>
      <trkpt lat="49.88525" lon="2.40878">
        <ele>26.3</ele>
        <time>2022-04-13T13:12:26Z</time>
      </trkpt>
      <trkpt lat="49.88526" lon="2.40879">
        <ele>26.3</ele>
        <time>2022-04-13T13:12:27Z</time>
      </trkpt>
      <trkpt lat="49.88526" lon="2.40879">
        <ele>26.3</ele>
        <time>2022-04-13T13:12:29Z</time>
      </trkpt>
      <trkpt lat="49.88527" lon="2.4088">
        <ele>26.3</ele>
        <time>2022-04-13T13:12:30Z</time>
      </trkpt>
      <trkpt lat="49.88527" lon="2.4088">
        <ele>26.3</ele>
        <time>2022-04-13T13:12:31Z</time>
      </trkpt>
      <trkpt lat="49.88528" lon="2.4088">
        <ele>26.3</ele>
        <time>2022-04-13T13:12:32Z</time>
      </trkpt>
      <trkpt lat="49.88528" lon="2.4088">
        <ele>26.3</ele>
        <time>2022-04-13T13:12:33Z</time>
      </trkpt>
      <trkpt lat="49.88528" lon="2.4088">
        <ele>26.3</ele>
        <time>2022-04-13T13:12:34Z</time>
      </trkpt>
      <trkpt lat="49.88528" lon="2.40881">
        <ele>26.3</ele>
        <time>2022-04-13T13:12:35Z</time>
      </trkpt>
      <trkpt lat="49.88529" lon="2.40881">
        <ele>26.3</ele>
        <time>2022-04-13T13:12:36Z</time>
      </trkpt>
      <trkpt lat="49.88529" lon="2.40882">
        <ele>26.3</ele>
        <time>2022-04-13T13:12:37Z</time>
      </trkpt>
      <trkpt lat="49.88529" lon="2.40883">
        <ele>26.3</ele>
        <time>2022-04-13T13:12:38Z</time>
      </trkpt>
      <trkpt lat="49.88529" lon="2.40885">
        <ele>26.3</ele>
        <time>2022-04-13T13:12:39Z</time>
      </trkpt>
      <trkpt lat="49.88529" lon="2.40886">
        <ele>26.3</ele>
        <time>2022-04-13T13:12:41Z</time>
      </trkpt>
      <trkpt lat="49.88529" lon="2.40888">
        <ele>26.2</ele>
        <time>2022-04-13T13:12:42Z</time>
      </trkpt>
      <trkpt lat="49.8853" lon="2.40889">
        <ele>26.2</ele>
        <time>2022-04-13T13:12:43Z</time>
      </trkpt>
      <trkpt lat="49.8853" lon="2.4089">
        <ele>26.2</ele>
        <time>2022-04-13T13:12:45Z</time>
      </trkpt>
      <trkpt lat="49.8853" lon="2.40891">
        <ele>26.2</ele>
        <time>2022-04-13T13:12:46Z</time>
      </trkpt>
      <trkpt lat="49.8853" lon="2.40892">
        <ele>26.2</ele>
        <time>2022-04-13T13:12:47Z</time>
      </trkpt>
      <trkpt lat="49.8853" lon="2.40893">
        <ele>26.2</ele>
        <time>2022-04-13T13:12:48Z</time>
      </trkpt>
      <trkpt lat="49.8853" lon="2.40894">
        <ele>26.2</ele>
        <time>2022-04-13T13:12:49Z</time>
      </trkpt>
      <trkpt lat="49.8853" lon="2.40896">
        <ele>26.2</ele>
        <time>2022-04-13T13:12:50Z</time>
      </trkpt>
      <trkpt lat="49.88531" lon="2.40897">
        <ele>26.2</ele>
        <time>2022-04-13T13:12:52Z</time>
      </trkpt>
      <trkpt lat="49.88531" lon="2.40898">
        <ele>26.2</ele>
        <time>2022-04-13T13:12:53Z</time>
      </trkpt>
      <trkpt lat="49.88531" lon="2.40899">
        <ele>26.2</ele>
        <time>2022-04-13T13:12:54Z</time>
      </trkpt>
      <trkpt lat="49.88531" lon="2.409">
        <ele>26.2</ele>
        <time>2022-04-13T13:12:55Z</time>
      </trkpt>
      <trkpt lat="49.88531" lon="2.40901">
        <ele>26.2</ele>
        <time>2022-04-13T13:12:56Z</time>
      </trkpt>
      <trkpt lat="49.8853" lon="2.40905">
        <ele>26.2</ele>
        <time>2022-04-13T13:12:57Z</time>
      </trkpt>
      <trkpt lat="49.88529" lon="2.40906">
        <ele>26.2</ele>
        <time>2022-04-13T13:12:58Z</time>
      </trkpt>
      <trkpt lat="49.88529" lon="2.40907">
        <ele>26.2</ele>
        <time>2022-04-13T13:12:59Z</time>
      </trkpt>
      <trkpt lat="49.88529" lon="2.40909">
        <ele>26.2</ele>
        <time>2022-04-13T13:13:00Z</time>
      </trkpt>
      <trkpt lat="49.88529" lon="2.40911">
        <ele>26.2</ele>
        <time>2022-04-13T13:13:01Z</time>
      </trkpt>
      <trkpt lat="49.88529" lon="2.40913">
        <ele>26.2</ele>
        <time>2022-04-13T13:13:02Z</time>
      </trkpt>
      <trkpt lat="49.88529" lon="2.40916">
        <ele>26.2</ele>
        <time>2022-04-13T13:13:03Z</time>
      </trkpt>
      <trkpt lat="49.88528" lon="2.40918">
        <ele>26.2</ele>
        <time>2022-04-13T13:13:04Z</time>
      </trkpt>
      <trkpt lat="49.88528" lon="2.4092">
        <ele>26.2</ele>
        <time>2022-04-13T13:13:05Z</time>
      </trkpt>
      <trkpt lat="49.88528" lon="2.40923">
        <ele>26.2</ele>
        <time>2022-04-13T13:13:06Z</time>
      </trkpt>
      <trkpt lat="49.88528" lon="2.40926">
        <ele>26.2</ele>
        <time>2022-04-13T13:13:07Z</time>
      </trkpt>
      <trkpt lat="49.88528" lon="2.40928">
        <ele>26.2</ele>
        <time>2022-04-13T13:13:09Z</time>
      </trkpt>
      <trkpt lat="49.88528" lon="2.40931">
        <ele>26.2</ele>
        <time>2022-04-13T13:13:10Z</time>
      </trkpt>
      <trkpt lat="49.88528" lon="2.40933">
        <ele>26.2</ele>
        <time>2022-04-13T13:13:11Z</time>
      </trkpt>
      <trkpt lat="49.88528" lon="2.40935">
        <ele>26.2</ele>
        <time>2022-04-13T13:13:12Z</time>
      </trkpt>
      <trkpt lat="49.88528" lon="2.40938">
        <ele>26.2</ele>
        <time>2022-04-13T13:13:13Z</time>
      </trkpt>
      <trkpt lat="49.88528" lon="2.4094">
        <ele>26.2</ele>
        <time>2022-04-13T13:13:14Z</time>
      </trkpt>
      <trkpt lat="49.88528" lon="2.40941">
        <ele>26.2</ele>
        <time>2022-04-13T13:13:15Z</time>
      </trkpt>
      <trkpt lat="49.88528" lon="2.40945">
        <ele>26.2</ele>
        <time>2022-04-13T13:13:16Z</time>
      </trkpt>
      <trkpt lat="49.88528" lon="2.40946">
        <ele>26.2</ele>
        <time>2022-04-13T13:13:17Z</time>
      </trkpt>
      <trkpt lat="49.88528" lon="2.40947">
        <ele>26.2</ele>
        <time>2022-04-13T13:13:18Z</time>
      </trkpt>
      <trkpt lat="49.88528" lon="2.40949">
        <ele>26.2</ele>
        <time>2022-04-13T13:13:20Z</time>
      </trkpt>
      <trkpt lat="49.88528" lon="2.40952">
        <ele>26.2</ele>
        <time>2022-04-13T13:13:21Z</time>
      </trkpt>
      <trkpt lat="49.88528" lon="2.40954">
        <ele>26.2</ele>
        <time>2022-04-13T13:13:22Z</time>
      </trkpt>
      <trkpt lat="49.88528" lon="2.40956">
        <ele>26.2</ele>
        <time>2022-04-13T13:13:23Z</time>
      </trkpt>
      <trkpt lat="49.88528" lon="2.4096">
        <ele>26.2</ele>
        <time>2022-04-13T13:13:24Z</time>
      </trkpt>
      <trkpt lat="49.88527" lon="2.40962">
        <ele>26.2</ele>
        <time>2022-04-13T13:13:26Z</time>
      </trkpt>
      <trkpt lat="49.88527" lon="2.40964">
        <ele>26.2</ele>
        <time>2022-04-13T13:13:27Z</time>
      </trkpt>
      <trkpt lat="49.88527" lon="2.40965">
        <ele>26.2</ele>
        <time>2022-04-13T13:13:28Z</time>
      </trkpt>
      <trkpt lat="49.88527" lon="2.40967">
        <ele>26.2</ele>
        <time>2022-04-13T13:13:29Z</time>
      </trkpt>
      <trkpt lat="49.88527" lon="2.4097">
        <ele>26.2</ele>
        <time>2022-04-13T13:13:30Z</time>
      </trkpt>
      <trkpt lat="49.88527" lon="2.40971">
        <ele>26.2</ele>
        <time>2022-04-13T13:13:31Z</time>
      </trkpt>
      <trkpt lat="49.88526" lon="2.40972">
        <ele>26.2</ele>
        <time>2022-04-13T13:13:32Z</time>
      </trkpt>
      <trkpt lat="49.88526" lon="2.40975">
        <ele>26.2</ele>
        <time>2022-04-13T13:13:33Z</time>
      </trkpt>
      <trkpt lat="49.88526" lon="2.40977">
        <ele>26.2</ele>
        <time>2022-04-13T13:13:34Z</time>
      </trkpt>
      <trkpt lat="49.88526" lon="2.40979">
        <ele>26.2</ele>
        <time>2022-04-13T13:13:35Z</time>
      </trkpt>
      <trkpt lat="49.88526" lon="2.40981">
        <ele>26.2</ele>
        <time>2022-04-13T13:13:36Z</time>
      </trkpt>
      <trkpt lat="49.88526" lon="2.40983">
        <ele>26.2</ele>
        <time>2022-04-13T13:13:38Z</time>
      </trkpt>
      <trkpt lat="49.88526" lon="2.40987">
        <ele>26.2</ele>
        <time>2022-04-13T13:13:39Z</time>
      </trkpt>
      <trkpt lat="49.88526" lon="2.40988">
        <ele>26.2</ele>
        <time>2022-04-13T13:13:40Z</time>
      </trkpt>
      <trkpt lat="49.88526" lon="2.40989">
        <ele>26.2</ele>
        <time>2022-04-13T13:13:41Z</time>
      </trkpt>
      <trkpt lat="49.88525" lon="2.40993">
        <ele>26.2</ele>
        <time>2022-04-13T13:13:42Z</time>
      </trkpt>
      <trkpt lat="49.88525" lon="2.40994">
        <ele>26.2</ele>
        <time>2022-04-13T13:13:43Z</time>
      </trkpt>
      <trkpt lat="49.88525" lon="2.40995">
        <ele>26.2</ele>
        <time>2022-04-13T13:13:44Z</time>
      </trkpt>
      <trkpt lat="49.88525" lon="2.40997">
        <ele>26.2</ele>
        <time>2022-04-13T13:13:45Z</time>
      </trkpt>
      <trkpt lat="49.88525" lon="2.41">
        <ele>26.3</ele>
        <time>2022-04-13T13:13:46Z</time>
      </trkpt>
      <trkpt lat="49.88525" lon="2.41003">
        <ele>26.3</ele>
        <time>2022-04-13T13:13:47Z</time>
      </trkpt>
      <trkpt lat="49.88525" lon="2.41004">
        <ele>26.3</ele>
        <time>2022-04-13T13:13:48Z</time>
      </trkpt>
      <trkpt lat="49.88525" lon="2.41006">
        <ele>26.3</ele>
        <time>2022-04-13T13:13:49Z</time>
      </trkpt>
      <trkpt lat="49.88525" lon="2.41009">
        <ele>26.3</ele>
        <time>2022-04-13T13:13:50Z</time>
      </trkpt>
      <trkpt lat="49.88525" lon="2.41011">
        <ele>26.3</ele>
        <time>2022-04-13T13:13:52Z</time>
      </trkpt>
      <trkpt lat="49.88525" lon="2.41012">
        <ele>26.3</ele>
        <time>2022-04-13T13:13:53Z</time>
      </trkpt>
      <trkpt lat="49.88525" lon="2.41014">
        <ele>26.3</ele>
        <time>2022-04-13T13:13:54Z</time>
      </trkpt>
      <trkpt lat="49.88525" lon="2.41017">
        <ele>26.3</ele>
        <time>2022-04-13T13:13:55Z</time>
      </trkpt>
      <trkpt lat="49.88525" lon="2.4102">
        <ele>26.3</ele>
        <time>2022-04-13T13:13:56Z</time>
      </trkpt>
      <trkpt lat="49.88525" lon="2.41021">
        <ele>26.3</ele>
        <time>2022-04-13T13:13:57Z</time>
      </trkpt>
      <trkpt lat="49.88525" lon="2.41023">
        <ele>26.3</ele>
        <time>2022-04-13T13:13:58Z</time>
      </trkpt>
      <trkpt lat="49.88525" lon="2.41025">
        <ele>26.3</ele>
        <time>2022-04-13T13:14:00Z</time>
      </trkpt>
      <trkpt lat="49.88526" lon="2.41028">
        <ele>26.3</ele>
        <time>2022-04-13T13:14:01Z</time>
      </trkpt>
      <trkpt lat="49.88526" lon="2.4103">
        <ele>26.3</ele>
        <time>2022-04-13T13:14:02Z</time>
      </trkpt>
      <trkpt lat="49.88526" lon="2.41032">
        <ele>26.3</ele>
        <time>2022-04-13T13:14:03Z</time>
      </trkpt>
      <trkpt lat="49.88527" lon="2.41036">
        <ele>26.3</ele>
        <time>2022-04-13T13:14:05Z</time>
      </trkpt>
      <trkpt lat="49.88527" lon="2.41037">
        <ele>26.3</ele>
        <time>2022-04-13T13:14:06Z</time>
      </trkpt>
      <trkpt lat="49.88528" lon="2.41038">
        <ele>26.3</ele>
        <time>2022-04-13T13:14:07Z</time>
      </trkpt>
      <trkpt lat="49.88528" lon="2.41039">
        <ele>26.3</ele>
        <time>2022-04-13T13:14:08Z</time>
      </trkpt>
      <trkpt lat="49.88528" lon="2.41041">
        <ele>26.3</ele>
        <time>2022-04-13T13:14:09Z</time>
      </trkpt>
      <trkpt lat="49.88528" lon="2.41043">
        <ele>26.3</ele>
        <time>2022-04-13T13:14:10Z</time>
      </trkpt>
      <trkpt lat="49.88528" lon="2.41044">
        <ele>26.3</ele>
        <time>2022-04-13T13:14:11Z</time>
      </trkpt>
      <trkpt lat="49.88529" lon="2.41046">
        <ele>26.3</ele>
        <time>2022-04-13T13:14:12Z</time>
      </trkpt>
      <trkpt lat="49.88529" lon="2.41048">
        <ele>26.3</ele>
        <time>2022-04-13T13:14:13Z</time>
      </trkpt>
      <trkpt lat="49.88529" lon="2.4105">
        <ele>26.3</ele>
        <time>2022-04-13T13:14:14Z</time>
      </trkpt>
      <trkpt lat="49.88529" lon="2.41052">
        <ele>26.3</ele>
        <time>2022-04-13T13:14:15Z</time>
      </trkpt>
      <trkpt lat="49.8853" lon="2.41054">
        <ele>26.3</ele>
        <time>2022-04-13T13:14:17Z</time>
      </trkpt>
      <trkpt lat="49.8853" lon="2.41057">
        <ele>26.3</ele>
        <time>2022-04-13T13:14:18Z</time>
      </trkpt>
      <trkpt lat="49.8853" lon="2.41058">
        <ele>26.3</ele>
        <time>2022-04-13T13:14:19Z</time>
      </trkpt>
      <trkpt lat="49.8853" lon="2.41059">
        <ele>26.3</ele>
        <time>2022-04-13T13:14:20Z</time>
      </trkpt>
      <trkpt lat="49.88531" lon="2.41061">
        <ele>26.3</ele>
        <time>2022-04-13T13:14:21Z</time>
      </trkpt>
      <trkpt lat="49.88531" lon="2.41063">
        <ele>26.3</ele>
        <time>2022-04-13T13:14:22Z</time>
      </trkpt>
      <trkpt lat="49.88531" lon="2.41065">
        <ele>26.3</ele>
        <time>2022-04-13T13:14:23Z</time>
      </trkpt>
      <trkpt lat="49.88532" lon="2.41067">
        <ele>26.3</ele>
        <time>2022-04-13T13:14:24Z</time>
      </trkpt>
      <trkpt lat="49.88532" lon="2.41069">
        <ele>26.3</ele>
        <time>2022-04-13T13:14:25Z</time>
      </trkpt>
      <trkpt lat="49.88532" lon="2.41072">
        <ele>26.3</ele>
        <time>2022-04-13T13:14:26Z</time>
      </trkpt>
      <trkpt lat="49.88532" lon="2.41073">
        <ele>26.3</ele>
        <time>2022-04-13T13:14:27Z</time>
      </trkpt>
      <trkpt lat="49.88532" lon="2.41075">
        <ele>26.3</ele>
        <time>2022-04-13T13:14:28Z</time>
      </trkpt>
      <trkpt lat="49.88532" lon="2.41077">
        <ele>26.3</ele>
        <time>2022-04-13T13:14:29Z</time>
      </trkpt>
      <trkpt lat="49.88533" lon="2.41078">
        <ele>26.4</ele>
        <time>2022-04-13T13:14:30Z</time>
      </trkpt>
      <trkpt lat="49.88533" lon="2.41079">
        <ele>26.4</ele>
        <time>2022-04-13T13:14:31Z</time>
      </trkpt>
      <trkpt lat="49.88534" lon="2.41082">
        <ele>26.4</ele>
        <time>2022-04-13T13:14:32Z</time>
      </trkpt>
      <trkpt lat="49.88534" lon="2.41083">
        <ele>26.4</ele>
        <time>2022-04-13T13:14:34Z</time>
      </trkpt>
      <trkpt lat="49.88534" lon="2.41084">
        <ele>26.4</ele>
        <time>2022-04-13T13:14:35Z</time>
      </trkpt>
      <trkpt lat="49.88534" lon="2.41086">
        <ele>26.4</ele>
        <time>2022-04-13T13:14:36Z</time>
      </trkpt>
      <trkpt lat="49.88535" lon="2.41088">
        <ele>26.4</ele>
        <time>2022-04-13T13:14:37Z</time>
      </trkpt>
      <trkpt lat="49.88535" lon="2.41089">
        <ele>26.4</ele>
        <time>2022-04-13T13:14:39Z</time>
      </trkpt>
      <trkpt lat="49.88535" lon="2.41091">
        <ele>26.4</ele>
        <time>2022-04-13T13:14:40Z</time>
      </trkpt>
      <trkpt lat="49.88535" lon="2.41093">
        <ele>26.4</ele>
        <time>2022-04-13T13:14:41Z</time>
      </trkpt>
      <trkpt lat="49.88535" lon="2.41094">
        <ele>26.4</ele>
        <time>2022-04-13T13:14:42Z</time>
      </trkpt>
      <trkpt lat="49.88535" lon="2.41096">
        <ele>26.4</ele>
        <time>2022-04-13T13:14:43Z</time>
      </trkpt>
      <trkpt lat="49.88536" lon="2.41097">
        <ele>26.4</ele>
        <time>2022-04-13T13:14:44Z</time>
      </trkpt>
      <trkpt lat="49.88536" lon="2.41099">
        <ele>26.4</ele>
        <time>2022-04-13T13:14:45Z</time>
      </trkpt>
      <trkpt lat="49.88536" lon="2.41101">
        <ele>26.4</ele>
        <time>2022-04-13T13:14:46Z</time>
      </trkpt>
      <trkpt lat="49.88537" lon="2.41102">
        <ele>26.4</ele>
        <time>2022-04-13T13:14:47Z</time>
      </trkpt>
      <trkpt lat="49.88537" lon="2.41104">
        <ele>26.4</ele>
        <time>2022-04-13T13:14:49Z</time>
      </trkpt>
      <trkpt lat="49.88537" lon="2.41106">
        <ele>26.4</ele>
        <time>2022-04-13T13:14:50Z</time>
      </trkpt>
      <trkpt lat="49.88537" lon="2.41107">
        <ele>26.4</ele>
        <time>2022-04-13T13:14:51Z</time>
      </trkpt>
      <trkpt lat="49.88538" lon="2.41109">
        <ele>26.4</ele>
        <time>2022-04-13T13:14:52Z</time>
      </trkpt>
      <trkpt lat="49.88538" lon="2.41112">
        <ele>26.4</ele>
        <time>2022-04-13T13:14:53Z</time>
      </trkpt>
      <trkpt lat="49.88538" lon="2.41113">
        <ele>26.4</ele>
        <time>2022-04-13T13:14:54Z</time>
      </trkpt>
      <trkpt lat="49.88539" lon="2.41114">
        <ele>26.4</ele>
        <time>2022-04-13T13:14:55Z</time>
      </trkpt>
      <trkpt lat="49.88539" lon="2.41116">
        <ele>26.4</ele>
        <time>2022-04-13T13:14:56Z</time>
      </trkpt>
      <trkpt lat="49.88539" lon="2.41118">
        <ele>26.4</ele>
        <time>2022-04-13T13:14:58Z</time>
      </trkpt>
      <trkpt lat="49.88539" lon="2.4112">
        <ele>26.4</ele>
        <time>2022-04-13T13:14:59Z</time>
      </trkpt>
      <trkpt lat="49.88539" lon="2.41123">
        <ele>26.4</ele>
        <time>2022-04-13T13:15:00Z</time>
      </trkpt>
      <trkpt lat="49.88539" lon="2.41124">
        <ele>26.4</ele>
        <time>2022-04-13T13:15:01Z</time>
      </trkpt>
      <trkpt lat="49.88538" lon="2.41125">
        <ele>26.4</ele>
        <time>2022-04-13T13:15:02Z</time>
      </trkpt>
      <trkpt lat="49.88538" lon="2.41128">
        <ele>26.4</ele>
        <time>2022-04-13T13:15:04Z</time>
      </trkpt>
      <trkpt lat="49.88538" lon="2.41129">
        <ele>26.4</ele>
        <time>2022-04-13T13:15:05Z</time>
      </trkpt>
      <trkpt lat="49.88538" lon="2.41133">
        <ele>26.4</ele>
        <time>2022-04-13T13:15:06Z</time>
      </trkpt>
      <trkpt lat="49.88538" lon="2.41134">
        <ele>26.5</ele>
        <time>2022-04-13T13:15:07Z</time>
      </trkpt>
      <trkpt lat="49.88537" lon="2.41135">
        <ele>26.5</ele>
        <time>2022-04-13T13:15:08Z</time>
      </trkpt>
      <trkpt lat="49.88537" lon="2.41138">
        <ele>26.5</ele>
        <time>2022-04-13T13:15:09Z</time>
      </trkpt>
      <trkpt lat="49.88537" lon="2.41139">
        <ele>26.5</ele>
        <time>2022-04-13T13:15:10Z</time>
      </trkpt>
      <trkpt lat="49.88537" lon="2.41141">
        <ele>26.5</ele>
        <time>2022-04-13T13:15:11Z</time>
      </trkpt>
      <trkpt lat="49.88537" lon="2.41143">
        <ele>26.5</ele>
        <time>2022-04-13T13:15:12Z</time>
      </trkpt>
      <trkpt lat="49.88537" lon="2.41145">
        <ele>26.5</ele>
        <time>2022-04-13T13:15:13Z</time>
      </trkpt>
      <trkpt lat="49.88537" lon="2.41147">
        <ele>26.5</ele>
        <time>2022-04-13T13:15:14Z</time>
      </trkpt>
      <trkpt lat="49.88537" lon="2.41149">
        <ele>26.5</ele>
        <time>2022-04-13T13:15:15Z</time>
      </trkpt>
      <trkpt lat="49.88537" lon="2.41151">
        <ele>26.5</ele>
        <time>2022-04-13T13:15:17Z</time>
      </trkpt>
      <trkpt lat="49.88537" lon="2.41154">
        <ele>26.5</ele>
        <time>2022-04-13T13:15:18Z</time>
      </trkpt>
      <trkpt lat="49.88536" lon="2.41156">
        <ele>26.5</ele>
        <time>2022-04-13T13:15:19Z</time>
      </trkpt>
      <trkpt lat="49.88536" lon="2.41157">
        <ele>26.5</ele>
        <time>2022-04-13T13:15:20Z</time>
      </trkpt>
      <trkpt lat="49.88536" lon="2.41159">
        <ele>26.5</ele>
        <time>2022-04-13T13:15:21Z</time>
      </trkpt>
      <trkpt lat="49.88536" lon="2.41161">
        <ele>26.5</ele>
        <time>2022-04-13T13:15:22Z</time>
      </trkpt>
      <trkpt lat="49.88536" lon="2.41163">
        <ele>26.5</ele>
        <time>2022-04-13T13:15:23Z</time>
      </trkpt>
      <trkpt lat="49.88535" lon="2.41164">
        <ele>26.5</ele>
        <time>2022-04-13T13:15:25Z</time>
      </trkpt>
      <trkpt lat="49.88535" lon="2.41166">
        <ele>26.5</ele>
        <time>2022-04-13T13:15:26Z</time>
      </trkpt>
      <trkpt lat="49.88535" lon="2.41168">
        <ele>26.5</ele>
        <time>2022-04-13T13:15:27Z</time>
      </trkpt>
      <trkpt lat="49.88535" lon="2.41169">
        <ele>26.5</ele>
        <time>2022-04-13T13:15:28Z</time>
      </trkpt>
      <trkpt lat="49.88536" lon="2.41171">
        <ele>26.5</ele>
        <time>2022-04-13T13:15:29Z</time>
      </trkpt>
      <trkpt lat="49.88536" lon="2.41174">
        <ele>26.5</ele>
        <time>2022-04-13T13:15:31Z</time>
      </trkpt>
      <trkpt lat="49.88536" lon="2.41175">
        <ele>26.5</ele>
        <time>2022-04-13T13:15:32Z</time>
      </trkpt>
      <trkpt lat="49.88536" lon="2.41177">
        <ele>26.5</ele>
        <time>2022-04-13T13:15:33Z</time>
      </trkpt>
      <trkpt lat="49.88536" lon="2.4118">
        <ele>26.5</ele>
        <time>2022-04-13T13:15:35Z</time>
      </trkpt>
      <trkpt lat="49.88536" lon="2.41182">
        <ele>26.5</ele>
        <time>2022-04-13T13:15:36Z</time>
      </trkpt>
      <trkpt lat="49.88536" lon="2.41183">
        <ele>26.5</ele>
        <time>2022-04-13T13:15:37Z</time>
      </trkpt>
      <trkpt lat="49.88536" lon="2.41187">
        <ele>26.5</ele>
        <time>2022-04-13T13:15:39Z</time>
      </trkpt>
      <trkpt lat="49.88536" lon="2.41188">
        <ele>26.5</ele>
        <time>2022-04-13T13:15:41Z</time>
      </trkpt>
      <trkpt lat="49.88536" lon="2.4119">
        <ele>26.5</ele>
        <time>2022-04-13T13:15:42Z</time>
      </trkpt>
      <trkpt lat="49.88536" lon="2.41192">
        <ele>26.5</ele>
        <time>2022-04-13T13:15:43Z</time>
      </trkpt>
      <trkpt lat="49.88536" lon="2.41193">
        <ele>26.5</ele>
        <time>2022-04-13T13:15:44Z</time>
      </trkpt>
      <trkpt lat="49.88536" lon="2.41195">
        <ele>26.5</ele>
        <time>2022-04-13T13:15:45Z</time>
      </trkpt>
      <trkpt lat="49.88536" lon="2.41197">
        <ele>26.5</ele>
        <time>2022-04-13T13:15:46Z</time>
      </trkpt>
      <trkpt lat="49.88536" lon="2.412">
        <ele>26.5</ele>
        <time>2022-04-13T13:15:47Z</time>
      </trkpt>
      <trkpt lat="49.88536" lon="2.41203">
        <ele>26.5</ele>
        <time>2022-04-13T13:15:48Z</time>
      </trkpt>
      <trkpt lat="49.88536" lon="2.41205">
        <ele>26.5</ele>
        <time>2022-04-13T13:15:50Z</time>
      </trkpt>
      <trkpt lat="49.88535" lon="2.41206">
        <ele>26.5</ele>
        <time>2022-04-13T13:15:51Z</time>
      </trkpt>
      <trkpt lat="49.88535" lon="2.41208">
        <ele>26.5</ele>
        <time>2022-04-13T13:15:52Z</time>
      </trkpt>
      <trkpt lat="49.88535" lon="2.4121">
        <ele>26.5</ele>
        <time>2022-04-13T13:15:53Z</time>
      </trkpt>
      <trkpt lat="49.88535" lon="2.41213">
        <ele>26.5</ele>
        <time>2022-04-13T13:15:54Z</time>
      </trkpt>
      <trkpt lat="49.88535" lon="2.41215">
        <ele>26.5</ele>
        <time>2022-04-13T13:15:55Z</time>
      </trkpt>
      <trkpt lat="49.88535" lon="2.41217">
        <ele>26.5</ele>
        <time>2022-04-13T13:15:56Z</time>
      </trkpt>
      <trkpt lat="49.88535" lon="2.4122">
        <ele>26.5</ele>
        <time>2022-04-13T13:15:57Z</time>
      </trkpt>
      <trkpt lat="49.88535" lon="2.41221">
        <ele>26.5</ele>
        <time>2022-04-13T13:15:58Z</time>
      </trkpt>
      <trkpt lat="49.88535" lon="2.41223">
        <ele>26.5</ele>
        <time>2022-04-13T13:15:59Z</time>
      </trkpt>
      <trkpt lat="49.88535" lon="2.41223">
        <ele>26.5</ele>
        <time>2022-04-13T13:16:00Z</time>
      </trkpt>
      <trkpt lat="49.88535" lon="2.41225">
        <ele>26.5</ele>
        <time>2022-04-13T13:16:01Z</time>
      </trkpt>
      <trkpt lat="49.88536" lon="2.41228">
        <ele>26.6</ele>
        <time>2022-04-13T13:16:03Z</time>
      </trkpt>
      <trkpt lat="49.88536" lon="2.41229">
        <ele>26.6</ele>
        <time>2022-04-13T13:16:04Z</time>
      </trkpt>
      <trkpt lat="49.88536" lon="2.41231">
        <ele>26.6</ele>
        <time>2022-04-13T13:16:05Z</time>
      </trkpt>
      <trkpt lat="49.88537" lon="2.41232">
        <ele>26.6</ele>
        <time>2022-04-13T13:16:06Z</time>
      </trkpt>
      <trkpt lat="49.88537" lon="2.41234">
        <ele>26.6</ele>
        <time>2022-04-13T13:16:07Z</time>
      </trkpt>
      <trkpt lat="49.88538" lon="2.41236">
        <ele>26.6</ele>
        <time>2022-04-13T13:16:08Z</time>
      </trkpt>
      <trkpt lat="49.88538" lon="2.41237">
        <ele>26.6</ele>
        <time>2022-04-13T13:16:09Z</time>
      </trkpt>
      <trkpt lat="49.88539" lon="2.4124">
        <ele>26.6</ele>
        <time>2022-04-13T13:16:11Z</time>
      </trkpt>
      <trkpt lat="49.88539" lon="2.41241">
        <ele>26.6</ele>
        <time>2022-04-13T13:16:12Z</time>
      </trkpt>
      <trkpt lat="49.88539" lon="2.41243">
        <ele>26.6</ele>
        <time>2022-04-13T13:16:13Z</time>
      </trkpt>
      <trkpt lat="49.8854" lon="2.41245">
        <ele>26.6</ele>
        <time>2022-04-13T13:16:14Z</time>
      </trkpt>
      <trkpt lat="49.8854" lon="2.41247">
        <ele>26.6</ele>
        <time>2022-04-13T13:16:15Z</time>
      </trkpt>
      <trkpt lat="49.8854" lon="2.4125">
        <ele>26.6</ele>
        <time>2022-04-13T13:16:17Z</time>
      </trkpt>
      <trkpt lat="49.88541" lon="2.41252">
        <ele>26.6</ele>
        <time>2022-04-13T13:16:18Z</time>
      </trkpt>
      <trkpt lat="49.88541" lon="2.41254">
        <ele>26.6</ele>
        <time>2022-04-13T13:16:19Z</time>
      </trkpt>
      <trkpt lat="49.88541" lon="2.41255">
        <ele>26.6</ele>
        <time>2022-04-13T13:16:20Z</time>
      </trkpt>
      <trkpt lat="49.88542" lon="2.41257">
        <ele>26.6</ele>
        <time>2022-04-13T13:16:21Z</time>
      </trkpt>
      <trkpt lat="49.88542" lon="2.41258">
        <ele>26.6</ele>
        <time>2022-04-13T13:16:22Z</time>
      </trkpt>
      <trkpt lat="49.88542" lon="2.4126">
        <ele>26.6</ele>
        <time>2022-04-13T13:16:23Z</time>
      </trkpt>
      <trkpt lat="49.88542" lon="2.41261">
        <ele>26.6</ele>
        <time>2022-04-13T13:16:24Z</time>
      </trkpt>
      <trkpt lat="49.88542" lon="2.41264">
        <ele>26.6</ele>
        <time>2022-04-13T13:16:25Z</time>
      </trkpt>
      <trkpt lat="49.88542" lon="2.41266">
        <ele>26.6</ele>
        <time>2022-04-13T13:16:27Z</time>
      </trkpt>
      <trkpt lat="49.88542" lon="2.41267">
        <ele>26.6</ele>
        <time>2022-04-13T13:16:28Z</time>
      </trkpt>
      <trkpt lat="49.88542" lon="2.41269">
        <ele>26.6</ele>
        <time>2022-04-13T13:16:29Z</time>
      </trkpt>
      <trkpt lat="49.88542" lon="2.4127">
        <ele>26.6</ele>
        <time>2022-04-13T13:16:30Z</time>
      </trkpt>
      <trkpt lat="49.88541" lon="2.41272">
        <ele>26.6</ele>
        <time>2022-04-13T13:16:31Z</time>
      </trkpt>
      <trkpt lat="49.88541" lon="2.41276">
        <ele>26.6</ele>
        <time>2022-04-13T13:16:33Z</time>
      </trkpt>
      <trkpt lat="49.88541" lon="2.41277">
        <ele>26.6</ele>
        <time>2022-04-13T13:16:34Z</time>
      </trkpt>
      <trkpt lat="49.88541" lon="2.41279">
        <ele>26.6</ele>
        <time>2022-04-13T13:16:35Z</time>
      </trkpt>
      <trkpt lat="49.88541" lon="2.4128">
        <ele>26.6</ele>
        <time>2022-04-13T13:16:37Z</time>
      </trkpt>
      <trkpt lat="49.88541" lon="2.41282">
        <ele>26.6</ele>
        <time>2022-04-13T13:16:38Z</time>
      </trkpt>
      <trkpt lat="49.88541" lon="2.41283">
        <ele>26.6</ele>
        <time>2022-04-13T13:16:39Z</time>
      </trkpt>
      <trkpt lat="49.88541" lon="2.41283">
        <ele>26.6</ele>
        <time>2022-04-13T13:16:40Z</time>
      </trkpt>
      <trkpt lat="49.88541" lon="2.41283">
        <ele>26.6</ele>
        <time>2022-04-13T13:16:42Z</time>
      </trkpt>
      <trkpt lat="49.88541" lon="2.41283">
        <ele>26.6</ele>
        <time>2022-04-13T13:16:43Z</time>
      </trkpt>
      <trkpt lat="49.88541" lon="2.41284">
        <ele>26.6</ele>
        <time>2022-04-13T13:16:45Z</time>
      </trkpt>
      <trkpt lat="49.88541" lon="2.41284">
        <ele>26.6</ele>
        <time>2022-04-13T13:16:46Z</time>
      </trkpt>
      <trkpt lat="49.88541" lon="2.41285">
        <ele>26.6</ele>
        <time>2022-04-13T13:16:47Z</time>
      </trkpt>
      <trkpt lat="49.88541" lon="2.41285">
        <ele>26.6</ele>
        <time>2022-04-13T13:16:48Z</time>
      </trkpt>
      <trkpt lat="49.8854" lon="2.41285">
        <ele>26.6</ele>
        <time>2022-04-13T13:16:49Z</time>
      </trkpt>
      <trkpt lat="49.8854" lon="2.41286">
        <ele>26.6</ele>
        <time>2022-04-13T13:16:50Z</time>
      </trkpt>
      <trkpt lat="49.88541" lon="2.41287">
        <ele>26.6</ele>
        <time>2022-04-13T13:16:52Z</time>
      </trkpt>
      <trkpt lat="49.8854" lon="2.41288">
        <ele>26.6</ele>
        <time>2022-04-13T13:16:53Z</time>
      </trkpt>
      <trkpt lat="49.8854" lon="2.41289">
        <ele>26.6</ele>
        <time>2022-04-13T13:16:54Z</time>
      </trkpt>
      <trkpt lat="49.8854" lon="2.4129">
        <ele>26.6</ele>
        <time>2022-04-13T13:16:55Z</time>
      </trkpt>
      <trkpt lat="49.8854" lon="2.41291">
        <ele>26.6</ele>
        <time>2022-04-13T13:16:57Z</time>
      </trkpt>
      <trkpt lat="49.8854" lon="2.41292">
        <ele>26.6</ele>
        <time>2022-04-13T13:16:58Z</time>
      </trkpt>
      <trkpt lat="49.88539" lon="2.41293">
        <ele>26.6</ele>
        <time>2022-04-13T13:16:59Z</time>
      </trkpt>
      <trkpt lat="49.88539" lon="2.41295">
        <ele>26.6</ele>
        <time>2022-04-13T13:17:00Z</time>
      </trkpt>
      <trkpt lat="49.88539" lon="2.41296">
        <ele>26.6</ele>
        <time>2022-04-13T13:17:01Z</time>
      </trkpt>
      <trkpt lat="49.88538" lon="2.41298">
        <ele>26.5</ele>
        <time>2022-04-13T13:17:02Z</time>
      </trkpt>
      <trkpt lat="49.88537" lon="2.413">
        <ele>26.5</ele>
        <time>2022-04-13T13:17:04Z</time>
      </trkpt>
      <trkpt lat="49.88536" lon="2.41302">
        <ele>26.5</ele>
        <time>2022-04-13T13:17:05Z</time>
      </trkpt>
      <trkpt lat="49.88536" lon="2.41304">
        <ele>26.5</ele>
        <time>2022-04-13T13:17:06Z</time>
      </trkpt>
      <trkpt lat="49.88535" lon="2.41306">
        <ele>26.5</ele>
        <time>2022-04-13T13:17:07Z</time>
      </trkpt>
      <trkpt lat="49.88535" lon="2.41308">
        <ele>26.5</ele>
        <time>2022-04-13T13:17:08Z</time>
      </trkpt>
      <trkpt lat="49.88534" lon="2.41312">
        <ele>26.5</ele>
        <time>2022-04-13T13:17:09Z</time>
      </trkpt>
      <trkpt lat="49.88534" lon="2.41313">
        <ele>26.5</ele>
        <time>2022-04-13T13:17:10Z</time>
      </trkpt>
      <trkpt lat="49.88532" lon="2.41318">
        <ele>26.5</ele>
        <time>2022-04-13T13:17:11Z</time>
      </trkpt>
      <trkpt lat="49.88532" lon="2.4132">
        <ele>26.5</ele>
        <time>2022-04-13T13:17:12Z</time>
      </trkpt>
      <trkpt lat="49.8853" lon="2.41325">
        <ele>26.5</ele>
        <time>2022-04-13T13:17:14Z</time>
      </trkpt>
      <trkpt lat="49.8853" lon="2.41327">
        <ele>26.5</ele>
        <time>2022-04-13T13:17:15Z</time>
      </trkpt>
      <trkpt lat="49.88529" lon="2.41329">
        <ele>26.5</ele>
        <time>2022-04-13T13:17:16Z</time>
      </trkpt>
      <trkpt lat="49.88528" lon="2.41333">
        <ele>26.5</ele>
        <time>2022-04-13T13:17:17Z</time>
      </trkpt>
      <trkpt lat="49.88527" lon="2.41334">
        <ele>26.5</ele>
        <time>2022-04-13T13:17:18Z</time>
      </trkpt>
      <trkpt lat="49.88527" lon="2.41336">
        <ele>26.5</ele>
        <time>2022-04-13T13:17:19Z</time>
      </trkpt>
      <trkpt lat="49.88526" lon="2.41338">
        <ele>26.5</ele>
        <time>2022-04-13T13:17:20Z</time>
      </trkpt>
      <trkpt lat="49.88525" lon="2.41341">
        <ele>26.5</ele>
        <time>2022-04-13T13:17:21Z</time>
      </trkpt>
      <trkpt lat="49.88525" lon="2.41343">
        <ele>26.5</ele>
        <time>2022-04-13T13:17:22Z</time>
      </trkpt>
      <trkpt lat="49.88524" lon="2.41344">
        <ele>26.5</ele>
        <time>2022-04-13T13:17:23Z</time>
      </trkpt>
      <trkpt lat="49.88523" lon="2.41346">
        <ele>26.5</ele>
        <time>2022-04-13T13:17:25Z</time>
      </trkpt>
      <trkpt lat="49.88522" lon="2.41348">
        <ele>26.5</ele>
        <time>2022-04-13T13:17:26Z</time>
      </trkpt>
      <trkpt lat="49.88522" lon="2.41349">
        <ele>26.5</ele>
        <time>2022-04-13T13:17:27Z</time>
      </trkpt>
      <trkpt lat="49.88521" lon="2.41351">
        <ele>26.5</ele>
        <time>2022-04-13T13:17:28Z</time>
      </trkpt>
      <trkpt lat="49.8852" lon="2.41354">
        <ele>26.5</ele>
        <time>2022-04-13T13:17:29Z</time>
      </trkpt>
      <trkpt lat="49.8852" lon="2.41355">
        <ele>26.5</ele>
        <time>2022-04-13T13:17:30Z</time>
      </trkpt>
      <trkpt lat="49.88519" lon="2.41356">
        <ele>26.5</ele>
        <time>2022-04-13T13:17:31Z</time>
      </trkpt>
      <trkpt lat="49.88519" lon="2.41357">
        <ele>26.5</ele>
        <time>2022-04-13T13:17:32Z</time>
      </trkpt>
      <trkpt lat="49.88519" lon="2.41357">
        <ele>26.5</ele>
        <time>2022-04-13T13:17:33Z</time>
      </trkpt>
      <trkpt lat="49.88519" lon="2.41358">
        <ele>26.5</ele>
        <time>2022-04-13T13:17:34Z</time>
      </trkpt>
      <trkpt lat="49.88518" lon="2.41361">
        <ele>26.5</ele>
        <time>2022-04-13T13:17:36Z</time>
      </trkpt>
      <trkpt lat="49.88517" lon="2.41363">
        <ele>26.5</ele>
        <time>2022-04-13T13:17:37Z</time>
      </trkpt>
      <trkpt lat="49.88517" lon="2.41365">
        <ele>26.5</ele>
        <time>2022-04-13T13:17:38Z</time>
      </trkpt>
      <trkpt lat="49.88516" lon="2.41367">
        <ele>26.5</ele>
        <time>2022-04-13T13:17:39Z</time>
      </trkpt>
      <trkpt lat="49.88515" lon="2.41369">
        <ele>26.5</ele>
        <time>2022-04-13T13:17:40Z</time>
      </trkpt>
      <trkpt lat="49.88515" lon="2.41371">
        <ele>26.5</ele>
        <time>2022-04-13T13:17:41Z</time>
      </trkpt>
      <trkpt lat="49.88514" lon="2.41373">
        <ele>26.5</ele>
        <time>2022-04-13T13:17:42Z</time>
      </trkpt>
      <trkpt lat="49.88514" lon="2.41374">
        <ele>26.5</ele>
        <time>2022-04-13T13:17:43Z</time>
      </trkpt>
      <trkpt lat="49.88513" lon="2.41374">
        <ele>26.5</ele>
        <time>2022-04-13T13:17:44Z</time>
      </trkpt>
      <trkpt lat="49.88513" lon="2.41374">
        <ele>26.5</ele>
        <time>2022-04-13T13:17:45Z</time>
      </trkpt>
      <trkpt lat="49.88513" lon="2.41375">
        <ele>26.5</ele>
        <time>2022-04-13T13:17:46Z</time>
      </trkpt>
      <trkpt lat="49.88512" lon="2.41376">
        <ele>26.5</ele>
        <time>2022-04-13T13:17:48Z</time>
      </trkpt>
      <trkpt lat="49.88512" lon="2.41378">
        <ele>26.5</ele>
        <time>2022-04-13T13:17:49Z</time>
      </trkpt>
      <trkpt lat="49.88512" lon="2.41379">
        <ele>26.5</ele>
        <time>2022-04-13T13:17:50Z</time>
      </trkpt>
      <trkpt lat="49.88511" lon="2.41381">
        <ele>26.5</ele>
        <time>2022-04-13T13:17:51Z</time>
      </trkpt>
      <trkpt lat="49.88511" lon="2.41382">
        <ele>26.6</ele>
        <time>2022-04-13T13:17:52Z</time>
      </trkpt>
      <trkpt lat="49.88511" lon="2.41384">
        <ele>26.6</ele>
        <time>2022-04-13T13:17:53Z</time>
      </trkpt>
      <trkpt lat="49.88511" lon="2.41386">
        <ele>26.6</ele>
        <time>2022-04-13T13:17:54Z</time>
      </trkpt>
      <trkpt lat="49.8851" lon="2.41387">
        <ele>26.6</ele>
        <time>2022-04-13T13:17:55Z</time>
      </trkpt>
      <trkpt lat="49.8851" lon="2.41389">
        <ele>26.6</ele>
        <time>2022-04-13T13:17:56Z</time>
      </trkpt>
      <trkpt lat="49.88509" lon="2.41391">
        <ele>26.6</ele>
        <time>2022-04-13T13:17:58Z</time>
      </trkpt>
      <trkpt lat="49.88509" lon="2.41394">
        <ele>26.6</ele>
        <time>2022-04-13T13:17:59Z</time>
      </trkpt>
      <trkpt lat="49.88508" lon="2.41395">
        <ele>26.6</ele>
        <time>2022-04-13T13:18:00Z</time>
      </trkpt>
      <trkpt lat="49.88508" lon="2.41397">
        <ele>26.6</ele>
        <time>2022-04-13T13:18:01Z</time>
      </trkpt>
      <trkpt lat="49.88508" lon="2.41399">
        <ele>26.6</ele>
        <time>2022-04-13T13:18:02Z</time>
      </trkpt>
      <trkpt lat="49.88507" lon="2.41401">
        <ele>26.7</ele>
        <time>2022-04-13T13:18:03Z</time>
      </trkpt>
      <trkpt lat="49.88506" lon="2.41405">
        <ele>26.7</ele>
        <time>2022-04-13T13:18:05Z</time>
      </trkpt>
      <trkpt lat="49.88506" lon="2.41406">
        <ele>26.7</ele>
        <time>2022-04-13T13:18:06Z</time>
      </trkpt>
      <trkpt lat="49.88505" lon="2.41409">
        <ele>26.7</ele>
        <time>2022-04-13T13:18:07Z</time>
      </trkpt>
      <trkpt lat="49.88504" lon="2.41411">
        <ele>26.7</ele>
        <time>2022-04-13T13:18:08Z</time>
      </trkpt>
      <trkpt lat="49.88504" lon="2.41414">
        <ele>26.7</ele>
        <time>2022-04-13T13:18:09Z</time>
      </trkpt>
      <trkpt lat="49.88503" lon="2.41415">
        <ele>26.7</ele>
        <time>2022-04-13T13:18:10Z</time>
      </trkpt>
      <trkpt lat="49.88503" lon="2.41417">
        <ele>26.7</ele>
        <time>2022-04-13T13:18:11Z</time>
      </trkpt>
      <trkpt lat="49.88503" lon="2.41418">
        <ele>26.7</ele>
        <time>2022-04-13T13:18:12Z</time>
      </trkpt>
      <trkpt lat="49.88503" lon="2.4142">
        <ele>26.7</ele>
        <time>2022-04-13T13:18:13Z</time>
      </trkpt>
      <trkpt lat="49.88502" lon="2.41421">
        <ele>26.7</ele>
        <time>2022-04-13T13:18:14Z</time>
      </trkpt>
      <trkpt lat="49.88502" lon="2.41423">
        <ele>26.7</ele>
        <time>2022-04-13T13:18:16Z</time>
      </trkpt>
      <trkpt lat="49.88502" lon="2.41424">
        <ele>26.7</ele>
        <time>2022-04-13T13:18:17Z</time>
      </trkpt>
      <trkpt lat="49.88502" lon="2.41426">
        <ele>26.7</ele>
        <time>2022-04-13T13:18:18Z</time>
      </trkpt>
      <trkpt lat="49.88502" lon="2.41427">
        <ele>26.7</ele>
        <time>2022-04-13T13:18:19Z</time>
      </trkpt>
      <trkpt lat="49.88501" lon="2.41429">
        <ele>26.7</ele>
        <time>2022-04-13T13:18:20Z</time>
      </trkpt>
      <trkpt lat="49.88501" lon="2.41431">
        <ele>26.7</ele>
        <time>2022-04-13T13:18:21Z</time>
      </trkpt>
      <trkpt lat="49.88501" lon="2.41434">
        <ele>26.7</ele>
        <time>2022-04-13T13:18:22Z</time>
      </trkpt>
      <trkpt lat="49.88501" lon="2.41435">
        <ele>26.7</ele>
        <time>2022-04-13T13:18:23Z</time>
      </trkpt>
      <trkpt lat="49.88501" lon="2.41437">
        <ele>26.7</ele>
        <time>2022-04-13T13:18:24Z</time>
      </trkpt>
      <trkpt lat="49.88501" lon="2.4144">
        <ele>26.7</ele>
        <time>2022-04-13T13:18:25Z</time>
      </trkpt>
      <trkpt lat="49.88501" lon="2.41441">
        <ele>26.7</ele>
        <time>2022-04-13T13:18:26Z</time>
      </trkpt>
      <trkpt lat="49.88501" lon="2.41442">
        <ele>26.7</ele>
        <time>2022-04-13T13:18:27Z</time>
      </trkpt>
      <trkpt lat="49.88501" lon="2.41445">
        <ele>26.7</ele>
        <time>2022-04-13T13:18:29Z</time>
      </trkpt>
      <trkpt lat="49.88501" lon="2.41447">
        <ele>26.7</ele>
        <time>2022-04-13T13:18:30Z</time>
      </trkpt>
      <trkpt lat="49.88501" lon="2.41451">
        <ele>26.7</ele>
        <time>2022-04-13T13:18:31Z</time>
      </trkpt>
      <trkpt lat="49.88501" lon="2.41452">
        <ele>26.7</ele>
        <time>2022-04-13T13:18:32Z</time>
      </trkpt>
      <trkpt lat="49.88501" lon="2.41453">
        <ele>26.7</ele>
        <time>2022-04-13T13:18:33Z</time>
      </trkpt>
      <trkpt lat="49.88501" lon="2.41456">
        <ele>26.6</ele>
        <time>2022-04-13T13:18:34Z</time>
      </trkpt>
      <trkpt lat="49.88501" lon="2.41458">
        <ele>26.6</ele>
        <time>2022-04-13T13:18:35Z</time>
      </trkpt>
      <trkpt lat="49.88501" lon="2.41462">
        <ele>26.6</ele>
        <time>2022-04-13T13:18:37Z</time>
      </trkpt>
      <trkpt lat="49.88501" lon="2.41464">
        <ele>26.6</ele>
        <time>2022-04-13T13:18:38Z</time>
      </trkpt>
      <trkpt lat="49.88501" lon="2.41466">
        <ele>26.6</ele>
        <time>2022-04-13T13:18:39Z</time>
      </trkpt>
      <trkpt lat="49.88501" lon="2.41468">
        <ele>26.6</ele>
        <time>2022-04-13T13:18:40Z</time>
      </trkpt>
      <trkpt lat="49.88502" lon="2.41471">
        <ele>26.6</ele>
        <time>2022-04-13T13:18:41Z</time>
      </trkpt>
      <trkpt lat="49.88502" lon="2.41474">
        <ele>26.6</ele>
        <time>2022-04-13T13:18:42Z</time>
      </trkpt>
      <trkpt lat="49.88502" lon="2.41476">
        <ele>26.6</ele>
        <time>2022-04-13T13:18:43Z</time>
      </trkpt>
      <trkpt lat="49.88502" lon="2.41478">
        <ele>26.6</ele>
        <time>2022-04-13T13:18:45Z</time>
      </trkpt>
      <trkpt lat="49.88502" lon="2.41479">
        <ele>26.6</ele>
        <time>2022-04-13T13:18:46Z</time>
      </trkpt>
      <trkpt lat="49.88502" lon="2.4148">
        <ele>26.6</ele>
        <time>2022-04-13T13:18:47Z</time>
      </trkpt>
      <trkpt lat="49.88502" lon="2.41482">
        <ele>26.6</ele>
        <time>2022-04-13T13:18:48Z</time>
      </trkpt>
      <trkpt lat="49.88502" lon="2.41484">
        <ele>26.5</ele>
        <time>2022-04-13T13:18:49Z</time>
      </trkpt>
      <trkpt lat="49.88503" lon="2.41486">
        <ele>26.5</ele>
        <time>2022-04-13T13:18:50Z</time>
      </trkpt>
      <trkpt lat="49.88503" lon="2.41488">
        <ele>26.5</ele>
        <time>2022-04-13T13:18:51Z</time>
      </trkpt>
      <trkpt lat="49.88503" lon="2.4149">
        <ele>26.5</ele>
        <time>2022-04-13T13:18:52Z</time>
      </trkpt>
      <trkpt lat="49.88503" lon="2.41491">
        <ele>26.5</ele>
        <time>2022-04-13T13:18:54Z</time>
      </trkpt>
      <trkpt lat="49.88504" lon="2.41493">
        <ele>26.5</ele>
        <time>2022-04-13T13:18:55Z</time>
      </trkpt>
      <trkpt lat="49.88504" lon="2.41495">
        <ele>26.5</ele>
        <time>2022-04-13T13:18:56Z</time>
      </trkpt>
      <trkpt lat="49.88504" lon="2.41496">
        <ele>26.5</ele>
        <time>2022-04-13T13:18:57Z</time>
      </trkpt>
      <trkpt lat="49.88504" lon="2.41498">
        <ele>26.5</ele>
        <time>2022-04-13T13:18:58Z</time>
      </trkpt>
      <trkpt lat="49.88504" lon="2.415">
        <ele>26.5</ele>
        <time>2022-04-13T13:19:00Z</time>
      </trkpt>
      <trkpt lat="49.88504" lon="2.41501">
        <ele>26.3</ele>
        <time>2022-04-13T13:19:01Z</time>
      </trkpt>
      <trkpt lat="49.88505" lon="2.41503">
        <ele>26.3</ele>
        <time>2022-04-13T13:19:02Z</time>
      </trkpt>
      <trkpt lat="49.88505" lon="2.41504">
        <ele>26.2</ele>
        <time>2022-04-13T13:19:04Z</time>
      </trkpt>
      <trkpt lat="49.88505" lon="2.41504">
        <ele>26.2</ele>
        <time>2022-04-13T13:19:05Z</time>
      </trkpt>
      <trkpt lat="49.88505" lon="2.41505">
        <ele>26.2</ele>
        <time>2022-04-13T13:19:06Z</time>
      </trkpt>
      <trkpt lat="49.88505" lon="2.41505">
        <ele>26.2</ele>
        <time>2022-04-13T13:19:07Z</time>
      </trkpt>
      <trkpt lat="49.88505" lon="2.41505">
        <ele>26.2</ele>
        <time>2022-04-13T13:19:08Z</time>
      </trkpt>
      <trkpt lat="49.88505" lon="2.41506">
        <ele>26.2</ele>
        <time>2022-04-13T13:19:09Z</time>
      </trkpt>
      <trkpt lat="49.88505" lon="2.41507">
        <ele>26.2</ele>
        <time>2022-04-13T13:19:11Z</time>
      </trkpt>
      <trkpt lat="49.88505" lon="2.41508">
        <ele>26.1</ele>
        <time>2022-04-13T13:19:12Z</time>
      </trkpt>
      <trkpt lat="49.88504" lon="2.41508">
        <ele>26.1</ele>
        <time>2022-04-13T13:19:13Z</time>
      </trkpt>
      <trkpt lat="49.88504" lon="2.41508">
        <ele>26.1</ele>
        <time>2022-04-13T13:19:15Z</time>
      </trkpt>
      <trkpt lat="49.88504" lon="2.41508">
        <ele>26.1</ele>
        <time>2022-04-13T13:19:16Z</time>
      </trkpt>
      <trkpt lat="49.88504" lon="2.41507">
        <ele>26.1</ele>
        <time>2022-04-13T13:19:17Z</time>
      </trkpt>
      <trkpt lat="49.88504" lon="2.41507">
        <ele>26.1</ele>
        <time>2022-04-13T13:19:18Z</time>
      </trkpt>
      <trkpt lat="49.88504" lon="2.41506">
        <ele>26.1</ele>
        <time>2022-04-13T13:19:19Z</time>
      </trkpt>
      <trkpt lat="49.88504" lon="2.41506">
        <ele>26.1</ele>
        <time>2022-04-13T13:19:20Z</time>
      </trkpt>
      <trkpt lat="49.88504" lon="2.41506">
        <ele>26.1</ele>
        <time>2022-04-13T13:19:21Z</time>
      </trkpt>
      <trkpt lat="49.88504" lon="2.41506">
        <ele>26.1</ele>
        <time>2022-04-13T13:19:22Z</time>
      </trkpt>
      <trkpt lat="49.88504" lon="2.41506">
        <ele>26.1</ele>
        <time>2022-04-13T13:19:23Z</time>
      </trkpt>
      <trkpt lat="49.88504" lon="2.41506">
        <ele>26.1</ele>
        <time>2022-04-13T13:19:24Z</time>
      </trkpt>
      <trkpt lat="49.88504" lon="2.41506">
        <ele>26</ele>
        <time>2022-04-13T13:19:25Z</time>
      </trkpt>
      <trkpt lat="49.88503" lon="2.41507">
        <ele>26</ele>
        <time>2022-04-13T13:19:27Z</time>
      </trkpt>
      <trkpt lat="49.88502" lon="2.41507">
        <ele>26</ele>
        <time>2022-04-13T13:19:28Z</time>
      </trkpt>
      <trkpt lat="49.88502" lon="2.41507">
        <ele>25.9</ele>
        <time>2022-04-13T13:19:29Z</time>
      </trkpt>
      <trkpt lat="49.88501" lon="2.41507">
        <ele>25.9</ele>
        <time>2022-04-13T13:19:30Z</time>
      </trkpt>
      <trkpt lat="49.885" lon="2.41507">
        <ele>25.8</ele>
        <time>2022-04-13T13:19:31Z</time>
      </trkpt>
      <trkpt lat="49.88498" lon="2.41508">
        <ele>25.7</ele>
        <time>2022-04-13T13:19:33Z</time>
      </trkpt>
      <trkpt lat="49.88497" lon="2.41509">
        <ele>25.7</ele>
        <time>2022-04-13T13:19:34Z</time>
      </trkpt>
      <trkpt lat="49.88496" lon="2.41511">
        <ele>25.6</ele>
        <time>2022-04-13T13:19:35Z</time>
      </trkpt>
      <trkpt lat="49.88495" lon="2.41512">
        <ele>25.6</ele>
        <time>2022-04-13T13:19:36Z</time>
      </trkpt>
      <trkpt lat="49.88494" lon="2.41514">
        <ele>25.5</ele>
        <time>2022-04-13T13:19:37Z</time>
      </trkpt>
      <trkpt lat="49.88493" lon="2.41515">
        <ele>25.5</ele>
        <time>2022-04-13T13:19:38Z</time>
      </trkpt>
      <trkpt lat="49.88493" lon="2.41516">
        <ele>25.5</ele>
        <time>2022-04-13T13:19:39Z</time>
      </trkpt>
      <trkpt lat="49.88492" lon="2.41517">
        <ele>25.4</ele>
        <time>2022-04-13T13:19:41Z</time>
      </trkpt>
      <trkpt lat="49.88492" lon="2.41519">
        <ele>25.4</ele>
        <time>2022-04-13T13:19:42Z</time>
      </trkpt>
      <trkpt lat="49.88492" lon="2.41521">
        <ele>25.4</ele>
        <time>2022-04-13T13:19:43Z</time>
      </trkpt>
      <trkpt lat="49.88492" lon="2.41522">
        <ele>25.4</ele>
        <time>2022-04-13T13:19:44Z</time>
      </trkpt>
      <trkpt lat="49.88492" lon="2.41524">
        <ele>25.3</ele>
        <time>2022-04-13T13:19:45Z</time>
      </trkpt>
      <trkpt lat="49.88492" lon="2.41526">
        <ele>25.3</ele>
        <time>2022-04-13T13:19:46Z</time>
      </trkpt>
      <trkpt lat="49.88492" lon="2.41528">
        <ele>25.3</ele>
        <time>2022-04-13T13:19:47Z</time>
      </trkpt>
      <trkpt lat="49.88493" lon="2.41529">
        <ele>25.2</ele>
        <time>2022-04-13T13:19:48Z</time>
      </trkpt>
      <trkpt lat="49.88493" lon="2.41531">
        <ele>25.2</ele>
        <time>2022-04-13T13:19:50Z</time>
      </trkpt>
      <trkpt lat="49.88493" lon="2.41533">
        <ele>25.2</ele>
        <time>2022-04-13T13:19:51Z</time>
      </trkpt>
      <trkpt lat="49.88494" lon="2.41535">
        <ele>25.2</ele>
        <time>2022-04-13T13:19:52Z</time>
      </trkpt>
      <trkpt lat="49.88494" lon="2.41536">
        <ele>25.1</ele>
        <time>2022-04-13T13:19:53Z</time>
      </trkpt>
      <trkpt lat="49.88495" lon="2.41537">
        <ele>25.1</ele>
        <time>2022-04-13T13:19:54Z</time>
      </trkpt>
      <trkpt lat="49.88495" lon="2.41539">
        <ele>25.1</ele>
        <time>2022-04-13T13:19:55Z</time>
      </trkpt>
      <trkpt lat="49.88496" lon="2.4154">
        <ele>25.1</ele>
        <time>2022-04-13T13:19:57Z</time>
      </trkpt>
      <trkpt lat="49.88496" lon="2.41542">
        <ele>25</ele>
        <time>2022-04-13T13:19:58Z</time>
      </trkpt>
      <trkpt lat="49.88496" lon="2.41543">
        <ele>25</ele>
        <time>2022-04-13T13:19:59Z</time>
      </trkpt>
      <trkpt lat="49.88496" lon="2.41544">
        <ele>25</ele>
        <time>2022-04-13T13:20:00Z</time>
      </trkpt>
      <trkpt lat="49.88497" lon="2.41545">
        <ele>25</ele>
        <time>2022-04-13T13:20:01Z</time>
      </trkpt>
      <trkpt lat="49.88497" lon="2.41547">
        <ele>25</ele>
        <time>2022-04-13T13:20:02Z</time>
      </trkpt>
      <trkpt lat="49.88498" lon="2.41549">
        <ele>25</ele>
        <time>2022-04-13T13:20:03Z</time>
      </trkpt>
      <trkpt lat="49.88498" lon="2.4155">
        <ele>24.9</ele>
        <time>2022-04-13T13:20:04Z</time>
      </trkpt>
      <trkpt lat="49.88498" lon="2.41551">
        <ele>24.9</ele>
        <time>2022-04-13T13:20:06Z</time>
      </trkpt>
      <trkpt lat="49.88499" lon="2.41552">
        <ele>24.9</ele>
        <time>2022-04-13T13:20:07Z</time>
      </trkpt>
      <trkpt lat="49.88499" lon="2.41554">
        <ele>24.9</ele>
        <time>2022-04-13T13:20:08Z</time>
      </trkpt>
      <trkpt lat="49.88499" lon="2.41554">
        <ele>24.9</ele>
        <time>2022-04-13T13:20:09Z</time>
      </trkpt>
      <trkpt lat="49.88499" lon="2.41555">
        <ele>24.9</ele>
        <time>2022-04-13T13:20:11Z</time>
      </trkpt>
      <trkpt lat="49.88499" lon="2.41556">
        <ele>24.9</ele>
        <time>2022-04-13T13:20:12Z</time>
      </trkpt>
      <trkpt lat="49.885" lon="2.41558">
        <ele>24.9</ele>
        <time>2022-04-13T13:20:14Z</time>
      </trkpt>
      <trkpt lat="49.88499" lon="2.41559">
        <ele>24.9</ele>
        <time>2022-04-13T13:20:15Z</time>
      </trkpt>
      <trkpt lat="49.88499" lon="2.41559">
        <ele>24.9</ele>
        <time>2022-04-13T13:20:16Z</time>
      </trkpt>
      <trkpt lat="49.88499" lon="2.41561">
        <ele>24.8</ele>
        <time>2022-04-13T13:20:17Z</time>
      </trkpt>
      <trkpt lat="49.88499" lon="2.41563">
        <ele>24.8</ele>
        <time>2022-04-13T13:20:19Z</time>
      </trkpt>
      <trkpt lat="49.88498" lon="2.41565">
        <ele>24.8</ele>
        <time>2022-04-13T13:20:20Z</time>
      </trkpt>
      <trkpt lat="49.88498" lon="2.41566">
        <ele>24.8</ele>
        <time>2022-04-13T13:20:22Z</time>
      </trkpt>
      <trkpt lat="49.88498" lon="2.41568">
        <ele>24.8</ele>
        <time>2022-04-13T13:20:23Z</time>
      </trkpt>
      <trkpt lat="49.88498" lon="2.41569">
        <ele>24.8</ele>
        <time>2022-04-13T13:20:24Z</time>
      </trkpt>
      <trkpt lat="49.88498" lon="2.4157">
        <ele>24.8</ele>
        <time>2022-04-13T13:20:25Z</time>
      </trkpt>
      <trkpt lat="49.88498" lon="2.41572">
        <ele>24.8</ele>
        <time>2022-04-13T13:20:26Z</time>
      </trkpt>
      <trkpt lat="49.88498" lon="2.41573">
        <ele>24.8</ele>
        <time>2022-04-13T13:20:27Z</time>
      </trkpt>
      <trkpt lat="49.88498" lon="2.41575">
        <ele>24.8</ele>
        <time>2022-04-13T13:20:28Z</time>
      </trkpt>
      <trkpt lat="49.88498" lon="2.41576">
        <ele>24.8</ele>
        <time>2022-04-13T13:20:29Z</time>
      </trkpt>
      <trkpt lat="49.88498" lon="2.41577">
        <ele>24.7</ele>
        <time>2022-04-13T13:20:30Z</time>
      </trkpt>
      <trkpt lat="49.88498" lon="2.41578">
        <ele>24.7</ele>
        <time>2022-04-13T13:20:31Z</time>
      </trkpt>
      <trkpt lat="49.88497" lon="2.41581">
        <ele>24.7</ele>
        <time>2022-04-13T13:20:33Z</time>
      </trkpt>
      <trkpt lat="49.88497" lon="2.41582">
        <ele>24.7</ele>
        <time>2022-04-13T13:20:34Z</time>
      </trkpt>
      <trkpt lat="49.88497" lon="2.41584">
        <ele>24.7</ele>
        <time>2022-04-13T13:20:35Z</time>
      </trkpt>
      <trkpt lat="49.88496" lon="2.41588">
        <ele>24.7</ele>
        <time>2022-04-13T13:20:36Z</time>
      </trkpt>
      <trkpt lat="49.88496" lon="2.4159">
        <ele>24.7</ele>
        <time>2022-04-13T13:20:38Z</time>
      </trkpt>
      <trkpt lat="49.88496" lon="2.41591">
        <ele>24.7</ele>
        <time>2022-04-13T13:20:39Z</time>
      </trkpt>
      <trkpt lat="49.88495" lon="2.41593">
        <ele>24.7</ele>
        <time>2022-04-13T13:20:40Z</time>
      </trkpt>
      <trkpt lat="49.88495" lon="2.41595">
        <ele>24.7</ele>
        <time>2022-04-13T13:20:41Z</time>
      </trkpt>
      <trkpt lat="49.88495" lon="2.41597">
        <ele>24.6</ele>
        <time>2022-04-13T13:20:43Z</time>
      </trkpt>
      <trkpt lat="49.88495" lon="2.41601">
        <ele>24.6</ele>
        <time>2022-04-13T13:20:45Z</time>
      </trkpt>
      <trkpt lat="49.88495" lon="2.41602">
        <ele>24.6</ele>
        <time>2022-04-13T13:20:46Z</time>
      </trkpt>
      <trkpt lat="49.88495" lon="2.41604">
        <ele>24.6</ele>
        <time>2022-04-13T13:20:47Z</time>
      </trkpt>
      <trkpt lat="49.88494" lon="2.41605">
        <ele>24.6</ele>
        <time>2022-04-13T13:20:48Z</time>
      </trkpt>
      <trkpt lat="49.88494" lon="2.41608">
        <ele>24.6</ele>
        <time>2022-04-13T13:20:49Z</time>
      </trkpt>
      <trkpt lat="49.88494" lon="2.41609">
        <ele>24.6</ele>
        <time>2022-04-13T13:20:50Z</time>
      </trkpt>
      <trkpt lat="49.88494" lon="2.41611">
        <ele>24.6</ele>
        <time>2022-04-13T13:20:52Z</time>
      </trkpt>
      <trkpt lat="49.88494" lon="2.41613">
        <ele>24.6</ele>
        <time>2022-04-13T13:20:53Z</time>
      </trkpt>
      <trkpt lat="49.88494" lon="2.41615">
        <ele>24.6</ele>
        <time>2022-04-13T13:20:54Z</time>
      </trkpt>
      <trkpt lat="49.88494" lon="2.41617">
        <ele>24.6</ele>
        <time>2022-04-13T13:20:55Z</time>
      </trkpt>
      <trkpt lat="49.88494" lon="2.41619">
        <ele>24.5</ele>
        <time>2022-04-13T13:20:57Z</time>
      </trkpt>
      <trkpt lat="49.88494" lon="2.41621">
        <ele>24.5</ele>
        <time>2022-04-13T13:20:58Z</time>
      </trkpt>
      <trkpt lat="49.88495" lon="2.41622">
        <ele>24.5</ele>
        <time>2022-04-13T13:20:59Z</time>
      </trkpt>
      <trkpt lat="49.88495" lon="2.41624">
        <ele>24.5</ele>
        <time>2022-04-13T13:21:00Z</time>
      </trkpt>
      <trkpt lat="49.88495" lon="2.41626">
        <ele>24.5</ele>
        <time>2022-04-13T13:21:01Z</time>
      </trkpt>
      <trkpt lat="49.88495" lon="2.41628">
        <ele>24.5</ele>
        <time>2022-04-13T13:21:02Z</time>
      </trkpt>
      <trkpt lat="49.88495" lon="2.41629">
        <ele>24.5</ele>
        <time>2022-04-13T13:21:03Z</time>
      </trkpt>
      <trkpt lat="49.88495" lon="2.41631">
        <ele>24.5</ele>
        <time>2022-04-13T13:21:05Z</time>
      </trkpt>
      <trkpt lat="49.88496" lon="2.41633">
        <ele>24.5</ele>
        <time>2022-04-13T13:21:06Z</time>
      </trkpt>
      <trkpt lat="49.88496" lon="2.41634">
        <ele>24.5</ele>
        <time>2022-04-13T13:21:07Z</time>
      </trkpt>
      <trkpt lat="49.88496" lon="2.41636">
        <ele>24.5</ele>
        <time>2022-04-13T13:21:08Z</time>
      </trkpt>
      <trkpt lat="49.88497" lon="2.41638">
        <ele>24.5</ele>
        <time>2022-04-13T13:21:09Z</time>
      </trkpt>
      <trkpt lat="49.88497" lon="2.4164">
        <ele>24.5</ele>
        <time>2022-04-13T13:21:11Z</time>
      </trkpt>
      <trkpt lat="49.88497" lon="2.41641">
        <ele>24.5</ele>
        <time>2022-04-13T13:21:12Z</time>
      </trkpt>
      <trkpt lat="49.88498" lon="2.41643">
        <ele>24.5</ele>
        <time>2022-04-13T13:21:13Z</time>
      </trkpt>
      <trkpt lat="49.88498" lon="2.41644">
        <ele>24.5</ele>
        <time>2022-04-13T13:21:14Z</time>
      </trkpt>
      <trkpt lat="49.88498" lon="2.41646">
        <ele>24.5</ele>
        <time>2022-04-13T13:21:15Z</time>
      </trkpt>
      <trkpt lat="49.88498" lon="2.41647">
        <ele>24.5</ele>
        <time>2022-04-13T13:21:16Z</time>
      </trkpt>
      <trkpt lat="49.88498" lon="2.41649">
        <ele>24.5</ele>
        <time>2022-04-13T13:21:18Z</time>
      </trkpt>
      <trkpt lat="49.88498" lon="2.4165">
        <ele>24.5</ele>
        <time>2022-04-13T13:21:19Z</time>
      </trkpt>
      <trkpt lat="49.88498" lon="2.41651">
        <ele>24.5</ele>
        <time>2022-04-13T13:21:20Z</time>
      </trkpt>
      <trkpt lat="49.88499" lon="2.41652">
        <ele>24.5</ele>
        <time>2022-04-13T13:21:21Z</time>
      </trkpt>
      <trkpt lat="49.88499" lon="2.41653">
        <ele>24.5</ele>
        <time>2022-04-13T13:21:22Z</time>
      </trkpt>
      <trkpt lat="49.88499" lon="2.41655">
        <ele>24.5</ele>
        <time>2022-04-13T13:21:23Z</time>
      </trkpt>
      <trkpt lat="49.88499" lon="2.41657">
        <ele>24.5</ele>
        <time>2022-04-13T13:21:25Z</time>
      </trkpt>
      <trkpt lat="49.88499" lon="2.41658">
        <ele>24.5</ele>
        <time>2022-04-13T13:21:26Z</time>
      </trkpt>
      <trkpt lat="49.88499" lon="2.41659">
        <ele>24.5</ele>
        <time>2022-04-13T13:21:27Z</time>
      </trkpt>
      <trkpt lat="49.885" lon="2.4166">
        <ele>24.5</ele>
        <time>2022-04-13T13:21:28Z</time>
      </trkpt>
      <trkpt lat="49.885" lon="2.41662">
        <ele>24.5</ele>
        <time>2022-04-13T13:21:29Z</time>
      </trkpt>
      <trkpt lat="49.885" lon="2.41664">
        <ele>24.5</ele>
        <time>2022-04-13T13:21:31Z</time>
      </trkpt>
      <trkpt lat="49.88501" lon="2.41666">
        <ele>24.5</ele>
        <time>2022-04-13T13:21:32Z</time>
      </trkpt>
      <trkpt lat="49.88501" lon="2.41667">
        <ele>24.5</ele>
        <time>2022-04-13T13:21:33Z</time>
      </trkpt>
      <trkpt lat="49.88501" lon="2.41668">
        <ele>24.5</ele>
        <time>2022-04-13T13:21:34Z</time>
      </trkpt>
      <trkpt lat="49.88501" lon="2.41669">
        <ele>24.5</ele>
        <time>2022-04-13T13:21:35Z</time>
      </trkpt>
      <trkpt lat="49.88502" lon="2.4167">
        <ele>24.5</ele>
        <time>2022-04-13T13:21:36Z</time>
      </trkpt>
      <trkpt lat="49.88502" lon="2.41673">
        <ele>24.5</ele>
        <time>2022-04-13T13:21:38Z</time>
      </trkpt>
      <trkpt lat="49.88503" lon="2.41674">
        <ele>24.5</ele>
        <time>2022-04-13T13:21:39Z</time>
      </trkpt>
      <trkpt lat="49.88503" lon="2.41675">
        <ele>24.5</ele>
        <time>2022-04-13T13:21:40Z</time>
      </trkpt>
      <trkpt lat="49.88503" lon="2.41676">
        <ele>24.5</ele>
        <time>2022-04-13T13:21:41Z</time>
      </trkpt>
      <trkpt lat="49.88503" lon="2.41678">
        <ele>24.5</ele>
        <time>2022-04-13T13:21:42Z</time>
      </trkpt>
      <trkpt lat="49.88503" lon="2.41679">
        <ele>24.5</ele>
        <time>2022-04-13T13:21:43Z</time>
      </trkpt>
      <trkpt lat="49.88504" lon="2.41681">
        <ele>24.5</ele>
        <time>2022-04-13T13:21:45Z</time>
      </trkpt>
      <trkpt lat="49.88503" lon="2.41683">
        <ele>24.5</ele>
        <time>2022-04-13T13:21:46Z</time>
      </trkpt>
      <trkpt lat="49.88503" lon="2.41684">
        <ele>24.5</ele>
        <time>2022-04-13T13:21:47Z</time>
      </trkpt>
      <trkpt lat="49.88503" lon="2.41685">
        <ele>24.5</ele>
        <time>2022-04-13T13:21:48Z</time>
      </trkpt>
      <trkpt lat="49.88503" lon="2.41687">
        <ele>24.5</ele>
        <time>2022-04-13T13:21:49Z</time>
      </trkpt>
      <trkpt lat="49.88504" lon="2.41689">
        <ele>24.5</ele>
        <time>2022-04-13T13:21:50Z</time>
      </trkpt>
      <trkpt lat="49.88504" lon="2.41691">
        <ele>24.5</ele>
        <time>2022-04-13T13:21:52Z</time>
      </trkpt>
      <trkpt lat="49.88504" lon="2.41693">
        <ele>24.5</ele>
        <time>2022-04-13T13:21:53Z</time>
      </trkpt>
      <trkpt lat="49.88504" lon="2.41694">
        <ele>24.5</ele>
        <time>2022-04-13T13:21:54Z</time>
      </trkpt>
      <trkpt lat="49.88504" lon="2.41696">
        <ele>24.5</ele>
        <time>2022-04-13T13:21:55Z</time>
      </trkpt>
      <trkpt lat="49.88505" lon="2.41698">
        <ele>24.5</ele>
        <time>2022-04-13T13:21:56Z</time>
      </trkpt>
      <trkpt lat="49.88506" lon="2.417">
        <ele>24.5</ele>
        <time>2022-04-13T13:21:57Z</time>
      </trkpt>
      <trkpt lat="49.88506" lon="2.41701">
        <ele>24.5</ele>
        <time>2022-04-13T13:21:59Z</time>
      </trkpt>
      <trkpt lat="49.88507" lon="2.41702">
        <ele>24.5</ele>
        <time>2022-04-13T13:22:00Z</time>
      </trkpt>
      <trkpt lat="49.88508" lon="2.41703">
        <ele>24.5</ele>
        <time>2022-04-13T13:22:01Z</time>
      </trkpt>
      <trkpt lat="49.88508" lon="2.41704">
        <ele>24.5</ele>
        <time>2022-04-13T13:22:02Z</time>
      </trkpt>
      <trkpt lat="49.88509" lon="2.41705">
        <ele>24.5</ele>
        <time>2022-04-13T13:22:03Z</time>
      </trkpt>
      <trkpt lat="49.8851" lon="2.41706">
        <ele>24.5</ele>
        <time>2022-04-13T13:22:04Z</time>
      </trkpt>
      <trkpt lat="49.88511" lon="2.41707">
        <ele>24.5</ele>
        <time>2022-04-13T13:22:05Z</time>
      </trkpt>
      <trkpt lat="49.88511" lon="2.41709">
        <ele>24.5</ele>
        <time>2022-04-13T13:22:07Z</time>
      </trkpt>
      <trkpt lat="49.88511" lon="2.41711">
        <ele>24.5</ele>
        <time>2022-04-13T13:22:08Z</time>
      </trkpt>
      <trkpt lat="49.88511" lon="2.41713">
        <ele>24.5</ele>
        <time>2022-04-13T13:22:09Z</time>
      </trkpt>
      <trkpt lat="49.88511" lon="2.41714">
        <ele>24.5</ele>
        <time>2022-04-13T13:22:10Z</time>
      </trkpt>
      <trkpt lat="49.88511" lon="2.41717">
        <ele>24.4</ele>
        <time>2022-04-13T13:22:12Z</time>
      </trkpt>
      <trkpt lat="49.8851" lon="2.41719">
        <ele>24.4</ele>
        <time>2022-04-13T13:22:13Z</time>
      </trkpt>
      <trkpt lat="49.8851" lon="2.4172">
        <ele>24.4</ele>
        <time>2022-04-13T13:22:14Z</time>
      </trkpt>
      <trkpt lat="49.8851" lon="2.41722">
        <ele>24.4</ele>
        <time>2022-04-13T13:22:15Z</time>
      </trkpt>
      <trkpt lat="49.88509" lon="2.41724">
        <ele>24.4</ele>
        <time>2022-04-13T13:22:16Z</time>
      </trkpt>
      <trkpt lat="49.88509" lon="2.41727">
        <ele>24.4</ele>
        <time>2022-04-13T13:22:17Z</time>
      </trkpt>
      <trkpt lat="49.88508" lon="2.41728">
        <ele>24.4</ele>
        <time>2022-04-13T13:22:18Z</time>
      </trkpt>
      <trkpt lat="49.88508" lon="2.41729">
        <ele>24.4</ele>
        <time>2022-04-13T13:22:19Z</time>
      </trkpt>
      <trkpt lat="49.88508" lon="2.41731">
        <ele>24.3</ele>
        <time>2022-04-13T13:22:21Z</time>
      </trkpt>
      <trkpt lat="49.88508" lon="2.41733">
        <ele>24.3</ele>
        <time>2022-04-13T13:22:22Z</time>
      </trkpt>
      <trkpt lat="49.88508" lon="2.41735">
        <ele>24.3</ele>
        <time>2022-04-13T13:22:23Z</time>
      </trkpt>
      <trkpt lat="49.88507" lon="2.41736">
        <ele>24.3</ele>
        <time>2022-04-13T13:22:24Z</time>
      </trkpt>
      <trkpt lat="49.88507" lon="2.41738">
        <ele>24.3</ele>
        <time>2022-04-13T13:22:25Z</time>
      </trkpt>
      <trkpt lat="49.88507" lon="2.41739">
        <ele>24.3</ele>
        <time>2022-04-13T13:22:26Z</time>
      </trkpt>
      <trkpt lat="49.88506" lon="2.41741">
        <ele>24.2</ele>
        <time>2022-04-13T13:22:28Z</time>
      </trkpt>
      <trkpt lat="49.88505" lon="2.41742">
        <ele>24.2</ele>
        <time>2022-04-13T13:22:29Z</time>
      </trkpt>
      <trkpt lat="49.88504" lon="2.41743">
        <ele>24.2</ele>
        <time>2022-04-13T13:22:30Z</time>
      </trkpt>
      <trkpt lat="49.88504" lon="2.41744">
        <ele>24.2</ele>
        <time>2022-04-13T13:22:31Z</time>
      </trkpt>
      <trkpt lat="49.88503" lon="2.41745">
        <ele>24.1</ele>
        <time>2022-04-13T13:22:32Z</time>
      </trkpt>
      <trkpt lat="49.88501" lon="2.41745">
        <ele>24.1</ele>
        <time>2022-04-13T13:22:33Z</time>
      </trkpt>
      <trkpt lat="49.885" lon="2.41745">
        <ele>24.1</ele>
        <time>2022-04-13T13:22:34Z</time>
      </trkpt>
      <trkpt lat="49.88499" lon="2.41745">
        <ele>24.1</ele>
        <time>2022-04-13T13:22:35Z</time>
      </trkpt>
      <trkpt lat="49.88498" lon="2.41745">
        <ele>24.1</ele>
        <time>2022-04-13T13:22:36Z</time>
      </trkpt>
      <trkpt lat="49.88497" lon="2.41746">
        <ele>24</ele>
        <time>2022-04-13T13:22:37Z</time>
      </trkpt>
      <trkpt lat="49.88496" lon="2.41746">
        <ele>24</ele>
        <time>2022-04-13T13:22:38Z</time>
      </trkpt>
      <trkpt lat="49.88495" lon="2.41746">
        <ele>24</ele>
        <time>2022-04-13T13:22:39Z</time>
      </trkpt>
      <trkpt lat="49.88493" lon="2.41747">
        <ele>24</ele>
        <time>2022-04-13T13:22:41Z</time>
      </trkpt>
      <trkpt lat="49.88492" lon="2.41747">
        <ele>23.9</ele>
        <time>2022-04-13T13:22:42Z</time>
      </trkpt>
      <trkpt lat="49.8849" lon="2.41746">
        <ele>23.9</ele>
        <time>2022-04-13T13:22:43Z</time>
      </trkpt>
      <trkpt lat="49.88489" lon="2.41746">
        <ele>23.9</ele>
        <time>2022-04-13T13:22:44Z</time>
      </trkpt>
      <trkpt lat="49.88488" lon="2.41747">
        <ele>23.8</ele>
        <time>2022-04-13T13:22:45Z</time>
      </trkpt>
      <trkpt lat="49.88487" lon="2.41747">
        <ele>23.8</ele>
        <time>2022-04-13T13:22:46Z</time>
      </trkpt>
      <trkpt lat="49.88486" lon="2.41746">
        <ele>23.8</ele>
        <time>2022-04-13T13:22:48Z</time>
      </trkpt>
      <trkpt lat="49.88485" lon="2.41746">
        <ele>23.8</ele>
        <time>2022-04-13T13:22:49Z</time>
      </trkpt>
      <trkpt lat="49.88485" lon="2.41746">
        <ele>23.8</ele>
        <time>2022-04-13T13:22:50Z</time>
      </trkpt>
      <trkpt lat="49.88483" lon="2.41746">
        <ele>23.7</ele>
        <time>2022-04-13T13:22:51Z</time>
      </trkpt>
      <trkpt lat="49.88482" lon="2.41746">
        <ele>23.7</ele>
        <time>2022-04-13T13:22:52Z</time>
      </trkpt>
      <trkpt lat="49.88481" lon="2.41746">
        <ele>23.7</ele>
        <time>2022-04-13T13:22:53Z</time>
      </trkpt>
      <trkpt lat="49.8848" lon="2.41745">
        <ele>23.7</ele>
        <time>2022-04-13T13:22:54Z</time>
      </trkpt>
      <trkpt lat="49.88479" lon="2.41745">
        <ele>23.6</ele>
        <time>2022-04-13T13:22:55Z</time>
      </trkpt>
      <trkpt lat="49.88478" lon="2.41745">
        <ele>23.6</ele>
        <time>2022-04-13T13:22:57Z</time>
      </trkpt>
      <trkpt lat="49.88477" lon="2.41745">
        <ele>23.6</ele>
        <time>2022-04-13T13:22:58Z</time>
      </trkpt>
      <trkpt lat="49.88476" lon="2.41745">
        <ele>23.6</ele>
        <time>2022-04-13T13:22:59Z</time>
      </trkpt>
      <trkpt lat="49.88475" lon="2.41745">
        <ele>23.6</ele>
        <time>2022-04-13T13:23:00Z</time>
      </trkpt>
      <trkpt lat="49.88474" lon="2.41745">
        <ele>23.5</ele>
        <time>2022-04-13T13:23:01Z</time>
      </trkpt>
      <trkpt lat="49.88473" lon="2.41745">
        <ele>23.5</ele>
        <time>2022-04-13T13:23:02Z</time>
      </trkpt>
      <trkpt lat="49.88472" lon="2.41745">
        <ele>23.5</ele>
        <time>2022-04-13T13:23:03Z</time>
      </trkpt>
      <trkpt lat="49.88471" lon="2.41745">
        <ele>23.5</ele>
        <time>2022-04-13T13:23:05Z</time>
      </trkpt>
      <trkpt lat="49.8847" lon="2.41745">
        <ele>23.5</ele>
        <time>2022-04-13T13:23:06Z</time>
      </trkpt>
      <trkpt lat="49.88469" lon="2.41745">
        <ele>23.5</ele>
        <time>2022-04-13T13:23:07Z</time>
      </trkpt>
      <trkpt lat="49.88468" lon="2.41744">
        <ele>23.5</ele>
        <time>2022-04-13T13:23:08Z</time>
      </trkpt>
      <trkpt lat="49.88467" lon="2.41744">
        <ele>23.4</ele>
        <time>2022-04-13T13:23:09Z</time>
      </trkpt>
      <trkpt lat="49.88466" lon="2.41744">
        <ele>23.4</ele>
        <time>2022-04-13T13:23:10Z</time>
      </trkpt>
      <trkpt lat="49.88465" lon="2.41744">
        <ele>23.4</ele>
        <time>2022-04-13T13:23:11Z</time>
      </trkpt>
      <trkpt lat="49.88464" lon="2.41744">
        <ele>23.4</ele>
        <time>2022-04-13T13:23:12Z</time>
      </trkpt>
      <trkpt lat="49.88463" lon="2.41744">
        <ele>23.4</ele>
        <time>2022-04-13T13:23:13Z</time>
      </trkpt>
      <trkpt lat="49.88462" lon="2.41744">
        <ele>23.4</ele>
        <time>2022-04-13T13:23:14Z</time>
      </trkpt>
      <trkpt lat="49.8846" lon="2.41744">
        <ele>23.4</ele>
        <time>2022-04-13T13:23:16Z</time>
      </trkpt>
      <trkpt lat="49.88459" lon="2.41744">
        <ele>23.4</ele>
        <time>2022-04-13T13:23:17Z</time>
      </trkpt>
      <trkpt lat="49.88458" lon="2.41744">
        <ele>23.4</ele>
        <time>2022-04-13T13:23:18Z</time>
      </trkpt>
      <trkpt lat="49.88456" lon="2.41745">
        <ele>23.4</ele>
        <time>2022-04-13T13:23:19Z</time>
      </trkpt>
      <trkpt lat="49.88455" lon="2.41745">
        <ele>23.4</ele>
        <time>2022-04-13T13:23:20Z</time>
      </trkpt>
      <trkpt lat="49.88454" lon="2.41745">
        <ele>23.4</ele>
        <time>2022-04-13T13:23:22Z</time>
      </trkpt>
      <trkpt lat="49.88453" lon="2.41745">
        <ele>23.4</ele>
        <time>2022-04-13T13:23:23Z</time>
      </trkpt>
      <trkpt lat="49.88451" lon="2.41745">
        <ele>23.4</ele>
        <time>2022-04-13T13:23:24Z</time>
      </trkpt>
      <trkpt lat="49.8845" lon="2.41746">
        <ele>23.4</ele>
        <time>2022-04-13T13:23:25Z</time>
      </trkpt>
      <trkpt lat="49.8845" lon="2.41746">
        <ele>23.4</ele>
        <time>2022-04-13T13:23:26Z</time>
      </trkpt>
      <trkpt lat="49.88448" lon="2.41746">
        <ele>23.4</ele>
        <time>2022-04-13T13:23:28Z</time>
      </trkpt>
      <trkpt lat="49.88447" lon="2.41747">
        <ele>23.4</ele>
        <time>2022-04-13T13:23:29Z</time>
      </trkpt>
      <trkpt lat="49.88446" lon="2.41747">
        <ele>23.3</ele>
        <time>2022-04-13T13:23:30Z</time>
      </trkpt>
      <trkpt lat="49.88445" lon="2.41747">
        <ele>23.3</ele>
        <time>2022-04-13T13:23:31Z</time>
      </trkpt>
      <trkpt lat="49.88443" lon="2.41748">
        <ele>23.3</ele>
        <time>2022-04-13T13:23:32Z</time>
      </trkpt>
      <trkpt lat="49.88441" lon="2.41749">
        <ele>23.3</ele>
        <time>2022-04-13T13:23:33Z</time>
      </trkpt>
      <trkpt lat="49.8844" lon="2.41749">
        <ele>23.3</ele>
        <time>2022-04-13T13:23:35Z</time>
      </trkpt>
      <trkpt lat="49.8844" lon="2.41749">
        <ele>23.3</ele>
        <time>2022-04-13T13:23:36Z</time>
      </trkpt>
      <trkpt lat="49.88439" lon="2.41749">
        <ele>23.3</ele>
        <time>2022-04-13T13:23:37Z</time>
      </trkpt>
      <trkpt lat="49.88437" lon="2.41749">
        <ele>23.3</ele>
        <time>2022-04-13T13:23:38Z</time>
      </trkpt>
      <trkpt lat="49.88436" lon="2.41749">
        <ele>23.3</ele>
        <time>2022-04-13T13:23:39Z</time>
      </trkpt>
      <trkpt lat="49.88434" lon="2.41749">
        <ele>23.3</ele>
        <time>2022-04-13T13:23:40Z</time>
      </trkpt>
      <trkpt lat="49.88433" lon="2.41749">
        <ele>23.3</ele>
        <time>2022-04-13T13:23:42Z</time>
      </trkpt>
      <trkpt lat="49.88432" lon="2.41749">
        <ele>23.3</ele>
        <time>2022-04-13T13:23:43Z</time>
      </trkpt>
      <trkpt lat="49.88431" lon="2.41749">
        <ele>23.3</ele>
        <time>2022-04-13T13:23:44Z</time>
      </trkpt>
      <trkpt lat="49.8843" lon="2.41749">
        <ele>23.3</ele>
        <time>2022-04-13T13:23:45Z</time>
      </trkpt>
      <trkpt lat="49.88429" lon="2.41749">
        <ele>23.3</ele>
        <time>2022-04-13T13:23:46Z</time>
      </trkpt>
      <trkpt lat="49.88428" lon="2.41749">
        <ele>23.3</ele>
        <time>2022-04-13T13:23:47Z</time>
      </trkpt>
      <trkpt lat="49.88426" lon="2.4175">
        <ele>23.3</ele>
        <time>2022-04-13T13:23:48Z</time>
      </trkpt>
      <trkpt lat="49.88425" lon="2.4175">
        <ele>23.3</ele>
        <time>2022-04-13T13:23:50Z</time>
      </trkpt>
      <trkpt lat="49.88424" lon="2.4175">
        <ele>23.3</ele>
        <time>2022-04-13T13:23:51Z</time>
      </trkpt>
      <trkpt lat="49.88423" lon="2.4175">
        <ele>23.3</ele>
        <time>2022-04-13T13:23:52Z</time>
      </trkpt>
      <trkpt lat="49.88422" lon="2.4175">
        <ele>23.3</ele>
        <time>2022-04-13T13:23:53Z</time>
      </trkpt>
      <trkpt lat="49.88421" lon="2.41749">
        <ele>23.3</ele>
        <time>2022-04-13T13:23:54Z</time>
      </trkpt>
      <trkpt lat="49.8842" lon="2.4175">
        <ele>23.3</ele>
        <time>2022-04-13T13:23:55Z</time>
      </trkpt>
      <trkpt lat="49.88419" lon="2.4175">
        <ele>23.3</ele>
        <time>2022-04-13T13:23:56Z</time>
      </trkpt>
      <trkpt lat="49.88417" lon="2.4175">
        <ele>23.3</ele>
        <time>2022-04-13T13:23:58Z</time>
      </trkpt>
      <trkpt lat="49.88416" lon="2.41751">
        <ele>23.3</ele>
        <time>2022-04-13T13:23:59Z</time>
      </trkpt>
      <trkpt lat="49.88415" lon="2.41751">
        <ele>23.3</ele>
        <time>2022-04-13T13:24:00Z</time>
      </trkpt>
      <trkpt lat="49.88414" lon="2.41751">
        <ele>23.3</ele>
        <time>2022-04-13T13:24:01Z</time>
      </trkpt>
      <trkpt lat="49.88413" lon="2.41751">
        <ele>23.3</ele>
        <time>2022-04-13T13:24:03Z</time>
      </trkpt>
      <trkpt lat="49.88411" lon="2.41751">
        <ele>23.3</ele>
        <time>2022-04-13T13:24:04Z</time>
      </trkpt>
      <trkpt lat="49.8841" lon="2.41751">
        <ele>23.3</ele>
        <time>2022-04-13T13:24:05Z</time>
      </trkpt>
      <trkpt lat="49.88409" lon="2.41751">
        <ele>23.3</ele>
        <time>2022-04-13T13:24:06Z</time>
      </trkpt>
      <trkpt lat="49.88408" lon="2.41751">
        <ele>23.3</ele>
        <time>2022-04-13T13:24:07Z</time>
      </trkpt>
      <trkpt lat="49.88407" lon="2.41751">
        <ele>23.3</ele>
        <time>2022-04-13T13:24:08Z</time>
      </trkpt>
      <trkpt lat="49.88406" lon="2.4175">
        <ele>23.3</ele>
        <time>2022-04-13T13:24:10Z</time>
      </trkpt>
      <trkpt lat="49.88406" lon="2.4175">
        <ele>23.3</ele>
        <time>2022-04-13T13:24:11Z</time>
      </trkpt>
      <trkpt lat="49.88404" lon="2.41751">
        <ele>23.3</ele>
        <time>2022-04-13T13:24:12Z</time>
      </trkpt>
      <trkpt lat="49.88403" lon="2.41751">
        <ele>23.3</ele>
        <time>2022-04-13T13:24:13Z</time>
      </trkpt>
      <trkpt lat="49.88403" lon="2.41752">
        <ele>23.3</ele>
        <time>2022-04-13T13:24:14Z</time>
      </trkpt>
      <trkpt lat="49.88402" lon="2.41752">
        <ele>23.3</ele>
        <time>2022-04-13T13:24:15Z</time>
      </trkpt>
      <trkpt lat="49.88401" lon="2.41752">
        <ele>23.3</ele>
        <time>2022-04-13T13:24:16Z</time>
      </trkpt>
      <trkpt lat="49.88401" lon="2.41752">
        <ele>23.3</ele>
        <time>2022-04-13T13:24:17Z</time>
      </trkpt>
      <trkpt lat="49.884" lon="2.41753">
        <ele>23.3</ele>
        <time>2022-04-13T13:24:18Z</time>
      </trkpt>
      <trkpt lat="49.88399" lon="2.41753">
        <ele>23.3</ele>
        <time>2022-04-13T13:24:19Z</time>
      </trkpt>
      <trkpt lat="49.88398" lon="2.41753">
        <ele>23.3</ele>
        <time>2022-04-13T13:24:20Z</time>
      </trkpt>
      <trkpt lat="49.88397" lon="2.41754">
        <ele>23.3</ele>
        <time>2022-04-13T13:24:21Z</time>
      </trkpt>
      <trkpt lat="49.88396" lon="2.41754">
        <ele>23.3</ele>
        <time>2022-04-13T13:24:22Z</time>
      </trkpt>
      <trkpt lat="49.88395" lon="2.41755">
        <ele>23.3</ele>
        <time>2022-04-13T13:24:24Z</time>
      </trkpt>
      <trkpt lat="49.88394" lon="2.41755">
        <ele>23.3</ele>
        <time>2022-04-13T13:24:25Z</time>
      </trkpt>
      <trkpt lat="49.88393" lon="2.41756">
        <ele>23.3</ele>
        <time>2022-04-13T13:24:26Z</time>
      </trkpt>
      <trkpt lat="49.88392" lon="2.41756">
        <ele>23.4</ele>
        <time>2022-04-13T13:24:27Z</time>
      </trkpt>
      <trkpt lat="49.88391" lon="2.41756">
        <ele>23.4</ele>
        <time>2022-04-13T13:24:29Z</time>
      </trkpt>
      <trkpt lat="49.8839" lon="2.41756">
        <ele>23.4</ele>
        <time>2022-04-13T13:24:30Z</time>
      </trkpt>
      <trkpt lat="49.88389" lon="2.41756">
        <ele>23.4</ele>
        <time>2022-04-13T13:24:31Z</time>
      </trkpt>
      <trkpt lat="49.88388" lon="2.41756">
        <ele>23.4</ele>
        <time>2022-04-13T13:24:32Z</time>
      </trkpt>
      <trkpt lat="49.88387" lon="2.41756">
        <ele>23.4</ele>
        <time>2022-04-13T13:24:33Z</time>
      </trkpt>
      <trkpt lat="49.88385" lon="2.41756">
        <ele>23.4</ele>
        <time>2022-04-13T13:24:34Z</time>
      </trkpt>
      <trkpt lat="49.88383" lon="2.41756">
        <ele>23.4</ele>
        <time>2022-04-13T13:24:35Z</time>
      </trkpt>
      <trkpt lat="49.88382" lon="2.41756">
        <ele>23.4</ele>
        <time>2022-04-13T13:24:36Z</time>
      </trkpt>
      <trkpt lat="49.88381" lon="2.41756">
        <ele>23.5</ele>
        <time>2022-04-13T13:24:38Z</time>
      </trkpt>
      <trkpt lat="49.8838" lon="2.41756">
        <ele>23.5</ele>
        <time>2022-04-13T13:24:39Z</time>
      </trkpt>
      <trkpt lat="49.88379" lon="2.41756">
        <ele>23.5</ele>
        <time>2022-04-13T13:24:40Z</time>
      </trkpt>
      <trkpt lat="49.88378" lon="2.41756">
        <ele>23.5</ele>
        <time>2022-04-13T13:24:41Z</time>
      </trkpt>
      <trkpt lat="49.88377" lon="2.41757">
        <ele>23.5</ele>
        <time>2022-04-13T13:24:42Z</time>
      </trkpt>
      <trkpt lat="49.88375" lon="2.41757">
        <ele>23.5</ele>
        <time>2022-04-13T13:24:43Z</time>
      </trkpt>
      <trkpt lat="49.88374" lon="2.41758">
        <ele>23.5</ele>
        <time>2022-04-13T13:24:45Z</time>
      </trkpt>
      <trkpt lat="49.88373" lon="2.41758">
        <ele>23.6</ele>
        <time>2022-04-13T13:24:46Z</time>
      </trkpt>
      <trkpt lat="49.88369" lon="2.41759">
        <ele>23.6</ele>
        <time>2022-04-13T13:24:48Z</time>
      </trkpt>
      <trkpt lat="49.88369" lon="2.41759">
        <ele>23.6</ele>
        <time>2022-04-13T13:24:49Z</time>
      </trkpt>
      <trkpt lat="49.88368" lon="2.41758">
        <ele>23.6</ele>
        <time>2022-04-13T13:24:50Z</time>
      </trkpt>
      <trkpt lat="49.88367" lon="2.41758">
        <ele>23.7</ele>
        <time>2022-04-13T13:24:51Z</time>
      </trkpt>
      <trkpt lat="49.88366" lon="2.41757">
        <ele>23.7</ele>
        <time>2022-04-13T13:24:52Z</time>
      </trkpt>
      <trkpt lat="49.88365" lon="2.41757">
        <ele>23.7</ele>
        <time>2022-04-13T13:24:53Z</time>
      </trkpt>
      <trkpt lat="49.88364" lon="2.41756">
        <ele>23.7</ele>
        <time>2022-04-13T13:24:54Z</time>
      </trkpt>
      <trkpt lat="49.88364" lon="2.41755">
        <ele>23.7</ele>
        <time>2022-04-13T13:24:56Z</time>
      </trkpt>
      <trkpt lat="49.88363" lon="2.41754">
        <ele>23.7</ele>
        <time>2022-04-13T13:24:57Z</time>
      </trkpt>
      <trkpt lat="49.88362" lon="2.41754">
        <ele>23.8</ele>
        <time>2022-04-13T13:24:58Z</time>
      </trkpt>
      <trkpt lat="49.88361" lon="2.41753">
        <ele>23.8</ele>
        <time>2022-04-13T13:25:00Z</time>
      </trkpt>
      <trkpt lat="49.8836" lon="2.41753">
        <ele>23.8</ele>
        <time>2022-04-13T13:25:01Z</time>
      </trkpt>
      <trkpt lat="49.88359" lon="2.41752">
        <ele>23.8</ele>
        <time>2022-04-13T13:25:02Z</time>
      </trkpt>
      <trkpt lat="49.88357" lon="2.41751">
        <ele>23.9</ele>
        <time>2022-04-13T13:25:03Z</time>
      </trkpt>
      <trkpt lat="49.88356" lon="2.41751">
        <ele>23.9</ele>
        <time>2022-04-13T13:25:05Z</time>
      </trkpt>
      <trkpt lat="49.88355" lon="2.41751">
        <ele>23.9</ele>
        <time>2022-04-13T13:25:06Z</time>
      </trkpt>
      <trkpt lat="49.88354" lon="2.4175">
        <ele>23.9</ele>
        <time>2022-04-13T13:25:08Z</time>
      </trkpt>
      <trkpt lat="49.88353" lon="2.4175">
        <ele>24</ele>
        <time>2022-04-13T13:25:09Z</time>
      </trkpt>
      <trkpt lat="49.88352" lon="2.41751">
        <ele>24</ele>
        <time>2022-04-13T13:25:10Z</time>
      </trkpt>
      <trkpt lat="49.88351" lon="2.41751">
        <ele>24</ele>
        <time>2022-04-13T13:25:11Z</time>
      </trkpt>
      <trkpt lat="49.8835" lon="2.41752">
        <ele>23.6</ele>
        <time>2022-04-13T13:25:12Z</time>
      </trkpt>
      <trkpt lat="49.88349" lon="2.41753">
        <ele>23.5</ele>
        <time>2022-04-13T13:25:14Z</time>
      </trkpt>
      <trkpt lat="49.88349" lon="2.41754">
        <ele>23.4</ele>
        <time>2022-04-13T13:25:15Z</time>
      </trkpt>
      <trkpt lat="49.88348" lon="2.41755">
        <ele>23.4</ele>
        <time>2022-04-13T13:25:16Z</time>
      </trkpt>
      <trkpt lat="49.88347" lon="2.41757">
        <ele>23.3</ele>
        <time>2022-04-13T13:25:17Z</time>
      </trkpt>
      <trkpt lat="49.88347" lon="2.41759">
        <ele>23.1</ele>
        <time>2022-04-13T13:25:19Z</time>
      </trkpt>
      <trkpt lat="49.88347" lon="2.41761">
        <ele>23</ele>
        <time>2022-04-13T13:25:20Z</time>
      </trkpt>
      <trkpt lat="49.88347" lon="2.41763">
        <ele>23</ele>
        <time>2022-04-13T13:25:21Z</time>
      </trkpt>
      <trkpt lat="49.88347" lon="2.41764">
        <ele>22.9</ele>
        <time>2022-04-13T13:25:22Z</time>
      </trkpt>
      <trkpt lat="49.88347" lon="2.41765">
        <ele>22.9</ele>
        <time>2022-04-13T13:25:24Z</time>
      </trkpt>
      <trkpt lat="49.88348" lon="2.41766">
        <ele>22.8</ele>
        <time>2022-04-13T13:25:25Z</time>
      </trkpt>
      <trkpt lat="49.88349" lon="2.41766">
        <ele>22.8</ele>
        <time>2022-04-13T13:25:27Z</time>
      </trkpt>
      <trkpt lat="49.8835" lon="2.41766">
        <ele>22.8</ele>
        <time>2022-04-13T13:25:28Z</time>
      </trkpt>
      <trkpt lat="49.8835" lon="2.41766">
        <ele>22.8</ele>
        <time>2022-04-13T13:25:30Z</time>
      </trkpt>
      <trkpt lat="49.88351" lon="2.41767">
        <ele>22.8</ele>
        <time>2022-04-13T13:25:31Z</time>
      </trkpt>
      <trkpt lat="49.88351" lon="2.41767">
        <ele>22.8</ele>
        <time>2022-04-13T13:25:32Z</time>
      </trkpt>
      <trkpt lat="49.88351" lon="2.41768">
        <ele>22.8</ele>
        <time>2022-04-13T13:25:33Z</time>
      </trkpt>
      <trkpt lat="49.88351" lon="2.41768">
        <ele>22.8</ele>
        <time>2022-04-13T13:25:34Z</time>
      </trkpt>
      <trkpt lat="49.88351" lon="2.41769">
        <ele>22.8</ele>
        <time>2022-04-13T13:25:35Z</time>
      </trkpt>
      <trkpt lat="49.88351" lon="2.41769">
        <ele>22.8</ele>
        <time>2022-04-13T13:25:37Z</time>
      </trkpt>
      <trkpt lat="49.88351" lon="2.4177">
        <ele>22.8</ele>
        <time>2022-04-13T13:25:38Z</time>
      </trkpt>
      <trkpt lat="49.88351" lon="2.4177">
        <ele>22.8</ele>
        <time>2022-04-13T13:25:39Z</time>
      </trkpt>
      <trkpt lat="49.88351" lon="2.41771">
        <ele>22.8</ele>
        <time>2022-04-13T13:25:40Z</time>
      </trkpt>
      <trkpt lat="49.88352" lon="2.41772">
        <ele>22.8</ele>
        <time>2022-04-13T13:25:41Z</time>
      </trkpt>
      <trkpt lat="49.88352" lon="2.41772">
        <ele>22.8</ele>
        <time>2022-04-13T13:25:42Z</time>
      </trkpt>
      <trkpt lat="49.88352" lon="2.41773">
        <ele>22.8</ele>
        <time>2022-04-13T13:25:44Z</time>
      </trkpt>
      <trkpt lat="49.88352" lon="2.41774">
        <ele>22.8</ele>
        <time>2022-04-13T13:25:45Z</time>
      </trkpt>
      <trkpt lat="49.88352" lon="2.41775">
        <ele>22.8</ele>
        <time>2022-04-13T13:25:46Z</time>
      </trkpt>
      <trkpt lat="49.88351" lon="2.41775">
        <ele>22.8</ele>
        <time>2022-04-13T13:25:47Z</time>
      </trkpt>
      <trkpt lat="49.88351" lon="2.41775">
        <ele>22.8</ele>
        <time>2022-04-13T13:25:48Z</time>
      </trkpt>
      <trkpt lat="49.88351" lon="2.41775">
        <ele>22.8</ele>
        <time>2022-04-13T13:25:49Z</time>
      </trkpt>
      <trkpt lat="49.8835" lon="2.41775">
        <ele>22.8</ele>
        <time>2022-04-13T13:25:50Z</time>
      </trkpt>
      <trkpt lat="49.8835" lon="2.41774">
        <ele>22.8</ele>
        <time>2022-04-13T13:25:51Z</time>
      </trkpt>
      <trkpt lat="49.8835" lon="2.41774">
        <ele>22.8</ele>
        <time>2022-04-13T13:25:52Z</time>
      </trkpt>
      <trkpt lat="49.8835" lon="2.41774">
        <ele>22.8</ele>
        <time>2022-04-13T13:25:53Z</time>
      </trkpt>
      <trkpt lat="49.8835" lon="2.41774">
        <ele>22.8</ele>
        <time>2022-04-13T13:25:54Z</time>
      </trkpt>
      <trkpt lat="49.8835" lon="2.41774">
        <ele>22.8</ele>
        <time>2022-04-13T13:25:55Z</time>
      </trkpt>
      <trkpt lat="49.8835" lon="2.41774">
        <ele>22.8</ele>
        <time>2022-04-13T13:25:56Z</time>
      </trkpt>
      <trkpt lat="49.88349" lon="2.41774">
        <ele>22.8</ele>
        <time>2022-04-13T13:25:57Z</time>
      </trkpt>
      <trkpt lat="49.88349" lon="2.41774">
        <ele>22.8</ele>
        <time>2022-04-13T13:25:58Z</time>
      </trkpt>
      <trkpt lat="49.88349" lon="2.41774">
        <ele>22.8</ele>
        <time>2022-04-13T13:25:59Z</time>
      </trkpt>
      <trkpt lat="49.88349" lon="2.41775">
        <ele>22.8</ele>
        <time>2022-04-13T13:26:00Z</time>
      </trkpt>
      <trkpt lat="49.88349" lon="2.41775">
        <ele>22.8</ele>
        <time>2022-04-13T13:26:01Z</time>
      </trkpt>
      <trkpt lat="49.88349" lon="2.41775">
        <ele>22.8</ele>
        <time>2022-04-13T13:26:02Z</time>
      </trkpt>
      <trkpt lat="49.88349" lon="2.41775">
        <ele>22.8</ele>
        <time>2022-04-13T13:26:03Z</time>
      </trkpt>
      <trkpt lat="49.88349" lon="2.41775">
        <ele>22.8</ele>
        <time>2022-04-13T13:26:04Z</time>
      </trkpt>
      <trkpt lat="49.88349" lon="2.41775">
        <ele>22.8</ele>
        <time>2022-04-13T13:26:05Z</time>
      </trkpt>
      <trkpt lat="49.88349" lon="2.41775">
        <ele>22.8</ele>
        <time>2022-04-13T13:26:06Z</time>
      </trkpt>
      <trkpt lat="49.88349" lon="2.41775">
        <ele>22.8</ele>
        <time>2022-04-13T13:26:07Z</time>
      </trkpt>
      <trkpt lat="49.88349" lon="2.41775">
        <ele>22.8</ele>
        <time>2022-04-13T13:26:08Z</time>
      </trkpt>
      <trkpt lat="49.88349" lon="2.41775">
        <ele>22.8</ele>
        <time>2022-04-13T13:26:09Z</time>
      </trkpt>
      <trkpt lat="49.88349" lon="2.41775">
        <ele>22.8</ele>
        <time>2022-04-13T13:26:10Z</time>
      </trkpt>
      <trkpt lat="49.88349" lon="2.41775">
        <ele>22.8</ele>
        <time>2022-04-13T13:26:11Z</time>
      </trkpt>
      <trkpt lat="49.88349" lon="2.41775">
        <ele>22.8</ele>
        <time>2022-04-13T13:26:12Z</time>
      </trkpt>
      <trkpt lat="49.88349" lon="2.41775">
        <ele>22.8</ele>
        <time>2022-04-13T13:26:13Z</time>
      </trkpt>
      <trkpt lat="49.88349" lon="2.41775">
        <ele>22.8</ele>
        <time>2022-04-13T13:26:14Z</time>
      </trkpt>
      <trkpt lat="49.88349" lon="2.41775">
        <ele>22.8</ele>
        <time>2022-04-13T13:26:15Z</time>
      </trkpt>
      <trkpt lat="49.88349" lon="2.41775">
        <ele>22.8</ele>
        <time>2022-04-13T13:26:16Z</time>
      </trkpt>
      <trkpt lat="49.88349" lon="2.41775">
        <ele>22.8</ele>
        <time>2022-04-13T13:26:17Z</time>
      </trkpt>
      <trkpt lat="49.88349" lon="2.41775">
        <ele>22.8</ele>
        <time>2022-04-13T13:26:18Z</time>
      </trkpt>
      <trkpt lat="49.88349" lon="2.41775">
        <ele>22.8</ele>
        <time>2022-04-13T13:26:19Z</time>
      </trkpt>
      <trkpt lat="49.88349" lon="2.41775">
        <ele>22.8</ele>
        <time>2022-04-13T13:26:20Z</time>
      </trkpt>
      <trkpt lat="49.88349" lon="2.41775">
        <ele>22.8</ele>
        <time>2022-04-13T13:26:21Z</time>
      </trkpt>
      <trkpt lat="49.88349" lon="2.41775">
        <ele>22.8</ele>
        <time>2022-04-13T13:26:22Z</time>
      </trkpt>
      <trkpt lat="49.88349" lon="2.41775">
        <ele>22.8</ele>
        <time>2022-04-13T13:26:23Z</time>
      </trkpt>
      <trkpt lat="49.88349" lon="2.41775">
        <ele>22.8</ele>
        <time>2022-04-13T13:26:24Z</time>
      </trkpt>
      <trkpt lat="49.88349" lon="2.41775">
        <ele>22.8</ele>
        <time>2022-04-13T13:26:25Z</time>
      </trkpt>
      <trkpt lat="49.88349" lon="2.41775">
        <ele>22.8</ele>
        <time>2022-04-13T13:26:26Z</time>
      </trkpt>
      <trkpt lat="49.88349" lon="2.41775">
        <ele>22.8</ele>
        <time>2022-04-13T13:26:27Z</time>
      </trkpt>
      <trkpt lat="49.88349" lon="2.41775">
        <ele>22.8</ele>
        <time>2022-04-13T13:26:28Z</time>
      </trkpt>
      <trkpt lat="49.88349" lon="2.41775">
        <ele>22.8</ele>
        <time>2022-04-13T13:26:29Z</time>
      </trkpt>
      <trkpt lat="49.88349" lon="2.41775">
        <ele>22.8</ele>
        <time>2022-04-13T13:26:30Z</time>
      </trkpt>
      <trkpt lat="49.88349" lon="2.41775">
        <ele>22.8</ele>
        <time>2022-04-13T13:26:31Z</time>
      </trkpt>
      <trkpt lat="49.88349" lon="2.41775">
        <ele>22.8</ele>
        <time>2022-04-13T13:26:32Z</time>
      </trkpt>
      <trkpt lat="49.88349" lon="2.41775">
        <ele>22.8</ele>
        <time>2022-04-13T13:26:33Z</time>
      </trkpt>
      <trkpt lat="49.88349" lon="2.41775">
        <ele>22.8</ele>
        <time>2022-04-13T13:26:34Z</time>
      </trkpt>
      <trkpt lat="49.88349" lon="2.41775">
        <ele>22.8</ele>
        <time>2022-04-13T13:26:35Z</time>
      </trkpt>
      <trkpt lat="49.88349" lon="2.41775">
        <ele>22.8</ele>
        <time>2022-04-13T13:26:36Z</time>
      </trkpt>
      <trkpt lat="49.88349" lon="2.41775">
        <ele>22.8</ele>
        <time>2022-04-13T13:26:37Z</time>
      </trkpt>
      <trkpt lat="49.88349" lon="2.41775">
        <ele>22.8</ele>
        <time>2022-04-13T13:26:38Z</time>
      </trkpt>
      <trkpt lat="49.88349" lon="2.41775">
        <ele>22.8</ele>
        <time>2022-04-13T13:26:39Z</time>
      </trkpt>
      <trkpt lat="49.88349" lon="2.41775">
        <ele>22.8</ele>
        <time>2022-04-13T13:26:40Z</time>
      </trkpt>
      <trkpt lat="49.88349" lon="2.41775">
        <ele>22.8</ele>
        <time>2022-04-13T13:26:41Z</time>
      </trkpt>
      <trkpt lat="49.88349" lon="2.41775">
        <ele>22.8</ele>
        <time>2022-04-13T13:26:42Z</time>
      </trkpt>
      <trkpt lat="49.88349" lon="2.41775">
        <ele>22.8</ele>
        <time>2022-04-13T13:26:43Z</time>
      </trkpt>
      <trkpt lat="49.88349" lon="2.41775">
        <ele>22.8</ele>
        <time>2022-04-13T13:26:44Z</time>
      </trkpt>
      <trkpt lat="49.88349" lon="2.41775">
        <ele>22.8</ele>
        <time>2022-04-13T13:26:45Z</time>
      </trkpt>
      <trkpt lat="49.88349" lon="2.41775">
        <ele>22.8</ele>
        <time>2022-04-13T13:26:46Z</time>
      </trkpt>
      <trkpt lat="49.88349" lon="2.41775">
        <ele>22.8</ele>
        <time>2022-04-13T13:26:47Z</time>
      </trkpt>
      <trkpt lat="49.88349" lon="2.41775">
        <ele>22.8</ele>
        <time>2022-04-13T13:26:48Z</time>
      </trkpt>
      <trkpt lat="49.88349" lon="2.41775">
        <ele>22.8</ele>
        <time>2022-04-13T13:26:49Z</time>
      </trkpt>
      <trkpt lat="49.88349" lon="2.41775">
        <ele>22.8</ele>
        <time>2022-04-13T13:26:50Z</time>
      </trkpt>
      <trkpt lat="49.88349" lon="2.41775">
        <ele>22.8</ele>
        <time>2022-04-13T13:26:51Z</time>
      </trkpt>
      <trkpt lat="49.88349" lon="2.41775">
        <ele>22.8</ele>
        <time>2022-04-13T13:26:52Z</time>
      </trkpt>
      <trkpt lat="49.88349" lon="2.41775">
        <ele>22.8</ele>
        <time>2022-04-13T13:26:53Z</time>
      </trkpt>
      <trkpt lat="49.88349" lon="2.41775">
        <ele>22.8</ele>
        <time>2022-04-13T13:26:54Z</time>
      </trkpt>
      <trkpt lat="49.88349" lon="2.41775">
        <ele>22.8</ele>
        <time>2022-04-13T13:26:55Z</time>
      </trkpt>
      <trkpt lat="49.88349" lon="2.41775">
        <ele>22.8</ele>
        <time>2022-04-13T13:26:56Z</time>
      </trkpt>
      <trkpt lat="49.88349" lon="2.41775">
        <ele>22.8</ele>
        <time>2022-04-13T13:26:57Z</time>
      </trkpt>
      <trkpt lat="49.88349" lon="2.41775">
        <ele>22.8</ele>
        <time>2022-04-13T13:26:58Z</time>
      </trkpt>
      <trkpt lat="49.88349" lon="2.41775">
        <ele>22.8</ele>
        <time>2022-04-13T13:26:59Z</time>
      </trkpt>
      <trkpt lat="49.88349" lon="2.41775">
        <ele>22.8</ele>
        <time>2022-04-13T13:27:00Z</time>
      </trkpt>
      <trkpt lat="49.88349" lon="2.41775">
        <ele>22.8</ele>
        <time>2022-04-13T13:27:01Z</time>
      </trkpt>
      <trkpt lat="49.88349" lon="2.41775">
        <ele>22.8</ele>
        <time>2022-04-13T13:27:02Z</time>
      </trkpt>
      <trkpt lat="49.88349" lon="2.41775">
        <ele>22.8</ele>
        <time>2022-04-13T13:27:03Z</time>
      </trkpt>
      <trkpt lat="49.88349" lon="2.41775">
        <ele>22.8</ele>
        <time>2022-04-13T13:27:04Z</time>
      </trkpt>
      <trkpt lat="49.88349" lon="2.41775">
        <ele>22.8</ele>
        <time>2022-04-13T13:27:05Z</time>
      </trkpt>
      <trkpt lat="49.88349" lon="2.41775">
        <ele>22.8</ele>
        <time>2022-04-13T13:27:06Z</time>
      </trkpt>
      <trkpt lat="49.88349" lon="2.41775">
        <ele>22.8</ele>
        <time>2022-04-13T13:27:07Z</time>
      </trkpt>
      <trkpt lat="49.88349" lon="2.41775">
        <ele>22.8</ele>
        <time>2022-04-13T13:27:08Z</time>
      </trkpt>
      <trkpt lat="49.88349" lon="2.41775">
        <ele>22.8</ele>
        <time>2022-04-13T13:27:09Z</time>
      </trkpt>
      <trkpt lat="49.88349" lon="2.41775">
        <ele>22.8</ele>
        <time>2022-04-13T13:27:10Z</time>
      </trkpt>
      <trkpt lat="49.88349" lon="2.41775">
        <ele>22.8</ele>
        <time>2022-04-13T13:27:11Z</time>
      </trkpt>
      <trkpt lat="49.88349" lon="2.41775">
        <ele>22.8</ele>
        <time>2022-04-13T13:27:12Z</time>
      </trkpt>
      <trkpt lat="49.88349" lon="2.41775">
        <ele>22.8</ele>
        <time>2022-04-13T13:27:13Z</time>
      </trkpt>
      <trkpt lat="49.88348" lon="2.41773">
        <ele>22.8</ele>
        <time>2022-04-13T13:27:14Z</time>
      </trkpt>
      <trkpt lat="49.88347" lon="2.41771">
        <ele>22.8</ele>
        <time>2022-04-13T13:27:15Z</time>
      </trkpt>
      <trkpt lat="49.88347" lon="2.4177">
        <ele>22.8</ele>
        <time>2022-04-13T13:27:16Z</time>
      </trkpt>
      <trkpt lat="49.88346" lon="2.4177">
        <ele>22.8</ele>
        <time>2022-04-13T13:27:17Z</time>
      </trkpt>
      <trkpt lat="49.88346" lon="2.4177">
        <ele>22.8</ele>
        <time>2022-04-13T13:27:18Z</time>
      </trkpt>
      <trkpt lat="49.88346" lon="2.4177">
        <ele>22.8</ele>
        <time>2022-04-13T13:27:19Z</time>
      </trkpt>
      <trkpt lat="49.88346" lon="2.4177">
        <ele>22.8</ele>
        <time>2022-04-13T13:27:20Z</time>
      </trkpt>
      <trkpt lat="49.88346" lon="2.4177">
        <ele>22.8</ele>
        <time>2022-04-13T13:27:21Z</time>
      </trkpt>
      <trkpt lat="49.88346" lon="2.4177">
        <ele>22.8</ele>
        <time>2022-04-13T13:27:22Z</time>
      </trkpt>
      <trkpt lat="49.88347" lon="2.41769">
        <ele>22.8</ele>
        <time>2022-04-13T13:27:23Z</time>
      </trkpt>
      <trkpt lat="49.88346" lon="2.41768">
        <ele>22.8</ele>
        <time>2022-04-13T13:27:25Z</time>
      </trkpt>
      <trkpt lat="49.88346" lon="2.41768">
        <ele>22.8</ele>
        <time>2022-04-13T13:27:26Z</time>
      </trkpt>
      <trkpt lat="49.88346" lon="2.41767">
        <ele>22.8</ele>
        <time>2022-04-13T13:27:27Z</time>
      </trkpt>
      <trkpt lat="49.88346" lon="2.41767">
        <ele>22.8</ele>
        <time>2022-04-13T13:27:28Z</time>
      </trkpt>
      <trkpt lat="49.88346" lon="2.41767">
        <ele>22.8</ele>
        <time>2022-04-13T13:27:29Z</time>
      </trkpt>
      <trkpt lat="49.88346" lon="2.41767">
        <ele>22.8</ele>
        <time>2022-04-13T13:27:30Z</time>
      </trkpt>
      <trkpt lat="49.88346" lon="2.41767">
        <ele>22.8</ele>
        <time>2022-04-13T13:27:31Z</time>
      </trkpt>
      <trkpt lat="49.88346" lon="2.41768">
        <ele>22.8</ele>
        <time>2022-04-13T13:27:32Z</time>
      </trkpt>
      <trkpt lat="49.88346" lon="2.41768">
        <ele>22.8</ele>
        <time>2022-04-13T13:27:33Z</time>
      </trkpt>
      <trkpt lat="49.88346" lon="2.41768">
        <ele>22.8</ele>
        <time>2022-04-13T13:27:34Z</time>
      </trkpt>
      <trkpt lat="49.88346" lon="2.41768">
        <ele>22.8</ele>
        <time>2022-04-13T13:27:35Z</time>
      </trkpt>
      <trkpt lat="49.88346" lon="2.41768">
        <ele>22.8</ele>
        <time>2022-04-13T13:27:36Z</time>
      </trkpt>
      <trkpt lat="49.88346" lon="2.41768">
        <ele>22.8</ele>
        <time>2022-04-13T13:27:37Z</time>
      </trkpt>
      <trkpt lat="49.88346" lon="2.41768">
        <ele>22.8</ele>
        <time>2022-04-13T13:27:38Z</time>
      </trkpt>
      <trkpt lat="49.88346" lon="2.41768">
        <ele>22.8</ele>
        <time>2022-04-13T13:27:39Z</time>
      </trkpt>
      <trkpt lat="49.88346" lon="2.41768">
        <ele>22.8</ele>
        <time>2022-04-13T13:27:40Z</time>
      </trkpt>
      <trkpt lat="49.88346" lon="2.41769">
        <ele>22.8</ele>
        <time>2022-04-13T13:27:41Z</time>
      </trkpt>
      <trkpt lat="49.88346" lon="2.41769">
        <ele>22.8</ele>
        <time>2022-04-13T13:27:42Z</time>
      </trkpt>
      <trkpt lat="49.88346" lon="2.41769">
        <ele>22.8</ele>
        <time>2022-04-13T13:27:43Z</time>
      </trkpt>
      <trkpt lat="49.88346" lon="2.41769">
        <ele>22.8</ele>
        <time>2022-04-13T13:27:44Z</time>
      </trkpt>
      <trkpt lat="49.88346" lon="2.41769">
        <ele>22.8</ele>
        <time>2022-04-13T13:27:45Z</time>
      </trkpt>
      <trkpt lat="49.88346" lon="2.41769">
        <ele>22.8</ele>
        <time>2022-04-13T13:27:46Z</time>
      </trkpt>
      <trkpt lat="49.88346" lon="2.41769">
        <ele>22.8</ele>
        <time>2022-04-13T13:27:47Z</time>
      </trkpt>
      <trkpt lat="49.88346" lon="2.41769">
        <ele>22.8</ele>
        <time>2022-04-13T13:27:48Z</time>
      </trkpt>
      <trkpt lat="49.88346" lon="2.41769">
        <ele>22.8</ele>
        <time>2022-04-13T13:27:49Z</time>
      </trkpt>
      <trkpt lat="49.88346" lon="2.41769">
        <ele>22.8</ele>
        <time>2022-04-13T13:27:50Z</time>
      </trkpt>
      <trkpt lat="49.88346" lon="2.41769">
        <ele>22.8</ele>
        <time>2022-04-13T13:27:51Z</time>
      </trkpt>
      <trkpt lat="49.88346" lon="2.41769">
        <ele>22.8</ele>
        <time>2022-04-13T13:27:52Z</time>
      </trkpt>
      <trkpt lat="49.88346" lon="2.41769">
        <ele>22.8</ele>
        <time>2022-04-13T13:27:53Z</time>
      </trkpt>
      <trkpt lat="49.88346" lon="2.41769">
        <ele>22.8</ele>
        <time>2022-04-13T13:27:54Z</time>
      </trkpt>
      <trkpt lat="49.88346" lon="2.41769">
        <ele>22.8</ele>
        <time>2022-04-13T13:27:55Z</time>
      </trkpt>
      <trkpt lat="49.88346" lon="2.41769">
        <ele>22.8</ele>
        <time>2022-04-13T13:27:56Z</time>
      </trkpt>
      <trkpt lat="49.88346" lon="2.41769">
        <ele>22.8</ele>
        <time>2022-04-13T13:27:57Z</time>
      </trkpt>
      <trkpt lat="49.88346" lon="2.41769">
        <ele>22.8</ele>
        <time>2022-04-13T13:27:58Z</time>
      </trkpt>
      <trkpt lat="49.88346" lon="2.41769">
        <ele>22.8</ele>
        <time>2022-04-13T13:27:59Z</time>
      </trkpt>
      <trkpt lat="49.88346" lon="2.41769">
        <ele>22.8</ele>
        <time>2022-04-13T13:28:00Z</time>
      </trkpt>
      <trkpt lat="49.88346" lon="2.41769">
        <ele>22.8</ele>
        <time>2022-04-13T13:28:01Z</time>
      </trkpt>
      <trkpt lat="49.88346" lon="2.41769">
        <ele>22.8</ele>
        <time>2022-04-13T13:28:02Z</time>
      </trkpt>
      <trkpt lat="49.88346" lon="2.41769">
        <ele>22.8</ele>
        <time>2022-04-13T13:28:03Z</time>
      </trkpt>
      <trkpt lat="49.88346" lon="2.41769">
        <ele>22.8</ele>
        <time>2022-04-13T13:28:04Z</time>
      </trkpt>
      <trkpt lat="49.88346" lon="2.41769">
        <ele>22.8</ele>
        <time>2022-04-13T13:28:05Z</time>
      </trkpt>
      <trkpt lat="49.88346" lon="2.41769">
        <ele>22.8</ele>
        <time>2022-04-13T13:28:06Z</time>
      </trkpt>
      <trkpt lat="49.88346" lon="2.41769">
        <ele>22.8</ele>
        <time>2022-04-13T13:28:07Z</time>
      </trkpt>
      <trkpt lat="49.88346" lon="2.41769">
        <ele>22.8</ele>
        <time>2022-04-13T13:28:08Z</time>
      </trkpt>
      <trkpt lat="49.88346" lon="2.41769">
        <ele>22.8</ele>
        <time>2022-04-13T13:28:09Z</time>
      </trkpt>
      <trkpt lat="49.88346" lon="2.41769">
        <ele>22.8</ele>
        <time>2022-04-13T13:28:10Z</time>
      </trkpt>
      <trkpt lat="49.88346" lon="2.41769">
        <ele>22.8</ele>
        <time>2022-04-13T13:28:11Z</time>
      </trkpt>
      <trkpt lat="49.88346" lon="2.41769">
        <ele>22.8</ele>
        <time>2022-04-13T13:28:12Z</time>
      </trkpt>
      <trkpt lat="49.88346" lon="2.41769">
        <ele>22.8</ele>
        <time>2022-04-13T13:28:13Z</time>
      </trkpt>
      <trkpt lat="49.88346" lon="2.41769">
        <ele>22.8</ele>
        <time>2022-04-13T13:28:14Z</time>
      </trkpt>
      <trkpt lat="49.88346" lon="2.41769">
        <ele>22.8</ele>
        <time>2022-04-13T13:28:15Z</time>
      </trkpt>
      <trkpt lat="49.88346" lon="2.41769">
        <ele>22.8</ele>
        <time>2022-04-13T13:28:16Z</time>
      </trkpt>
      <trkpt lat="49.88346" lon="2.41769">
        <ele>22.8</ele>
        <time>2022-04-13T13:28:17Z</time>
      </trkpt>
      <trkpt lat="49.88346" lon="2.41769">
        <ele>22.8</ele>
        <time>2022-04-13T13:28:18Z</time>
      </trkpt>
      <trkpt lat="49.88346" lon="2.41769">
        <ele>22.8</ele>
        <time>2022-04-13T13:28:19Z</time>
      </trkpt>
      <trkpt lat="49.88346" lon="2.41769">
        <ele>22.8</ele>
        <time>2022-04-13T13:28:20Z</time>
      </trkpt>
      <trkpt lat="49.88346" lon="2.41769">
        <ele>22.8</ele>
        <time>2022-04-13T13:28:21Z</time>
      </trkpt>
      <trkpt lat="49.88346" lon="2.41769">
        <ele>22.8</ele>
        <time>2022-04-13T13:28:22Z</time>
      </trkpt>
      <trkpt lat="49.88346" lon="2.4177">
        <ele>22.8</ele>
        <time>2022-04-13T13:28:23Z</time>
      </trkpt>
      <trkpt lat="49.88346" lon="2.4177">
        <ele>22.8</ele>
        <time>2022-04-13T13:28:24Z</time>
      </trkpt>
      <trkpt lat="49.88346" lon="2.41769">
        <ele>22.8</ele>
        <time>2022-04-13T13:28:25Z</time>
      </trkpt>
      <trkpt lat="49.88346" lon="2.41769">
        <ele>22.8</ele>
        <time>2022-04-13T13:28:26Z</time>
      </trkpt>
      <trkpt lat="49.88346" lon="2.41769">
        <ele>22.8</ele>
        <time>2022-04-13T13:28:27Z</time>
      </trkpt>
      <trkpt lat="49.88346" lon="2.41769">
        <ele>22.8</ele>
        <time>2022-04-13T13:28:28Z</time>
      </trkpt>
      <trkpt lat="49.88346" lon="2.4177">
        <ele>22.8</ele>
        <time>2022-04-13T13:28:29Z</time>
      </trkpt>
      <trkpt lat="49.88346" lon="2.4177">
        <ele>22.8</ele>
        <time>2022-04-13T13:28:30Z</time>
      </trkpt>
      <trkpt lat="49.88346" lon="2.4177">
        <ele>22.8</ele>
        <time>2022-04-13T13:28:31Z</time>
      </trkpt>
      <trkpt lat="49.88346" lon="2.4177">
        <ele>22.8</ele>
        <time>2022-04-13T13:28:32Z</time>
      </trkpt>
      <trkpt lat="49.88346" lon="2.4177">
        <ele>22.8</ele>
        <time>2022-04-13T13:28:34Z</time>
      </trkpt>
      <trkpt lat="49.88346" lon="2.4177">
        <ele>22.8</ele>
        <time>2022-04-13T13:28:35Z</time>
      </trkpt>
      <trkpt lat="49.88346" lon="2.41769">
        <ele>22.8</ele>
        <time>2022-04-13T13:28:36Z</time>
      </trkpt>
      <trkpt lat="49.88346" lon="2.41769">
        <ele>22.8</ele>
        <time>2022-04-13T13:28:37Z</time>
      </trkpt>
      <trkpt lat="49.88346" lon="2.41769">
        <ele>22.8</ele>
        <time>2022-04-13T13:28:38Z</time>
      </trkpt>
      <trkpt lat="49.88346" lon="2.41769">
        <ele>22.8</ele>
        <time>2022-04-13T13:28:39Z</time>
      </trkpt>
      <trkpt lat="49.88346" lon="2.41769">
        <ele>22.8</ele>
        <time>2022-04-13T13:28:40Z</time>
      </trkpt>
      <trkpt lat="49.88346" lon="2.41769">
        <ele>22.8</ele>
        <time>2022-04-13T13:28:41Z</time>
      </trkpt>
      <trkpt lat="49.88346" lon="2.41769">
        <ele>22.8</ele>
        <time>2022-04-13T13:28:42Z</time>
      </trkpt>
      <trkpt lat="49.88346" lon="2.41769">
        <ele>22.8</ele>
        <time>2022-04-13T13:28:43Z</time>
      </trkpt>
      <trkpt lat="49.88346" lon="2.41769">
        <ele>22.8</ele>
        <time>2022-04-13T13:28:44Z</time>
      </trkpt>
      <trkpt lat="49.88346" lon="2.41769">
        <ele>22.8</ele>
        <time>2022-04-13T13:28:45Z</time>
      </trkpt>
      <trkpt lat="49.88346" lon="2.41769">
        <ele>22.8</ele>
        <time>2022-04-13T13:28:46Z</time>
      </trkpt>
      <trkpt lat="49.88346" lon="2.41769">
        <ele>22.8</ele>
        <time>2022-04-13T13:28:47Z</time>
      </trkpt>
      <trkpt lat="49.88346" lon="2.41769">
        <ele>22.8</ele>
        <time>2022-04-13T13:28:48Z</time>
      </trkpt>
      <trkpt lat="49.88346" lon="2.41769">
        <ele>22.8</ele>
        <time>2022-04-13T13:28:49Z</time>
      </trkpt>
      <trkpt lat="49.88346" lon="2.41769">
        <ele>22.8</ele>
        <time>2022-04-13T13:28:50Z</time>
      </trkpt>
      <trkpt lat="49.88346" lon="2.41769">
        <ele>22.8</ele>
        <time>2022-04-13T13:28:51Z</time>
      </trkpt>
      <trkpt lat="49.88346" lon="2.41769">
        <ele>22.8</ele>
        <time>2022-04-13T13:28:52Z</time>
      </trkpt>
      <trkpt lat="49.88346" lon="2.41769">
        <ele>22.8</ele>
        <time>2022-04-13T13:28:53Z</time>
      </trkpt>
      <trkpt lat="49.88346" lon="2.41769">
        <ele>22.8</ele>
        <time>2022-04-13T13:28:54Z</time>
      </trkpt>
      <trkpt lat="49.88346" lon="2.41769">
        <ele>22.8</ele>
        <time>2022-04-13T13:28:55Z</time>
      </trkpt>
      <trkpt lat="49.88346" lon="2.41769">
        <ele>22.8</ele>
        <time>2022-04-13T13:28:56Z</time>
      </trkpt>
      <trkpt lat="49.88346" lon="2.41769">
        <ele>22.8</ele>
        <time>2022-04-13T13:28:57Z</time>
      </trkpt>
      <trkpt lat="49.88346" lon="2.41769">
        <ele>22.8</ele>
        <time>2022-04-13T13:28:58Z</time>
      </trkpt>
      <trkpt lat="49.88346" lon="2.41769">
        <ele>22.8</ele>
        <time>2022-04-13T13:28:59Z</time>
      </trkpt>
      <trkpt lat="49.88346" lon="2.41769">
        <ele>22.8</ele>
        <time>2022-04-13T13:29:00Z</time>
      </trkpt>
      <trkpt lat="49.88346" lon="2.41769">
        <ele>22.8</ele>
        <time>2022-04-13T13:29:01Z</time>
      </trkpt>
      <trkpt lat="49.88346" lon="2.41769">
        <ele>22.8</ele>
        <time>2022-04-13T13:29:02Z</time>
      </trkpt>
      <trkpt lat="49.88346" lon="2.41769">
        <ele>22.8</ele>
        <time>2022-04-13T13:29:03Z</time>
      </trkpt>
      <trkpt lat="49.88346" lon="2.41769">
        <ele>22.8</ele>
        <time>2022-04-13T13:29:04Z</time>
      </trkpt>
      <trkpt lat="49.88346" lon="2.41769">
        <ele>22.8</ele>
        <time>2022-04-13T13:29:05Z</time>
      </trkpt>
      <trkpt lat="49.88346" lon="2.41769">
        <ele>22.8</ele>
        <time>2022-04-13T13:29:06Z</time>
      </trkpt>
      <trkpt lat="49.88346" lon="2.41769">
        <ele>22.8</ele>
        <time>2022-04-13T13:29:07Z</time>
      </trkpt>
      <trkpt lat="49.88346" lon="2.41769">
        <ele>22.8</ele>
        <time>2022-04-13T13:29:08Z</time>
      </trkpt>
      <trkpt lat="49.88346" lon="2.41769">
        <ele>22.8</ele>
        <time>2022-04-13T13:29:09Z</time>
      </trkpt>
      <trkpt lat="49.88346" lon="2.41769">
        <ele>22.8</ele>
        <time>2022-04-13T13:29:10Z</time>
      </trkpt>
      <trkpt lat="49.88346" lon="2.4177">
        <ele>22.8</ele>
        <time>2022-04-13T13:29:11Z</time>
      </trkpt>
      <trkpt lat="49.88346" lon="2.4177">
        <ele>22.8</ele>
        <time>2022-04-13T13:29:12Z</time>
      </trkpt>
      <trkpt lat="49.88346" lon="2.4177">
        <ele>22.8</ele>
        <time>2022-04-13T13:29:13Z</time>
      </trkpt>
      <trkpt lat="49.88346" lon="2.4177">
        <ele>22.8</ele>
        <time>2022-04-13T13:29:14Z</time>
      </trkpt>
      <trkpt lat="49.88346" lon="2.4177">
        <ele>22.8</ele>
        <time>2022-04-13T13:29:15Z</time>
      </trkpt>
      <trkpt lat="49.88346" lon="2.4177">
        <ele>22.8</ele>
        <time>2022-04-13T13:29:16Z</time>
      </trkpt>
      <trkpt lat="49.88346" lon="2.4177">
        <ele>22.8</ele>
        <time>2022-04-13T13:29:17Z</time>
      </trkpt>
      <trkpt lat="49.88346" lon="2.4177">
        <ele>22.8</ele>
        <time>2022-04-13T13:29:18Z</time>
      </trkpt>
      <trkpt lat="49.88346" lon="2.4177">
        <ele>22.8</ele>
        <time>2022-04-13T13:29:19Z</time>
      </trkpt>
      <trkpt lat="49.88346" lon="2.4177">
        <ele>22.8</ele>
        <time>2022-04-13T13:29:20Z</time>
      </trkpt>
      <trkpt lat="49.88346" lon="2.4177">
        <ele>22.8</ele>
        <time>2022-04-13T13:29:21Z</time>
      </trkpt>
      <trkpt lat="49.88346" lon="2.4177">
        <ele>22.8</ele>
        <time>2022-04-13T13:29:22Z</time>
      </trkpt>
      <trkpt lat="49.88347" lon="2.4177">
        <ele>22.8</ele>
        <time>2022-04-13T13:29:23Z</time>
      </trkpt>
      <trkpt lat="49.88347" lon="2.41771">
        <ele>22.8</ele>
        <time>2022-04-13T13:29:25Z</time>
      </trkpt>
      <trkpt lat="49.88347" lon="2.41771">
        <ele>22.8</ele>
        <time>2022-04-13T13:29:26Z</time>
      </trkpt>
      <trkpt lat="49.88348" lon="2.41771">
        <ele>22.8</ele>
        <time>2022-04-13T13:29:28Z</time>
      </trkpt>
      <trkpt lat="49.88348" lon="2.41771">
        <ele>22.8</ele>
        <time>2022-04-13T13:29:29Z</time>
      </trkpt>
      <trkpt lat="49.88348" lon="2.41771">
        <ele>22.8</ele>
        <time>2022-04-13T13:29:30Z</time>
      </trkpt>
      <trkpt lat="49.88348" lon="2.41771">
        <ele>22.8</ele>
        <time>2022-04-13T13:29:31Z</time>
      </trkpt>
      <trkpt lat="49.88348" lon="2.41771">
        <ele>22.8</ele>
        <time>2022-04-13T13:29:32Z</time>
      </trkpt>
      <trkpt lat="49.88347" lon="2.41771">
        <ele>22.8</ele>
        <time>2022-04-13T13:29:33Z</time>
      </trkpt>
      <trkpt lat="49.88347" lon="2.41771">
        <ele>22.8</ele>
        <time>2022-04-13T13:29:34Z</time>
      </trkpt>
      <trkpt lat="49.88347" lon="2.4177">
        <ele>22.8</ele>
        <time>2022-04-13T13:29:36Z</time>
      </trkpt>
      <trkpt lat="49.88347" lon="2.4177">
        <ele>22.8</ele>
        <time>2022-04-13T13:29:37Z</time>
      </trkpt>
      <trkpt lat="49.88347" lon="2.4177">
        <ele>22.8</ele>
        <time>2022-04-13T13:29:38Z</time>
      </trkpt>
      <trkpt lat="49.88347" lon="2.4177">
        <ele>22.8</ele>
        <time>2022-04-13T13:29:39Z</time>
      </trkpt>
      <trkpt lat="49.88347" lon="2.4177">
        <ele>22.8</ele>
        <time>2022-04-13T13:29:40Z</time>
      </trkpt>
      <trkpt lat="49.88347" lon="2.4177">
        <ele>22.8</ele>
        <time>2022-04-13T13:29:41Z</time>
      </trkpt>
      <trkpt lat="49.88347" lon="2.4177">
        <ele>22.8</ele>
        <time>2022-04-13T13:29:42Z</time>
      </trkpt>
      <trkpt lat="49.88347" lon="2.4177">
        <ele>22.8</ele>
        <time>2022-04-13T13:29:43Z</time>
      </trkpt>
      <trkpt lat="49.88347" lon="2.4177">
        <ele>22.8</ele>
        <time>2022-04-13T13:29:44Z</time>
      </trkpt>
      <trkpt lat="49.88347" lon="2.4177">
        <ele>22.8</ele>
        <time>2022-04-13T13:29:45Z</time>
      </trkpt>
      <trkpt lat="49.88347" lon="2.4177">
        <ele>22.8</ele>
        <time>2022-04-13T13:29:46Z</time>
      </trkpt>
      <trkpt lat="49.88347" lon="2.4177">
        <ele>22.8</ele>
        <time>2022-04-13T13:29:47Z</time>
      </trkpt>
      <trkpt lat="49.88347" lon="2.4177">
        <ele>22.8</ele>
        <time>2022-04-13T13:29:48Z</time>
      </trkpt>
      <trkpt lat="49.88346" lon="2.4177">
        <ele>22.8</ele>
        <time>2022-04-13T13:29:49Z</time>
      </trkpt>
      <trkpt lat="49.88346" lon="2.4177">
        <ele>22.8</ele>
        <time>2022-04-13T13:29:50Z</time>
      </trkpt>
      <trkpt lat="49.88347" lon="2.4177">
        <ele>22.8</ele>
        <time>2022-04-13T13:29:51Z</time>
      </trkpt>
      <trkpt lat="49.88347" lon="2.41771">
        <ele>22.8</ele>
        <time>2022-04-13T13:29:52Z</time>
      </trkpt>
      <trkpt lat="49.88347" lon="2.41772">
        <ele>22.8</ele>
        <time>2022-04-13T13:29:53Z</time>
      </trkpt>
      <trkpt lat="49.88347" lon="2.41772">
        <ele>22.8</ele>
        <time>2022-04-13T13:29:54Z</time>
      </trkpt>
      <trkpt lat="49.88347" lon="2.41772">
        <ele>22.8</ele>
        <time>2022-04-13T13:29:55Z</time>
      </trkpt>
      <trkpt lat="49.88347" lon="2.41772">
        <ele>22.8</ele>
        <time>2022-04-13T13:29:56Z</time>
      </trkpt>
      <trkpt lat="49.88347" lon="2.41772">
        <ele>22.8</ele>
        <time>2022-04-13T13:29:57Z</time>
      </trkpt>
      <trkpt lat="49.88347" lon="2.41772">
        <ele>22.8</ele>
        <time>2022-04-13T13:29:58Z</time>
      </trkpt>
      <trkpt lat="49.88347" lon="2.41772">
        <ele>22.8</ele>
        <time>2022-04-13T13:29:59Z</time>
      </trkpt>
      <trkpt lat="49.88347" lon="2.41773">
        <ele>22.8</ele>
        <time>2022-04-13T13:30:00Z</time>
      </trkpt>
      <trkpt lat="49.88347" lon="2.41773">
        <ele>22.8</ele>
        <time>2022-04-13T13:30:01Z</time>
      </trkpt>
      <trkpt lat="49.88347" lon="2.41773">
        <ele>22.8</ele>
        <time>2022-04-13T13:30:02Z</time>
      </trkpt>
      <trkpt lat="49.88348" lon="2.41773">
        <ele>22.8</ele>
        <time>2022-04-13T13:30:03Z</time>
      </trkpt>
      <trkpt lat="49.88348" lon="2.41774">
        <ele>22.8</ele>
        <time>2022-04-13T13:30:04Z</time>
      </trkpt>
      <trkpt lat="49.88348" lon="2.41774">
        <ele>22.8</ele>
        <time>2022-04-13T13:30:05Z</time>
      </trkpt>
      <trkpt lat="49.88348" lon="2.41775">
        <ele>22.8</ele>
        <time>2022-04-13T13:30:06Z</time>
      </trkpt>
      <trkpt lat="49.88348" lon="2.41776">
        <ele>22.8</ele>
        <time>2022-04-13T13:30:08Z</time>
      </trkpt>
      <trkpt lat="49.88348" lon="2.41777">
        <ele>22.8</ele>
        <time>2022-04-13T13:30:09Z</time>
      </trkpt>
      <trkpt lat="49.88348" lon="2.41777">
        <ele>22.8</ele>
        <time>2022-04-13T13:30:10Z</time>
      </trkpt>
      <trkpt lat="49.88348" lon="2.41777">
        <ele>22.8</ele>
        <time>2022-04-13T13:30:11Z</time>
      </trkpt>
      <trkpt lat="49.88349" lon="2.41778">
        <ele>22.8</ele>
        <time>2022-04-13T13:30:12Z</time>
      </trkpt>
      <trkpt lat="49.88349" lon="2.41778">
        <ele>22.8</ele>
        <time>2022-04-13T13:30:13Z</time>
      </trkpt>
      <trkpt lat="49.88349" lon="2.41777">
        <ele>22.8</ele>
        <time>2022-04-13T13:30:14Z</time>
      </trkpt>
      <trkpt lat="49.88349" lon="2.41777">
        <ele>22.8</ele>
        <time>2022-04-13T13:30:15Z</time>
      </trkpt>
      <trkpt lat="49.88349" lon="2.41776">
        <ele>22.8</ele>
        <time>2022-04-13T13:30:17Z</time>
      </trkpt>
      <trkpt lat="49.88348" lon="2.41776">
        <ele>22.8</ele>
        <time>2022-04-13T13:30:19Z</time>
      </trkpt>
      <trkpt lat="49.88348" lon="2.41777">
        <ele>22.8</ele>
        <time>2022-04-13T13:30:20Z</time>
      </trkpt>
      <trkpt lat="49.88348" lon="2.41777">
        <ele>22.8</ele>
        <time>2022-04-13T13:30:21Z</time>
      </trkpt>
      <trkpt lat="49.88347" lon="2.41776">
        <ele>22.8</ele>
        <time>2022-04-13T13:30:22Z</time>
      </trkpt>
      <trkpt lat="49.88347" lon="2.41776">
        <ele>22.8</ele>
        <time>2022-04-13T13:30:23Z</time>
      </trkpt>
      <trkpt lat="49.88347" lon="2.41776">
        <ele>22.8</ele>
        <time>2022-04-13T13:30:24Z</time>
      </trkpt>
      <trkpt lat="49.88347" lon="2.41776">
        <ele>22.8</ele>
        <time>2022-04-13T13:30:25Z</time>
      </trkpt>
      <trkpt lat="49.88347" lon="2.41776">
        <ele>22.8</ele>
        <time>2022-04-13T13:30:26Z</time>
      </trkpt>
      <trkpt lat="49.88347" lon="2.41776">
        <ele>22.8</ele>
        <time>2022-04-13T13:30:27Z</time>
      </trkpt>
      <trkpt lat="49.88347" lon="2.41776">
        <ele>22.8</ele>
        <time>2022-04-13T13:30:28Z</time>
      </trkpt>
      <trkpt lat="49.88347" lon="2.41776">
        <ele>22.8</ele>
        <time>2022-04-13T13:30:29Z</time>
      </trkpt>
      <trkpt lat="49.88347" lon="2.41776">
        <ele>22.8</ele>
        <time>2022-04-13T13:30:30Z</time>
      </trkpt>
      <trkpt lat="49.88347" lon="2.41776">
        <ele>22.8</ele>
        <time>2022-04-13T13:30:31Z</time>
      </trkpt>
      <trkpt lat="49.88347" lon="2.41776">
        <ele>22.8</ele>
        <time>2022-04-13T13:30:32Z</time>
      </trkpt>
      <trkpt lat="49.88348" lon="2.41776">
        <ele>22.8</ele>
        <time>2022-04-13T13:30:33Z</time>
      </trkpt>
      <trkpt lat="49.88348" lon="2.41776">
        <ele>22.8</ele>
        <time>2022-04-13T13:30:34Z</time>
      </trkpt>
      <trkpt lat="49.88348" lon="2.41776">
        <ele>22.8</ele>
        <time>2022-04-13T13:30:35Z</time>
      </trkpt>
      <trkpt lat="49.88348" lon="2.41776">
        <ele>22.8</ele>
        <time>2022-04-13T13:30:36Z</time>
      </trkpt>
      <trkpt lat="49.88348" lon="2.41776">
        <ele>22.8</ele>
        <time>2022-04-13T13:30:37Z</time>
      </trkpt>
      <trkpt lat="49.88348" lon="2.41776">
        <ele>22.8</ele>
        <time>2022-04-13T13:30:38Z</time>
      </trkpt>
      <trkpt lat="49.88348" lon="2.41776">
        <ele>22.8</ele>
        <time>2022-04-13T13:30:39Z</time>
      </trkpt>
      <trkpt lat="49.88348" lon="2.41776">
        <ele>22.8</ele>
        <time>2022-04-13T13:30:40Z</time>
      </trkpt>
      <trkpt lat="49.88348" lon="2.41776">
        <ele>22.8</ele>
        <time>2022-04-13T13:30:41Z</time>
      </trkpt>
      <trkpt lat="49.88348" lon="2.41776">
        <ele>22.8</ele>
        <time>2022-04-13T13:30:42Z</time>
      </trkpt>
      <trkpt lat="49.88348" lon="2.41776">
        <ele>22.8</ele>
        <time>2022-04-13T13:30:43Z</time>
      </trkpt>
      <trkpt lat="49.88348" lon="2.41776">
        <ele>22.8</ele>
        <time>2022-04-13T13:30:44Z</time>
      </trkpt>
      <trkpt lat="49.88348" lon="2.41776">
        <ele>22.8</ele>
        <time>2022-04-13T13:30:45Z</time>
      </trkpt>
      <trkpt lat="49.88348" lon="2.41776">
        <ele>22.8</ele>
        <time>2022-04-13T13:30:46Z</time>
      </trkpt>
      <trkpt lat="49.88348" lon="2.41776">
        <ele>22.8</ele>
        <time>2022-04-13T13:30:47Z</time>
      </trkpt>
      <trkpt lat="49.88348" lon="2.41776">
        <ele>22.8</ele>
        <time>2022-04-13T13:30:48Z</time>
      </trkpt>
      <trkpt lat="49.88348" lon="2.41776">
        <ele>22.8</ele>
        <time>2022-04-13T13:30:49Z</time>
      </trkpt>
      <trkpt lat="49.88348" lon="2.41776">
        <ele>22.8</ele>
        <time>2022-04-13T13:30:50Z</time>
      </trkpt>
      <trkpt lat="49.88348" lon="2.41776">
        <ele>22.8</ele>
        <time>2022-04-13T13:30:51Z</time>
      </trkpt>
      <trkpt lat="49.88348" lon="2.41776">
        <ele>22.8</ele>
        <time>2022-04-13T13:30:52Z</time>
      </trkpt>
      <trkpt lat="49.88348" lon="2.41776">
        <ele>22.8</ele>
        <time>2022-04-13T13:30:53Z</time>
      </trkpt>
      <trkpt lat="49.88348" lon="2.41776">
        <ele>22.8</ele>
        <time>2022-04-13T13:30:54Z</time>
      </trkpt>
      <trkpt lat="49.88348" lon="2.41776">
        <ele>22.8</ele>
        <time>2022-04-13T13:30:55Z</time>
      </trkpt>
      <trkpt lat="49.88348" lon="2.41776">
        <ele>22.8</ele>
        <time>2022-04-13T13:30:56Z</time>
      </trkpt>
      <trkpt lat="49.88348" lon="2.41776">
        <ele>22.8</ele>
        <time>2022-04-13T13:30:57Z</time>
      </trkpt>
      <trkpt lat="49.88348" lon="2.41776">
        <ele>22.8</ele>
        <time>2022-04-13T13:30:58Z</time>
      </trkpt>
      <trkpt lat="49.88348" lon="2.41776">
        <ele>22.8</ele>
        <time>2022-04-13T13:30:59Z</time>
      </trkpt>
      <trkpt lat="49.88348" lon="2.41776">
        <ele>22.8</ele>
        <time>2022-04-13T13:31:00Z</time>
      </trkpt>
      <trkpt lat="49.88348" lon="2.41776">
        <ele>22.8</ele>
        <time>2022-04-13T13:31:01Z</time>
      </trkpt>
      <trkpt lat="49.88348" lon="2.41776">
        <ele>22.8</ele>
        <time>2022-04-13T13:31:02Z</time>
      </trkpt>
      <trkpt lat="49.88348" lon="2.41776">
        <ele>22.8</ele>
        <time>2022-04-13T13:31:03Z</time>
      </trkpt>
      <trkpt lat="49.88348" lon="2.41776">
        <ele>22.8</ele>
        <time>2022-04-13T13:31:04Z</time>
      </trkpt>
      <trkpt lat="49.88348" lon="2.41776">
        <ele>22.8</ele>
        <time>2022-04-13T13:31:05Z</time>
      </trkpt>
      <trkpt lat="49.88348" lon="2.41776">
        <ele>22.8</ele>
        <time>2022-04-13T13:31:06Z</time>
      </trkpt>
      <trkpt lat="49.88348" lon="2.41776">
        <ele>22.8</ele>
        <time>2022-04-13T13:31:07Z</time>
      </trkpt>
      <trkpt lat="49.88348" lon="2.41776">
        <ele>22.8</ele>
        <time>2022-04-13T13:31:08Z</time>
      </trkpt>
      <trkpt lat="49.88348" lon="2.41776">
        <ele>22.8</ele>
        <time>2022-04-13T13:31:09Z</time>
      </trkpt>
      <trkpt lat="49.88348" lon="2.41776">
        <ele>22.8</ele>
        <time>2022-04-13T13:31:10Z</time>
      </trkpt>
      <trkpt lat="49.88348" lon="2.41776">
        <ele>22.8</ele>
        <time>2022-04-13T13:31:11Z</time>
      </trkpt>
      <trkpt lat="49.88348" lon="2.41776">
        <ele>22.8</ele>
        <time>2022-04-13T13:31:12Z</time>
      </trkpt>
      <trkpt lat="49.88348" lon="2.41776">
        <ele>22.8</ele>
        <time>2022-04-13T13:31:13Z</time>
      </trkpt>
      <trkpt lat="49.88348" lon="2.41776">
        <ele>22.8</ele>
        <time>2022-04-13T13:31:14Z</time>
      </trkpt>
      <trkpt lat="49.88348" lon="2.41776">
        <ele>22.8</ele>
        <time>2022-04-13T13:31:15Z</time>
      </trkpt>
      <trkpt lat="49.88348" lon="2.41776">
        <ele>22.8</ele>
        <time>2022-04-13T13:31:16Z</time>
      </trkpt>
      <trkpt lat="49.88348" lon="2.41776">
        <ele>22.8</ele>
        <time>2022-04-13T13:31:17Z</time>
      </trkpt>
      <trkpt lat="49.88348" lon="2.41776">
        <ele>22.8</ele>
        <time>2022-04-13T13:31:18Z</time>
      </trkpt>
      <trkpt lat="49.88348" lon="2.41776">
        <ele>22.8</ele>
        <time>2022-04-13T13:31:19Z</time>
      </trkpt>
      <trkpt lat="49.88348" lon="2.41776">
        <ele>22.8</ele>
        <time>2022-04-13T13:31:20Z</time>
      </trkpt>
      <trkpt lat="49.88348" lon="2.41776">
        <ele>22.8</ele>
        <time>2022-04-13T13:31:21Z</time>
      </trkpt>
      <trkpt lat="49.88348" lon="2.41776">
        <ele>22.8</ele>
        <time>2022-04-13T13:31:22Z</time>
      </trkpt>
      <trkpt lat="49.88348" lon="2.41776">
        <ele>22.8</ele>
        <time>2022-04-13T13:31:23Z</time>
      </trkpt>
      <trkpt lat="49.88348" lon="2.41776">
        <ele>22.8</ele>
        <time>2022-04-13T13:31:24Z</time>
      </trkpt>
      <trkpt lat="49.88348" lon="2.41776">
        <ele>22.8</ele>
        <time>2022-04-13T13:31:25Z</time>
      </trkpt>
      <trkpt lat="49.88348" lon="2.41776">
        <ele>22.8</ele>
        <time>2022-04-13T13:31:26Z</time>
      </trkpt>
      <trkpt lat="49.88348" lon="2.41776">
        <ele>22.8</ele>
        <time>2022-04-13T13:31:27Z</time>
      </trkpt>
      <trkpt lat="49.88348" lon="2.41776">
        <ele>22.8</ele>
        <time>2022-04-13T13:31:28Z</time>
      </trkpt>
      <trkpt lat="49.88348" lon="2.41776">
        <ele>22.8</ele>
        <time>2022-04-13T13:31:29Z</time>
      </trkpt>
      <trkpt lat="49.88348" lon="2.41776">
        <ele>22.8</ele>
        <time>2022-04-13T13:31:30Z</time>
      </trkpt>
      <trkpt lat="49.88348" lon="2.41776">
        <ele>22.8</ele>
        <time>2022-04-13T13:31:31Z</time>
      </trkpt>
      <trkpt lat="49.88348" lon="2.41776">
        <ele>22.8</ele>
        <time>2022-04-13T13:31:32Z</time>
      </trkpt>
      <trkpt lat="49.88348" lon="2.41776">
        <ele>22.8</ele>
        <time>2022-04-13T13:31:33Z</time>
      </trkpt>
      <trkpt lat="49.88348" lon="2.41776">
        <ele>22.8</ele>
        <time>2022-04-13T13:31:34Z</time>
      </trkpt>
      <trkpt lat="49.88348" lon="2.41776">
        <ele>22.8</ele>
        <time>2022-04-13T13:31:35Z</time>
      </trkpt>
      <trkpt lat="49.88348" lon="2.41776">
        <ele>22.8</ele>
        <time>2022-04-13T13:31:36Z</time>
      </trkpt>
      <trkpt lat="49.88348" lon="2.41776">
        <ele>22.8</ele>
        <time>2022-04-13T13:31:37Z</time>
      </trkpt>
      <trkpt lat="49.88348" lon="2.41776">
        <ele>22.8</ele>
        <time>2022-04-13T13:31:38Z</time>
      </trkpt>
      <trkpt lat="49.88348" lon="2.41776">
        <ele>22.8</ele>
        <time>2022-04-13T13:31:39Z</time>
      </trkpt>
      <trkpt lat="49.88348" lon="2.41776">
        <ele>22.8</ele>
        <time>2022-04-13T13:31:40Z</time>
      </trkpt>
      <trkpt lat="49.88348" lon="2.41776">
        <ele>22.8</ele>
        <time>2022-04-13T13:31:41Z</time>
      </trkpt>
      <trkpt lat="49.88348" lon="2.41776">
        <ele>22.8</ele>
        <time>2022-04-13T13:31:42Z</time>
      </trkpt>
      <trkpt lat="49.88348" lon="2.41776">
        <ele>22.8</ele>
        <time>2022-04-13T13:31:43Z</time>
      </trkpt>
      <trkpt lat="49.88348" lon="2.41776">
        <ele>22.8</ele>
        <time>2022-04-13T13:31:44Z</time>
      </trkpt>
      <trkpt lat="49.88348" lon="2.41776">
        <ele>22.8</ele>
        <time>2022-04-13T13:31:45Z</time>
      </trkpt>
      <trkpt lat="49.88348" lon="2.41776">
        <ele>22.8</ele>
        <time>2022-04-13T13:31:46Z</time>
      </trkpt>
      <trkpt lat="49.88348" lon="2.41776">
        <ele>22.8</ele>
        <time>2022-04-13T13:31:47Z</time>
      </trkpt>
      <trkpt lat="49.88348" lon="2.41776">
        <ele>22.8</ele>
        <time>2022-04-13T13:31:48Z</time>
      </trkpt>
      <trkpt lat="49.88348" lon="2.41776">
        <ele>22.8</ele>
        <time>2022-04-13T13:31:49Z</time>
      </trkpt>
      <trkpt lat="49.88348" lon="2.41776">
        <ele>22.8</ele>
        <time>2022-04-13T13:31:50Z</time>
      </trkpt>
      <trkpt lat="49.88348" lon="2.41776">
        <ele>22.8</ele>
        <time>2022-04-13T13:31:51Z</time>
      </trkpt>
      <trkpt lat="49.88348" lon="2.41776">
        <ele>22.8</ele>
        <time>2022-04-13T13:31:52Z</time>
      </trkpt>
      <trkpt lat="49.88348" lon="2.41776">
        <ele>22.8</ele>
        <time>2022-04-13T13:31:53Z</time>
      </trkpt>
      <trkpt lat="49.88348" lon="2.41776">
        <ele>22.8</ele>
        <time>2022-04-13T13:31:54Z</time>
      </trkpt>
      <trkpt lat="49.88348" lon="2.41776">
        <ele>22.8</ele>
        <time>2022-04-13T13:31:55Z</time>
      </trkpt>
      <trkpt lat="49.88348" lon="2.41776">
        <ele>22.8</ele>
        <time>2022-04-13T13:31:56Z</time>
      </trkpt>
      <trkpt lat="49.88348" lon="2.41776">
        <ele>22.8</ele>
        <time>2022-04-13T13:31:57Z</time>
      </trkpt>
      <trkpt lat="49.88348" lon="2.41776">
        <ele>22.8</ele>
        <time>2022-04-13T13:31:58Z</time>
      </trkpt>
      <trkpt lat="49.88348" lon="2.41776">
        <ele>22.8</ele>
        <time>2022-04-13T13:31:59Z</time>
      </trkpt>
      <trkpt lat="49.88348" lon="2.41776">
        <ele>22.8</ele>
        <time>2022-04-13T13:32:00Z</time>
      </trkpt>
      <trkpt lat="49.88348" lon="2.41776">
        <ele>22.8</ele>
        <time>2022-04-13T13:32:01Z</time>
      </trkpt>
      <trkpt lat="49.88348" lon="2.41776">
        <ele>22.8</ele>
        <time>2022-04-13T13:32:02Z</time>
      </trkpt>
      <trkpt lat="49.88348" lon="2.41776">
        <ele>22.8</ele>
        <time>2022-04-13T13:32:03Z</time>
      </trkpt>
      <trkpt lat="49.88348" lon="2.41776">
        <ele>22.8</ele>
        <time>2022-04-13T13:32:04Z</time>
      </trkpt>
      <trkpt lat="49.88348" lon="2.41776">
        <ele>22.8</ele>
        <time>2022-04-13T13:32:05Z</time>
      </trkpt>
      <trkpt lat="49.88348" lon="2.41776">
        <ele>22.8</ele>
        <time>2022-04-13T13:32:06Z</time>
      </trkpt>
      <trkpt lat="49.88348" lon="2.41776">
        <ele>22.8</ele>
        <time>2022-04-13T13:32:07Z</time>
      </trkpt>
      <trkpt lat="49.88348" lon="2.41776">
        <ele>22.8</ele>
        <time>2022-04-13T13:32:08Z</time>
      </trkpt>
      <trkpt lat="49.88348" lon="2.41776">
        <ele>22.8</ele>
        <time>2022-04-13T13:32:09Z</time>
      </trkpt>
      <trkpt lat="49.88348" lon="2.41776">
        <ele>22.8</ele>
        <time>2022-04-13T13:32:10Z</time>
      </trkpt>
      <trkpt lat="49.88348" lon="2.41776">
        <ele>22.8</ele>
        <time>2022-04-13T13:32:11Z</time>
      </trkpt>
      <trkpt lat="49.88348" lon="2.41776">
        <ele>22.8</ele>
        <time>2022-04-13T13:32:12Z</time>
      </trkpt>
      <trkpt lat="49.88348" lon="2.41776">
        <ele>22.8</ele>
        <time>2022-04-13T13:32:13Z</time>
      </trkpt>
      <trkpt lat="49.88348" lon="2.41776">
        <ele>22.8</ele>
        <time>2022-04-13T13:32:14Z</time>
      </trkpt>
      <trkpt lat="49.88348" lon="2.41776">
        <ele>22.8</ele>
        <time>2022-04-13T13:32:15Z</time>
      </trkpt>
      <trkpt lat="49.88348" lon="2.41776">
        <ele>22.8</ele>
        <time>2022-04-13T13:32:16Z</time>
      </trkpt>
      <trkpt lat="49.88348" lon="2.41776">
        <ele>22.8</ele>
        <time>2022-04-13T13:32:17Z</time>
      </trkpt>
      <trkpt lat="49.88348" lon="2.41776">
        <ele>22.8</ele>
        <time>2022-04-13T13:32:18Z</time>
      </trkpt>
      <trkpt lat="49.88348" lon="2.41776">
        <ele>22.8</ele>
        <time>2022-04-13T13:32:19Z</time>
      </trkpt>
      <trkpt lat="49.88348" lon="2.41776">
        <ele>22.8</ele>
        <time>2022-04-13T13:32:20Z</time>
      </trkpt>
      <trkpt lat="49.88348" lon="2.41776">
        <ele>22.8</ele>
        <time>2022-04-13T13:32:21Z</time>
      </trkpt>
      <trkpt lat="49.88348" lon="2.41776">
        <ele>22.8</ele>
        <time>2022-04-13T13:32:22Z</time>
      </trkpt>
      <trkpt lat="49.88348" lon="2.41776">
        <ele>22.8</ele>
        <time>2022-04-13T13:32:23Z</time>
      </trkpt>
      <trkpt lat="49.88348" lon="2.41776">
        <ele>22.8</ele>
        <time>2022-04-13T13:32:24Z</time>
      </trkpt>
      <trkpt lat="49.88348" lon="2.41776">
        <ele>22.8</ele>
        <time>2022-04-13T13:32:25Z</time>
      </trkpt>
      <trkpt lat="49.88348" lon="2.41776">
        <ele>22.8</ele>
        <time>2022-04-13T13:32:26Z</time>
      </trkpt>
      <trkpt lat="49.88348" lon="2.41776">
        <ele>22.8</ele>
        <time>2022-04-13T13:32:27Z</time>
      </trkpt>
      <trkpt lat="49.88348" lon="2.41776">
        <ele>22.8</ele>
        <time>2022-04-13T13:32:28Z</time>
      </trkpt>
      <trkpt lat="49.88348" lon="2.41776">
        <ele>22.8</ele>
        <time>2022-04-13T13:32:29Z</time>
      </trkpt>
      <trkpt lat="49.88348" lon="2.41776">
        <ele>22.8</ele>
        <time>2022-04-13T13:32:30Z</time>
      </trkpt>
      <trkpt lat="49.88348" lon="2.41776">
        <ele>22.8</ele>
        <time>2022-04-13T13:32:31Z</time>
      </trkpt>
      <trkpt lat="49.88348" lon="2.41776">
        <ele>22.8</ele>
        <time>2022-04-13T13:32:32Z</time>
      </trkpt>
      <trkpt lat="49.88348" lon="2.41776">
        <ele>22.8</ele>
        <time>2022-04-13T13:32:33Z</time>
      </trkpt>
      <trkpt lat="49.88348" lon="2.41776">
        <ele>22.8</ele>
        <time>2022-04-13T13:32:34Z</time>
      </trkpt>
      <trkpt lat="49.88348" lon="2.41776">
        <ele>22.8</ele>
        <time>2022-04-13T13:32:35Z</time>
      </trkpt>
      <trkpt lat="49.88348" lon="2.41776">
        <ele>22.8</ele>
        <time>2022-04-13T13:32:36Z</time>
      </trkpt>
      <trkpt lat="49.88348" lon="2.41776">
        <ele>22.8</ele>
        <time>2022-04-13T13:32:37Z</time>
      </trkpt>
      <trkpt lat="49.88348" lon="2.41776">
        <ele>22.8</ele>
        <time>2022-04-13T13:32:38Z</time>
      </trkpt>
      <trkpt lat="49.88348" lon="2.41775">
        <ele>22.8</ele>
        <time>2022-04-13T13:32:39Z</time>
      </trkpt>
      <trkpt lat="49.88348" lon="2.41776">
        <ele>22.8</ele>
        <time>2022-04-13T13:32:40Z</time>
      </trkpt>
      <trkpt lat="49.88348" lon="2.41776">
        <ele>22.8</ele>
        <time>2022-04-13T13:32:41Z</time>
      </trkpt>
      <trkpt lat="49.88348" lon="2.41776">
        <ele>22.8</ele>
        <time>2022-04-13T13:32:43Z</time>
      </trkpt>
      <trkpt lat="49.88348" lon="2.41776">
        <ele>22.8</ele>
        <time>2022-04-13T13:32:44Z</time>
      </trkpt>
      <trkpt lat="49.88348" lon="2.41776">
        <ele>22.8</ele>
        <time>2022-04-13T13:32:45Z</time>
      </trkpt>
      <trkpt lat="49.88348" lon="2.41776">
        <ele>22.8</ele>
        <time>2022-04-13T13:32:46Z</time>
      </trkpt>
      <trkpt lat="49.88349" lon="2.41777">
        <ele>22.8</ele>
        <time>2022-04-13T13:32:48Z</time>
      </trkpt>
      <trkpt lat="49.88349" lon="2.41777">
        <ele>22.8</ele>
        <time>2022-04-13T13:32:49Z</time>
      </trkpt>
      <trkpt lat="49.88349" lon="2.41776">
        <ele>22.9</ele>
        <time>2022-04-13T13:32:50Z</time>
      </trkpt>
      <trkpt lat="49.88349" lon="2.41775">
        <ele>22.9</ele>
        <time>2022-04-13T13:32:52Z</time>
      </trkpt>
      <trkpt lat="49.8835" lon="2.41775">
        <ele>22.9</ele>
        <time>2022-04-13T13:32:53Z</time>
      </trkpt>
      <trkpt lat="49.88349" lon="2.41778">
        <ele>22.9</ele>
        <time>2022-04-13T13:32:54Z</time>
      </trkpt>
      <trkpt lat="49.88349" lon="2.4178">
        <ele>22.9</ele>
        <time>2022-04-13T13:32:55Z</time>
      </trkpt>
      <trkpt lat="49.88349" lon="2.4178">
        <ele>22.9</ele>
        <time>2022-04-13T13:32:57Z</time>
      </trkpt>
      <trkpt lat="49.88349" lon="2.41781">
        <ele>22.9</ele>
        <time>2022-04-13T13:32:58Z</time>
      </trkpt>
      <trkpt lat="49.8835" lon="2.4178">
        <ele>22.9</ele>
        <time>2022-04-13T13:33:00Z</time>
      </trkpt>
      <trkpt lat="49.8835" lon="2.41779">
        <ele>22.9</ele>
        <time>2022-04-13T13:33:01Z</time>
      </trkpt>
      <trkpt lat="49.8835" lon="2.4178">
        <ele>22.9</ele>
        <time>2022-04-13T13:33:02Z</time>
      </trkpt>
      <trkpt lat="49.8835" lon="2.41781">
        <ele>22.9</ele>
        <time>2022-04-13T13:33:03Z</time>
      </trkpt>
      <trkpt lat="49.8835" lon="2.41781">
        <ele>22.9</ele>
        <time>2022-04-13T13:33:05Z</time>
      </trkpt>
      <trkpt lat="49.8835" lon="2.41781">
        <ele>22.9</ele>
        <time>2022-04-13T13:33:06Z</time>
      </trkpt>
      <trkpt lat="49.8835" lon="2.41782">
        <ele>22.9</ele>
        <time>2022-04-13T13:33:07Z</time>
      </trkpt>
      <trkpt lat="49.8835" lon="2.41782">
        <ele>22.9</ele>
        <time>2022-04-13T13:33:09Z</time>
      </trkpt>
      <trkpt lat="49.8835" lon="2.41783">
        <ele>22.9</ele>
        <time>2022-04-13T13:33:10Z</time>
      </trkpt>
      <trkpt lat="49.8835" lon="2.41783">
        <ele>22.9</ele>
        <time>2022-04-13T13:33:11Z</time>
      </trkpt>
      <trkpt lat="49.8835" lon="2.41784">
        <ele>22.9</ele>
        <time>2022-04-13T13:33:12Z</time>
      </trkpt>
      <trkpt lat="49.88351" lon="2.41785">
        <ele>22.9</ele>
        <time>2022-04-13T13:33:13Z</time>
      </trkpt>
      <trkpt lat="49.88351" lon="2.41786">
        <ele>22.9</ele>
        <time>2022-04-13T13:33:14Z</time>
      </trkpt>
      <trkpt lat="49.88351" lon="2.41787">
        <ele>22.9</ele>
        <time>2022-04-13T13:33:15Z</time>
      </trkpt>
      <trkpt lat="49.88351" lon="2.41788">
        <ele>22.9</ele>
        <time>2022-04-13T13:33:16Z</time>
      </trkpt>
      <trkpt lat="49.88352" lon="2.41789">
        <ele>22.9</ele>
        <time>2022-04-13T13:33:17Z</time>
      </trkpt>
      <trkpt lat="49.88353" lon="2.41792">
        <ele>22.9</ele>
        <time>2022-04-13T13:33:18Z</time>
      </trkpt>
      <trkpt lat="49.88354" lon="2.41798">
        <ele>22.9</ele>
        <time>2022-04-13T13:33:19Z</time>
      </trkpt>
      <trkpt lat="49.88355" lon="2.41802">
        <ele>22.9</ele>
        <time>2022-04-13T13:33:20Z</time>
      </trkpt>
      <trkpt lat="49.88356" lon="2.41805">
        <ele>22.9</ele>
        <time>2022-04-13T13:33:22Z</time>
      </trkpt>
      <trkpt lat="49.88356" lon="2.41807">
        <ele>22.9</ele>
        <time>2022-04-13T13:33:23Z</time>
      </trkpt>
      <trkpt lat="49.88357" lon="2.4181">
        <ele>23</ele>
        <time>2022-04-13T13:33:24Z</time>
      </trkpt>
      <trkpt lat="49.88357" lon="2.41811">
        <ele>23</ele>
        <time>2022-04-13T13:33:25Z</time>
      </trkpt>
      <trkpt lat="49.88358" lon="2.41812">
        <ele>23</ele>
        <time>2022-04-13T13:33:26Z</time>
      </trkpt>
      <trkpt lat="49.88358" lon="2.41814">
        <ele>23</ele>
        <time>2022-04-13T13:33:28Z</time>
      </trkpt>
      <trkpt lat="49.88358" lon="2.41817">
        <ele>23</ele>
        <time>2022-04-13T13:33:29Z</time>
      </trkpt>
      <trkpt lat="49.88358" lon="2.41819">
        <ele>23</ele>
        <time>2022-04-13T13:33:30Z</time>
      </trkpt>
      <trkpt lat="49.88357" lon="2.41822">
        <ele>23</ele>
        <time>2022-04-13T13:33:31Z</time>
      </trkpt>
      <trkpt lat="49.88357" lon="2.41823">
        <ele>23</ele>
        <time>2022-04-13T13:33:32Z</time>
      </trkpt>
      <trkpt lat="49.88357" lon="2.41826">
        <ele>23</ele>
        <time>2022-04-13T13:33:33Z</time>
      </trkpt>
      <trkpt lat="49.88357" lon="2.41828">
        <ele>23</ele>
        <time>2022-04-13T13:33:34Z</time>
      </trkpt>
      <trkpt lat="49.88356" lon="2.41831">
        <ele>23.1</ele>
        <time>2022-04-13T13:33:35Z</time>
      </trkpt>
      <trkpt lat="49.88355" lon="2.41833">
        <ele>23.1</ele>
        <time>2022-04-13T13:33:36Z</time>
      </trkpt>
      <trkpt lat="49.88355" lon="2.41836">
        <ele>23.1</ele>
        <time>2022-04-13T13:33:37Z</time>
      </trkpt>
      <trkpt lat="49.88354" lon="2.41838">
        <ele>23.1</ele>
        <time>2022-04-13T13:33:38Z</time>
      </trkpt>
      <trkpt lat="49.88353" lon="2.4184">
        <ele>23.1</ele>
        <time>2022-04-13T13:33:39Z</time>
      </trkpt>
      <trkpt lat="49.88352" lon="2.41842">
        <ele>23.2</ele>
        <time>2022-04-13T13:33:41Z</time>
      </trkpt>
      <trkpt lat="49.88351" lon="2.41844">
        <ele>23.2</ele>
        <time>2022-04-13T13:33:42Z</time>
      </trkpt>
      <trkpt lat="49.88351" lon="2.41847">
        <ele>23.2</ele>
        <time>2022-04-13T13:33:43Z</time>
      </trkpt>
      <trkpt lat="49.8835" lon="2.41849">
        <ele>23.2</ele>
        <time>2022-04-13T13:33:44Z</time>
      </trkpt>
      <trkpt lat="49.88349" lon="2.41851">
        <ele>23.2</ele>
        <time>2022-04-13T13:33:45Z</time>
      </trkpt>
      <trkpt lat="49.88349" lon="2.41853">
        <ele>23.3</ele>
        <time>2022-04-13T13:33:46Z</time>
      </trkpt>
      <trkpt lat="49.88348" lon="2.41856">
        <ele>23.3</ele>
        <time>2022-04-13T13:33:47Z</time>
      </trkpt>
      <trkpt lat="49.88347" lon="2.41862">
        <ele>23.3</ele>
        <time>2022-04-13T13:33:50Z</time>
      </trkpt>
      <trkpt lat="49.88346" lon="2.41864">
        <ele>23.3</ele>
        <time>2022-04-13T13:33:51Z</time>
      </trkpt>
      <trkpt lat="49.88346" lon="2.41866">
        <ele>23.4</ele>
        <time>2022-04-13T13:33:52Z</time>
      </trkpt>
      <trkpt lat="49.88345" lon="2.41868">
        <ele>23.4</ele>
        <time>2022-04-13T13:33:53Z</time>
      </trkpt>
      <trkpt lat="49.88345" lon="2.41872">
        <ele>23.4</ele>
        <time>2022-04-13T13:33:54Z</time>
      </trkpt>
      <trkpt lat="49.88345" lon="2.41873">
        <ele>23.4</ele>
        <time>2022-04-13T13:33:55Z</time>
      </trkpt>
      <trkpt lat="49.88344" lon="2.41875">
        <ele>23.4</ele>
        <time>2022-04-13T13:33:56Z</time>
      </trkpt>
      <trkpt lat="49.88344" lon="2.41877">
        <ele>23.4</ele>
        <time>2022-04-13T13:33:57Z</time>
      </trkpt>
      <trkpt lat="49.88344" lon="2.41879">
        <ele>23.5</ele>
        <time>2022-04-13T13:33:58Z</time>
      </trkpt>
      <trkpt lat="49.88343" lon="2.41882">
        <ele>23.5</ele>
        <time>2022-04-13T13:33:59Z</time>
      </trkpt>
      <trkpt lat="49.88343" lon="2.41883">
        <ele>23.5</ele>
        <time>2022-04-13T13:34:01Z</time>
      </trkpt>
      <trkpt lat="49.88343" lon="2.41884">
        <ele>23.5</ele>
        <time>2022-04-13T13:34:02Z</time>
      </trkpt>
      <trkpt lat="49.88342" lon="2.41887">
        <ele>23.5</ele>
        <time>2022-04-13T13:34:03Z</time>
      </trkpt>
      <trkpt lat="49.88342" lon="2.41889">
        <ele>23.5</ele>
        <time>2022-04-13T13:34:04Z</time>
      </trkpt>
      <trkpt lat="49.88342" lon="2.4189">
        <ele>23.6</ele>
        <time>2022-04-13T13:34:05Z</time>
      </trkpt>
      <trkpt lat="49.88342" lon="2.41892">
        <ele>23.6</ele>
        <time>2022-04-13T13:34:06Z</time>
      </trkpt>
      <trkpt lat="49.88342" lon="2.41893">
        <ele>23.6</ele>
        <time>2022-04-13T13:34:07Z</time>
      </trkpt>
      <trkpt lat="49.88342" lon="2.41895">
        <ele>23.6</ele>
        <time>2022-04-13T13:34:09Z</time>
      </trkpt>
      <trkpt lat="49.88341" lon="2.41897">
        <ele>23.6</ele>
        <time>2022-04-13T13:34:10Z</time>
      </trkpt>
      <trkpt lat="49.88341" lon="2.41899">
        <ele>23.6</ele>
        <time>2022-04-13T13:34:11Z</time>
      </trkpt>
      <trkpt lat="49.88341" lon="2.419">
        <ele>23.7</ele>
        <time>2022-04-13T13:34:12Z</time>
      </trkpt>
      <trkpt lat="49.88341" lon="2.41902">
        <ele>23.7</ele>
        <time>2022-04-13T13:34:13Z</time>
      </trkpt>
      <trkpt lat="49.88341" lon="2.41904">
        <ele>23.7</ele>
        <time>2022-04-13T13:34:14Z</time>
      </trkpt>
      <trkpt lat="49.8834" lon="2.41906">
        <ele>23.7</ele>
        <time>2022-04-13T13:34:16Z</time>
      </trkpt>
      <trkpt lat="49.8834" lon="2.41907">
        <ele>23.7</ele>
        <time>2022-04-13T13:34:17Z</time>
      </trkpt>
      <trkpt lat="49.8834" lon="2.41909">
        <ele>23.7</ele>
        <time>2022-04-13T13:34:18Z</time>
      </trkpt>
      <trkpt lat="49.8834" lon="2.41911">
        <ele>23.8</ele>
        <time>2022-04-13T13:34:19Z</time>
      </trkpt>
      <trkpt lat="49.8834" lon="2.41913">
        <ele>23.8</ele>
        <time>2022-04-13T13:34:20Z</time>
      </trkpt>
      <trkpt lat="49.8834" lon="2.41917">
        <ele>23.8</ele>
        <time>2022-04-13T13:34:22Z</time>
      </trkpt>
      <trkpt lat="49.8834" lon="2.4192">
        <ele>23.9</ele>
        <time>2022-04-13T13:34:23Z</time>
      </trkpt>
      <trkpt lat="49.8834" lon="2.41922">
        <ele>23.9</ele>
        <time>2022-04-13T13:34:24Z</time>
      </trkpt>
      <trkpt lat="49.8834" lon="2.41925">
        <ele>23.9</ele>
        <time>2022-04-13T13:34:26Z</time>
      </trkpt>
      <trkpt lat="49.8834" lon="2.41927">
        <ele>23.9</ele>
        <time>2022-04-13T13:34:27Z</time>
      </trkpt>
      <trkpt lat="49.8834" lon="2.41929">
        <ele>23.9</ele>
        <time>2022-04-13T13:34:28Z</time>
      </trkpt>
      <trkpt lat="49.8834" lon="2.41932">
        <ele>24</ele>
        <time>2022-04-13T13:34:29Z</time>
      </trkpt>
      <trkpt lat="49.8834" lon="2.41934">
        <ele>24</ele>
        <time>2022-04-13T13:34:30Z</time>
      </trkpt>
      <trkpt lat="49.88341" lon="2.41936">
        <ele>24</ele>
        <time>2022-04-13T13:34:31Z</time>
      </trkpt>
      <trkpt lat="49.88342" lon="2.41938">
        <ele>24</ele>
        <time>2022-04-13T13:34:32Z</time>
      </trkpt>
      <trkpt lat="49.88342" lon="2.4194">
        <ele>24.1</ele>
        <time>2022-04-13T13:34:33Z</time>
      </trkpt>
      <trkpt lat="49.88342" lon="2.41942">
        <ele>24.1</ele>
        <time>2022-04-13T13:34:35Z</time>
      </trkpt>
      <trkpt lat="49.88342" lon="2.41945">
        <ele>24.1</ele>
        <time>2022-04-13T13:34:36Z</time>
      </trkpt>
      <trkpt lat="49.88342" lon="2.41947">
        <ele>24.1</ele>
        <time>2022-04-13T13:34:37Z</time>
      </trkpt>
      <trkpt lat="49.88342" lon="2.41949">
        <ele>24.1</ele>
        <time>2022-04-13T13:34:38Z</time>
      </trkpt>
      <trkpt lat="49.88343" lon="2.41953">
        <ele>24.2</ele>
        <time>2022-04-13T13:34:39Z</time>
      </trkpt>
      <trkpt lat="49.88343" lon="2.41955">
        <ele>24.2</ele>
        <time>2022-04-13T13:34:41Z</time>
      </trkpt>
      <trkpt lat="49.88343" lon="2.41957">
        <ele>24.2</ele>
        <time>2022-04-13T13:34:42Z</time>
      </trkpt>
      <trkpt lat="49.88343" lon="2.41958">
        <ele>24.2</ele>
        <time>2022-04-13T13:34:43Z</time>
      </trkpt>
      <trkpt lat="49.88343" lon="2.4196">
        <ele>24.2</ele>
        <time>2022-04-13T13:34:44Z</time>
      </trkpt>
      <trkpt lat="49.88343" lon="2.41962">
        <ele>24.2</ele>
        <time>2022-04-13T13:34:45Z</time>
      </trkpt>
      <trkpt lat="49.88343" lon="2.41964">
        <ele>24.2</ele>
        <time>2022-04-13T13:34:46Z</time>
      </trkpt>
      <trkpt lat="49.88343" lon="2.41967">
        <ele>24.3</ele>
        <time>2022-04-13T13:34:48Z</time>
      </trkpt>
      <trkpt lat="49.88343" lon="2.41969">
        <ele>24.3</ele>
        <time>2022-04-13T13:34:49Z</time>
      </trkpt>
      <trkpt lat="49.88343" lon="2.4197">
        <ele>24.3</ele>
        <time>2022-04-13T13:34:50Z</time>
      </trkpt>
      <trkpt lat="49.88343" lon="2.41973">
        <ele>24.3</ele>
        <time>2022-04-13T13:34:51Z</time>
      </trkpt>
      <trkpt lat="49.88343" lon="2.41975">
        <ele>24.3</ele>
        <time>2022-04-13T13:34:52Z</time>
      </trkpt>
      <trkpt lat="49.88343" lon="2.41976">
        <ele>24.3</ele>
        <time>2022-04-13T13:34:53Z</time>
      </trkpt>
      <trkpt lat="49.88343" lon="2.41979">
        <ele>24.4</ele>
        <time>2022-04-13T13:34:55Z</time>
      </trkpt>
      <trkpt lat="49.88343" lon="2.41981">
        <ele>24.4</ele>
        <time>2022-04-13T13:34:56Z</time>
      </trkpt>
      <trkpt lat="49.88343" lon="2.41983">
        <ele>24.4</ele>
        <time>2022-04-13T13:34:57Z</time>
      </trkpt>
      <trkpt lat="49.88342" lon="2.41985">
        <ele>24.4</ele>
        <time>2022-04-13T13:34:58Z</time>
      </trkpt>
      <trkpt lat="49.88342" lon="2.41989">
        <ele>24.4</ele>
        <time>2022-04-13T13:34:59Z</time>
      </trkpt>
      <trkpt lat="49.88342" lon="2.41991">
        <ele>24.5</ele>
        <time>2022-04-13T13:35:01Z</time>
      </trkpt>
      <trkpt lat="49.88342" lon="2.41993">
        <ele>24.5</ele>
        <time>2022-04-13T13:35:02Z</time>
      </trkpt>
      <trkpt lat="49.88342" lon="2.41994">
        <ele>24.5</ele>
        <time>2022-04-13T13:35:03Z</time>
      </trkpt>
      <trkpt lat="49.88342" lon="2.41996">
        <ele>24.5</ele>
        <time>2022-04-13T13:35:04Z</time>
      </trkpt>
      <trkpt lat="49.88342" lon="2.41998">
        <ele>24.5</ele>
        <time>2022-04-13T13:35:05Z</time>
      </trkpt>
      <trkpt lat="49.88341" lon="2.42">
        <ele>24.5</ele>
        <time>2022-04-13T13:35:07Z</time>
      </trkpt>
      <trkpt lat="49.88341" lon="2.42002">
        <ele>24.6</ele>
        <time>2022-04-13T13:35:08Z</time>
      </trkpt>
      <trkpt lat="49.88341" lon="2.42004">
        <ele>24.6</ele>
        <time>2022-04-13T13:35:09Z</time>
      </trkpt>
      <trkpt lat="49.88341" lon="2.42006">
        <ele>24.6</ele>
        <time>2022-04-13T13:35:10Z</time>
      </trkpt>
      <trkpt lat="49.88341" lon="2.42009">
        <ele>24.6</ele>
        <time>2022-04-13T13:35:11Z</time>
      </trkpt>
      <trkpt lat="49.88341" lon="2.4201">
        <ele>24.6</ele>
        <time>2022-04-13T13:35:12Z</time>
      </trkpt>
      <trkpt lat="49.88341" lon="2.42011">
        <ele>24.7</ele>
        <time>2022-04-13T13:35:13Z</time>
      </trkpt>
      <trkpt lat="49.88341" lon="2.42015">
        <ele>24.7</ele>
        <time>2022-04-13T13:35:14Z</time>
      </trkpt>
      <trkpt lat="49.88341" lon="2.42016">
        <ele>24.7</ele>
        <time>2022-04-13T13:35:15Z</time>
      </trkpt>
      <trkpt lat="49.88341" lon="2.42017">
        <ele>24.7</ele>
        <time>2022-04-13T13:35:16Z</time>
      </trkpt>
      <trkpt lat="49.88341" lon="2.42021">
        <ele>24.8</ele>
        <time>2022-04-13T13:35:17Z</time>
      </trkpt>
      <trkpt lat="49.88341" lon="2.42022">
        <ele>24.8</ele>
        <time>2022-04-13T13:35:19Z</time>
      </trkpt>
      <trkpt lat="49.88341" lon="2.42024">
        <ele>24.8</ele>
        <time>2022-04-13T13:35:20Z</time>
      </trkpt>
      <trkpt lat="49.88341" lon="2.42026">
        <ele>24.8</ele>
        <time>2022-04-13T13:35:21Z</time>
      </trkpt>
      <trkpt lat="49.88341" lon="2.42027">
        <ele>24.8</ele>
        <time>2022-04-13T13:35:22Z</time>
      </trkpt>
      <trkpt lat="49.88341" lon="2.4203">
        <ele>24.8</ele>
        <time>2022-04-13T13:35:23Z</time>
      </trkpt>
      <trkpt lat="49.88341" lon="2.42032">
        <ele>24.9</ele>
        <time>2022-04-13T13:35:24Z</time>
      </trkpt>
      <trkpt lat="49.88341" lon="2.42034">
        <ele>24.9</ele>
        <time>2022-04-13T13:35:25Z</time>
      </trkpt>
      <trkpt lat="49.88341" lon="2.42037">
        <ele>24.9</ele>
        <time>2022-04-13T13:35:26Z</time>
      </trkpt>
      <trkpt lat="49.88341" lon="2.42038">
        <ele>24.9</ele>
        <time>2022-04-13T13:35:27Z</time>
      </trkpt>
      <trkpt lat="49.88341" lon="2.42039">
        <ele>25</ele>
        <time>2022-04-13T13:35:28Z</time>
      </trkpt>
      <trkpt lat="49.8834" lon="2.4204">
        <ele>25</ele>
        <time>2022-04-13T13:35:29Z</time>
      </trkpt>
      <trkpt lat="49.8834" lon="2.42042">
        <ele>25</ele>
        <time>2022-04-13T13:35:31Z</time>
      </trkpt>
      <trkpt lat="49.8834" lon="2.42045">
        <ele>25</ele>
        <time>2022-04-13T13:35:32Z</time>
      </trkpt>
      <trkpt lat="49.8834" lon="2.42047">
        <ele>25</ele>
        <time>2022-04-13T13:35:33Z</time>
      </trkpt>
      <trkpt lat="49.8834" lon="2.42048">
        <ele>25</ele>
        <time>2022-04-13T13:35:34Z</time>
      </trkpt>
      <trkpt lat="49.8834" lon="2.4205">
        <ele>25.1</ele>
        <time>2022-04-13T13:35:35Z</time>
      </trkpt>
      <trkpt lat="49.8834" lon="2.42052">
        <ele>25.1</ele>
        <time>2022-04-13T13:35:36Z</time>
      </trkpt>
      <trkpt lat="49.8834" lon="2.42054">
        <ele>25.1</ele>
        <time>2022-04-13T13:35:37Z</time>
      </trkpt>
      <trkpt lat="49.8834" lon="2.42056">
        <ele>25.1</ele>
        <time>2022-04-13T13:35:38Z</time>
      </trkpt>
      <trkpt lat="49.8834" lon="2.42059">
        <ele>25.2</ele>
        <time>2022-04-13T13:35:40Z</time>
      </trkpt>
      <trkpt lat="49.8834" lon="2.4206">
        <ele>25.2</ele>
        <time>2022-04-13T13:35:41Z</time>
      </trkpt>
      <trkpt lat="49.8834" lon="2.42062">
        <ele>25.2</ele>
        <time>2022-04-13T13:35:42Z</time>
      </trkpt>
      <trkpt lat="49.8834" lon="2.42064">
        <ele>25.2</ele>
        <time>2022-04-13T13:35:43Z</time>
      </trkpt>
      <trkpt lat="49.8834" lon="2.42066">
        <ele>25.2</ele>
        <time>2022-04-13T13:35:44Z</time>
      </trkpt>
      <trkpt lat="49.8834" lon="2.42068">
        <ele>25.3</ele>
        <time>2022-04-13T13:35:45Z</time>
      </trkpt>
      <trkpt lat="49.88339" lon="2.4207">
        <ele>25.3</ele>
        <time>2022-04-13T13:35:47Z</time>
      </trkpt>
      <trkpt lat="49.88339" lon="2.42074">
        <ele>25.3</ele>
        <time>2022-04-13T13:35:48Z</time>
      </trkpt>
      <trkpt lat="49.88339" lon="2.42076">
        <ele>25.4</ele>
        <time>2022-04-13T13:35:50Z</time>
      </trkpt>
      <trkpt lat="49.88339" lon="2.42077">
        <ele>25.4</ele>
        <time>2022-04-13T13:35:51Z</time>
      </trkpt>
      <trkpt lat="49.88338" lon="2.42079">
        <ele>25.4</ele>
        <time>2022-04-13T13:35:52Z</time>
      </trkpt>
      <trkpt lat="49.88338" lon="2.42081">
        <ele>25.4</ele>
        <time>2022-04-13T13:35:54Z</time>
      </trkpt>
      <trkpt lat="49.88338" lon="2.42082">
        <ele>25.4</ele>
        <time>2022-04-13T13:35:55Z</time>
      </trkpt>
      <trkpt lat="49.88337" lon="2.42084">
        <ele>25.4</ele>
        <time>2022-04-13T13:35:56Z</time>
      </trkpt>
      <trkpt lat="49.88337" lon="2.42085">
        <ele>25.5</ele>
        <time>2022-04-13T13:35:57Z</time>
      </trkpt>
      <trkpt lat="49.88337" lon="2.42089">
        <ele>25.5</ele>
        <time>2022-04-13T13:35:58Z</time>
      </trkpt>
      <trkpt lat="49.88337" lon="2.4209">
        <ele>25.5</ele>
        <time>2022-04-13T13:35:59Z</time>
      </trkpt>
      <trkpt lat="49.88337" lon="2.42091">
        <ele>25.5</ele>
        <time>2022-04-13T13:36:00Z</time>
      </trkpt>
      <trkpt lat="49.88337" lon="2.42094">
        <ele>25.6</ele>
        <time>2022-04-13T13:36:02Z</time>
      </trkpt>
      <trkpt lat="49.88337" lon="2.42096">
        <ele>25.6</ele>
        <time>2022-04-13T13:36:03Z</time>
      </trkpt>
      <trkpt lat="49.88337" lon="2.421">
        <ele>25.6</ele>
        <time>2022-04-13T13:36:04Z</time>
      </trkpt>
      <trkpt lat="49.88337" lon="2.42101">
        <ele>25.7</ele>
        <time>2022-04-13T13:36:05Z</time>
      </trkpt>
      <trkpt lat="49.88337" lon="2.42103">
        <ele>25.7</ele>
        <time>2022-04-13T13:36:06Z</time>
      </trkpt>
      <trkpt lat="49.88337" lon="2.42106">
        <ele>25.7</ele>
        <time>2022-04-13T13:36:08Z</time>
      </trkpt>
      <trkpt lat="49.88337" lon="2.42108">
        <ele>25.8</ele>
        <time>2022-04-13T13:36:09Z</time>
      </trkpt>
      <trkpt lat="49.88337" lon="2.4211">
        <ele>25.8</ele>
        <time>2022-04-13T13:36:10Z</time>
      </trkpt>
      <trkpt lat="49.88337" lon="2.42113">
        <ele>25.8</ele>
        <time>2022-04-13T13:36:11Z</time>
      </trkpt>
      <trkpt lat="49.88337" lon="2.42115">
        <ele>25.9</ele>
        <time>2022-04-13T13:36:12Z</time>
      </trkpt>
      <trkpt lat="49.88337" lon="2.42117">
        <ele>25.9</ele>
        <time>2022-04-13T13:36:13Z</time>
      </trkpt>
      <trkpt lat="49.88337" lon="2.42121">
        <ele>25.9</ele>
        <time>2022-04-13T13:36:14Z</time>
      </trkpt>
      <trkpt lat="49.88337" lon="2.42122">
        <ele>25.9</ele>
        <time>2022-04-13T13:36:16Z</time>
      </trkpt>
      <trkpt lat="49.88337" lon="2.42123">
        <ele>26</ele>
        <time>2022-04-13T13:36:17Z</time>
      </trkpt>
      <trkpt lat="49.88337" lon="2.42127">
        <ele>26</ele>
        <time>2022-04-13T13:36:18Z</time>
      </trkpt>
      <trkpt lat="49.88336" lon="2.42128">
        <ele>26</ele>
        <time>2022-04-13T13:36:19Z</time>
      </trkpt>
      <trkpt lat="49.88336" lon="2.42129">
        <ele>26</ele>
        <time>2022-04-13T13:36:20Z</time>
      </trkpt>
      <trkpt lat="49.88336" lon="2.42133">
        <ele>26.1</ele>
        <time>2022-04-13T13:36:21Z</time>
      </trkpt>
      <trkpt lat="49.88336" lon="2.42134">
        <ele>26.1</ele>
        <time>2022-04-13T13:36:22Z</time>
      </trkpt>
      <trkpt lat="49.88336" lon="2.42135">
        <ele>26.1</ele>
        <time>2022-04-13T13:36:23Z</time>
      </trkpt>
      <trkpt lat="49.88335" lon="2.42138">
        <ele>26.2</ele>
        <time>2022-04-13T13:36:25Z</time>
      </trkpt>
      <trkpt lat="49.88335" lon="2.4214">
        <ele>26.2</ele>
        <time>2022-04-13T13:36:26Z</time>
      </trkpt>
      <trkpt lat="49.88335" lon="2.42142">
        <ele>26.2</ele>
        <time>2022-04-13T13:36:27Z</time>
      </trkpt>
      <trkpt lat="49.88335" lon="2.42144">
        <ele>26.2</ele>
        <time>2022-04-13T13:36:28Z</time>
      </trkpt>
      <trkpt lat="49.88335" lon="2.42146">
        <ele>26.3</ele>
        <time>2022-04-13T13:36:30Z</time>
      </trkpt>
      <trkpt lat="49.88335" lon="2.42148">
        <ele>26.3</ele>
        <time>2022-04-13T13:36:31Z</time>
      </trkpt>
      <trkpt lat="49.88335" lon="2.42149">
        <ele>26.3</ele>
        <time>2022-04-13T13:36:32Z</time>
      </trkpt>
      <trkpt lat="49.88334" lon="2.42151">
        <ele>26.3</ele>
        <time>2022-04-13T13:36:34Z</time>
      </trkpt>
      <trkpt lat="49.88335" lon="2.42151">
        <ele>26.3</ele>
        <time>2022-04-13T13:36:35Z</time>
      </trkpt>
      <trkpt lat="49.88334" lon="2.42152">
        <ele>26.4</ele>
        <time>2022-04-13T13:36:36Z</time>
      </trkpt>
      <trkpt lat="49.88334" lon="2.42154">
        <ele>26.4</ele>
        <time>2022-04-13T13:36:38Z</time>
      </trkpt>
      <trkpt lat="49.88334" lon="2.42154">
        <ele>26.4</ele>
        <time>2022-04-13T13:36:39Z</time>
      </trkpt>
      <trkpt lat="49.88334" lon="2.42155">
        <ele>26.4</ele>
        <time>2022-04-13T13:36:41Z</time>
      </trkpt>
      <trkpt lat="49.88334" lon="2.42156">
        <ele>26.4</ele>
        <time>2022-04-13T13:36:42Z</time>
      </trkpt>
      <trkpt lat="49.88334" lon="2.42156">
        <ele>26.4</ele>
        <time>2022-04-13T13:36:43Z</time>
      </trkpt>
      <trkpt lat="49.88334" lon="2.42158">
        <ele>26.4</ele>
        <time>2022-04-13T13:36:45Z</time>
      </trkpt>
      <trkpt lat="49.88335" lon="2.42159">
        <ele>26.4</ele>
        <time>2022-04-13T13:36:46Z</time>
      </trkpt>
      <trkpt lat="49.88335" lon="2.4216">
        <ele>26.4</ele>
        <time>2022-04-13T13:36:47Z</time>
      </trkpt>
      <trkpt lat="49.88335" lon="2.4216">
        <ele>26.4</ele>
        <time>2022-04-13T13:36:48Z</time>
      </trkpt>
      <trkpt lat="49.88335" lon="2.42161">
        <ele>26.4</ele>
        <time>2022-04-13T13:36:49Z</time>
      </trkpt>
      <trkpt lat="49.88336" lon="2.42161">
        <ele>26.4</ele>
        <time>2022-04-13T13:36:50Z</time>
      </trkpt>
      <trkpt lat="49.88336" lon="2.42161">
        <ele>26.4</ele>
        <time>2022-04-13T13:36:51Z</time>
      </trkpt>
      <trkpt lat="49.88336" lon="2.4216">
        <ele>26.4</ele>
        <time>2022-04-13T13:36:52Z</time>
      </trkpt>
      <trkpt lat="49.88336" lon="2.4216">
        <ele>26.4</ele>
        <time>2022-04-13T13:36:53Z</time>
      </trkpt>
      <trkpt lat="49.88336" lon="2.42159">
        <ele>26.4</ele>
        <time>2022-04-13T13:36:54Z</time>
      </trkpt>
      <trkpt lat="49.88336" lon="2.42159">
        <ele>26.4</ele>
        <time>2022-04-13T13:36:55Z</time>
      </trkpt>
      <trkpt lat="49.88336" lon="2.42159">
        <ele>26.4</ele>
        <time>2022-04-13T13:36:56Z</time>
      </trkpt>
      <trkpt lat="49.88336" lon="2.42159">
        <ele>26.4</ele>
        <time>2022-04-13T13:36:57Z</time>
      </trkpt>
      <trkpt lat="49.88337" lon="2.4216">
        <ele>26.5</ele>
        <time>2022-04-13T13:36:58Z</time>
      </trkpt>
      <trkpt lat="49.88337" lon="2.4216">
        <ele>26.5</ele>
        <time>2022-04-13T13:36:59Z</time>
      </trkpt>
      <trkpt lat="49.88337" lon="2.4216">
        <ele>26.5</ele>
        <time>2022-04-13T13:37:00Z</time>
      </trkpt>
      <trkpt lat="49.88337" lon="2.4216">
        <ele>26.5</ele>
        <time>2022-04-13T13:37:01Z</time>
      </trkpt>
      <trkpt lat="49.88337" lon="2.42159">
        <ele>26.5</ele>
        <time>2022-04-13T13:37:02Z</time>
      </trkpt>
      <trkpt lat="49.88337" lon="2.42159">
        <ele>26.5</ele>
        <time>2022-04-13T13:37:03Z</time>
      </trkpt>
      <trkpt lat="49.88337" lon="2.42159">
        <ele>26.5</ele>
        <time>2022-04-13T13:37:04Z</time>
      </trkpt>
      <trkpt lat="49.88337" lon="2.42159">
        <ele>26.5</ele>
        <time>2022-04-13T13:37:05Z</time>
      </trkpt>
      <trkpt lat="49.88337" lon="2.42159">
        <ele>26.5</ele>
        <time>2022-04-13T13:37:06Z</time>
      </trkpt>
      <trkpt lat="49.88337" lon="2.42159">
        <ele>26.5</ele>
        <time>2022-04-13T13:37:07Z</time>
      </trkpt>
      <trkpt lat="49.88337" lon="2.42159">
        <ele>26.5</ele>
        <time>2022-04-13T13:37:08Z</time>
      </trkpt>
      <trkpt lat="49.88337" lon="2.42158">
        <ele>26.5</ele>
        <time>2022-04-13T13:37:09Z</time>
      </trkpt>
      <trkpt lat="49.88337" lon="2.42157">
        <ele>26.5</ele>
        <time>2022-04-13T13:37:10Z</time>
      </trkpt>
      <trkpt lat="49.88337" lon="2.42155">
        <ele>26.5</ele>
        <time>2022-04-13T13:37:11Z</time>
      </trkpt>
      <trkpt lat="49.88336" lon="2.42154">
        <ele>26.5</ele>
        <time>2022-04-13T13:37:12Z</time>
      </trkpt>
      <trkpt lat="49.88336" lon="2.42153">
        <ele>26.5</ele>
        <time>2022-04-13T13:37:13Z</time>
      </trkpt>
      <trkpt lat="49.88336" lon="2.42153">
        <ele>26.5</ele>
        <time>2022-04-13T13:37:14Z</time>
      </trkpt>
      <trkpt lat="49.88336" lon="2.42153">
        <ele>26.5</ele>
        <time>2022-04-13T13:37:15Z</time>
      </trkpt>
      <trkpt lat="49.88337" lon="2.42154">
        <ele>26.5</ele>
        <time>2022-04-13T13:37:16Z</time>
      </trkpt>
      <trkpt lat="49.88337" lon="2.42154">
        <ele>26.5</ele>
        <time>2022-04-13T13:37:17Z</time>
      </trkpt>
      <trkpt lat="49.88337" lon="2.42154">
        <ele>26.5</ele>
        <time>2022-04-13T13:37:18Z</time>
      </trkpt>
      <trkpt lat="49.88337" lon="2.42153">
        <ele>26.5</ele>
        <time>2022-04-13T13:37:19Z</time>
      </trkpt>
      <trkpt lat="49.88337" lon="2.42153">
        <ele>26.5</ele>
        <time>2022-04-13T13:37:20Z</time>
      </trkpt>
      <trkpt lat="49.88336" lon="2.42153">
        <ele>26.5</ele>
        <time>2022-04-13T13:37:21Z</time>
      </trkpt>
      <trkpt lat="49.88336" lon="2.42153">
        <ele>26.5</ele>
        <time>2022-04-13T13:37:22Z</time>
      </trkpt>
      <trkpt lat="49.88336" lon="2.42153">
        <ele>26.5</ele>
        <time>2022-04-13T13:37:23Z</time>
      </trkpt>
      <trkpt lat="49.88336" lon="2.42153">
        <ele>26.5</ele>
        <time>2022-04-13T13:37:24Z</time>
      </trkpt>
      <trkpt lat="49.88336" lon="2.42153">
        <ele>26.5</ele>
        <time>2022-04-13T13:37:25Z</time>
      </trkpt>
      <trkpt lat="49.88336" lon="2.42153">
        <ele>26.5</ele>
        <time>2022-04-13T13:37:26Z</time>
      </trkpt>
      <trkpt lat="49.88336" lon="2.42153">
        <ele>26.5</ele>
        <time>2022-04-13T13:37:27Z</time>
      </trkpt>
      <trkpt lat="49.88336" lon="2.42153">
        <ele>26.5</ele>
        <time>2022-04-13T13:37:28Z</time>
      </trkpt>
      <trkpt lat="49.88336" lon="2.42153">
        <ele>26.5</ele>
        <time>2022-04-13T13:37:29Z</time>
      </trkpt>
      <trkpt lat="49.88336" lon="2.42153">
        <ele>26.5</ele>
        <time>2022-04-13T13:37:30Z</time>
      </trkpt>
      <trkpt lat="49.88336" lon="2.42153">
        <ele>26.5</ele>
        <time>2022-04-13T13:37:31Z</time>
      </trkpt>
      <trkpt lat="49.88336" lon="2.42153">
        <ele>26.5</ele>
        <time>2022-04-13T13:37:32Z</time>
      </trkpt>
      <trkpt lat="49.88336" lon="2.42153">
        <ele>26.5</ele>
        <time>2022-04-13T13:37:33Z</time>
      </trkpt>
      <trkpt lat="49.88336" lon="2.42153">
        <ele>26.5</ele>
        <time>2022-04-13T13:37:34Z</time>
      </trkpt>
      <trkpt lat="49.88336" lon="2.42153">
        <ele>26.5</ele>
        <time>2022-04-13T13:37:35Z</time>
      </trkpt>
      <trkpt lat="49.88336" lon="2.42153">
        <ele>26.5</ele>
        <time>2022-04-13T13:37:36Z</time>
      </trkpt>
      <trkpt lat="49.88336" lon="2.42153">
        <ele>26.5</ele>
        <time>2022-04-13T13:37:37Z</time>
      </trkpt>
      <trkpt lat="49.88336" lon="2.42153">
        <ele>26.5</ele>
        <time>2022-04-13T13:37:38Z</time>
      </trkpt>
      <trkpt lat="49.88336" lon="2.42153">
        <ele>26.5</ele>
        <time>2022-04-13T13:37:39Z</time>
      </trkpt>
      <trkpt lat="49.88336" lon="2.42153">
        <ele>26.5</ele>
        <time>2022-04-13T13:37:40Z</time>
      </trkpt>
      <trkpt lat="49.88336" lon="2.42153">
        <ele>26.5</ele>
        <time>2022-04-13T13:37:41Z</time>
      </trkpt>
      <trkpt lat="49.88336" lon="2.42153">
        <ele>26.5</ele>
        <time>2022-04-13T13:37:42Z</time>
      </trkpt>
      <trkpt lat="49.88336" lon="2.42153">
        <ele>26.5</ele>
        <time>2022-04-13T13:37:43Z</time>
      </trkpt>
      <trkpt lat="49.88336" lon="2.42153">
        <ele>26.5</ele>
        <time>2022-04-13T13:37:44Z</time>
      </trkpt>
      <trkpt lat="49.88336" lon="2.42153">
        <ele>26.5</ele>
        <time>2022-04-13T13:37:45Z</time>
      </trkpt>
      <trkpt lat="49.88336" lon="2.42153">
        <ele>26.5</ele>
        <time>2022-04-13T13:37:46Z</time>
      </trkpt>
      <trkpt lat="49.88336" lon="2.42153">
        <ele>26.5</ele>
        <time>2022-04-13T13:37:47Z</time>
      </trkpt>
      <trkpt lat="49.88336" lon="2.42153">
        <ele>26.5</ele>
        <time>2022-04-13T13:37:48Z</time>
      </trkpt>
      <trkpt lat="49.88336" lon="2.42153">
        <ele>26.5</ele>
        <time>2022-04-13T13:37:49Z</time>
      </trkpt>
      <trkpt lat="49.88336" lon="2.42153">
        <ele>26.5</ele>
        <time>2022-04-13T13:37:50Z</time>
      </trkpt>
      <trkpt lat="49.88336" lon="2.42153">
        <ele>26.5</ele>
        <time>2022-04-13T13:37:51Z</time>
      </trkpt>
      <trkpt lat="49.88336" lon="2.42153">
        <ele>26.5</ele>
        <time>2022-04-13T13:37:52Z</time>
      </trkpt>
      <trkpt lat="49.88336" lon="2.42153">
        <ele>26.5</ele>
        <time>2022-04-13T13:37:53Z</time>
      </trkpt>
      <trkpt lat="49.88336" lon="2.42153">
        <ele>26.5</ele>
        <time>2022-04-13T13:37:54Z</time>
      </trkpt>
      <trkpt lat="49.88336" lon="2.42153">
        <ele>26.5</ele>
        <time>2022-04-13T13:37:55Z</time>
      </trkpt>
      <trkpt lat="49.88335" lon="2.42154">
        <ele>26.5</ele>
        <time>2022-04-13T13:37:56Z</time>
      </trkpt>
      <trkpt lat="49.88334" lon="2.42155">
        <ele>26.5</ele>
        <time>2022-04-13T13:37:57Z</time>
      </trkpt>
      <trkpt lat="49.88333" lon="2.42156">
        <ele>26.5</ele>
        <time>2022-04-13T13:37:58Z</time>
      </trkpt>
      <trkpt lat="49.88332" lon="2.42156">
        <ele>26.5</ele>
        <time>2022-04-13T13:37:59Z</time>
      </trkpt>
      <trkpt lat="49.88331" lon="2.42157">
        <ele>26.5</ele>
        <time>2022-04-13T13:38:00Z</time>
      </trkpt>
      <trkpt lat="49.88332" lon="2.42157">
        <ele>26.5</ele>
        <time>2022-04-13T13:38:01Z</time>
      </trkpt>
      <trkpt lat="49.88331" lon="2.42158">
        <ele>26.5</ele>
        <time>2022-04-13T13:38:02Z</time>
      </trkpt>
      <trkpt lat="49.88331" lon="2.42159">
        <ele>26.5</ele>
        <time>2022-04-13T13:38:03Z</time>
      </trkpt>
      <trkpt lat="49.8833" lon="2.42159">
        <ele>26.5</ele>
        <time>2022-04-13T13:38:04Z</time>
      </trkpt>
      <trkpt lat="49.8833" lon="2.4216">
        <ele>26.5</ele>
        <time>2022-04-13T13:38:05Z</time>
      </trkpt>
      <trkpt lat="49.88329" lon="2.42161">
        <ele>26.5</ele>
        <time>2022-04-13T13:38:06Z</time>
      </trkpt>
      <trkpt lat="49.88328" lon="2.42161">
        <ele>26.5</ele>
        <time>2022-04-13T13:38:07Z</time>
      </trkpt>
      <trkpt lat="49.88327" lon="2.42161">
        <ele>26.5</ele>
        <time>2022-04-13T13:38:09Z</time>
      </trkpt>
      <trkpt lat="49.88326" lon="2.42161">
        <ele>26.5</ele>
        <time>2022-04-13T13:38:10Z</time>
      </trkpt>
      <trkpt lat="49.88326" lon="2.4216">
        <ele>26.5</ele>
        <time>2022-04-13T13:38:11Z</time>
      </trkpt>
      <trkpt lat="49.88326" lon="2.42159">
        <ele>26.5</ele>
        <time>2022-04-13T13:38:12Z</time>
      </trkpt>
      <trkpt lat="49.88325" lon="2.42158">
        <ele>26.5</ele>
        <time>2022-04-13T13:38:13Z</time>
      </trkpt>
      <trkpt lat="49.88325" lon="2.42158">
        <ele>26.5</ele>
        <time>2022-04-13T13:38:14Z</time>
      </trkpt>
      <trkpt lat="49.88324" lon="2.42159">
        <ele>26.5</ele>
        <time>2022-04-13T13:38:15Z</time>
      </trkpt>
      <trkpt lat="49.88324" lon="2.42159">
        <ele>26.5</ele>
        <time>2022-04-13T13:38:16Z</time>
      </trkpt>
      <trkpt lat="49.88324" lon="2.4216">
        <ele>26.5</ele>
        <time>2022-04-13T13:38:17Z</time>
      </trkpt>
      <trkpt lat="49.88324" lon="2.4216">
        <ele>26.5</ele>
        <time>2022-04-13T13:38:18Z</time>
      </trkpt>
      <trkpt lat="49.88324" lon="2.4216">
        <ele>26.5</ele>
        <time>2022-04-13T13:38:19Z</time>
      </trkpt>
      <trkpt lat="49.88323" lon="2.4216">
        <ele>26.5</ele>
        <time>2022-04-13T13:38:20Z</time>
      </trkpt>
      <trkpt lat="49.88323" lon="2.4216">
        <ele>26.5</ele>
        <time>2022-04-13T13:38:21Z</time>
      </trkpt>
      <trkpt lat="49.88322" lon="2.4216">
        <ele>26.5</ele>
        <time>2022-04-13T13:38:23Z</time>
      </trkpt>
      <trkpt lat="49.88322" lon="2.4216">
        <ele>26.5</ele>
        <time>2022-04-13T13:38:24Z</time>
      </trkpt>
      <trkpt lat="49.88321" lon="2.4216">
        <ele>26.5</ele>
        <time>2022-04-13T13:38:25Z</time>
      </trkpt>
      <trkpt lat="49.8832" lon="2.42161">
        <ele>26.5</ele>
        <time>2022-04-13T13:38:26Z</time>
      </trkpt>
      <trkpt lat="49.88319" lon="2.42161">
        <ele>26.5</ele>
        <time>2022-04-13T13:38:27Z</time>
      </trkpt>
      <trkpt lat="49.88318" lon="2.42162">
        <ele>26.5</ele>
        <time>2022-04-13T13:38:28Z</time>
      </trkpt>
      <trkpt lat="49.88317" lon="2.42162">
        <ele>26.5</ele>
        <time>2022-04-13T13:38:29Z</time>
      </trkpt>
      <trkpt lat="49.88316" lon="2.42162">
        <ele>26.5</ele>
        <time>2022-04-13T13:38:30Z</time>
      </trkpt>
      <trkpt lat="49.88315" lon="2.42163">
        <ele>26.5</ele>
        <time>2022-04-13T13:38:31Z</time>
      </trkpt>
      <trkpt lat="49.88314" lon="2.42162">
        <ele>26.5</ele>
        <time>2022-04-13T13:38:32Z</time>
      </trkpt>
      <trkpt lat="49.88312" lon="2.42162">
        <ele>26.5</ele>
        <time>2022-04-13T13:38:34Z</time>
      </trkpt>
      <trkpt lat="49.88311" lon="2.42162">
        <ele>26.6</ele>
        <time>2022-04-13T13:38:35Z</time>
      </trkpt>
      <trkpt lat="49.88309" lon="2.42162">
        <ele>26.6</ele>
        <time>2022-04-13T13:38:36Z</time>
      </trkpt>
      <trkpt lat="49.88308" lon="2.42162">
        <ele>26.6</ele>
        <time>2022-04-13T13:38:37Z</time>
      </trkpt>
      <trkpt lat="49.88307" lon="2.42162">
        <ele>26.6</ele>
        <time>2022-04-13T13:38:38Z</time>
      </trkpt>
      <trkpt lat="49.88305" lon="2.42161">
        <ele>26.6</ele>
        <time>2022-04-13T13:38:39Z</time>
      </trkpt>
      <trkpt lat="49.88304" lon="2.42161">
        <ele>26.6</ele>
        <time>2022-04-13T13:38:40Z</time>
      </trkpt>
      <trkpt lat="49.88303" lon="2.42161">
        <ele>26.6</ele>
        <time>2022-04-13T13:38:41Z</time>
      </trkpt>
      <trkpt lat="49.88301" lon="2.42161">
        <ele>26.6</ele>
        <time>2022-04-13T13:38:43Z</time>
      </trkpt>
      <trkpt lat="49.883" lon="2.4216">
        <ele>26.6</ele>
        <time>2022-04-13T13:38:44Z</time>
      </trkpt>
      <trkpt lat="49.88299" lon="2.4216">
        <ele>26.6</ele>
        <time>2022-04-13T13:38:45Z</time>
      </trkpt>
      <trkpt lat="49.88297" lon="2.42159">
        <ele>26.6</ele>
        <time>2022-04-13T13:38:46Z</time>
      </trkpt>
      <trkpt lat="49.88296" lon="2.42159">
        <ele>26.6</ele>
        <time>2022-04-13T13:38:47Z</time>
      </trkpt>
      <trkpt lat="49.88295" lon="2.42159">
        <ele>26.6</ele>
        <time>2022-04-13T13:38:48Z</time>
      </trkpt>
      <trkpt lat="49.88293" lon="2.42158">
        <ele>26.6</ele>
        <time>2022-04-13T13:38:49Z</time>
      </trkpt>
      <trkpt lat="49.88292" lon="2.42158">
        <ele>26.6</ele>
        <time>2022-04-13T13:38:51Z</time>
      </trkpt>
      <trkpt lat="49.88291" lon="2.42158">
        <ele>26.6</ele>
        <time>2022-04-13T13:38:52Z</time>
      </trkpt>
      <trkpt lat="49.8829" lon="2.42158">
        <ele>26.6</ele>
        <time>2022-04-13T13:38:53Z</time>
      </trkpt>
      <trkpt lat="49.88289" lon="2.42158">
        <ele>26.6</ele>
        <time>2022-04-13T13:38:54Z</time>
      </trkpt>
      <trkpt lat="49.88287" lon="2.42157">
        <ele>26.6</ele>
        <time>2022-04-13T13:38:56Z</time>
      </trkpt>
      <trkpt lat="49.88286" lon="2.42157">
        <ele>26.6</ele>
        <time>2022-04-13T13:38:57Z</time>
      </trkpt>
      <trkpt lat="49.88285" lon="2.42157">
        <ele>26.6</ele>
        <time>2022-04-13T13:38:58Z</time>
      </trkpt>
      <trkpt lat="49.88284" lon="2.42157">
        <ele>26.6</ele>
        <time>2022-04-13T13:38:59Z</time>
      </trkpt>
      <trkpt lat="49.88283" lon="2.42157">
        <ele>26.6</ele>
        <time>2022-04-13T13:39:00Z</time>
      </trkpt>
      <trkpt lat="49.88281" lon="2.42157">
        <ele>26.6</ele>
        <time>2022-04-13T13:39:01Z</time>
      </trkpt>
      <trkpt lat="49.8828" lon="2.42157">
        <ele>26.6</ele>
        <time>2022-04-13T13:39:03Z</time>
      </trkpt>
      <trkpt lat="49.88279" lon="2.42157">
        <ele>26.6</ele>
        <time>2022-04-13T13:39:04Z</time>
      </trkpt>
      <trkpt lat="49.88277" lon="2.42157">
        <ele>26.6</ele>
        <time>2022-04-13T13:39:05Z</time>
      </trkpt>
      <trkpt lat="49.88276" lon="2.42157">
        <ele>26.6</ele>
        <time>2022-04-13T13:39:06Z</time>
      </trkpt>
      <trkpt lat="49.88275" lon="2.42157">
        <ele>26.6</ele>
        <time>2022-04-13T13:39:07Z</time>
      </trkpt>
      <trkpt lat="49.88273" lon="2.42157">
        <ele>26.7</ele>
        <time>2022-04-13T13:39:09Z</time>
      </trkpt>
      <trkpt lat="49.88272" lon="2.42157">
        <ele>26.7</ele>
        <time>2022-04-13T13:39:10Z</time>
      </trkpt>
      <trkpt lat="49.88271" lon="2.42157">
        <ele>26.7</ele>
        <time>2022-04-13T13:39:11Z</time>
      </trkpt>
      <trkpt lat="49.88271" lon="2.42157">
        <ele>26.7</ele>
        <time>2022-04-13T13:39:12Z</time>
      </trkpt>
      <trkpt lat="49.88269" lon="2.42157">
        <ele>26.7</ele>
        <time>2022-04-13T13:39:13Z</time>
      </trkpt>
      <trkpt lat="49.88268" lon="2.42156">
        <ele>26.7</ele>
        <time>2022-04-13T13:39:14Z</time>
      </trkpt>
      <trkpt lat="49.88267" lon="2.42157">
        <ele>26.7</ele>
        <time>2022-04-13T13:39:15Z</time>
      </trkpt>
      <trkpt lat="49.88266" lon="2.42157">
        <ele>26.7</ele>
        <time>2022-04-13T13:39:16Z</time>
      </trkpt>
      <trkpt lat="49.88265" lon="2.42157">
        <ele>26.7</ele>
        <time>2022-04-13T13:39:17Z</time>
      </trkpt>
      <trkpt lat="49.88263" lon="2.42158">
        <ele>26.7</ele>
        <time>2022-04-13T13:39:18Z</time>
      </trkpt>
      <trkpt lat="49.88262" lon="2.42158">
        <ele>26.7</ele>
        <time>2022-04-13T13:39:19Z</time>
      </trkpt>
      <trkpt lat="49.88261" lon="2.42158">
        <ele>26.7</ele>
        <time>2022-04-13T13:39:20Z</time>
      </trkpt>
      <trkpt lat="49.8826" lon="2.42159">
        <ele>26.7</ele>
        <time>2022-04-13T13:39:21Z</time>
      </trkpt>
      <trkpt lat="49.88259" lon="2.42159">
        <ele>26.7</ele>
        <time>2022-04-13T13:39:23Z</time>
      </trkpt>
      <trkpt lat="49.88258" lon="2.42159">
        <ele>26.7</ele>
        <time>2022-04-13T13:39:24Z</time>
      </trkpt>
      <trkpt lat="49.88257" lon="2.4216">
        <ele>26.7</ele>
        <time>2022-04-13T13:39:25Z</time>
      </trkpt>
      <trkpt lat="49.88256" lon="2.4216">
        <ele>26.7</ele>
        <time>2022-04-13T13:39:26Z</time>
      </trkpt>
      <trkpt lat="49.88254" lon="2.4216">
        <ele>26.7</ele>
        <time>2022-04-13T13:39:27Z</time>
      </trkpt>
      <trkpt lat="49.88253" lon="2.42161">
        <ele>26.7</ele>
        <time>2022-04-13T13:39:28Z</time>
      </trkpt>
      <trkpt lat="49.88251" lon="2.42161">
        <ele>26.7</ele>
        <time>2022-04-13T13:39:29Z</time>
      </trkpt>
      <trkpt lat="49.8825" lon="2.42161">
        <ele>26.7</ele>
        <time>2022-04-13T13:39:30Z</time>
      </trkpt>
      <trkpt lat="49.88249" lon="2.42162">
        <ele>26.7</ele>
        <time>2022-04-13T13:39:32Z</time>
      </trkpt>
      <trkpt lat="49.88247" lon="2.42162">
        <ele>26.7</ele>
        <time>2022-04-13T13:39:33Z</time>
      </trkpt>
      <trkpt lat="49.88246" lon="2.42162">
        <ele>26.7</ele>
        <time>2022-04-13T13:39:34Z</time>
      </trkpt>
      <trkpt lat="49.88245" lon="2.42162">
        <ele>26.7</ele>
        <time>2022-04-13T13:39:35Z</time>
      </trkpt>
      <trkpt lat="49.88244" lon="2.42162">
        <ele>26.8</ele>
        <time>2022-04-13T13:39:36Z</time>
      </trkpt>
      <trkpt lat="49.88243" lon="2.42162">
        <ele>26.8</ele>
        <time>2022-04-13T13:39:37Z</time>
      </trkpt>
      <trkpt lat="49.88242" lon="2.42162">
        <ele>26.8</ele>
        <time>2022-04-13T13:39:38Z</time>
      </trkpt>
      <trkpt lat="49.8824" lon="2.42162">
        <ele>26.8</ele>
        <time>2022-04-13T13:39:39Z</time>
      </trkpt>
      <trkpt lat="49.88239" lon="2.42162">
        <ele>26.8</ele>
        <time>2022-04-13T13:39:40Z</time>
      </trkpt>
      <trkpt lat="49.88238" lon="2.42162">
        <ele>26.8</ele>
        <time>2022-04-13T13:39:41Z</time>
      </trkpt>
      <trkpt lat="49.88236" lon="2.42163">
        <ele>26.8</ele>
        <time>2022-04-13T13:39:42Z</time>
      </trkpt>
      <trkpt lat="49.88235" lon="2.42163">
        <ele>26.8</ele>
        <time>2022-04-13T13:39:44Z</time>
      </trkpt>
      <trkpt lat="49.88234" lon="2.42163">
        <ele>26.8</ele>
        <time>2022-04-13T13:39:45Z</time>
      </trkpt>
      <trkpt lat="49.88233" lon="2.42163">
        <ele>26.8</ele>
        <time>2022-04-13T13:39:46Z</time>
      </trkpt>
      <trkpt lat="49.88232" lon="2.42163">
        <ele>26.8</ele>
        <time>2022-04-13T13:39:47Z</time>
      </trkpt>
      <trkpt lat="49.88231" lon="2.42163">
        <ele>26.8</ele>
        <time>2022-04-13T13:39:48Z</time>
      </trkpt>
      <trkpt lat="49.8823" lon="2.42163">
        <ele>26.8</ele>
        <time>2022-04-13T13:39:49Z</time>
      </trkpt>
      <trkpt lat="49.88228" lon="2.42163">
        <ele>26.8</ele>
        <time>2022-04-13T13:39:50Z</time>
      </trkpt>
      <trkpt lat="49.88227" lon="2.42163">
        <ele>26.8</ele>
        <time>2022-04-13T13:39:51Z</time>
      </trkpt>
      <trkpt lat="49.88225" lon="2.42163">
        <ele>26.8</ele>
        <time>2022-04-13T13:39:52Z</time>
      </trkpt>
      <trkpt lat="49.88224" lon="2.42163">
        <ele>26.8</ele>
        <time>2022-04-13T13:39:53Z</time>
      </trkpt>
      <trkpt lat="49.88222" lon="2.42164">
        <ele>26.8</ele>
        <time>2022-04-13T13:39:54Z</time>
      </trkpt>
      <trkpt lat="49.88221" lon="2.42164">
        <ele>26.8</ele>
        <time>2022-04-13T13:39:56Z</time>
      </trkpt>
      <trkpt lat="49.8822" lon="2.42164">
        <ele>26.8</ele>
        <time>2022-04-13T13:39:57Z</time>
      </trkpt>
      <trkpt lat="49.88217" lon="2.42164">
        <ele>26.8</ele>
        <time>2022-04-13T13:39:58Z</time>
      </trkpt>
      <trkpt lat="49.88216" lon="2.42164">
        <ele>26.8</ele>
        <time>2022-04-13T13:39:59Z</time>
      </trkpt>
      <trkpt lat="49.88216" lon="2.42164">
        <ele>26.8</ele>
        <time>2022-04-13T13:40:00Z</time>
      </trkpt>
      <trkpt lat="49.88213" lon="2.42164">
        <ele>26.8</ele>
        <time>2022-04-13T13:40:01Z</time>
      </trkpt>
      <trkpt lat="49.88212" lon="2.42164">
        <ele>26.8</ele>
        <time>2022-04-13T13:40:03Z</time>
      </trkpt>
      <trkpt lat="49.88211" lon="2.42164">
        <ele>26.8</ele>
        <time>2022-04-13T13:40:04Z</time>
      </trkpt>
      <trkpt lat="49.8821" lon="2.42164">
        <ele>26.8</ele>
        <time>2022-04-13T13:40:05Z</time>
      </trkpt>
      <trkpt lat="49.88209" lon="2.42164">
        <ele>26.8</ele>
        <time>2022-04-13T13:40:06Z</time>
      </trkpt>
      <trkpt lat="49.88208" lon="2.42164">
        <ele>26.8</ele>
        <time>2022-04-13T13:40:07Z</time>
      </trkpt>
      <trkpt lat="49.88207" lon="2.42164">
        <ele>26.8</ele>
        <time>2022-04-13T13:40:08Z</time>
      </trkpt>
      <trkpt lat="49.88206" lon="2.42164">
        <ele>26.8</ele>
        <time>2022-04-13T13:40:09Z</time>
      </trkpt>
      <trkpt lat="49.88205" lon="2.42164">
        <ele>26.8</ele>
        <time>2022-04-13T13:40:11Z</time>
      </trkpt>
      <trkpt lat="49.88204" lon="2.42164">
        <ele>26.8</ele>
        <time>2022-04-13T13:40:12Z</time>
      </trkpt>
      <trkpt lat="49.88203" lon="2.42164">
        <ele>26.8</ele>
        <time>2022-04-13T13:40:13Z</time>
      </trkpt>
      <trkpt lat="49.88201" lon="2.42163">
        <ele>26.8</ele>
        <time>2022-04-13T13:40:14Z</time>
      </trkpt>
      <trkpt lat="49.882" lon="2.42163">
        <ele>26.8</ele>
        <time>2022-04-13T13:40:15Z</time>
      </trkpt>
      <trkpt lat="49.88199" lon="2.42162">
        <ele>26.8</ele>
        <time>2022-04-13T13:40:16Z</time>
      </trkpt>
      <trkpt lat="49.88197" lon="2.42163">
        <ele>26.8</ele>
        <time>2022-04-13T13:40:17Z</time>
      </trkpt>
      <trkpt lat="49.88196" lon="2.42163">
        <ele>26.8</ele>
        <time>2022-04-13T13:40:18Z</time>
      </trkpt>
      <trkpt lat="49.88195" lon="2.42163">
        <ele>26.8</ele>
        <time>2022-04-13T13:40:19Z</time>
      </trkpt>
      <trkpt lat="49.88194" lon="2.42163">
        <ele>26.8</ele>
        <time>2022-04-13T13:40:20Z</time>
      </trkpt>
      <trkpt lat="49.88193" lon="2.42163">
        <ele>26.8</ele>
        <time>2022-04-13T13:40:21Z</time>
      </trkpt>
      <trkpt lat="49.88191" lon="2.42162">
        <ele>26.8</ele>
        <time>2022-04-13T13:40:23Z</time>
      </trkpt>
      <trkpt lat="49.8819" lon="2.42163">
        <ele>26.8</ele>
        <time>2022-04-13T13:40:24Z</time>
      </trkpt>
      <trkpt lat="49.88189" lon="2.42163">
        <ele>26.8</ele>
        <time>2022-04-13T13:40:25Z</time>
      </trkpt>
      <trkpt lat="49.88188" lon="2.42163">
        <ele>26.8</ele>
        <time>2022-04-13T13:40:26Z</time>
      </trkpt>
      <trkpt lat="49.88186" lon="2.42163">
        <ele>26.8</ele>
        <time>2022-04-13T13:40:27Z</time>
      </trkpt>
      <trkpt lat="49.88185" lon="2.42163">
        <ele>26.8</ele>
        <time>2022-04-13T13:40:28Z</time>
      </trkpt>
      <trkpt lat="49.88184" lon="2.42163">
        <ele>26.8</ele>
        <time>2022-04-13T13:40:29Z</time>
      </trkpt>
      <trkpt lat="49.88182" lon="2.42163">
        <ele>26.8</ele>
        <time>2022-04-13T13:40:30Z</time>
      </trkpt>
      <trkpt lat="49.8818" lon="2.42163">
        <ele>26.8</ele>
        <time>2022-04-13T13:40:31Z</time>
      </trkpt>
      <trkpt lat="49.88179" lon="2.42163">
        <ele>26.8</ele>
        <time>2022-04-13T13:40:32Z</time>
      </trkpt>
      <trkpt lat="49.88177" lon="2.42163">
        <ele>26.8</ele>
        <time>2022-04-13T13:40:33Z</time>
      </trkpt>
      <trkpt lat="49.88176" lon="2.42163">
        <ele>26.8</ele>
        <time>2022-04-13T13:40:34Z</time>
      </trkpt>
      <trkpt lat="49.88174" lon="2.42163">
        <ele>26.9</ele>
        <time>2022-04-13T13:40:36Z</time>
      </trkpt>
      <trkpt lat="49.88173" lon="2.42163">
        <ele>26.9</ele>
        <time>2022-04-13T13:40:37Z</time>
      </trkpt>
      <trkpt lat="49.88171" lon="2.42163">
        <ele>26.9</ele>
        <time>2022-04-13T13:40:38Z</time>
      </trkpt>
      <trkpt lat="49.8817" lon="2.42163">
        <ele>26.9</ele>
        <time>2022-04-13T13:40:39Z</time>
      </trkpt>
      <trkpt lat="49.88168" lon="2.42164">
        <ele>26.9</ele>
        <time>2022-04-13T13:40:40Z</time>
      </trkpt>
      <trkpt lat="49.88167" lon="2.42164">
        <ele>26.9</ele>
        <time>2022-04-13T13:40:41Z</time>
      </trkpt>
      <trkpt lat="49.88167" lon="2.42164">
        <ele>26.9</ele>
        <time>2022-04-13T13:40:42Z</time>
      </trkpt>
      <trkpt lat="49.88164" lon="2.42164">
        <ele>26.9</ele>
        <time>2022-04-13T13:40:43Z</time>
      </trkpt>
      <trkpt lat="49.88164" lon="2.42164">
        <ele>26.9</ele>
        <time>2022-04-13T13:40:44Z</time>
      </trkpt>
      <trkpt lat="49.88163" lon="2.42165">
        <ele>26.9</ele>
        <time>2022-04-13T13:40:45Z</time>
      </trkpt>
      <trkpt lat="49.88161" lon="2.42165">
        <ele>26.9</ele>
        <time>2022-04-13T13:40:47Z</time>
      </trkpt>
      <trkpt lat="49.8816" lon="2.42165">
        <ele>26.9</ele>
        <time>2022-04-13T13:40:48Z</time>
      </trkpt>
      <trkpt lat="49.88159" lon="2.42165">
        <ele>27</ele>
        <time>2022-04-13T13:40:49Z</time>
      </trkpt>
      <trkpt lat="49.88158" lon="2.42166">
        <ele>27</ele>
        <time>2022-04-13T13:40:50Z</time>
      </trkpt>
      <trkpt lat="49.88157" lon="2.42166">
        <ele>27</ele>
        <time>2022-04-13T13:40:51Z</time>
      </trkpt>
      <trkpt lat="49.88156" lon="2.42167">
        <ele>27</ele>
        <time>2022-04-13T13:40:52Z</time>
      </trkpt>
      <trkpt lat="49.88156" lon="2.42167">
        <ele>27</ele>
        <time>2022-04-13T13:40:53Z</time>
      </trkpt>
      <trkpt lat="49.88154" lon="2.42168">
        <ele>27</ele>
        <time>2022-04-13T13:40:54Z</time>
      </trkpt>
      <trkpt lat="49.88153" lon="2.42168">
        <ele>27</ele>
        <time>2022-04-13T13:40:56Z</time>
      </trkpt>
      <trkpt lat="49.88152" lon="2.42169">
        <ele>27</ele>
        <time>2022-04-13T13:40:57Z</time>
      </trkpt>
      <trkpt lat="49.88151" lon="2.42169">
        <ele>27.1</ele>
        <time>2022-04-13T13:40:58Z</time>
      </trkpt>
      <trkpt lat="49.8815" lon="2.4217">
        <ele>27.1</ele>
        <time>2022-04-13T13:40:59Z</time>
      </trkpt>
      <trkpt lat="49.88148" lon="2.42171">
        <ele>27.1</ele>
        <time>2022-04-13T13:41:00Z</time>
      </trkpt>
      <trkpt lat="49.88147" lon="2.42171">
        <ele>27.1</ele>
        <time>2022-04-13T13:41:01Z</time>
      </trkpt>
      <trkpt lat="49.88146" lon="2.42172">
        <ele>27.1</ele>
        <time>2022-04-13T13:41:03Z</time>
      </trkpt>
      <trkpt lat="49.88145" lon="2.42173">
        <ele>27.1</ele>
        <time>2022-04-13T13:41:04Z</time>
      </trkpt>
      <trkpt lat="49.88144" lon="2.42173">
        <ele>27.1</ele>
        <time>2022-04-13T13:41:05Z</time>
      </trkpt>
      <trkpt lat="49.88143" lon="2.42173">
        <ele>27.1</ele>
        <time>2022-04-13T13:41:06Z</time>
      </trkpt>
      <trkpt lat="49.88143" lon="2.42174">
        <ele>27.1</ele>
        <time>2022-04-13T13:41:07Z</time>
      </trkpt>
      <trkpt lat="49.88142" lon="2.42174">
        <ele>27.2</ele>
        <time>2022-04-13T13:41:09Z</time>
      </trkpt>
      <trkpt lat="49.88141" lon="2.42174">
        <ele>27.2</ele>
        <time>2022-04-13T13:41:10Z</time>
      </trkpt>
      <trkpt lat="49.88141" lon="2.42174">
        <ele>27.2</ele>
        <time>2022-04-13T13:41:11Z</time>
      </trkpt>
      <trkpt lat="49.8814" lon="2.42175">
        <ele>27.2</ele>
        <time>2022-04-13T13:41:12Z</time>
      </trkpt>
      <trkpt lat="49.88139" lon="2.42175">
        <ele>27.2</ele>
        <time>2022-04-13T13:41:13Z</time>
      </trkpt>
      <trkpt lat="49.88138" lon="2.42175">
        <ele>27.2</ele>
        <time>2022-04-13T13:41:14Z</time>
      </trkpt>
      <trkpt lat="49.88136" lon="2.42175">
        <ele>27.2</ele>
        <time>2022-04-13T13:41:15Z</time>
      </trkpt>
      <trkpt lat="49.88135" lon="2.42175">
        <ele>27.2</ele>
        <time>2022-04-13T13:41:16Z</time>
      </trkpt>
      <trkpt lat="49.88134" lon="2.42175">
        <ele>27.2</ele>
        <time>2022-04-13T13:41:18Z</time>
      </trkpt>
      <trkpt lat="49.88133" lon="2.42174">
        <ele>27.3</ele>
        <time>2022-04-13T13:41:19Z</time>
      </trkpt>
      <trkpt lat="49.88132" lon="2.42174">
        <ele>27.3</ele>
        <time>2022-04-13T13:41:20Z</time>
      </trkpt>
      <trkpt lat="49.88131" lon="2.42173">
        <ele>27.3</ele>
        <time>2022-04-13T13:41:21Z</time>
      </trkpt>
      <trkpt lat="49.88129" lon="2.42173">
        <ele>27.3</ele>
        <time>2022-04-13T13:41:23Z</time>
      </trkpt>
      <trkpt lat="49.88128" lon="2.42173">
        <ele>27.3</ele>
        <time>2022-04-13T13:41:24Z</time>
      </trkpt>
      <trkpt lat="49.88127" lon="2.42173">
        <ele>27.3</ele>
        <time>2022-04-13T13:41:25Z</time>
      </trkpt>
      <trkpt lat="49.88126" lon="2.42173">
        <ele>27.4</ele>
        <time>2022-04-13T13:41:26Z</time>
      </trkpt>
      <trkpt lat="49.88125" lon="2.42173">
        <ele>27.4</ele>
        <time>2022-04-13T13:41:27Z</time>
      </trkpt>
      <trkpt lat="49.88124" lon="2.42173">
        <ele>27.4</ele>
        <time>2022-04-13T13:41:28Z</time>
      </trkpt>
      <trkpt lat="49.88123" lon="2.42173">
        <ele>27.4</ele>
        <time>2022-04-13T13:41:30Z</time>
      </trkpt>
      <trkpt lat="49.88122" lon="2.42174">
        <ele>27.4</ele>
        <time>2022-04-13T13:41:31Z</time>
      </trkpt>
      <trkpt lat="49.88121" lon="2.42174">
        <ele>27.4</ele>
        <time>2022-04-13T13:41:32Z</time>
      </trkpt>
      <trkpt lat="49.8812" lon="2.42175">
        <ele>27.4</ele>
        <time>2022-04-13T13:41:33Z</time>
      </trkpt>
      <trkpt lat="49.88119" lon="2.42175">
        <ele>27.4</ele>
        <time>2022-04-13T13:41:34Z</time>
      </trkpt>
      <trkpt lat="49.88118" lon="2.42175">
        <ele>27.5</ele>
        <time>2022-04-13T13:41:35Z</time>
      </trkpt>
      <trkpt lat="49.88117" lon="2.42176">
        <ele>27.5</ele>
        <time>2022-04-13T13:41:36Z</time>
      </trkpt>
      <trkpt lat="49.88114" lon="2.42176">
        <ele>27.5</ele>
        <time>2022-04-13T13:41:38Z</time>
      </trkpt>
      <trkpt lat="49.88113" lon="2.42176">
        <ele>27.5</ele>
        <time>2022-04-13T13:41:40Z</time>
      </trkpt>
      <trkpt lat="49.88112" lon="2.42176">
        <ele>27.5</ele>
        <time>2022-04-13T13:41:41Z</time>
      </trkpt>
      <trkpt lat="49.88111" lon="2.42177">
        <ele>27.5</ele>
        <time>2022-04-13T13:41:42Z</time>
      </trkpt>
      <trkpt lat="49.8811" lon="2.42177">
        <ele>27.6</ele>
        <time>2022-04-13T13:41:43Z</time>
      </trkpt>
      <trkpt lat="49.88109" lon="2.42177">
        <ele>27.6</ele>
        <time>2022-04-13T13:41:44Z</time>
      </trkpt>
      <trkpt lat="49.88108" lon="2.42178">
        <ele>27.6</ele>
        <time>2022-04-13T13:41:45Z</time>
      </trkpt>
      <trkpt lat="49.88107" lon="2.42178">
        <ele>27.6</ele>
        <time>2022-04-13T13:41:46Z</time>
      </trkpt>
      <trkpt lat="49.88106" lon="2.42178">
        <ele>27.6</ele>
        <time>2022-04-13T13:41:47Z</time>
      </trkpt>
      <trkpt lat="49.88104" lon="2.42179">
        <ele>27.6</ele>
        <time>2022-04-13T13:41:49Z</time>
      </trkpt>
      <trkpt lat="49.88103" lon="2.42179">
        <ele>27.7</ele>
        <time>2022-04-13T13:41:50Z</time>
      </trkpt>
      <trkpt lat="49.88102" lon="2.4218">
        <ele>27.7</ele>
        <time>2022-04-13T13:41:51Z</time>
      </trkpt>
      <trkpt lat="49.88102" lon="2.4218">
        <ele>27.7</ele>
        <time>2022-04-13T13:41:52Z</time>
      </trkpt>
      <trkpt lat="49.88101" lon="2.42181">
        <ele>27.7</ele>
        <time>2022-04-13T13:41:53Z</time>
      </trkpt>
      <trkpt lat="49.881" lon="2.42181">
        <ele>27.7</ele>
        <time>2022-04-13T13:41:54Z</time>
      </trkpt>
      <trkpt lat="49.88099" lon="2.42182">
        <ele>27.7</ele>
        <time>2022-04-13T13:41:55Z</time>
      </trkpt>
      <trkpt lat="49.88098" lon="2.42182">
        <ele>27.7</ele>
        <time>2022-04-13T13:41:56Z</time>
      </trkpt>
      <trkpt lat="49.88097" lon="2.42183">
        <ele>27.8</ele>
        <time>2022-04-13T13:41:57Z</time>
      </trkpt>
      <trkpt lat="49.88096" lon="2.42183">
        <ele>27.8</ele>
        <time>2022-04-13T13:41:58Z</time>
      </trkpt>
      <trkpt lat="49.88095" lon="2.42184">
        <ele>27.8</ele>
        <time>2022-04-13T13:41:59Z</time>
      </trkpt>
      <trkpt lat="49.88093" lon="2.42184">
        <ele>27.8</ele>
        <time>2022-04-13T13:42:01Z</time>
      </trkpt>
      <trkpt lat="49.88092" lon="2.42184">
        <ele>27.8</ele>
        <time>2022-04-13T13:42:02Z</time>
      </trkpt>
      <trkpt lat="49.88091" lon="2.42184">
        <ele>27.9</ele>
        <time>2022-04-13T13:42:03Z</time>
      </trkpt>
      <trkpt lat="49.8809" lon="2.42185">
        <ele>27.9</ele>
        <time>2022-04-13T13:42:05Z</time>
      </trkpt>
      <trkpt lat="49.88089" lon="2.42185">
        <ele>27.9</ele>
        <time>2022-04-13T13:42:06Z</time>
      </trkpt>
      <trkpt lat="49.88088" lon="2.42185">
        <ele>27.9</ele>
        <time>2022-04-13T13:42:07Z</time>
      </trkpt>
      <trkpt lat="49.88087" lon="2.42185">
        <ele>27.9</ele>
        <time>2022-04-13T13:42:08Z</time>
      </trkpt>
      <trkpt lat="49.88085" lon="2.42185">
        <ele>28</ele>
        <time>2022-04-13T13:42:09Z</time>
      </trkpt>
      <trkpt lat="49.88084" lon="2.42185">
        <ele>28</ele>
        <time>2022-04-13T13:42:10Z</time>
      </trkpt>
      <trkpt lat="49.88083" lon="2.42186">
        <ele>28</ele>
        <time>2022-04-13T13:42:11Z</time>
      </trkpt>
      <trkpt lat="49.88082" lon="2.42186">
        <ele>28</ele>
        <time>2022-04-13T13:42:12Z</time>
      </trkpt>
      <trkpt lat="49.8808" lon="2.42186">
        <ele>28.1</ele>
        <time>2022-04-13T13:42:13Z</time>
      </trkpt>
      <trkpt lat="49.88079" lon="2.42186">
        <ele>28.1</ele>
        <time>2022-04-13T13:42:15Z</time>
      </trkpt>
      <trkpt lat="49.88077" lon="2.42186">
        <ele>28.1</ele>
        <time>2022-04-13T13:42:16Z</time>
      </trkpt>
      <trkpt lat="49.88076" lon="2.42186">
        <ele>28.1</ele>
        <time>2022-04-13T13:42:17Z</time>
      </trkpt>
      <trkpt lat="49.88075" lon="2.42186">
        <ele>28.2</ele>
        <time>2022-04-13T13:42:18Z</time>
      </trkpt>
      <trkpt lat="49.88073" lon="2.42186">
        <ele>28.2</ele>
        <time>2022-04-13T13:42:19Z</time>
      </trkpt>
      <trkpt lat="49.88073" lon="2.42187">
        <ele>28.2</ele>
        <time>2022-04-13T13:42:20Z</time>
      </trkpt>
      <trkpt lat="49.88072" lon="2.42187">
        <ele>28.3</ele>
        <time>2022-04-13T13:42:21Z</time>
      </trkpt>
      <trkpt lat="49.88069" lon="2.42187">
        <ele>28.3</ele>
        <time>2022-04-13T13:42:22Z</time>
      </trkpt>
      <trkpt lat="49.88069" lon="2.42187">
        <ele>28.3</ele>
        <time>2022-04-13T13:42:24Z</time>
      </trkpt>
      <trkpt lat="49.88068" lon="2.42187">
        <ele>28.4</ele>
        <time>2022-04-13T13:42:25Z</time>
      </trkpt>
      <trkpt lat="49.88066" lon="2.42186">
        <ele>28.4</ele>
        <time>2022-04-13T13:42:26Z</time>
      </trkpt>
      <trkpt lat="49.88065" lon="2.42186">
        <ele>28.4</ele>
        <time>2022-04-13T13:42:27Z</time>
      </trkpt>
      <trkpt lat="49.88064" lon="2.42186">
        <ele>28.4</ele>
        <time>2022-04-13T13:42:28Z</time>
      </trkpt>
      <trkpt lat="49.88063" lon="2.42186">
        <ele>28.5</ele>
        <time>2022-04-13T13:42:29Z</time>
      </trkpt>
      <trkpt lat="49.88062" lon="2.42186">
        <ele>28.5</ele>
        <time>2022-04-13T13:42:30Z</time>
      </trkpt>
      <trkpt lat="49.88061" lon="2.42185">
        <ele>28.5</ele>
        <time>2022-04-13T13:42:32Z</time>
      </trkpt>
      <trkpt lat="49.8806" lon="2.42185">
        <ele>28.5</ele>
        <time>2022-04-13T13:42:33Z</time>
      </trkpt>
      <trkpt lat="49.88059" lon="2.42184">
        <ele>28.6</ele>
        <time>2022-04-13T13:42:35Z</time>
      </trkpt>
      <trkpt lat="49.88059" lon="2.42183">
        <ele>28.6</ele>
        <time>2022-04-13T13:42:36Z</time>
      </trkpt>
      <trkpt lat="49.88058" lon="2.42183">
        <ele>28.6</ele>
        <time>2022-04-13T13:42:38Z</time>
      </trkpt>
      <trkpt lat="49.88058" lon="2.42183">
        <ele>28.6</ele>
        <time>2022-04-13T13:42:39Z</time>
      </trkpt>
      <trkpt lat="49.88058" lon="2.42184">
        <ele>28.6</ele>
        <time>2022-04-13T13:42:40Z</time>
      </trkpt>
      <trkpt lat="49.88058" lon="2.42184">
        <ele>28.6</ele>
        <time>2022-04-13T13:42:41Z</time>
      </trkpt>
      <trkpt lat="49.88058" lon="2.42184">
        <ele>28.6</ele>
        <time>2022-04-13T13:42:42Z</time>
      </trkpt>
      <trkpt lat="49.88058" lon="2.42185">
        <ele>28.6</ele>
        <time>2022-04-13T13:42:43Z</time>
      </trkpt>
      <trkpt lat="49.88058" lon="2.42185">
        <ele>28.6</ele>
        <time>2022-04-13T13:42:44Z</time>
      </trkpt>
      <trkpt lat="49.88058" lon="2.42185">
        <ele>28.6</ele>
        <time>2022-04-13T13:42:45Z</time>
      </trkpt>
      <trkpt lat="49.88058" lon="2.42185">
        <ele>28.6</ele>
        <time>2022-04-13T13:42:46Z</time>
      </trkpt>
      <trkpt lat="49.88058" lon="2.42185">
        <ele>28.6</ele>
        <time>2022-04-13T13:42:47Z</time>
      </trkpt>
      <trkpt lat="49.88058" lon="2.42185">
        <ele>28.6</ele>
        <time>2022-04-13T13:42:48Z</time>
      </trkpt>
      <trkpt lat="49.88059" lon="2.42185">
        <ele>28.6</ele>
        <time>2022-04-13T13:42:49Z</time>
      </trkpt>
      <trkpt lat="49.88058" lon="2.42185">
        <ele>28.6</ele>
        <time>2022-04-13T13:42:51Z</time>
      </trkpt>
      <trkpt lat="49.88058" lon="2.42186">
        <ele>28.6</ele>
        <time>2022-04-13T13:42:52Z</time>
      </trkpt>
      <trkpt lat="49.88058" lon="2.42187">
        <ele>28.6</ele>
        <time>2022-04-13T13:42:53Z</time>
      </trkpt>
      <trkpt lat="49.88058" lon="2.42188">
        <ele>28.6</ele>
        <time>2022-04-13T13:42:55Z</time>
      </trkpt>
      <trkpt lat="49.88058" lon="2.42189">
        <ele>28.6</ele>
        <time>2022-04-13T13:42:56Z</time>
      </trkpt>
      <trkpt lat="49.88057" lon="2.4219">
        <ele>28.6</ele>
        <time>2022-04-13T13:42:57Z</time>
      </trkpt>
      <trkpt lat="49.88057" lon="2.42191">
        <ele>28.6</ele>
        <time>2022-04-13T13:42:58Z</time>
      </trkpt>
      <trkpt lat="49.88057" lon="2.42192">
        <ele>28.6</ele>
        <time>2022-04-13T13:42:59Z</time>
      </trkpt>
      <trkpt lat="49.88057" lon="2.42193">
        <ele>28.6</ele>
        <time>2022-04-13T13:43:00Z</time>
      </trkpt>
      <trkpt lat="49.88057" lon="2.42194">
        <ele>28.6</ele>
        <time>2022-04-13T13:43:01Z</time>
      </trkpt>
      <trkpt lat="49.88057" lon="2.42196">
        <ele>28.7</ele>
        <time>2022-04-13T13:43:03Z</time>
      </trkpt>
      <trkpt lat="49.88056" lon="2.42197">
        <ele>28.7</ele>
        <time>2022-04-13T13:43:04Z</time>
      </trkpt>
      <trkpt lat="49.88056" lon="2.42198">
        <ele>28.7</ele>
        <time>2022-04-13T13:43:05Z</time>
      </trkpt>
      <trkpt lat="49.88056" lon="2.422">
        <ele>28.7</ele>
        <time>2022-04-13T13:43:06Z</time>
      </trkpt>
      <trkpt lat="49.88056" lon="2.42201">
        <ele>28.7</ele>
        <time>2022-04-13T13:43:07Z</time>
      </trkpt>
      <trkpt lat="49.88055" lon="2.42203">
        <ele>28.7</ele>
        <time>2022-04-13T13:43:09Z</time>
      </trkpt>
      <trkpt lat="49.88055" lon="2.42204">
        <ele>28.7</ele>
        <time>2022-04-13T13:43:10Z</time>
      </trkpt>
      <trkpt lat="49.88055" lon="2.42206">
        <ele>28.7</ele>
        <time>2022-04-13T13:43:11Z</time>
      </trkpt>
      <trkpt lat="49.88054" lon="2.42208">
        <ele>28.7</ele>
        <time>2022-04-13T13:43:12Z</time>
      </trkpt>
      <trkpt lat="49.88054" lon="2.42209">
        <ele>28.7</ele>
        <time>2022-04-13T13:43:13Z</time>
      </trkpt>
      <trkpt lat="49.88053" lon="2.42211">
        <ele>28.7</ele>
        <time>2022-04-13T13:43:14Z</time>
      </trkpt>
      <trkpt lat="49.88053" lon="2.42214">
        <ele>28.7</ele>
        <time>2022-04-13T13:43:15Z</time>
      </trkpt>
      <trkpt lat="49.88052" lon="2.42215">
        <ele>28.7</ele>
        <time>2022-04-13T13:43:16Z</time>
      </trkpt>
      <trkpt lat="49.88052" lon="2.42216">
        <ele>28.8</ele>
        <time>2022-04-13T13:43:17Z</time>
      </trkpt>
      <trkpt lat="49.88051" lon="2.42218">
        <ele>28.8</ele>
        <time>2022-04-13T13:43:18Z</time>
      </trkpt>
      <trkpt lat="49.88051" lon="2.4222">
        <ele>28.8</ele>
        <time>2022-04-13T13:43:19Z</time>
      </trkpt>
      <trkpt lat="49.8805" lon="2.42222">
        <ele>28.8</ele>
        <time>2022-04-13T13:43:21Z</time>
      </trkpt>
      <trkpt lat="49.88048" lon="2.42224">
        <ele>28.8</ele>
        <time>2022-04-13T13:43:22Z</time>
      </trkpt>
      <trkpt lat="49.88048" lon="2.42224">
        <ele>28.8</ele>
        <time>2022-04-13T13:43:23Z</time>
      </trkpt>
      <trkpt lat="49.88047" lon="2.42225">
        <ele>28.8</ele>
        <time>2022-04-13T13:43:24Z</time>
      </trkpt>
      <trkpt lat="49.88046" lon="2.42227">
        <ele>28.8</ele>
        <time>2022-04-13T13:43:25Z</time>
      </trkpt>
      <trkpt lat="49.88045" lon="2.42228">
        <ele>28.9</ele>
        <time>2022-04-13T13:43:26Z</time>
      </trkpt>
      <trkpt lat="49.88045" lon="2.4223">
        <ele>28.9</ele>
        <time>2022-04-13T13:43:28Z</time>
      </trkpt>
      <trkpt lat="49.88044" lon="2.42231">
        <ele>28.9</ele>
        <time>2022-04-13T13:43:29Z</time>
      </trkpt>
      <trkpt lat="49.88044" lon="2.42232">
        <ele>28.9</ele>
        <time>2022-04-13T13:43:30Z</time>
      </trkpt>
      <trkpt lat="49.88043" lon="2.42234">
        <ele>28.9</ele>
        <time>2022-04-13T13:43:31Z</time>
      </trkpt>
      <trkpt lat="49.88042" lon="2.42236">
        <ele>28.9</ele>
        <time>2022-04-13T13:43:32Z</time>
      </trkpt>
      <trkpt lat="49.88042" lon="2.42237">
        <ele>28.9</ele>
        <time>2022-04-13T13:43:33Z</time>
      </trkpt>
      <trkpt lat="49.88041" lon="2.42239">
        <ele>28.9</ele>
        <time>2022-04-13T13:43:35Z</time>
      </trkpt>
      <trkpt lat="49.88041" lon="2.4224">
        <ele>29</ele>
        <time>2022-04-13T13:43:36Z</time>
      </trkpt>
      <trkpt lat="49.8804" lon="2.42242">
        <ele>29</ele>
        <time>2022-04-13T13:43:37Z</time>
      </trkpt>
      <trkpt lat="49.8804" lon="2.42243">
        <ele>29</ele>
        <time>2022-04-13T13:43:38Z</time>
      </trkpt>
      <trkpt lat="49.88039" lon="2.42245">
        <ele>29</ele>
        <time>2022-04-13T13:43:39Z</time>
      </trkpt>
      <trkpt lat="49.88039" lon="2.42247">
        <ele>29</ele>
        <time>2022-04-13T13:43:40Z</time>
      </trkpt>
      <trkpt lat="49.88039" lon="2.42249">
        <ele>29</ele>
        <time>2022-04-13T13:43:42Z</time>
      </trkpt>
      <trkpt lat="49.88039" lon="2.42251">
        <ele>29</ele>
        <time>2022-04-13T13:43:43Z</time>
      </trkpt>
      <trkpt lat="49.88038" lon="2.42253">
        <ele>29</ele>
        <time>2022-04-13T13:43:44Z</time>
      </trkpt>
      <trkpt lat="49.88038" lon="2.42254">
        <ele>29.1</ele>
        <time>2022-04-13T13:43:45Z</time>
      </trkpt>
      <trkpt lat="49.88038" lon="2.42256">
        <ele>29.1</ele>
        <time>2022-04-13T13:43:46Z</time>
      </trkpt>
      <trkpt lat="49.88038" lon="2.42258">
        <ele>29.1</ele>
        <time>2022-04-13T13:43:47Z</time>
      </trkpt>
      <trkpt lat="49.88038" lon="2.4226">
        <ele>29.1</ele>
        <time>2022-04-13T13:43:48Z</time>
      </trkpt>
      <trkpt lat="49.88037" lon="2.42261">
        <ele>29.1</ele>
        <time>2022-04-13T13:43:49Z</time>
      </trkpt>
      <trkpt lat="49.88037" lon="2.42263">
        <ele>29.1</ele>
        <time>2022-04-13T13:43:50Z</time>
      </trkpt>
      <trkpt lat="49.88037" lon="2.42265">
        <ele>29.1</ele>
        <time>2022-04-13T13:43:52Z</time>
      </trkpt>
      <trkpt lat="49.88036" lon="2.42268">
        <ele>29.2</ele>
        <time>2022-04-13T13:43:53Z</time>
      </trkpt>
      <trkpt lat="49.88036" lon="2.4227">
        <ele>29.2</ele>
        <time>2022-04-13T13:43:54Z</time>
      </trkpt>
      <trkpt lat="49.88036" lon="2.42271">
        <ele>29.2</ele>
        <time>2022-04-13T13:43:55Z</time>
      </trkpt>
      <trkpt lat="49.88036" lon="2.42274">
        <ele>29.2</ele>
        <time>2022-04-13T13:43:56Z</time>
      </trkpt>
      <trkpt lat="49.88035" lon="2.42275">
        <ele>29.2</ele>
        <time>2022-04-13T13:43:57Z</time>
      </trkpt>
      <trkpt lat="49.88035" lon="2.42276">
        <ele>29.2</ele>
        <time>2022-04-13T13:43:58Z</time>
      </trkpt>
      <trkpt lat="49.88035" lon="2.42278">
        <ele>29.2</ele>
        <time>2022-04-13T13:43:59Z</time>
      </trkpt>
      <trkpt lat="49.88034" lon="2.4228">
        <ele>29.2</ele>
        <time>2022-04-13T13:44:00Z</time>
      </trkpt>
      <trkpt lat="49.88034" lon="2.42283">
        <ele>29.3</ele>
        <time>2022-04-13T13:44:01Z</time>
      </trkpt>
      <trkpt lat="49.88033" lon="2.42284">
        <ele>29.3</ele>
        <time>2022-04-13T13:44:02Z</time>
      </trkpt>
      <trkpt lat="49.88033" lon="2.42286">
        <ele>29.3</ele>
        <time>2022-04-13T13:44:03Z</time>
      </trkpt>
      <trkpt lat="49.88032" lon="2.42288">
        <ele>29.3</ele>
        <time>2022-04-13T13:44:05Z</time>
      </trkpt>
      <trkpt lat="49.88031" lon="2.42291">
        <ele>29.3</ele>
        <time>2022-04-13T13:44:06Z</time>
      </trkpt>
      <trkpt lat="49.88031" lon="2.42293">
        <ele>29.3</ele>
        <time>2022-04-13T13:44:07Z</time>
      </trkpt>
      <trkpt lat="49.8803" lon="2.42295">
        <ele>29.4</ele>
        <time>2022-04-13T13:44:08Z</time>
      </trkpt>
      <trkpt lat="49.88029" lon="2.42296">
        <ele>29.4</ele>
        <time>2022-04-13T13:44:09Z</time>
      </trkpt>
      <trkpt lat="49.88029" lon="2.42298">
        <ele>29.4</ele>
        <time>2022-04-13T13:44:10Z</time>
      </trkpt>
      <trkpt lat="49.88028" lon="2.423">
        <ele>29.4</ele>
        <time>2022-04-13T13:44:11Z</time>
      </trkpt>
      <trkpt lat="49.88027" lon="2.42302">
        <ele>29.4</ele>
        <time>2022-04-13T13:44:12Z</time>
      </trkpt>
      <trkpt lat="49.88027" lon="2.42304">
        <ele>29.5</ele>
        <time>2022-04-13T13:44:13Z</time>
      </trkpt>
      <trkpt lat="49.88026" lon="2.42305">
        <ele>29.5</ele>
        <time>2022-04-13T13:44:15Z</time>
      </trkpt>
      <trkpt lat="49.88025" lon="2.42308">
        <ele>29.5</ele>
        <time>2022-04-13T13:44:16Z</time>
      </trkpt>
      <trkpt lat="49.88024" lon="2.42309">
        <ele>29.5</ele>
        <time>2022-04-13T13:44:17Z</time>
      </trkpt>
      <trkpt lat="49.88024" lon="2.4231">
        <ele>29.5</ele>
        <time>2022-04-13T13:44:18Z</time>
      </trkpt>
      <trkpt lat="49.88023" lon="2.42312">
        <ele>29.6</ele>
        <time>2022-04-13T13:44:19Z</time>
      </trkpt>
      <trkpt lat="49.88023" lon="2.42314">
        <ele>29.6</ele>
        <time>2022-04-13T13:44:20Z</time>
      </trkpt>
      <trkpt lat="49.88022" lon="2.42315">
        <ele>29.6</ele>
        <time>2022-04-13T13:44:22Z</time>
      </trkpt>
      <trkpt lat="49.88021" lon="2.42317">
        <ele>29.6</ele>
        <time>2022-04-13T13:44:23Z</time>
      </trkpt>
      <trkpt lat="49.88021" lon="2.42317">
        <ele>29.7</ele>
        <time>2022-04-13T13:44:24Z</time>
      </trkpt>
      <trkpt lat="49.88021" lon="2.42318">
        <ele>29.7</ele>
        <time>2022-04-13T13:44:25Z</time>
      </trkpt>
      <trkpt lat="49.88021" lon="2.42319">
        <ele>29.7</ele>
        <time>2022-04-13T13:44:26Z</time>
      </trkpt>
      <trkpt lat="49.88021" lon="2.42319">
        <ele>29.7</ele>
        <time>2022-04-13T13:44:27Z</time>
      </trkpt>
      <trkpt lat="49.88021" lon="2.42319">
        <ele>29.7</ele>
        <time>2022-04-13T13:44:28Z</time>
      </trkpt>
      <trkpt lat="49.88022" lon="2.42319">
        <ele>29.7</ele>
        <time>2022-04-13T13:44:29Z</time>
      </trkpt>
      <trkpt lat="49.88022" lon="2.42318">
        <ele>29.8</ele>
        <time>2022-04-13T13:44:30Z</time>
      </trkpt>
      <trkpt lat="49.88022" lon="2.42318">
        <ele>29.8</ele>
        <time>2022-04-13T13:44:31Z</time>
      </trkpt>
      <trkpt lat="49.88022" lon="2.42319">
        <ele>29.8</ele>
        <time>2022-04-13T13:44:32Z</time>
      </trkpt>
      <trkpt lat="49.88022" lon="2.42318">
        <ele>29.8</ele>
        <time>2022-04-13T13:44:33Z</time>
      </trkpt>
      <trkpt lat="49.88022" lon="2.42318">
        <ele>29.8</ele>
        <time>2022-04-13T13:44:34Z</time>
      </trkpt>
      <trkpt lat="49.88022" lon="2.42319">
        <ele>29.8</ele>
        <time>2022-04-13T13:44:35Z</time>
      </trkpt>
      <trkpt lat="49.88022" lon="2.42319">
        <ele>29.8</ele>
        <time>2022-04-13T13:44:36Z</time>
      </trkpt>
      <trkpt lat="49.88022" lon="2.42319">
        <ele>29.8</ele>
        <time>2022-04-13T13:44:37Z</time>
      </trkpt>
      <trkpt lat="49.88022" lon="2.42318">
        <ele>29.8</ele>
        <time>2022-04-13T13:44:38Z</time>
      </trkpt>
      <trkpt lat="49.88022" lon="2.42318">
        <ele>29.8</ele>
        <time>2022-04-13T13:44:39Z</time>
      </trkpt>
      <trkpt lat="49.88022" lon="2.42318">
        <ele>29.8</ele>
        <time>2022-04-13T13:44:40Z</time>
      </trkpt>
      <trkpt lat="49.88022" lon="2.42319">
        <ele>29.8</ele>
        <time>2022-04-13T13:44:41Z</time>
      </trkpt>
      <trkpt lat="49.88022" lon="2.42319">
        <ele>29.8</ele>
        <time>2022-04-13T13:44:42Z</time>
      </trkpt>
      <trkpt lat="49.88022" lon="2.42319">
        <ele>29.8</ele>
        <time>2022-04-13T13:44:43Z</time>
      </trkpt>
      <trkpt lat="49.88022" lon="2.42318">
        <ele>29.8</ele>
        <time>2022-04-13T13:44:44Z</time>
      </trkpt>
      <trkpt lat="49.88022" lon="2.42317">
        <ele>29.8</ele>
        <time>2022-04-13T13:44:45Z</time>
      </trkpt>
      <trkpt lat="49.88022" lon="2.42317">
        <ele>29.8</ele>
        <time>2022-04-13T13:44:46Z</time>
      </trkpt>
      <trkpt lat="49.88022" lon="2.42317">
        <ele>29.8</ele>
        <time>2022-04-13T13:44:47Z</time>
      </trkpt>
      <trkpt lat="49.88022" lon="2.42317">
        <ele>29.8</ele>
        <time>2022-04-13T13:44:48Z</time>
      </trkpt>
      <trkpt lat="49.88022" lon="2.42317">
        <ele>29.8</ele>
        <time>2022-04-13T13:44:49Z</time>
      </trkpt>
      <trkpt lat="49.88022" lon="2.42317">
        <ele>29.8</ele>
        <time>2022-04-13T13:44:50Z</time>
      </trkpt>
      <trkpt lat="49.88022" lon="2.42317">
        <ele>29.8</ele>
        <time>2022-04-13T13:44:51Z</time>
      </trkpt>
      <trkpt lat="49.88022" lon="2.42317">
        <ele>29.8</ele>
        <time>2022-04-13T13:44:52Z</time>
      </trkpt>
      <trkpt lat="49.88022" lon="2.42317">
        <ele>29.8</ele>
        <time>2022-04-13T13:44:53Z</time>
      </trkpt>
      <trkpt lat="49.88022" lon="2.42317">
        <ele>29.8</ele>
        <time>2022-04-13T13:44:54Z</time>
      </trkpt>
      <trkpt lat="49.88022" lon="2.42317">
        <ele>29.8</ele>
        <time>2022-04-13T13:44:55Z</time>
      </trkpt>
      <trkpt lat="49.88022" lon="2.42317">
        <ele>29.8</ele>
        <time>2022-04-13T13:44:56Z</time>
      </trkpt>
      <trkpt lat="49.88022" lon="2.42317">
        <ele>29.8</ele>
        <time>2022-04-13T13:44:57Z</time>
      </trkpt>
      <trkpt lat="49.88022" lon="2.42317">
        <ele>29.8</ele>
        <time>2022-04-13T13:44:58Z</time>
      </trkpt>
      <trkpt lat="49.88022" lon="2.42317">
        <ele>29.8</ele>
        <time>2022-04-13T13:44:59Z</time>
      </trkpt>
      <trkpt lat="49.88022" lon="2.42317">
        <ele>29.8</ele>
        <time>2022-04-13T13:45:00Z</time>
      </trkpt>
      <trkpt lat="49.88022" lon="2.42317">
        <ele>29.8</ele>
        <time>2022-04-13T13:45:01Z</time>
      </trkpt>
      <trkpt lat="49.88022" lon="2.42317">
        <ele>29.8</ele>
        <time>2022-04-13T13:45:02Z</time>
      </trkpt>
      <trkpt lat="49.88021" lon="2.42316">
        <ele>29.8</ele>
        <time>2022-04-13T13:45:03Z</time>
      </trkpt>
      <trkpt lat="49.88021" lon="2.42317">
        <ele>29.8</ele>
        <time>2022-04-13T13:45:04Z</time>
      </trkpt>
      <trkpt lat="49.88021" lon="2.42316">
        <ele>29.8</ele>
        <time>2022-04-13T13:45:05Z</time>
      </trkpt>
      <trkpt lat="49.8802" lon="2.42316">
        <ele>29.8</ele>
        <time>2022-04-13T13:45:07Z</time>
      </trkpt>
      <trkpt lat="49.8802" lon="2.42316">
        <ele>29.8</ele>
        <time>2022-04-13T13:45:08Z</time>
      </trkpt>
      <trkpt lat="49.88019" lon="2.42316">
        <ele>29.8</ele>
        <time>2022-04-13T13:45:09Z</time>
      </trkpt>
      <trkpt lat="49.88019" lon="2.42316">
        <ele>29.8</ele>
        <time>2022-04-13T13:45:10Z</time>
      </trkpt>
      <trkpt lat="49.88017" lon="2.42316">
        <ele>29.9</ele>
        <time>2022-04-13T13:45:11Z</time>
      </trkpt>
      <trkpt lat="49.88016" lon="2.42317">
        <ele>29.9</ele>
        <time>2022-04-13T13:45:12Z</time>
      </trkpt>
      <trkpt lat="49.88014" lon="2.42317">
        <ele>29.9</ele>
        <time>2022-04-13T13:45:14Z</time>
      </trkpt>
      <trkpt lat="49.88013" lon="2.42317">
        <ele>29.9</ele>
        <time>2022-04-13T13:45:15Z</time>
      </trkpt>
      <trkpt lat="49.88012" lon="2.42318">
        <ele>29.9</ele>
        <time>2022-04-13T13:45:16Z</time>
      </trkpt>
      <trkpt lat="49.8801" lon="2.42318">
        <ele>29.9</ele>
        <time>2022-04-13T13:45:17Z</time>
      </trkpt>
      <trkpt lat="49.88008" lon="2.42318">
        <ele>30</ele>
        <time>2022-04-13T13:45:18Z</time>
      </trkpt>
      <trkpt lat="49.88007" lon="2.42319">
        <ele>30</ele>
        <time>2022-04-13T13:45:19Z</time>
      </trkpt>
      <trkpt lat="49.88006" lon="2.4232">
        <ele>30</ele>
        <time>2022-04-13T13:45:20Z</time>
      </trkpt>
      <trkpt lat="49.88004" lon="2.42321">
        <ele>30</ele>
        <time>2022-04-13T13:45:21Z</time>
      </trkpt>
      <trkpt lat="49.88004" lon="2.42323">
        <ele>30</ele>
        <time>2022-04-13T13:45:23Z</time>
      </trkpt>
      <trkpt lat="49.88003" lon="2.42324">
        <ele>30</ele>
        <time>2022-04-13T13:45:24Z</time>
      </trkpt>
      <trkpt lat="49.88002" lon="2.42325">
        <ele>30</ele>
        <time>2022-04-13T13:45:25Z</time>
      </trkpt>
      <trkpt lat="49.88001" lon="2.42326">
        <ele>30</ele>
        <time>2022-04-13T13:45:26Z</time>
      </trkpt>
      <trkpt lat="49.88" lon="2.42326">
        <ele>30</ele>
        <time>2022-04-13T13:45:27Z</time>
      </trkpt>
      <trkpt lat="49.87997" lon="2.42327">
        <ele>30.1</ele>
        <time>2022-04-13T13:45:28Z</time>
      </trkpt>
      <trkpt lat="49.87997" lon="2.42327">
        <ele>30.1</ele>
        <time>2022-04-13T13:45:29Z</time>
      </trkpt>
      <trkpt lat="49.87996" lon="2.42327">
        <ele>30.1</ele>
        <time>2022-04-13T13:45:30Z</time>
      </trkpt>
      <trkpt lat="49.87993" lon="2.42327">
        <ele>30.1</ele>
        <time>2022-04-13T13:45:31Z</time>
      </trkpt>
      <trkpt lat="49.87993" lon="2.42327">
        <ele>30.1</ele>
        <time>2022-04-13T13:45:33Z</time>
      </trkpt>
      <trkpt lat="49.87992" lon="2.42326">
        <ele>30.1</ele>
        <time>2022-04-13T13:45:34Z</time>
      </trkpt>
      <trkpt lat="49.8799" lon="2.42326">
        <ele>30.1</ele>
        <time>2022-04-13T13:45:35Z</time>
      </trkpt>
      <trkpt lat="49.87989" lon="2.42325">
        <ele>30.1</ele>
        <time>2022-04-13T13:45:36Z</time>
      </trkpt>
      <trkpt lat="49.87988" lon="2.42325">
        <ele>30.1</ele>
        <time>2022-04-13T13:45:37Z</time>
      </trkpt>
      <trkpt lat="49.87986" lon="2.42323">
        <ele>30.1</ele>
        <time>2022-04-13T13:45:38Z</time>
      </trkpt>
      <trkpt lat="49.87984" lon="2.42322">
        <ele>30.2</ele>
        <time>2022-04-13T13:45:39Z</time>
      </trkpt>
      <trkpt lat="49.87983" lon="2.42322">
        <ele>30.2</ele>
        <time>2022-04-13T13:45:40Z</time>
      </trkpt>
      <trkpt lat="49.87981" lon="2.42321">
        <ele>30.2</ele>
        <time>2022-04-13T13:45:41Z</time>
      </trkpt>
      <trkpt lat="49.8798" lon="2.42321">
        <ele>30.2</ele>
        <time>2022-04-13T13:45:43Z</time>
      </trkpt>
      <trkpt lat="49.87979" lon="2.4232">
        <ele>30.3</ele>
        <time>2022-04-13T13:45:44Z</time>
      </trkpt>
      <trkpt lat="49.87977" lon="2.42319">
        <ele>30.3</ele>
        <time>2022-04-13T13:45:45Z</time>
      </trkpt>
      <trkpt lat="49.87977" lon="2.42318">
        <ele>30.3</ele>
        <time>2022-04-13T13:45:46Z</time>
      </trkpt>
      <trkpt lat="49.87976" lon="2.42318">
        <ele>30.3</ele>
        <time>2022-04-13T13:45:47Z</time>
      </trkpt>
      <trkpt lat="49.87975" lon="2.42317">
        <ele>30.3</ele>
        <time>2022-04-13T13:45:48Z</time>
      </trkpt>
      <trkpt lat="49.87973" lon="2.42316">
        <ele>30.4</ele>
        <time>2022-04-13T13:45:49Z</time>
      </trkpt>
      <trkpt lat="49.87972" lon="2.42315">
        <ele>30.4</ele>
        <time>2022-04-13T13:45:50Z</time>
      </trkpt>
      <trkpt lat="49.87971" lon="2.42315">
        <ele>30.4</ele>
        <time>2022-04-13T13:45:51Z</time>
      </trkpt>
      <trkpt lat="49.8797" lon="2.42314">
        <ele>30.4</ele>
        <time>2022-04-13T13:45:53Z</time>
      </trkpt>
      <trkpt lat="49.87969" lon="2.42313">
        <ele>30.5</ele>
        <time>2022-04-13T13:45:54Z</time>
      </trkpt>
      <trkpt lat="49.87967" lon="2.42313">
        <ele>30.5</ele>
        <time>2022-04-13T13:45:55Z</time>
      </trkpt>
      <trkpt lat="49.87967" lon="2.42312">
        <ele>30.5</ele>
        <time>2022-04-13T13:45:56Z</time>
      </trkpt>
      <trkpt lat="49.87966" lon="2.4231">
        <ele>30.5</ele>
        <time>2022-04-13T13:45:57Z</time>
      </trkpt>
      <trkpt lat="49.87964" lon="2.42308">
        <ele>30.6</ele>
        <time>2022-04-13T13:45:58Z</time>
      </trkpt>
      <trkpt lat="49.87963" lon="2.42307">
        <ele>30.6</ele>
        <time>2022-04-13T13:45:59Z</time>
      </trkpt>
      <trkpt lat="49.87962" lon="2.42306">
        <ele>30.6</ele>
        <time>2022-04-13T13:46:01Z</time>
      </trkpt>
      <trkpt lat="49.87961" lon="2.42304">
        <ele>30.7</ele>
        <time>2022-04-13T13:46:02Z</time>
      </trkpt>
      <trkpt lat="49.8796" lon="2.42304">
        <ele>30.7</ele>
        <time>2022-04-13T13:46:03Z</time>
      </trkpt>
      <trkpt lat="49.87958" lon="2.42303">
        <ele>30.7</ele>
        <time>2022-04-13T13:46:04Z</time>
      </trkpt>
      <trkpt lat="49.87957" lon="2.42302">
        <ele>30.8</ele>
        <time>2022-04-13T13:46:06Z</time>
      </trkpt>
      <trkpt lat="49.87956" lon="2.42301">
        <ele>30.8</ele>
        <time>2022-04-13T13:46:07Z</time>
      </trkpt>
      <trkpt lat="49.87954" lon="2.423">
        <ele>30.9</ele>
        <time>2022-04-13T13:46:08Z</time>
      </trkpt>
      <trkpt lat="49.87954" lon="2.423">
        <ele>30.9</ele>
        <time>2022-04-13T13:46:09Z</time>
      </trkpt>
      <trkpt lat="49.87953" lon="2.42299">
        <ele>30.9</ele>
        <time>2022-04-13T13:46:10Z</time>
      </trkpt>
      <trkpt lat="49.87951" lon="2.42299">
        <ele>30.9</ele>
        <time>2022-04-13T13:46:11Z</time>
      </trkpt>
      <trkpt lat="49.8795" lon="2.42299">
        <ele>31</ele>
        <time>2022-04-13T13:46:12Z</time>
      </trkpt>
      <trkpt lat="49.8795" lon="2.42298">
        <ele>31</ele>
        <time>2022-04-13T13:46:13Z</time>
      </trkpt>
      <trkpt lat="49.87949" lon="2.42298">
        <ele>31</ele>
        <time>2022-04-13T13:46:15Z</time>
      </trkpt>
      <trkpt lat="49.87947" lon="2.42297">
        <ele>31.1</ele>
        <time>2022-04-13T13:46:16Z</time>
      </trkpt>
      <trkpt lat="49.87946" lon="2.42297">
        <ele>31.1</ele>
        <time>2022-04-13T13:46:17Z</time>
      </trkpt>
      <trkpt lat="49.87945" lon="2.42297">
        <ele>31.1</ele>
        <time>2022-04-13T13:46:18Z</time>
      </trkpt>
      <trkpt lat="49.87944" lon="2.42297">
        <ele>31.2</ele>
        <time>2022-04-13T13:46:19Z</time>
      </trkpt>
      <trkpt lat="49.87942" lon="2.42297">
        <ele>31.2</ele>
        <time>2022-04-13T13:46:21Z</time>
      </trkpt>
      <trkpt lat="49.87941" lon="2.42297">
        <ele>31.3</ele>
        <time>2022-04-13T13:46:22Z</time>
      </trkpt>
      <trkpt lat="49.8794" lon="2.42297">
        <ele>31.3</ele>
        <time>2022-04-13T13:46:23Z</time>
      </trkpt>
      <trkpt lat="49.87939" lon="2.42297">
        <ele>31.3</ele>
        <time>2022-04-13T13:46:24Z</time>
      </trkpt>
      <trkpt lat="49.87939" lon="2.42297">
        <ele>31.3</ele>
        <time>2022-04-13T13:46:25Z</time>
      </trkpt>
      <trkpt lat="49.87938" lon="2.42297">
        <ele>31.4</ele>
        <time>2022-04-13T13:46:26Z</time>
      </trkpt>
      <trkpt lat="49.87937" lon="2.42297">
        <ele>31.4</ele>
        <time>2022-04-13T13:46:27Z</time>
      </trkpt>
      <trkpt lat="49.87935" lon="2.42297">
        <ele>31.4</ele>
        <time>2022-04-13T13:46:28Z</time>
      </trkpt>
      <trkpt lat="49.87934" lon="2.42296">
        <ele>31.5</ele>
        <time>2022-04-13T13:46:29Z</time>
      </trkpt>
      <trkpt lat="49.87933" lon="2.42296">
        <ele>31.5</ele>
        <time>2022-04-13T13:46:31Z</time>
      </trkpt>
      <trkpt lat="49.87932" lon="2.42296">
        <ele>31.6</ele>
        <time>2022-04-13T13:46:32Z</time>
      </trkpt>
      <trkpt lat="49.87931" lon="2.42296">
        <ele>31.6</ele>
        <time>2022-04-13T13:46:33Z</time>
      </trkpt>
      <trkpt lat="49.8793" lon="2.42296">
        <ele>31.6</ele>
        <time>2022-04-13T13:46:34Z</time>
      </trkpt>
      <trkpt lat="49.87929" lon="2.42296">
        <ele>31.7</ele>
        <time>2022-04-13T13:46:35Z</time>
      </trkpt>
      <trkpt lat="49.87927" lon="2.42296">
        <ele>31.7</ele>
        <time>2022-04-13T13:46:36Z</time>
      </trkpt>
      <trkpt lat="49.87926" lon="2.42296">
        <ele>31.7</ele>
        <time>2022-04-13T13:46:37Z</time>
      </trkpt>
      <trkpt lat="49.87924" lon="2.42296">
        <ele>31.8</ele>
        <time>2022-04-13T13:46:38Z</time>
      </trkpt>
      <trkpt lat="49.87923" lon="2.42296">
        <ele>31.8</ele>
        <time>2022-04-13T13:46:40Z</time>
      </trkpt>
      <trkpt lat="49.87923" lon="2.42296">
        <ele>31.9</ele>
        <time>2022-04-13T13:46:41Z</time>
      </trkpt>
      <trkpt lat="49.87922" lon="2.42296">
        <ele>31.9</ele>
        <time>2022-04-13T13:46:42Z</time>
      </trkpt>
      <trkpt lat="49.87921" lon="2.42296">
        <ele>31.9</ele>
        <time>2022-04-13T13:46:43Z</time>
      </trkpt>
      <trkpt lat="49.87919" lon="2.42296">
        <ele>32</ele>
        <time>2022-04-13T13:46:44Z</time>
      </trkpt>
      <trkpt lat="49.87917" lon="2.42296">
        <ele>32.1</ele>
        <time>2022-04-13T13:46:45Z</time>
      </trkpt>
      <trkpt lat="49.87917" lon="2.42296">
        <ele>32.1</ele>
        <time>2022-04-13T13:46:46Z</time>
      </trkpt>
      <trkpt lat="49.87916" lon="2.42297">
        <ele>32.1</ele>
        <time>2022-04-13T13:46:47Z</time>
      </trkpt>
      <trkpt lat="49.87915" lon="2.42296">
        <ele>32.2</ele>
        <time>2022-04-13T13:46:49Z</time>
      </trkpt>
      <trkpt lat="49.87913" lon="2.42297">
        <ele>32.2</ele>
        <time>2022-04-13T13:46:50Z</time>
      </trkpt>
      <trkpt lat="49.87912" lon="2.42296">
        <ele>32.2</ele>
        <time>2022-04-13T13:46:51Z</time>
      </trkpt>
      <trkpt lat="49.87911" lon="2.42296">
        <ele>32.3</ele>
        <time>2022-04-13T13:46:52Z</time>
      </trkpt>
      <trkpt lat="49.8791" lon="2.42296">
        <ele>32.3</ele>
        <time>2022-04-13T13:46:53Z</time>
      </trkpt>
      <trkpt lat="49.87909" lon="2.42296">
        <ele>32.4</ele>
        <time>2022-04-13T13:46:54Z</time>
      </trkpt>
      <trkpt lat="49.87907" lon="2.42296">
        <ele>32.5</ele>
        <time>2022-04-13T13:46:55Z</time>
      </trkpt>
      <trkpt lat="49.87906" lon="2.42296">
        <ele>32.5</ele>
        <time>2022-04-13T13:46:56Z</time>
      </trkpt>
      <trkpt lat="49.87905" lon="2.42296">
        <ele>32.5</ele>
        <time>2022-04-13T13:46:57Z</time>
      </trkpt>
      <trkpt lat="49.87903" lon="2.42296">
        <ele>32.6</ele>
        <time>2022-04-13T13:46:58Z</time>
      </trkpt>
      <trkpt lat="49.87902" lon="2.42296">
        <ele>32.7</ele>
        <time>2022-04-13T13:47:00Z</time>
      </trkpt>
      <trkpt lat="49.87901" lon="2.42296">
        <ele>32.7</ele>
        <time>2022-04-13T13:47:01Z</time>
      </trkpt>
      <trkpt lat="49.879" lon="2.42296">
        <ele>32.8</ele>
        <time>2022-04-13T13:47:02Z</time>
      </trkpt>
      <trkpt lat="49.87899" lon="2.42295">
        <ele>32.8</ele>
        <time>2022-04-13T13:47:03Z</time>
      </trkpt>
      <trkpt lat="49.87898" lon="2.42294">
        <ele>32.9</ele>
        <time>2022-04-13T13:47:04Z</time>
      </trkpt>
      <trkpt lat="49.87896" lon="2.42293">
        <ele>33</ele>
        <time>2022-04-13T13:47:05Z</time>
      </trkpt>
      <trkpt lat="49.87895" lon="2.42292">
        <ele>33</ele>
        <time>2022-04-13T13:47:07Z</time>
      </trkpt>
      <trkpt lat="49.87895" lon="2.42291">
        <ele>33.1</ele>
        <time>2022-04-13T13:47:08Z</time>
      </trkpt>
      <trkpt lat="49.87893" lon="2.42289">
        <ele>33.2</ele>
        <time>2022-04-13T13:47:09Z</time>
      </trkpt>
      <trkpt lat="49.87892" lon="2.42289">
        <ele>33.2</ele>
        <time>2022-04-13T13:47:10Z</time>
      </trkpt>
      <trkpt lat="49.87892" lon="2.42288">
        <ele>33.2</ele>
        <time>2022-04-13T13:47:11Z</time>
      </trkpt>
      <trkpt lat="49.87891" lon="2.42287">
        <ele>33.3</ele>
        <time>2022-04-13T13:47:12Z</time>
      </trkpt>
      <trkpt lat="49.87889" lon="2.42286">
        <ele>33.4</ele>
        <time>2022-04-13T13:47:13Z</time>
      </trkpt>
      <trkpt lat="49.87888" lon="2.42286">
        <ele>33.4</ele>
        <time>2022-04-13T13:47:15Z</time>
      </trkpt>
      <trkpt lat="49.87886" lon="2.42284">
        <ele>33.5</ele>
        <time>2022-04-13T13:47:16Z</time>
      </trkpt>
      <trkpt lat="49.87885" lon="2.42284">
        <ele>33.6</ele>
        <time>2022-04-13T13:47:17Z</time>
      </trkpt>
      <trkpt lat="49.87885" lon="2.42284">
        <ele>33.6</ele>
        <time>2022-04-13T13:47:18Z</time>
      </trkpt>
      <trkpt lat="49.87883" lon="2.42283">
        <ele>33.7</ele>
        <time>2022-04-13T13:47:19Z</time>
      </trkpt>
      <trkpt lat="49.87882" lon="2.42282">
        <ele>33.8</ele>
        <time>2022-04-13T13:47:21Z</time>
      </trkpt>
      <trkpt lat="49.87881" lon="2.42282">
        <ele>33.8</ele>
        <time>2022-04-13T13:47:22Z</time>
      </trkpt>
      <trkpt lat="49.8788" lon="2.42282">
        <ele>33.9</ele>
        <time>2022-04-13T13:47:23Z</time>
      </trkpt>
      <trkpt lat="49.87879" lon="2.42282">
        <ele>33.9</ele>
        <time>2022-04-13T13:47:24Z</time>
      </trkpt>
      <trkpt lat="49.87879" lon="2.42281">
        <ele>34</ele>
        <time>2022-04-13T13:47:25Z</time>
      </trkpt>
      <trkpt lat="49.87877" lon="2.42281">
        <ele>34.1</ele>
        <time>2022-04-13T13:47:26Z</time>
      </trkpt>
      <trkpt lat="49.87876" lon="2.42281">
        <ele>34.1</ele>
        <time>2022-04-13T13:47:27Z</time>
      </trkpt>
      <trkpt lat="49.87875" lon="2.4228">
        <ele>34.2</ele>
        <time>2022-04-13T13:47:28Z</time>
      </trkpt>
      <trkpt lat="49.87874" lon="2.4228">
        <ele>34.2</ele>
        <time>2022-04-13T13:47:30Z</time>
      </trkpt>
      <trkpt lat="49.87873" lon="2.42279">
        <ele>34.3</ele>
        <time>2022-04-13T13:47:31Z</time>
      </trkpt>
      <trkpt lat="49.87872" lon="2.42278">
        <ele>34.4</ele>
        <time>2022-04-13T13:47:32Z</time>
      </trkpt>
      <trkpt lat="49.87871" lon="2.42277">
        <ele>34.4</ele>
        <time>2022-04-13T13:47:33Z</time>
      </trkpt>
      <trkpt lat="49.8787" lon="2.42276">
        <ele>34.5</ele>
        <time>2022-04-13T13:47:34Z</time>
      </trkpt>
      <trkpt lat="49.87869" lon="2.42276">
        <ele>34.6</ele>
        <time>2022-04-13T13:47:36Z</time>
      </trkpt>
      <trkpt lat="49.87868" lon="2.42275">
        <ele>34.6</ele>
        <time>2022-04-13T13:47:37Z</time>
      </trkpt>
      <trkpt lat="49.87867" lon="2.42275">
        <ele>34.7</ele>
        <time>2022-04-13T13:47:38Z</time>
      </trkpt>
      <trkpt lat="49.87866" lon="2.42274">
        <ele>34.8</ele>
        <time>2022-04-13T13:47:39Z</time>
      </trkpt>
      <trkpt lat="49.87865" lon="2.42273">
        <ele>34.8</ele>
        <time>2022-04-13T13:47:40Z</time>
      </trkpt>
      <trkpt lat="49.87864" lon="2.42273">
        <ele>34.9</ele>
        <time>2022-04-13T13:47:41Z</time>
      </trkpt>
      <trkpt lat="49.87863" lon="2.42272">
        <ele>35</ele>
        <time>2022-04-13T13:47:43Z</time>
      </trkpt>
      <trkpt lat="49.87861" lon="2.42272">
        <ele>35.1</ele>
        <time>2022-04-13T13:47:44Z</time>
      </trkpt>
      <trkpt lat="49.8786" lon="2.42271">
        <ele>35.1</ele>
        <time>2022-04-13T13:47:45Z</time>
      </trkpt>
      <trkpt lat="49.87859" lon="2.4227">
        <ele>35.2</ele>
        <time>2022-04-13T13:47:46Z</time>
      </trkpt>
      <trkpt lat="49.87858" lon="2.4227">
        <ele>35.3</ele>
        <time>2022-04-13T13:47:47Z</time>
      </trkpt>
      <trkpt lat="49.87857" lon="2.42269">
        <ele>35.4</ele>
        <time>2022-04-13T13:47:49Z</time>
      </trkpt>
      <trkpt lat="49.87856" lon="2.42269">
        <ele>35.4</ele>
        <time>2022-04-13T13:47:50Z</time>
      </trkpt>
      <trkpt lat="49.87856" lon="2.42268">
        <ele>35.5</ele>
        <time>2022-04-13T13:47:51Z</time>
      </trkpt>
      <trkpt lat="49.87855" lon="2.42268">
        <ele>35.5</ele>
        <time>2022-04-13T13:47:52Z</time>
      </trkpt>
      <trkpt lat="49.87854" lon="2.42267">
        <ele>35.6</ele>
        <time>2022-04-13T13:47:53Z</time>
      </trkpt>
      <trkpt lat="49.87853" lon="2.42266">
        <ele>35.6</ele>
        <time>2022-04-13T13:47:54Z</time>
      </trkpt>
      <trkpt lat="49.87852" lon="2.42266">
        <ele>35.7</ele>
        <time>2022-04-13T13:47:55Z</time>
      </trkpt>
      <trkpt lat="49.87851" lon="2.42265">
        <ele>35.8</ele>
        <time>2022-04-13T13:47:56Z</time>
      </trkpt>
      <trkpt lat="49.8785" lon="2.42265">
        <ele>35.9</ele>
        <time>2022-04-13T13:47:57Z</time>
      </trkpt>
      <trkpt lat="49.87849" lon="2.42264">
        <ele>36</ele>
        <time>2022-04-13T13:47:58Z</time>
      </trkpt>
      <trkpt lat="49.87848" lon="2.42264">
        <ele>36</ele>
        <time>2022-04-13T13:47:59Z</time>
      </trkpt>
      <trkpt lat="49.87846" lon="2.42264">
        <ele>36.1</ele>
        <time>2022-04-13T13:48:01Z</time>
      </trkpt>
      <trkpt lat="49.87845" lon="2.42263">
        <ele>36.2</ele>
        <time>2022-04-13T13:48:02Z</time>
      </trkpt>
      <trkpt lat="49.87844" lon="2.42263">
        <ele>36.3</ele>
        <time>2022-04-13T13:48:03Z</time>
      </trkpt>
      <trkpt lat="49.87843" lon="2.42263">
        <ele>36.3</ele>
        <time>2022-04-13T13:48:04Z</time>
      </trkpt>
      <trkpt lat="49.87842" lon="2.42264">
        <ele>36.4</ele>
        <time>2022-04-13T13:48:05Z</time>
      </trkpt>
      <trkpt lat="49.87841" lon="2.42264">
        <ele>36.5</ele>
        <time>2022-04-13T13:48:06Z</time>
      </trkpt>
      <trkpt lat="49.8784" lon="2.42264">
        <ele>36.5</ele>
        <time>2022-04-13T13:48:07Z</time>
      </trkpt>
      <trkpt lat="49.87839" lon="2.42264">
        <ele>36.6</ele>
        <time>2022-04-13T13:48:08Z</time>
      </trkpt>
      <trkpt lat="49.87838" lon="2.42263">
        <ele>36.7</ele>
        <time>2022-04-13T13:48:09Z</time>
      </trkpt>
      <trkpt lat="49.87837" lon="2.42263">
        <ele>36.8</ele>
        <time>2022-04-13T13:48:11Z</time>
      </trkpt>
      <trkpt lat="49.87836" lon="2.42263">
        <ele>36.9</ele>
        <time>2022-04-13T13:48:12Z</time>
      </trkpt>
      <trkpt lat="49.87834" lon="2.42263">
        <ele>37</ele>
        <time>2022-04-13T13:48:13Z</time>
      </trkpt>
      <trkpt lat="49.87833" lon="2.42263">
        <ele>37</ele>
        <time>2022-04-13T13:48:14Z</time>
      </trkpt>
      <trkpt lat="49.87832" lon="2.42263">
        <ele>37.1</ele>
        <time>2022-04-13T13:48:16Z</time>
      </trkpt>
      <trkpt lat="49.87831" lon="2.42263">
        <ele>37.2</ele>
        <time>2022-04-13T13:48:17Z</time>
      </trkpt>
      <trkpt lat="49.8783" lon="2.42262">
        <ele>37.3</ele>
        <time>2022-04-13T13:48:18Z</time>
      </trkpt>
      <trkpt lat="49.87829" lon="2.42262">
        <ele>37.3</ele>
        <time>2022-04-13T13:48:19Z</time>
      </trkpt>
      <trkpt lat="49.87828" lon="2.42262">
        <ele>37.4</ele>
        <time>2022-04-13T13:48:20Z</time>
      </trkpt>
      <trkpt lat="49.87827" lon="2.42262">
        <ele>37.4</ele>
        <time>2022-04-13T13:48:21Z</time>
      </trkpt>
      <trkpt lat="49.87826" lon="2.42262">
        <ele>37.5</ele>
        <time>2022-04-13T13:48:22Z</time>
      </trkpt>
      <trkpt lat="49.87825" lon="2.42262">
        <ele>37.6</ele>
        <time>2022-04-13T13:48:23Z</time>
      </trkpt>
      <trkpt lat="49.87824" lon="2.42262">
        <ele>37.6</ele>
        <time>2022-04-13T13:48:24Z</time>
      </trkpt>
      <trkpt lat="49.87824" lon="2.42262">
        <ele>37.7</ele>
        <time>2022-04-13T13:48:25Z</time>
      </trkpt>
      <trkpt lat="49.87823" lon="2.42262">
        <ele>37.8</ele>
        <time>2022-04-13T13:48:26Z</time>
      </trkpt>
      <trkpt lat="49.87822" lon="2.42262">
        <ele>37.8</ele>
        <time>2022-04-13T13:48:27Z</time>
      </trkpt>
      <trkpt lat="49.87821" lon="2.42262">
        <ele>37.9</ele>
        <time>2022-04-13T13:48:28Z</time>
      </trkpt>
      <trkpt lat="49.8782" lon="2.42262">
        <ele>38</ele>
        <time>2022-04-13T13:48:29Z</time>
      </trkpt>
      <trkpt lat="49.87819" lon="2.42262">
        <ele>38</ele>
        <time>2022-04-13T13:48:31Z</time>
      </trkpt>
      <trkpt lat="49.87818" lon="2.42262">
        <ele>38.1</ele>
        <time>2022-04-13T13:48:32Z</time>
      </trkpt>
      <trkpt lat="49.87817" lon="2.42262">
        <ele>38.1</ele>
        <time>2022-04-13T13:48:33Z</time>
      </trkpt>
      <trkpt lat="49.87817" lon="2.42262">
        <ele>38.2</ele>
        <time>2022-04-13T13:48:34Z</time>
      </trkpt>
      <trkpt lat="49.87816" lon="2.42262">
        <ele>38.3</ele>
        <time>2022-04-13T13:48:35Z</time>
      </trkpt>
      <trkpt lat="49.87815" lon="2.42262">
        <ele>38.3</ele>
        <time>2022-04-13T13:48:36Z</time>
      </trkpt>
      <trkpt lat="49.87814" lon="2.42263">
        <ele>38.4</ele>
        <time>2022-04-13T13:48:37Z</time>
      </trkpt>
      <trkpt lat="49.87813" lon="2.42263">
        <ele>38.5</ele>
        <time>2022-04-13T13:48:39Z</time>
      </trkpt>
      <trkpt lat="49.87812" lon="2.42263">
        <ele>38.5</ele>
        <time>2022-04-13T13:48:40Z</time>
      </trkpt>
      <trkpt lat="49.87812" lon="2.42263">
        <ele>38.6</ele>
        <time>2022-04-13T13:48:41Z</time>
      </trkpt>
      <trkpt lat="49.87811" lon="2.42263">
        <ele>38.6</ele>
        <time>2022-04-13T13:48:42Z</time>
      </trkpt>
      <trkpt lat="49.87811" lon="2.42263">
        <ele>38.6</ele>
        <time>2022-04-13T13:48:43Z</time>
      </trkpt>
      <trkpt lat="49.8781" lon="2.42264">
        <ele>38.7</ele>
        <time>2022-04-13T13:48:44Z</time>
      </trkpt>
      <trkpt lat="49.87809" lon="2.42264">
        <ele>38.8</ele>
        <time>2022-04-13T13:48:45Z</time>
      </trkpt>
      <trkpt lat="49.87808" lon="2.42264">
        <ele>38.8</ele>
        <time>2022-04-13T13:48:46Z</time>
      </trkpt>
      <trkpt lat="49.87807" lon="2.42264">
        <ele>38.9</ele>
        <time>2022-04-13T13:48:48Z</time>
      </trkpt>
      <trkpt lat="49.87806" lon="2.42264">
        <ele>38.9</ele>
        <time>2022-04-13T13:48:49Z</time>
      </trkpt>
      <trkpt lat="49.87806" lon="2.42264">
        <ele>39</ele>
        <time>2022-04-13T13:48:50Z</time>
      </trkpt>
      <trkpt lat="49.87805" lon="2.42264">
        <ele>39.1</ele>
        <time>2022-04-13T13:48:51Z</time>
      </trkpt>
      <trkpt lat="49.87804" lon="2.42264">
        <ele>39.1</ele>
        <time>2022-04-13T13:48:52Z</time>
      </trkpt>
      <trkpt lat="49.87803" lon="2.42264">
        <ele>39.2</ele>
        <time>2022-04-13T13:48:53Z</time>
      </trkpt>
      <trkpt lat="49.87802" lon="2.42264">
        <ele>39.3</ele>
        <time>2022-04-13T13:48:55Z</time>
      </trkpt>
      <trkpt lat="49.87801" lon="2.42264">
        <ele>39.4</ele>
        <time>2022-04-13T13:48:56Z</time>
      </trkpt>
      <trkpt lat="49.87799" lon="2.42264">
        <ele>39.5</ele>
        <time>2022-04-13T13:48:57Z</time>
      </trkpt>
      <trkpt lat="49.87798" lon="2.42264">
        <ele>39.6</ele>
        <time>2022-04-13T13:48:58Z</time>
      </trkpt>
      <trkpt lat="49.87798" lon="2.42264">
        <ele>39.6</ele>
        <time>2022-04-13T13:48:59Z</time>
      </trkpt>
      <trkpt lat="49.87797" lon="2.42264">
        <ele>39.7</ele>
        <time>2022-04-13T13:49:00Z</time>
      </trkpt>
      <trkpt lat="49.87795" lon="2.42264">
        <ele>39.8</ele>
        <time>2022-04-13T13:49:01Z</time>
      </trkpt>
      <trkpt lat="49.87794" lon="2.42264">
        <ele>39.9</ele>
        <time>2022-04-13T13:49:03Z</time>
      </trkpt>
      <trkpt lat="49.87793" lon="2.42264">
        <ele>40</ele>
        <time>2022-04-13T13:49:04Z</time>
      </trkpt>
      <trkpt lat="49.87792" lon="2.42264">
        <ele>40</ele>
        <time>2022-04-13T13:49:05Z</time>
      </trkpt>
      <trkpt lat="49.87791" lon="2.42264">
        <ele>40.1</ele>
        <time>2022-04-13T13:49:06Z</time>
      </trkpt>
      <trkpt lat="49.8779" lon="2.42263">
        <ele>40.2</ele>
        <time>2022-04-13T13:49:07Z</time>
      </trkpt>
      <trkpt lat="49.87788" lon="2.42263">
        <ele>40.3</ele>
        <time>2022-04-13T13:49:08Z</time>
      </trkpt>
      <trkpt lat="49.87787" lon="2.42262">
        <ele>40.4</ele>
        <time>2022-04-13T13:49:09Z</time>
      </trkpt>
      <trkpt lat="49.87786" lon="2.42262">
        <ele>40.5</ele>
        <time>2022-04-13T13:49:11Z</time>
      </trkpt>
      <trkpt lat="49.87785" lon="2.42262">
        <ele>40.6</ele>
        <time>2022-04-13T13:49:12Z</time>
      </trkpt>
      <trkpt lat="49.87784" lon="2.42261">
        <ele>40.7</ele>
        <time>2022-04-13T13:49:13Z</time>
      </trkpt>
      <trkpt lat="49.87783" lon="2.42261">
        <ele>40.8</ele>
        <time>2022-04-13T13:49:14Z</time>
      </trkpt>
      <trkpt lat="49.87781" lon="2.4226">
        <ele>40.9</ele>
        <time>2022-04-13T13:49:15Z</time>
      </trkpt>
      <trkpt lat="49.8778" lon="2.4226">
        <ele>41</ele>
        <time>2022-04-13T13:49:16Z</time>
      </trkpt>
      <trkpt lat="49.87779" lon="2.4226">
        <ele>41.1</ele>
        <time>2022-04-13T13:49:17Z</time>
      </trkpt>
      <trkpt lat="49.87778" lon="2.42259">
        <ele>41.2</ele>
        <time>2022-04-13T13:49:19Z</time>
      </trkpt>
      <trkpt lat="49.87776" lon="2.42259">
        <ele>41.3</ele>
        <time>2022-04-13T13:49:20Z</time>
      </trkpt>
      <trkpt lat="49.87775" lon="2.42259">
        <ele>41.3</ele>
        <time>2022-04-13T13:49:21Z</time>
      </trkpt>
      <trkpt lat="49.87774" lon="2.42259">
        <ele>41.4</ele>
        <time>2022-04-13T13:49:22Z</time>
      </trkpt>
      <trkpt lat="49.87774" lon="2.42259">
        <ele>41.5</ele>
        <time>2022-04-13T13:49:23Z</time>
      </trkpt>
      <trkpt lat="49.87773" lon="2.42259">
        <ele>41.6</ele>
        <time>2022-04-13T13:49:24Z</time>
      </trkpt>
      <trkpt lat="49.87772" lon="2.42259">
        <ele>41.7</ele>
        <time>2022-04-13T13:49:25Z</time>
      </trkpt>
      <trkpt lat="49.87771" lon="2.42258">
        <ele>41.7</ele>
        <time>2022-04-13T13:49:26Z</time>
      </trkpt>
      <trkpt lat="49.8777" lon="2.42258">
        <ele>41.8</ele>
        <time>2022-04-13T13:49:27Z</time>
      </trkpt>
      <trkpt lat="49.87769" lon="2.42257">
        <ele>41.9</ele>
        <time>2022-04-13T13:49:28Z</time>
      </trkpt>
      <trkpt lat="49.87768" lon="2.42257">
        <ele>41.9</ele>
        <time>2022-04-13T13:49:29Z</time>
      </trkpt>
      <trkpt lat="49.87768" lon="2.42257">
        <ele>42</ele>
        <time>2022-04-13T13:49:30Z</time>
      </trkpt>
      <trkpt lat="49.87767" lon="2.42256">
        <ele>42.1</ele>
        <time>2022-04-13T13:49:31Z</time>
      </trkpt>
      <trkpt lat="49.87765" lon="2.42256">
        <ele>42.2</ele>
        <time>2022-04-13T13:49:32Z</time>
      </trkpt>
      <trkpt lat="49.87764" lon="2.42256">
        <ele>42.3</ele>
        <time>2022-04-13T13:49:33Z</time>
      </trkpt>
      <trkpt lat="49.87763" lon="2.42255">
        <ele>42.4</ele>
        <time>2022-04-13T13:49:35Z</time>
      </trkpt>
      <trkpt lat="49.87762" lon="2.42254">
        <ele>42.5</ele>
        <time>2022-04-13T13:49:36Z</time>
      </trkpt>
      <trkpt lat="49.87761" lon="2.42253">
        <ele>42.6</ele>
        <time>2022-04-13T13:49:37Z</time>
      </trkpt>
      <trkpt lat="49.87761" lon="2.42252">
        <ele>42.7</ele>
        <time>2022-04-13T13:49:38Z</time>
      </trkpt>
      <trkpt lat="49.8776" lon="2.4225">
        <ele>42.8</ele>
        <time>2022-04-13T13:49:40Z</time>
      </trkpt>
      <trkpt lat="49.87759" lon="2.4225">
        <ele>42.9</ele>
        <time>2022-04-13T13:49:41Z</time>
      </trkpt>
      <trkpt lat="49.87758" lon="2.42249">
        <ele>42.9</ele>
        <time>2022-04-13T13:49:42Z</time>
      </trkpt>
      <trkpt lat="49.87757" lon="2.42249">
        <ele>43</ele>
        <time>2022-04-13T13:49:43Z</time>
      </trkpt>
      <trkpt lat="49.87756" lon="2.42249">
        <ele>43.1</ele>
        <time>2022-04-13T13:49:44Z</time>
      </trkpt>
      <trkpt lat="49.87755" lon="2.42248">
        <ele>43.2</ele>
        <time>2022-04-13T13:49:46Z</time>
      </trkpt>
      <trkpt lat="49.87754" lon="2.42248">
        <ele>43.3</ele>
        <time>2022-04-13T13:49:47Z</time>
      </trkpt>
      <trkpt lat="49.87754" lon="2.42247">
        <ele>43.4</ele>
        <time>2022-04-13T13:49:48Z</time>
      </trkpt>
      <trkpt lat="49.87753" lon="2.42246">
        <ele>43.4</ele>
        <time>2022-04-13T13:49:49Z</time>
      </trkpt>
      <trkpt lat="49.87753" lon="2.42246">
        <ele>43.5</ele>
        <time>2022-04-13T13:49:50Z</time>
      </trkpt>
      <trkpt lat="49.87751" lon="2.42245">
        <ele>43.6</ele>
        <time>2022-04-13T13:49:52Z</time>
      </trkpt>
      <trkpt lat="49.87751" lon="2.42245">
        <ele>43.7</ele>
        <time>2022-04-13T13:49:53Z</time>
      </trkpt>
      <trkpt lat="49.8775" lon="2.42245">
        <ele>43.7</ele>
        <time>2022-04-13T13:49:54Z</time>
      </trkpt>
      <trkpt lat="49.8775" lon="2.42245">
        <ele>43.7</ele>
        <time>2022-04-13T13:49:55Z</time>
      </trkpt>
      <trkpt lat="49.8775" lon="2.42245">
        <ele>43.7</ele>
        <time>2022-04-13T13:49:56Z</time>
      </trkpt>
      <trkpt lat="49.8775" lon="2.42245">
        <ele>43.7</ele>
        <time>2022-04-13T13:49:57Z</time>
      </trkpt>
      <trkpt lat="49.8775" lon="2.42245">
        <ele>43.8</ele>
        <time>2022-04-13T13:49:58Z</time>
      </trkpt>
      <trkpt lat="49.8775" lon="2.42245">
        <ele>43.8</ele>
        <time>2022-04-13T13:49:59Z</time>
      </trkpt>
      <trkpt lat="49.8775" lon="2.42245">
        <ele>43.8</ele>
        <time>2022-04-13T13:50:00Z</time>
      </trkpt>
      <trkpt lat="49.8775" lon="2.42245">
        <ele>43.8</ele>
        <time>2022-04-13T13:50:01Z</time>
      </trkpt>
      <trkpt lat="49.8775" lon="2.42245">
        <ele>43.8</ele>
        <time>2022-04-13T13:50:02Z</time>
      </trkpt>
      <trkpt lat="49.8775" lon="2.42245">
        <ele>43.8</ele>
        <time>2022-04-13T13:50:03Z</time>
      </trkpt>
      <trkpt lat="49.8775" lon="2.42245">
        <ele>43.8</ele>
        <time>2022-04-13T13:50:04Z</time>
      </trkpt>
      <trkpt lat="49.8775" lon="2.42245">
        <ele>43.8</ele>
        <time>2022-04-13T13:50:05Z</time>
      </trkpt>
      <trkpt lat="49.8775" lon="2.42245">
        <ele>43.8</ele>
        <time>2022-04-13T13:50:06Z</time>
      </trkpt>
      <trkpt lat="49.8775" lon="2.42244">
        <ele>43.8</ele>
        <time>2022-04-13T13:50:07Z</time>
      </trkpt>
      <trkpt lat="49.8775" lon="2.42244">
        <ele>43.8</ele>
        <time>2022-04-13T13:50:08Z</time>
      </trkpt>
      <trkpt lat="49.8775" lon="2.42244">
        <ele>43.8</ele>
        <time>2022-04-13T13:50:09Z</time>
      </trkpt>
      <trkpt lat="49.8775" lon="2.42244">
        <ele>43.8</ele>
        <time>2022-04-13T13:50:10Z</time>
      </trkpt>
      <trkpt lat="49.8775" lon="2.42244">
        <ele>43.8</ele>
        <time>2022-04-13T13:50:11Z</time>
      </trkpt>
      <trkpt lat="49.8775" lon="2.42244">
        <ele>43.8</ele>
        <time>2022-04-13T13:50:12Z</time>
      </trkpt>
      <trkpt lat="49.8775" lon="2.42244">
        <ele>43.9</ele>
        <time>2022-04-13T13:50:13Z</time>
      </trkpt>
      <trkpt lat="49.8775" lon="2.42244">
        <ele>43.9</ele>
        <time>2022-04-13T13:50:14Z</time>
      </trkpt>
      <trkpt lat="49.8775" lon="2.42244">
        <ele>43.9</ele>
        <time>2022-04-13T13:50:15Z</time>
      </trkpt>
      <trkpt lat="49.8775" lon="2.42244">
        <ele>43.9</ele>
        <time>2022-04-13T13:50:16Z</time>
      </trkpt>
      <trkpt lat="49.8775" lon="2.42244">
        <ele>43.9</ele>
        <time>2022-04-13T13:50:17Z</time>
      </trkpt>
      <trkpt lat="49.8775" lon="2.42244">
        <ele>43.9</ele>
        <time>2022-04-13T13:50:18Z</time>
      </trkpt>
      <trkpt lat="49.8775" lon="2.42244">
        <ele>43.9</ele>
        <time>2022-04-13T13:50:19Z</time>
      </trkpt>
      <trkpt lat="49.8775" lon="2.42244">
        <ele>43.9</ele>
        <time>2022-04-13T13:50:20Z</time>
      </trkpt>
      <trkpt lat="49.8775" lon="2.42244">
        <ele>43.9</ele>
        <time>2022-04-13T13:50:21Z</time>
      </trkpt>
      <trkpt lat="49.8775" lon="2.42244">
        <ele>43.9</ele>
        <time>2022-04-13T13:50:22Z</time>
      </trkpt>
      <trkpt lat="49.8775" lon="2.42244">
        <ele>43.9</ele>
        <time>2022-04-13T13:50:23Z</time>
      </trkpt>
      <trkpt lat="49.87751" lon="2.42244">
        <ele>43.9</ele>
        <time>2022-04-13T13:50:24Z</time>
      </trkpt>
      <trkpt lat="49.87751" lon="2.42244">
        <ele>43.9</ele>
        <time>2022-04-13T13:50:25Z</time>
      </trkpt>
      <trkpt lat="49.87751" lon="2.42244">
        <ele>43.9</ele>
        <time>2022-04-13T13:50:26Z</time>
      </trkpt>
      <trkpt lat="49.87751" lon="2.42243">
        <ele>43.9</ele>
        <time>2022-04-13T13:50:27Z</time>
      </trkpt>
      <trkpt lat="49.87751" lon="2.42243">
        <ele>43.9</ele>
        <time>2022-04-13T13:50:28Z</time>
      </trkpt>
      <trkpt lat="49.87751" lon="2.42243">
        <ele>43.9</ele>
        <time>2022-04-13T13:50:29Z</time>
      </trkpt>
      <trkpt lat="49.87751" lon="2.42243">
        <ele>43.9</ele>
        <time>2022-04-13T13:50:30Z</time>
      </trkpt>
      <trkpt lat="49.87751" lon="2.42243">
        <ele>43.9</ele>
        <time>2022-04-13T13:50:31Z</time>
      </trkpt>
      <trkpt lat="49.87751" lon="2.42243">
        <ele>43.9</ele>
        <time>2022-04-13T13:50:32Z</time>
      </trkpt>
      <trkpt lat="49.87751" lon="2.42243">
        <ele>43.9</ele>
        <time>2022-04-13T13:50:33Z</time>
      </trkpt>
      <trkpt lat="49.87751" lon="2.42243">
        <ele>43.9</ele>
        <time>2022-04-13T13:50:34Z</time>
      </trkpt>
      <trkpt lat="49.87751" lon="2.42243">
        <ele>43.9</ele>
        <time>2022-04-13T13:50:35Z</time>
      </trkpt>
      <trkpt lat="49.87751" lon="2.42243">
        <ele>43.9</ele>
        <time>2022-04-13T13:50:36Z</time>
      </trkpt>
      <trkpt lat="49.87751" lon="2.42243">
        <ele>44</ele>
        <time>2022-04-13T13:50:37Z</time>
      </trkpt>
      <trkpt lat="49.87751" lon="2.42243">
        <ele>44</ele>
        <time>2022-04-13T13:50:38Z</time>
      </trkpt>
      <trkpt lat="49.87751" lon="2.42243">
        <ele>44</ele>
        <time>2022-04-13T13:50:39Z</time>
      </trkpt>
      <trkpt lat="49.87751" lon="2.42243">
        <ele>44</ele>
        <time>2022-04-13T13:50:40Z</time>
      </trkpt>
      <trkpt lat="49.87751" lon="2.42243">
        <ele>44</ele>
        <time>2022-04-13T13:50:41Z</time>
      </trkpt>
      <trkpt lat="49.87751" lon="2.42243">
        <ele>44</ele>
        <time>2022-04-13T13:50:42Z</time>
      </trkpt>
      <trkpt lat="49.87751" lon="2.42243">
        <ele>44</ele>
        <time>2022-04-13T13:50:43Z</time>
      </trkpt>
      <trkpt lat="49.87751" lon="2.42243">
        <ele>44</ele>
        <time>2022-04-13T13:50:44Z</time>
      </trkpt>
      <trkpt lat="49.87751" lon="2.42243">
        <ele>44</ele>
        <time>2022-04-13T13:50:45Z</time>
      </trkpt>
      <trkpt lat="49.87751" lon="2.42243">
        <ele>44</ele>
        <time>2022-04-13T13:50:46Z</time>
      </trkpt>
      <trkpt lat="49.87751" lon="2.42242">
        <ele>44</ele>
        <time>2022-04-13T13:50:47Z</time>
      </trkpt>
      <trkpt lat="49.87751" lon="2.42242">
        <ele>44</ele>
        <time>2022-04-13T13:50:48Z</time>
      </trkpt>
      <trkpt lat="49.87751" lon="2.42242">
        <ele>44</ele>
        <time>2022-04-13T13:50:49Z</time>
      </trkpt>
      <trkpt lat="49.87751" lon="2.42242">
        <ele>44</ele>
        <time>2022-04-13T13:50:50Z</time>
      </trkpt>
      <trkpt lat="49.87751" lon="2.42242">
        <ele>44</ele>
        <time>2022-04-13T13:50:51Z</time>
      </trkpt>
      <trkpt lat="49.87751" lon="2.42242">
        <ele>44</ele>
        <time>2022-04-13T13:50:52Z</time>
      </trkpt>
      <trkpt lat="49.87751" lon="2.42242">
        <ele>44</ele>
        <time>2022-04-13T13:50:53Z</time>
      </trkpt>
      <trkpt lat="49.87751" lon="2.42242">
        <ele>44</ele>
        <time>2022-04-13T13:50:54Z</time>
      </trkpt>
      <trkpt lat="49.87751" lon="2.42242">
        <ele>44</ele>
        <time>2022-04-13T13:50:55Z</time>
      </trkpt>
      <trkpt lat="49.87751" lon="2.42242">
        <ele>44</ele>
        <time>2022-04-13T13:50:56Z</time>
      </trkpt>
      <trkpt lat="49.87751" lon="2.42242">
        <ele>44</ele>
        <time>2022-04-13T13:50:57Z</time>
      </trkpt>
      <trkpt lat="49.87751" lon="2.42242">
        <ele>44</ele>
        <time>2022-04-13T13:50:58Z</time>
      </trkpt>
      <trkpt lat="49.87751" lon="2.42242">
        <ele>44</ele>
        <time>2022-04-13T13:50:59Z</time>
      </trkpt>
      <trkpt lat="49.87751" lon="2.42242">
        <ele>44.1</ele>
        <time>2022-04-13T13:51:00Z</time>
      </trkpt>
      <trkpt lat="49.87751" lon="2.42242">
        <ele>44.1</ele>
        <time>2022-04-13T13:51:01Z</time>
      </trkpt>
      <trkpt lat="49.87751" lon="2.42242">
        <ele>44.1</ele>
        <time>2022-04-13T13:51:02Z</time>
      </trkpt>
      <trkpt lat="49.87751" lon="2.42242">
        <ele>44.1</ele>
        <time>2022-04-13T13:51:03Z</time>
      </trkpt>
      <trkpt lat="49.87751" lon="2.42242">
        <ele>44.1</ele>
        <time>2022-04-13T13:51:04Z</time>
      </trkpt>
      <trkpt lat="49.87751" lon="2.42242">
        <ele>44.1</ele>
        <time>2022-04-13T13:51:05Z</time>
      </trkpt>
      <trkpt lat="49.87751" lon="2.42242">
        <ele>44.1</ele>
        <time>2022-04-13T13:51:06Z</time>
      </trkpt>
      <trkpt lat="49.87751" lon="2.42241">
        <ele>44.1</ele>
        <time>2022-04-13T13:51:07Z</time>
      </trkpt>
      <trkpt lat="49.87751" lon="2.42241">
        <ele>44.1</ele>
        <time>2022-04-13T13:51:08Z</time>
      </trkpt>
      <trkpt lat="49.87752" lon="2.42241">
        <ele>44.1</ele>
        <time>2022-04-13T13:51:09Z</time>
      </trkpt>
      <trkpt lat="49.87752" lon="2.42241">
        <ele>44.1</ele>
        <time>2022-04-13T13:51:10Z</time>
      </trkpt>
      <trkpt lat="49.87752" lon="2.42241">
        <ele>44.1</ele>
        <time>2022-04-13T13:51:11Z</time>
      </trkpt>
      <trkpt lat="49.87752" lon="2.42241">
        <ele>44.1</ele>
        <time>2022-04-13T13:51:12Z</time>
      </trkpt>
      <trkpt lat="49.87752" lon="2.42241">
        <ele>44.1</ele>
        <time>2022-04-13T13:51:13Z</time>
      </trkpt>
      <trkpt lat="49.87752" lon="2.42241">
        <ele>44.1</ele>
        <time>2022-04-13T13:51:14Z</time>
      </trkpt>
      <trkpt lat="49.87752" lon="2.42241">
        <ele>44.1</ele>
        <time>2022-04-13T13:51:15Z</time>
      </trkpt>
      <trkpt lat="49.87752" lon="2.42241">
        <ele>44.1</ele>
        <time>2022-04-13T13:51:16Z</time>
      </trkpt>
      <trkpt lat="49.87752" lon="2.42241">
        <ele>44.1</ele>
        <time>2022-04-13T13:51:17Z</time>
      </trkpt>
      <trkpt lat="49.87752" lon="2.42241">
        <ele>44.1</ele>
        <time>2022-04-13T13:51:18Z</time>
      </trkpt>
      <trkpt lat="49.87752" lon="2.42241">
        <ele>44.1</ele>
        <time>2022-04-13T13:51:19Z</time>
      </trkpt>
      <trkpt lat="49.87752" lon="2.42241">
        <ele>44.1</ele>
        <time>2022-04-13T13:51:20Z</time>
      </trkpt>
      <trkpt lat="49.87752" lon="2.42241">
        <ele>44.1</ele>
        <time>2022-04-13T13:51:21Z</time>
      </trkpt>
      <trkpt lat="49.87752" lon="2.42241">
        <ele>44.1</ele>
        <time>2022-04-13T13:51:22Z</time>
      </trkpt>
      <trkpt lat="49.87752" lon="2.42241">
        <ele>44.2</ele>
        <time>2022-04-13T13:51:23Z</time>
      </trkpt>
      <trkpt lat="49.87752" lon="2.42241">
        <ele>44.2</ele>
        <time>2022-04-13T13:51:24Z</time>
      </trkpt>
      <trkpt lat="49.87752" lon="2.42241">
        <ele>44.2</ele>
        <time>2022-04-13T13:51:25Z</time>
      </trkpt>
      <trkpt lat="49.87752" lon="2.42241">
        <ele>44.2</ele>
        <time>2022-04-13T13:51:26Z</time>
      </trkpt>
      <trkpt lat="49.87752" lon="2.4224">
        <ele>44.2</ele>
        <time>2022-04-13T13:51:27Z</time>
      </trkpt>
      <trkpt lat="49.87752" lon="2.4224">
        <ele>44.2</ele>
        <time>2022-04-13T13:51:28Z</time>
      </trkpt>
      <trkpt lat="49.87752" lon="2.4224">
        <ele>44.2</ele>
        <time>2022-04-13T13:51:29Z</time>
      </trkpt>
      <trkpt lat="49.87752" lon="2.4224">
        <ele>44.2</ele>
        <time>2022-04-13T13:51:30Z</time>
      </trkpt>
      <trkpt lat="49.87752" lon="2.42239">
        <ele>44.3</ele>
        <time>2022-04-13T13:51:31Z</time>
      </trkpt>
      <trkpt lat="49.87752" lon="2.42238">
        <ele>44.3</ele>
        <time>2022-04-13T13:51:32Z</time>
      </trkpt>
      <trkpt lat="49.87751" lon="2.42238">
        <ele>44.3</ele>
        <time>2022-04-13T13:51:33Z</time>
      </trkpt>
      <trkpt lat="49.87751" lon="2.42237">
        <ele>45</ele>
        <time>2022-04-13T13:51:34Z</time>
      </trkpt>
      <trkpt lat="49.87751" lon="2.42236">
        <ele>45.1</ele>
        <time>2022-04-13T13:51:35Z</time>
      </trkpt>
      <trkpt lat="49.87751" lon="2.42236">
        <ele>45.1</ele>
        <time>2022-04-13T13:51:36Z</time>
      </trkpt>
      <trkpt lat="49.87751" lon="2.42237">
        <ele>45.1</ele>
        <time>2022-04-13T13:51:37Z</time>
      </trkpt>
      <trkpt lat="49.87751" lon="2.42236">
        <ele>45.1</ele>
        <time>2022-04-13T13:51:38Z</time>
      </trkpt>
      <trkpt lat="49.8775" lon="2.42236">
        <ele>45.2</ele>
        <time>2022-04-13T13:51:39Z</time>
      </trkpt>
      <trkpt lat="49.87749" lon="2.42235">
        <ele>45.2</ele>
        <time>2022-04-13T13:51:40Z</time>
      </trkpt>
      <trkpt lat="49.87748" lon="2.42234">
        <ele>45.3</ele>
        <time>2022-04-13T13:51:41Z</time>
      </trkpt>
      <trkpt lat="49.87748" lon="2.42232">
        <ele>45.4</ele>
        <time>2022-04-13T13:51:43Z</time>
      </trkpt>
      <trkpt lat="49.87747" lon="2.4223">
        <ele>45.5</ele>
        <time>2022-04-13T13:51:44Z</time>
      </trkpt>
      <trkpt lat="49.87746" lon="2.42228">
        <ele>45.5</ele>
        <time>2022-04-13T13:51:45Z</time>
      </trkpt>
      <trkpt lat="49.87745" lon="2.42226">
        <ele>45.6</ele>
        <time>2022-04-13T13:51:46Z</time>
      </trkpt>
      <trkpt lat="49.87745" lon="2.42224">
        <ele>45.7</ele>
        <time>2022-04-13T13:51:47Z</time>
      </trkpt>
      <trkpt lat="49.87745" lon="2.42221">
        <ele>45.8</ele>
        <time>2022-04-13T13:51:48Z</time>
      </trkpt>
      <trkpt lat="49.87744" lon="2.42218">
        <ele>45.9</ele>
        <time>2022-04-13T13:51:49Z</time>
      </trkpt>
      <trkpt lat="49.87744" lon="2.42217">
        <ele>46</ele>
        <time>2022-04-13T13:51:51Z</time>
      </trkpt>
      <trkpt lat="49.87744" lon="2.42216">
        <ele>46</ele>
        <time>2022-04-13T13:51:52Z</time>
      </trkpt>
      <trkpt lat="49.87744" lon="2.42214">
        <ele>46.1</ele>
        <time>2022-04-13T13:51:53Z</time>
      </trkpt>
      <trkpt lat="49.87743" lon="2.42213">
        <ele>46.1</ele>
        <time>2022-04-13T13:51:54Z</time>
      </trkpt>
      <trkpt lat="49.87743" lon="2.42211">
        <ele>46.2</ele>
        <time>2022-04-13T13:51:55Z</time>
      </trkpt>
      <trkpt lat="49.87743" lon="2.42209">
        <ele>46.2</ele>
        <time>2022-04-13T13:51:56Z</time>
      </trkpt>
      <trkpt lat="49.87742" lon="2.42207">
        <ele>46.3</ele>
        <time>2022-04-13T13:51:58Z</time>
      </trkpt>
      <trkpt lat="49.87741" lon="2.42205">
        <ele>46.4</ele>
        <time>2022-04-13T13:51:59Z</time>
      </trkpt>
      <trkpt lat="49.87741" lon="2.42204">
        <ele>46.4</ele>
        <time>2022-04-13T13:52:00Z</time>
      </trkpt>
      <trkpt lat="49.8774" lon="2.42205">
        <ele>46.5</ele>
        <time>2022-04-13T13:52:01Z</time>
      </trkpt>
      <trkpt lat="49.8774" lon="2.42204">
        <ele>46.5</ele>
        <time>2022-04-13T13:52:03Z</time>
      </trkpt>
      <trkpt lat="49.87739" lon="2.42204">
        <ele>46.5</ele>
        <time>2022-04-13T13:52:04Z</time>
      </trkpt>
      <trkpt lat="49.87739" lon="2.42203">
        <ele>46.5</ele>
        <time>2022-04-13T13:52:05Z</time>
      </trkpt>
      <trkpt lat="49.87738" lon="2.42202">
        <ele>46.6</ele>
        <time>2022-04-13T13:52:06Z</time>
      </trkpt>
      <trkpt lat="49.87738" lon="2.42201">
        <ele>46.6</ele>
        <time>2022-04-13T13:52:08Z</time>
      </trkpt>
      <trkpt lat="49.87737" lon="2.42199">
        <ele>46.7</ele>
        <time>2022-04-13T13:52:09Z</time>
      </trkpt>
      <trkpt lat="49.87737" lon="2.42198">
        <ele>46.7</ele>
        <time>2022-04-13T13:52:10Z</time>
      </trkpt>
      <trkpt lat="49.87737" lon="2.42196">
        <ele>46.8</ele>
        <time>2022-04-13T13:52:11Z</time>
      </trkpt>
      <trkpt lat="49.87736" lon="2.42195">
        <ele>46.8</ele>
        <time>2022-04-13T13:52:12Z</time>
      </trkpt>
      <trkpt lat="49.87736" lon="2.42194">
        <ele>46.9</ele>
        <time>2022-04-13T13:52:13Z</time>
      </trkpt>
      <trkpt lat="49.87735" lon="2.42193">
        <ele>46.9</ele>
        <time>2022-04-13T13:52:14Z</time>
      </trkpt>
      <trkpt lat="49.87735" lon="2.42191">
        <ele>47</ele>
        <time>2022-04-13T13:52:15Z</time>
      </trkpt>
      <trkpt lat="49.87733" lon="2.4219">
        <ele>47</ele>
        <time>2022-04-13T13:52:16Z</time>
      </trkpt>
      <trkpt lat="49.87733" lon="2.42189">
        <ele>47.1</ele>
        <time>2022-04-13T13:52:17Z</time>
      </trkpt>
      <trkpt lat="49.87732" lon="2.42188">
        <ele>47.1</ele>
        <time>2022-04-13T13:52:18Z</time>
      </trkpt>
      <trkpt lat="49.87731" lon="2.42187">
        <ele>47.2</ele>
        <time>2022-04-13T13:52:20Z</time>
      </trkpt>
      <trkpt lat="49.87731" lon="2.42186">
        <ele>47.2</ele>
        <time>2022-04-13T13:52:21Z</time>
      </trkpt>
      <trkpt lat="49.8773" lon="2.42185">
        <ele>47.3</ele>
        <time>2022-04-13T13:52:22Z</time>
      </trkpt>
      <trkpt lat="49.87728" lon="2.42184">
        <ele>47.4</ele>
        <time>2022-04-13T13:52:23Z</time>
      </trkpt>
      <trkpt lat="49.87726" lon="2.42182">
        <ele>47.5</ele>
        <time>2022-04-13T13:52:24Z</time>
      </trkpt>
      <trkpt lat="49.87725" lon="2.42181">
        <ele>47.5</ele>
        <time>2022-04-13T13:52:26Z</time>
      </trkpt>
      <trkpt lat="49.87724" lon="2.42179">
        <ele>47.6</ele>
        <time>2022-04-13T13:52:27Z</time>
      </trkpt>
      <trkpt lat="49.87723" lon="2.42176">
        <ele>47.7</ele>
        <time>2022-04-13T13:52:28Z</time>
      </trkpt>
      <trkpt lat="49.87723" lon="2.42174">
        <ele>47.7</ele>
        <time>2022-04-13T13:52:29Z</time>
      </trkpt>
      <trkpt lat="49.87722" lon="2.42172">
        <ele>47.8</ele>
        <time>2022-04-13T13:52:30Z</time>
      </trkpt>
      <trkpt lat="49.87722" lon="2.4217">
        <ele>47.9</ele>
        <time>2022-04-13T13:52:31Z</time>
      </trkpt>
      <trkpt lat="49.87721" lon="2.42168">
        <ele>47.9</ele>
        <time>2022-04-13T13:52:32Z</time>
      </trkpt>
      <trkpt lat="49.87721" lon="2.42165">
        <ele>48</ele>
        <time>2022-04-13T13:52:34Z</time>
      </trkpt>
      <trkpt lat="49.87721" lon="2.42164">
        <ele>48.1</ele>
        <time>2022-04-13T13:52:35Z</time>
      </trkpt>
      <trkpt lat="49.8772" lon="2.42162">
        <ele>48.1</ele>
        <time>2022-04-13T13:52:36Z</time>
      </trkpt>
      <trkpt lat="49.8772" lon="2.42159">
        <ele>48.2</ele>
        <time>2022-04-13T13:52:37Z</time>
      </trkpt>
      <trkpt lat="49.8772" lon="2.42158">
        <ele>48.2</ele>
        <time>2022-04-13T13:52:38Z</time>
      </trkpt>
      <trkpt lat="49.8772" lon="2.42157">
        <ele>48.2</ele>
        <time>2022-04-13T13:52:39Z</time>
      </trkpt>
      <trkpt lat="49.87719" lon="2.42154">
        <ele>48.3</ele>
        <time>2022-04-13T13:52:40Z</time>
      </trkpt>
      <trkpt lat="49.87718" lon="2.42153">
        <ele>48.4</ele>
        <time>2022-04-13T13:52:41Z</time>
      </trkpt>
      <trkpt lat="49.87718" lon="2.42152">
        <ele>48.4</ele>
        <time>2022-04-13T13:52:43Z</time>
      </trkpt>
      <trkpt lat="49.87717" lon="2.42151">
        <ele>48.4</ele>
        <time>2022-04-13T13:52:44Z</time>
      </trkpt>
      <trkpt lat="49.87717" lon="2.4215">
        <ele>48.5</ele>
        <time>2022-04-13T13:52:45Z</time>
      </trkpt>
      <trkpt lat="49.87716" lon="2.42149">
        <ele>48.5</ele>
        <time>2022-04-13T13:52:46Z</time>
      </trkpt>
      <trkpt lat="49.87716" lon="2.42148">
        <ele>48.5</ele>
        <time>2022-04-13T13:52:47Z</time>
      </trkpt>
      <trkpt lat="49.87715" lon="2.42146">
        <ele>48.6</ele>
        <time>2022-04-13T13:52:48Z</time>
      </trkpt>
      <trkpt lat="49.87715" lon="2.42145">
        <ele>48.6</ele>
        <time>2022-04-13T13:52:49Z</time>
      </trkpt>
      <trkpt lat="49.87714" lon="2.42143">
        <ele>48.7</ele>
        <time>2022-04-13T13:52:51Z</time>
      </trkpt>
      <trkpt lat="49.87714" lon="2.42142">
        <ele>48.7</ele>
        <time>2022-04-13T13:52:52Z</time>
      </trkpt>
      <trkpt lat="49.87713" lon="2.42141">
        <ele>48.8</ele>
        <time>2022-04-13T13:52:53Z</time>
      </trkpt>
      <trkpt lat="49.87712" lon="2.42139">
        <ele>48.8</ele>
        <time>2022-04-13T13:52:54Z</time>
      </trkpt>
      <trkpt lat="49.87712" lon="2.42138">
        <ele>48.8</ele>
        <time>2022-04-13T13:52:55Z</time>
      </trkpt>
      <trkpt lat="49.87711" lon="2.42136">
        <ele>48.9</ele>
        <time>2022-04-13T13:52:57Z</time>
      </trkpt>
      <trkpt lat="49.87711" lon="2.42135">
        <ele>48.9</ele>
        <time>2022-04-13T13:52:58Z</time>
      </trkpt>
      <trkpt lat="49.8771" lon="2.42134">
        <ele>49</ele>
        <time>2022-04-13T13:52:59Z</time>
      </trkpt>
      <trkpt lat="49.8771" lon="2.42133">
        <ele>49</ele>
        <time>2022-04-13T13:53:00Z</time>
      </trkpt>
      <trkpt lat="49.87709" lon="2.42132">
        <ele>49</ele>
        <time>2022-04-13T13:53:01Z</time>
      </trkpt>
      <trkpt lat="49.87709" lon="2.4213">
        <ele>49.1</ele>
        <time>2022-04-13T13:53:02Z</time>
      </trkpt>
      <trkpt lat="49.87708" lon="2.42129">
        <ele>49.1</ele>
        <time>2022-04-13T13:53:03Z</time>
      </trkpt>
      <trkpt lat="49.87708" lon="2.42127">
        <ele>49.2</ele>
        <time>2022-04-13T13:53:04Z</time>
      </trkpt>
      <trkpt lat="49.87708" lon="2.42126">
        <ele>49.2</ele>
        <time>2022-04-13T13:53:05Z</time>
      </trkpt>
      <trkpt lat="49.87708" lon="2.42125">
        <ele>49.2</ele>
        <time>2022-04-13T13:53:06Z</time>
      </trkpt>
      <trkpt lat="49.87708" lon="2.42123">
        <ele>49.3</ele>
        <time>2022-04-13T13:53:07Z</time>
      </trkpt>
      <trkpt lat="49.87708" lon="2.42122">
        <ele>49.3</ele>
        <time>2022-04-13T13:53:08Z</time>
      </trkpt>
      <trkpt lat="49.87708" lon="2.4212">
        <ele>49.4</ele>
        <time>2022-04-13T13:53:09Z</time>
      </trkpt>
      <trkpt lat="49.87708" lon="2.42118">
        <ele>49.4</ele>
        <time>2022-04-13T13:53:10Z</time>
      </trkpt>
      <trkpt lat="49.87708" lon="2.42116">
        <ele>49.4</ele>
        <time>2022-04-13T13:53:11Z</time>
      </trkpt>
      <trkpt lat="49.87708" lon="2.42115">
        <ele>49.4</ele>
        <time>2022-04-13T13:53:12Z</time>
      </trkpt>
      <trkpt lat="49.87708" lon="2.42113">
        <ele>49.4</ele>
        <time>2022-04-13T13:53:14Z</time>
      </trkpt>
      <trkpt lat="49.87709" lon="2.42111">
        <ele>49.5</ele>
        <time>2022-04-13T13:53:15Z</time>
      </trkpt>
      <trkpt lat="49.87709" lon="2.42109">
        <ele>49.5</ele>
        <time>2022-04-13T13:53:16Z</time>
      </trkpt>
      <trkpt lat="49.87709" lon="2.42108">
        <ele>49.5</ele>
        <time>2022-04-13T13:53:17Z</time>
      </trkpt>
      <trkpt lat="49.87709" lon="2.42106">
        <ele>49.5</ele>
        <time>2022-04-13T13:53:18Z</time>
      </trkpt>
      <trkpt lat="49.87709" lon="2.42104">
        <ele>49.5</ele>
        <time>2022-04-13T13:53:19Z</time>
      </trkpt>
      <trkpt lat="49.8771" lon="2.42103">
        <ele>49.6</ele>
        <time>2022-04-13T13:53:20Z</time>
      </trkpt>
      <trkpt lat="49.87711" lon="2.42101">
        <ele>49.6</ele>
        <time>2022-04-13T13:53:21Z</time>
      </trkpt>
      <trkpt lat="49.87711" lon="2.42099">
        <ele>49.6</ele>
        <time>2022-04-13T13:53:22Z</time>
      </trkpt>
      <trkpt lat="49.87712" lon="2.42098">
        <ele>49.6</ele>
        <time>2022-04-13T13:53:23Z</time>
      </trkpt>
      <trkpt lat="49.87712" lon="2.42097">
        <ele>49.7</ele>
        <time>2022-04-13T13:53:24Z</time>
      </trkpt>
      <trkpt lat="49.87713" lon="2.42095">
        <ele>49.7</ele>
        <time>2022-04-13T13:53:25Z</time>
      </trkpt>
      <trkpt lat="49.87714" lon="2.42093">
        <ele>49.7</ele>
        <time>2022-04-13T13:53:27Z</time>
      </trkpt>
      <trkpt lat="49.87715" lon="2.42091">
        <ele>49.7</ele>
        <time>2022-04-13T13:53:28Z</time>
      </trkpt>
      <trkpt lat="49.87715" lon="2.42089">
        <ele>49.7</ele>
        <time>2022-04-13T13:53:29Z</time>
      </trkpt>
      <trkpt lat="49.87716" lon="2.42087">
        <ele>49.8</ele>
        <time>2022-04-13T13:53:30Z</time>
      </trkpt>
      <trkpt lat="49.87717" lon="2.42084">
        <ele>49.8</ele>
        <time>2022-04-13T13:53:31Z</time>
      </trkpt>
      <trkpt lat="49.87717" lon="2.42083">
        <ele>49.8</ele>
        <time>2022-04-13T13:53:32Z</time>
      </trkpt>
      <trkpt lat="49.87718" lon="2.42081">
        <ele>49.8</ele>
        <time>2022-04-13T13:53:33Z</time>
      </trkpt>
      <trkpt lat="49.87718" lon="2.42079">
        <ele>49.8</ele>
        <time>2022-04-13T13:53:34Z</time>
      </trkpt>
      <trkpt lat="49.87718" lon="2.42078">
        <ele>49.8</ele>
        <time>2022-04-13T13:53:35Z</time>
      </trkpt>
      <trkpt lat="49.87719" lon="2.42077">
        <ele>49.8</ele>
        <time>2022-04-13T13:53:36Z</time>
      </trkpt>
      <trkpt lat="49.8772" lon="2.42075">
        <ele>49.8</ele>
        <time>2022-04-13T13:53:37Z</time>
      </trkpt>
      <trkpt lat="49.87721" lon="2.42074">
        <ele>49.8</ele>
        <time>2022-04-13T13:53:38Z</time>
      </trkpt>
      <trkpt lat="49.87721" lon="2.42072">
        <ele>49.9</ele>
        <time>2022-04-13T13:53:39Z</time>
      </trkpt>
      <trkpt lat="49.87722" lon="2.42071">
        <ele>49.9</ele>
        <time>2022-04-13T13:53:40Z</time>
      </trkpt>
      <trkpt lat="49.87723" lon="2.42068">
        <ele>49.9</ele>
        <time>2022-04-13T13:53:42Z</time>
      </trkpt>
      <trkpt lat="49.87724" lon="2.42067">
        <ele>49.9</ele>
        <time>2022-04-13T13:53:43Z</time>
      </trkpt>
      <trkpt lat="49.87724" lon="2.42066">
        <ele>49.9</ele>
        <time>2022-04-13T13:53:44Z</time>
      </trkpt>
      <trkpt lat="49.87725" lon="2.42065">
        <ele>49.9</ele>
        <time>2022-04-13T13:53:45Z</time>
      </trkpt>
      <trkpt lat="49.87726" lon="2.42064">
        <ele>49.9</ele>
        <time>2022-04-13T13:53:46Z</time>
      </trkpt>
      <trkpt lat="49.87726" lon="2.42062">
        <ele>49.9</ele>
        <time>2022-04-13T13:53:47Z</time>
      </trkpt>
      <trkpt lat="49.87727" lon="2.42061">
        <ele>49.9</ele>
        <time>2022-04-13T13:53:48Z</time>
      </trkpt>
      <trkpt lat="49.87727" lon="2.4206">
        <ele>49.9</ele>
        <time>2022-04-13T13:53:49Z</time>
      </trkpt>
      <trkpt lat="49.87728" lon="2.42058">
        <ele>49.9</ele>
        <time>2022-04-13T13:53:50Z</time>
      </trkpt>
      <trkpt lat="49.87729" lon="2.42056">
        <ele>49.9</ele>
        <time>2022-04-13T13:53:51Z</time>
      </trkpt>
      <trkpt lat="49.87729" lon="2.42055">
        <ele>49.9</ele>
        <time>2022-04-13T13:53:52Z</time>
      </trkpt>
      <trkpt lat="49.8773" lon="2.42053">
        <ele>49.9</ele>
        <time>2022-04-13T13:53:54Z</time>
      </trkpt>
      <trkpt lat="49.87731" lon="2.42052">
        <ele>50</ele>
        <time>2022-04-13T13:53:55Z</time>
      </trkpt>
      <trkpt lat="49.87731" lon="2.42051">
        <ele>50</ele>
        <time>2022-04-13T13:53:56Z</time>
      </trkpt>
      <trkpt lat="49.87732" lon="2.42049">
        <ele>50</ele>
        <time>2022-04-13T13:53:57Z</time>
      </trkpt>
      <trkpt lat="49.87733" lon="2.42046">
        <ele>50</ele>
        <time>2022-04-13T13:53:58Z</time>
      </trkpt>
      <trkpt lat="49.87733" lon="2.42045">
        <ele>50</ele>
        <time>2022-04-13T13:53:59Z</time>
      </trkpt>
      <trkpt lat="49.87734" lon="2.42044">
        <ele>50</ele>
        <time>2022-04-13T13:54:00Z</time>
      </trkpt>
      <trkpt lat="49.87735" lon="2.42041">
        <ele>50</ele>
        <time>2022-04-13T13:54:01Z</time>
      </trkpt>
      <trkpt lat="49.87735" lon="2.4204">
        <ele>50</ele>
        <time>2022-04-13T13:54:03Z</time>
      </trkpt>
      <trkpt lat="49.87735" lon="2.42039">
        <ele>50</ele>
        <time>2022-04-13T13:54:04Z</time>
      </trkpt>
      <trkpt lat="49.87735" lon="2.42037">
        <ele>50</ele>
        <time>2022-04-13T13:54:05Z</time>
      </trkpt>
      <trkpt lat="49.87735" lon="2.42036">
        <ele>50</ele>
        <time>2022-04-13T13:54:06Z</time>
      </trkpt>
      <trkpt lat="49.87735" lon="2.42034">
        <ele>50</ele>
        <time>2022-04-13T13:54:07Z</time>
      </trkpt>
      <trkpt lat="49.87734" lon="2.42033">
        <ele>50</ele>
        <time>2022-04-13T13:54:09Z</time>
      </trkpt>
      <trkpt lat="49.87734" lon="2.42031">
        <ele>50</ele>
        <time>2022-04-13T13:54:10Z</time>
      </trkpt>
      <trkpt lat="49.87733" lon="2.4203">
        <ele>50</ele>
        <time>2022-04-13T13:54:11Z</time>
      </trkpt>
      <trkpt lat="49.87733" lon="2.42029">
        <ele>50</ele>
        <time>2022-04-13T13:54:12Z</time>
      </trkpt>
      <trkpt lat="49.87732" lon="2.42028">
        <ele>50</ele>
        <time>2022-04-13T13:54:14Z</time>
      </trkpt>
      <trkpt lat="49.87731" lon="2.42027">
        <ele>50</ele>
        <time>2022-04-13T13:54:15Z</time>
      </trkpt>
      <trkpt lat="49.8773" lon="2.42025">
        <ele>50</ele>
        <time>2022-04-13T13:54:16Z</time>
      </trkpt>
      <trkpt lat="49.87729" lon="2.42024">
        <ele>50.1</ele>
        <time>2022-04-13T13:54:17Z</time>
      </trkpt>
      <trkpt lat="49.87728" lon="2.42023">
        <ele>50.1</ele>
        <time>2022-04-13T13:54:18Z</time>
      </trkpt>
      <trkpt lat="49.87727" lon="2.42022">
        <ele>50.1</ele>
        <time>2022-04-13T13:54:20Z</time>
      </trkpt>
      <trkpt lat="49.87726" lon="2.42021">
        <ele>50.1</ele>
        <time>2022-04-13T13:54:21Z</time>
      </trkpt>
      <trkpt lat="49.87724" lon="2.42019">
        <ele>50.1</ele>
        <time>2022-04-13T13:54:22Z</time>
      </trkpt>
      <trkpt lat="49.87723" lon="2.42018">
        <ele>50.1</ele>
        <time>2022-04-13T13:54:23Z</time>
      </trkpt>
      <trkpt lat="49.87722" lon="2.42018">
        <ele>50.1</ele>
        <time>2022-04-13T13:54:24Z</time>
      </trkpt>
      <trkpt lat="49.8772" lon="2.42017">
        <ele>50.1</ele>
        <time>2022-04-13T13:54:26Z</time>
      </trkpt>
      <trkpt lat="49.87719" lon="2.42016">
        <ele>50.1</ele>
        <time>2022-04-13T13:54:27Z</time>
      </trkpt>
      <trkpt lat="49.87718" lon="2.42016">
        <ele>50.1</ele>
        <time>2022-04-13T13:54:28Z</time>
      </trkpt>
      <trkpt lat="49.87717" lon="2.42015">
        <ele>50.1</ele>
        <time>2022-04-13T13:54:29Z</time>
      </trkpt>
      <trkpt lat="49.87716" lon="2.42015">
        <ele>50.2</ele>
        <time>2022-04-13T13:54:30Z</time>
      </trkpt>
      <trkpt lat="49.87715" lon="2.42015">
        <ele>50.2</ele>
        <time>2022-04-13T13:54:31Z</time>
      </trkpt>
      <trkpt lat="49.87713" lon="2.42014">
        <ele>50.2</ele>
        <time>2022-04-13T13:54:32Z</time>
      </trkpt>
      <trkpt lat="49.87712" lon="2.42014">
        <ele>50.3</ele>
        <time>2022-04-13T13:54:33Z</time>
      </trkpt>
      <trkpt lat="49.8771" lon="2.42014">
        <ele>50.3</ele>
        <time>2022-04-13T13:54:34Z</time>
      </trkpt>
      <trkpt lat="49.87708" lon="2.42012">
        <ele>50.4</ele>
        <time>2022-04-13T13:54:35Z</time>
      </trkpt>
      <trkpt lat="49.87707" lon="2.42012">
        <ele>50.4</ele>
        <time>2022-04-13T13:54:37Z</time>
      </trkpt>
      <trkpt lat="49.87706" lon="2.42011">
        <ele>50.4</ele>
        <time>2022-04-13T13:54:38Z</time>
      </trkpt>
      <trkpt lat="49.87705" lon="2.42011">
        <ele>50.4</ele>
        <time>2022-04-13T13:54:39Z</time>
      </trkpt>
      <trkpt lat="49.87704" lon="2.4201">
        <ele>50.5</ele>
        <time>2022-04-13T13:54:40Z</time>
      </trkpt>
      <trkpt lat="49.87702" lon="2.42009">
        <ele>50.5</ele>
        <time>2022-04-13T13:54:41Z</time>
      </trkpt>
      <trkpt lat="49.87702" lon="2.42008">
        <ele>50.6</ele>
        <time>2022-04-13T13:54:42Z</time>
      </trkpt>
      <trkpt lat="49.87701" lon="2.42007">
        <ele>50.6</ele>
        <time>2022-04-13T13:54:43Z</time>
      </trkpt>
      <trkpt lat="49.877" lon="2.42007">
        <ele>50.6</ele>
        <time>2022-04-13T13:54:44Z</time>
      </trkpt>
      <trkpt lat="49.87699" lon="2.42006">
        <ele>50.7</ele>
        <time>2022-04-13T13:54:45Z</time>
      </trkpt>
      <trkpt lat="49.87698" lon="2.42005">
        <ele>50.7</ele>
        <time>2022-04-13T13:54:47Z</time>
      </trkpt>
      <trkpt lat="49.87696" lon="2.42005">
        <ele>50.8</ele>
        <time>2022-04-13T13:54:48Z</time>
      </trkpt>
      <trkpt lat="49.87695" lon="2.42004">
        <ele>50.8</ele>
        <time>2022-04-13T13:54:49Z</time>
      </trkpt>
      <trkpt lat="49.87694" lon="2.42003">
        <ele>50.9</ele>
        <time>2022-04-13T13:54:50Z</time>
      </trkpt>
      <trkpt lat="49.87692" lon="2.42002">
        <ele>50.9</ele>
        <time>2022-04-13T13:54:51Z</time>
      </trkpt>
      <trkpt lat="49.87691" lon="2.42001">
        <ele>51</ele>
        <time>2022-04-13T13:54:52Z</time>
      </trkpt>
      <trkpt lat="49.87689" lon="2.42">
        <ele>51.1</ele>
        <time>2022-04-13T13:54:53Z</time>
      </trkpt>
      <trkpt lat="49.87688" lon="2.41999">
        <ele>51.1</ele>
        <time>2022-04-13T13:54:54Z</time>
      </trkpt>
      <trkpt lat="49.87686" lon="2.41998">
        <ele>51.2</ele>
        <time>2022-04-13T13:54:55Z</time>
      </trkpt>
      <trkpt lat="49.87685" lon="2.41997">
        <ele>51.3</ele>
        <time>2022-04-13T13:54:56Z</time>
      </trkpt>
      <trkpt lat="49.87685" lon="2.41996">
        <ele>51.3</ele>
        <time>2022-04-13T13:54:57Z</time>
      </trkpt>
      <trkpt lat="49.87684" lon="2.41995">
        <ele>51.3</ele>
        <time>2022-04-13T13:54:59Z</time>
      </trkpt>
      <trkpt lat="49.87683" lon="2.41995">
        <ele>51.4</ele>
        <time>2022-04-13T13:55:00Z</time>
      </trkpt>
      <trkpt lat="49.87682" lon="2.41994">
        <ele>51.4</ele>
        <time>2022-04-13T13:55:01Z</time>
      </trkpt>
      <trkpt lat="49.87681" lon="2.41993">
        <ele>51.5</ele>
        <time>2022-04-13T13:55:02Z</time>
      </trkpt>
      <trkpt lat="49.87679" lon="2.41992">
        <ele>51.6</ele>
        <time>2022-04-13T13:55:03Z</time>
      </trkpt>
      <trkpt lat="49.87679" lon="2.41991">
        <ele>51.6</ele>
        <time>2022-04-13T13:55:04Z</time>
      </trkpt>
      <trkpt lat="49.87678" lon="2.41991">
        <ele>51.7</ele>
        <time>2022-04-13T13:55:05Z</time>
      </trkpt>
      <trkpt lat="49.87677" lon="2.4199">
        <ele>51.7</ele>
        <time>2022-04-13T13:55:06Z</time>
      </trkpt>
      <trkpt lat="49.87676" lon="2.41989">
        <ele>51.8</ele>
        <time>2022-04-13T13:55:07Z</time>
      </trkpt>
      <trkpt lat="49.87675" lon="2.41988">
        <ele>51.8</ele>
        <time>2022-04-13T13:55:08Z</time>
      </trkpt>
      <trkpt lat="49.87675" lon="2.41988">
        <ele>51.8</ele>
        <time>2022-04-13T13:55:09Z</time>
      </trkpt>
      <trkpt lat="49.87674" lon="2.41988">
        <ele>51.9</ele>
        <time>2022-04-13T13:55:11Z</time>
      </trkpt>
      <trkpt lat="49.87673" lon="2.41987">
        <ele>51.9</ele>
        <time>2022-04-13T13:55:12Z</time>
      </trkpt>
      <trkpt lat="49.87672" lon="2.41986">
        <ele>52</ele>
        <time>2022-04-13T13:55:13Z</time>
      </trkpt>
      <trkpt lat="49.8767" lon="2.41985">
        <ele>52.1</ele>
        <time>2022-04-13T13:55:14Z</time>
      </trkpt>
      <trkpt lat="49.87669" lon="2.41985">
        <ele>52.1</ele>
        <time>2022-04-13T13:55:15Z</time>
      </trkpt>
      <trkpt lat="49.87669" lon="2.41984">
        <ele>52.1</ele>
        <time>2022-04-13T13:55:16Z</time>
      </trkpt>
      <trkpt lat="49.87667" lon="2.41983">
        <ele>52.2</ele>
        <time>2022-04-13T13:55:17Z</time>
      </trkpt>
      <trkpt lat="49.87666" lon="2.41983">
        <ele>52.3</ele>
        <time>2022-04-13T13:55:18Z</time>
      </trkpt>
      <trkpt lat="49.87666" lon="2.41982">
        <ele>52.3</ele>
        <time>2022-04-13T13:55:19Z</time>
      </trkpt>
      <trkpt lat="49.87665" lon="2.41982">
        <ele>52.3</ele>
        <time>2022-04-13T13:55:20Z</time>
      </trkpt>
      <trkpt lat="49.87664" lon="2.41981">
        <ele>52.4</ele>
        <time>2022-04-13T13:55:22Z</time>
      </trkpt>
      <trkpt lat="49.87662" lon="2.4198">
        <ele>52.5</ele>
        <time>2022-04-13T13:55:23Z</time>
      </trkpt>
      <trkpt lat="49.87661" lon="2.41979">
        <ele>52.5</ele>
        <time>2022-04-13T13:55:24Z</time>
      </trkpt>
      <trkpt lat="49.87661" lon="2.41978">
        <ele>52.5</ele>
        <time>2022-04-13T13:55:25Z</time>
      </trkpt>
      <trkpt lat="49.8766" lon="2.41977">
        <ele>52.6</ele>
        <time>2022-04-13T13:55:26Z</time>
      </trkpt>
      <trkpt lat="49.87659" lon="2.41976">
        <ele>52.6</ele>
        <time>2022-04-13T13:55:27Z</time>
      </trkpt>
      <trkpt lat="49.87659" lon="2.41974">
        <ele>52.8</ele>
        <time>2022-04-13T13:55:28Z</time>
      </trkpt>
      <trkpt lat="49.87658" lon="2.41973">
        <ele>52.8</ele>
        <time>2022-04-13T13:55:29Z</time>
      </trkpt>
      <trkpt lat="49.87658" lon="2.41969">
        <ele>52.9</ele>
        <time>2022-04-13T13:55:31Z</time>
      </trkpt>
      <trkpt lat="49.87658" lon="2.41968">
        <ele>52.9</ele>
        <time>2022-04-13T13:55:32Z</time>
      </trkpt>
      <trkpt lat="49.87658" lon="2.41967">
        <ele>52.9</ele>
        <time>2022-04-13T13:55:33Z</time>
      </trkpt>
      <trkpt lat="49.87657" lon="2.41964">
        <ele>53</ele>
        <time>2022-04-13T13:55:34Z</time>
      </trkpt>
      <trkpt lat="49.87657" lon="2.41962">
        <ele>53</ele>
        <time>2022-04-13T13:55:35Z</time>
      </trkpt>
      <trkpt lat="49.87657" lon="2.41958">
        <ele>53.1</ele>
        <time>2022-04-13T13:55:36Z</time>
      </trkpt>
      <trkpt lat="49.87657" lon="2.41957">
        <ele>53.1</ele>
        <time>2022-04-13T13:55:37Z</time>
      </trkpt>
      <trkpt lat="49.87657" lon="2.41956">
        <ele>53.1</ele>
        <time>2022-04-13T13:55:38Z</time>
      </trkpt>
      <trkpt lat="49.87657" lon="2.41952">
        <ele>53.2</ele>
        <time>2022-04-13T13:55:40Z</time>
      </trkpt>
      <trkpt lat="49.87657" lon="2.4195">
        <ele>53.2</ele>
        <time>2022-04-13T13:55:41Z</time>
      </trkpt>
      <trkpt lat="49.87657" lon="2.41949">
        <ele>53.2</ele>
        <time>2022-04-13T13:55:42Z</time>
      </trkpt>
      <trkpt lat="49.87657" lon="2.41945">
        <ele>53.3</ele>
        <time>2022-04-13T13:55:43Z</time>
      </trkpt>
      <trkpt lat="49.87657" lon="2.41944">
        <ele>53.3</ele>
        <time>2022-04-13T13:55:44Z</time>
      </trkpt>
      <trkpt lat="49.87657" lon="2.41942">
        <ele>53.4</ele>
        <time>2022-04-13T13:55:45Z</time>
      </trkpt>
      <trkpt lat="49.87657" lon="2.4194">
        <ele>53.4</ele>
        <time>2022-04-13T13:55:46Z</time>
      </trkpt>
      <trkpt lat="49.87657" lon="2.41938">
        <ele>53.5</ele>
        <time>2022-04-13T13:55:47Z</time>
      </trkpt>
      <trkpt lat="49.87656" lon="2.41935">
        <ele>53.5</ele>
        <time>2022-04-13T13:55:49Z</time>
      </trkpt>
      <trkpt lat="49.87656" lon="2.41933">
        <ele>53.6</ele>
        <time>2022-04-13T13:55:50Z</time>
      </trkpt>
      <trkpt lat="49.87656" lon="2.4193">
        <ele>53.6</ele>
        <time>2022-04-13T13:55:51Z</time>
      </trkpt>
      <trkpt lat="49.87656" lon="2.41928">
        <ele>53.6</ele>
        <time>2022-04-13T13:55:52Z</time>
      </trkpt>
      <trkpt lat="49.87656" lon="2.41925">
        <ele>53.7</ele>
        <time>2022-04-13T13:55:53Z</time>
      </trkpt>
      <trkpt lat="49.87655" lon="2.41924">
        <ele>53.7</ele>
        <time>2022-04-13T13:55:54Z</time>
      </trkpt>
      <trkpt lat="49.87655" lon="2.41922">
        <ele>53.8</ele>
        <time>2022-04-13T13:55:55Z</time>
      </trkpt>
      <trkpt lat="49.87655" lon="2.4192">
        <ele>53.8</ele>
        <time>2022-04-13T13:55:56Z</time>
      </trkpt>
      <trkpt lat="49.87655" lon="2.41918">
        <ele>53.8</ele>
        <time>2022-04-13T13:55:57Z</time>
      </trkpt>
      <trkpt lat="49.87655" lon="2.41916">
        <ele>53.9</ele>
        <time>2022-04-13T13:55:59Z</time>
      </trkpt>
      <trkpt lat="49.87655" lon="2.41914">
        <ele>53.9</ele>
        <time>2022-04-13T13:56:00Z</time>
      </trkpt>
      <trkpt lat="49.87655" lon="2.41913">
        <ele>53.9</ele>
        <time>2022-04-13T13:56:01Z</time>
      </trkpt>
      <trkpt lat="49.87655" lon="2.41911">
        <ele>54</ele>
        <time>2022-04-13T13:56:02Z</time>
      </trkpt>
      <trkpt lat="49.87654" lon="2.41908">
        <ele>54</ele>
        <time>2022-04-13T13:56:03Z</time>
      </trkpt>
      <trkpt lat="49.87654" lon="2.41907">
        <ele>54</ele>
        <time>2022-04-13T13:56:04Z</time>
      </trkpt>
      <trkpt lat="49.87654" lon="2.41905">
        <ele>54.1</ele>
        <time>2022-04-13T13:56:05Z</time>
      </trkpt>
      <trkpt lat="49.87653" lon="2.41903">
        <ele>54.1</ele>
        <time>2022-04-13T13:56:07Z</time>
      </trkpt>
      <trkpt lat="49.87653" lon="2.41901">
        <ele>54.1</ele>
        <time>2022-04-13T13:56:08Z</time>
      </trkpt>
      <trkpt lat="49.87653" lon="2.419">
        <ele>54.2</ele>
        <time>2022-04-13T13:56:09Z</time>
      </trkpt>
      <trkpt lat="49.87652" lon="2.41898">
        <ele>54.2</ele>
        <time>2022-04-13T13:56:10Z</time>
      </trkpt>
      <trkpt lat="49.87652" lon="2.41895">
        <ele>54.2</ele>
        <time>2022-04-13T13:56:12Z</time>
      </trkpt>
      <trkpt lat="49.87651" lon="2.41893">
        <ele>54.3</ele>
        <time>2022-04-13T13:56:13Z</time>
      </trkpt>
      <trkpt lat="49.87651" lon="2.41891">
        <ele>54.3</ele>
        <time>2022-04-13T13:56:14Z</time>
      </trkpt>
      <trkpt lat="49.87651" lon="2.4189">
        <ele>54.3</ele>
        <time>2022-04-13T13:56:15Z</time>
      </trkpt>
      <trkpt lat="49.8765" lon="2.41889">
        <ele>54.3</ele>
        <time>2022-04-13T13:56:16Z</time>
      </trkpt>
      <trkpt lat="49.8765" lon="2.41887">
        <ele>54.4</ele>
        <time>2022-04-13T13:56:17Z</time>
      </trkpt>
      <trkpt lat="49.87649" lon="2.41886">
        <ele>54.4</ele>
        <time>2022-04-13T13:56:18Z</time>
      </trkpt>
      <trkpt lat="49.87648" lon="2.41884">
        <ele>54.4</ele>
        <time>2022-04-13T13:56:19Z</time>
      </trkpt>
      <trkpt lat="49.87647" lon="2.41883">
        <ele>54.4</ele>
        <time>2022-04-13T13:56:20Z</time>
      </trkpt>
      <trkpt lat="49.87647" lon="2.4188">
        <ele>54.5</ele>
        <time>2022-04-13T13:56:22Z</time>
      </trkpt>
      <trkpt lat="49.87646" lon="2.41879">
        <ele>54.5</ele>
        <time>2022-04-13T13:56:23Z</time>
      </trkpt>
      <trkpt lat="49.87645" lon="2.41876">
        <ele>54.6</ele>
        <time>2022-04-13T13:56:24Z</time>
      </trkpt>
      <trkpt lat="49.87645" lon="2.41874">
        <ele>54.6</ele>
        <time>2022-04-13T13:56:25Z</time>
      </trkpt>
      <trkpt lat="49.87644" lon="2.41873">
        <ele>54.6</ele>
        <time>2022-04-13T13:56:26Z</time>
      </trkpt>
      <trkpt lat="49.87644" lon="2.4187">
        <ele>54.6</ele>
        <time>2022-04-13T13:56:27Z</time>
      </trkpt>
      <trkpt lat="49.87643" lon="2.41869">
        <ele>54.7</ele>
        <time>2022-04-13T13:56:29Z</time>
      </trkpt>
      <trkpt lat="49.87643" lon="2.41868">
        <ele>54.7</ele>
        <time>2022-04-13T13:56:30Z</time>
      </trkpt>
      <trkpt lat="49.87642" lon="2.41865">
        <ele>54.7</ele>
        <time>2022-04-13T13:56:31Z</time>
      </trkpt>
      <trkpt lat="49.87642" lon="2.41863">
        <ele>54.7</ele>
        <time>2022-04-13T13:56:32Z</time>
      </trkpt>
      <trkpt lat="49.87642" lon="2.41862">
        <ele>54.8</ele>
        <time>2022-04-13T13:56:33Z</time>
      </trkpt>
      <trkpt lat="49.87642" lon="2.4186">
        <ele>54.8</ele>
        <time>2022-04-13T13:56:34Z</time>
      </trkpt>
      <trkpt lat="49.87641" lon="2.41859">
        <ele>54.8</ele>
        <time>2022-04-13T13:56:35Z</time>
      </trkpt>
      <trkpt lat="49.87641" lon="2.41857">
        <ele>54.8</ele>
        <time>2022-04-13T13:56:36Z</time>
      </trkpt>
      <trkpt lat="49.87641" lon="2.41855">
        <ele>54.9</ele>
        <time>2022-04-13T13:56:37Z</time>
      </trkpt>
      <trkpt lat="49.87641" lon="2.41852">
        <ele>54.9</ele>
        <time>2022-04-13T13:56:38Z</time>
      </trkpt>
      <trkpt lat="49.8764" lon="2.4185">
        <ele>54.9</ele>
        <time>2022-04-13T13:56:39Z</time>
      </trkpt>
      <trkpt lat="49.8764" lon="2.41848">
        <ele>55</ele>
        <time>2022-04-13T13:56:41Z</time>
      </trkpt>
      <trkpt lat="49.8764" lon="2.41845">
        <ele>55</ele>
        <time>2022-04-13T13:56:42Z</time>
      </trkpt>
      <trkpt lat="49.8764" lon="2.41843">
        <ele>55</ele>
        <time>2022-04-13T13:56:43Z</time>
      </trkpt>
      <trkpt lat="49.87639" lon="2.41841">
        <ele>55</ele>
        <time>2022-04-13T13:56:44Z</time>
      </trkpt>
      <trkpt lat="49.87639" lon="2.41839">
        <ele>55.1</ele>
        <time>2022-04-13T13:56:45Z</time>
      </trkpt>
      <trkpt lat="49.87638" lon="2.41836">
        <ele>55.1</ele>
        <time>2022-04-13T13:56:46Z</time>
      </trkpt>
      <trkpt lat="49.87637" lon="2.41835">
        <ele>55.1</ele>
        <time>2022-04-13T13:56:47Z</time>
      </trkpt>
      <trkpt lat="49.87637" lon="2.41834">
        <ele>55.1</ele>
        <time>2022-04-13T13:56:48Z</time>
      </trkpt>
      <trkpt lat="49.87636" lon="2.41832">
        <ele>55.2</ele>
        <time>2022-04-13T13:56:49Z</time>
      </trkpt>
      <trkpt lat="49.87636" lon="2.4183">
        <ele>55.2</ele>
        <time>2022-04-13T13:56:50Z</time>
      </trkpt>
      <trkpt lat="49.87635" lon="2.41826">
        <ele>55.3</ele>
        <time>2022-04-13T13:56:52Z</time>
      </trkpt>
      <trkpt lat="49.87634" lon="2.41825">
        <ele>55.3</ele>
        <time>2022-04-13T13:56:53Z</time>
      </trkpt>
      <trkpt lat="49.87633" lon="2.41822">
        <ele>55.3</ele>
        <time>2022-04-13T13:56:54Z</time>
      </trkpt>
      <trkpt lat="49.87633" lon="2.41821">
        <ele>55.3</ele>
        <time>2022-04-13T13:56:55Z</time>
      </trkpt>
      <trkpt lat="49.87632" lon="2.4182">
        <ele>55.3</ele>
        <time>2022-04-13T13:56:56Z</time>
      </trkpt>
      <trkpt lat="49.87631" lon="2.41818">
        <ele>55.3</ele>
        <time>2022-04-13T13:56:57Z</time>
      </trkpt>
      <trkpt lat="49.87631" lon="2.41816">
        <ele>55.3</ele>
        <time>2022-04-13T13:56:58Z</time>
      </trkpt>
      <trkpt lat="49.8763" lon="2.41813">
        <ele>55.4</ele>
        <time>2022-04-13T13:56:59Z</time>
      </trkpt>
      <trkpt lat="49.87629" lon="2.41812">
        <ele>55.4</ele>
        <time>2022-04-13T13:57:00Z</time>
      </trkpt>
      <trkpt lat="49.87629" lon="2.41811">
        <ele>55.4</ele>
        <time>2022-04-13T13:57:01Z</time>
      </trkpt>
      <trkpt lat="49.87629" lon="2.41809">
        <ele>55.4</ele>
        <time>2022-04-13T13:57:02Z</time>
      </trkpt>
      <trkpt lat="49.87628" lon="2.41808">
        <ele>55.4</ele>
        <time>2022-04-13T13:57:03Z</time>
      </trkpt>
      <trkpt lat="49.87628" lon="2.41806">
        <ele>55.4</ele>
        <time>2022-04-13T13:57:05Z</time>
      </trkpt>
      <trkpt lat="49.87628" lon="2.41805">
        <ele>55.5</ele>
        <time>2022-04-13T13:57:06Z</time>
      </trkpt>
      <trkpt lat="49.87627" lon="2.41804">
        <ele>55.5</ele>
        <time>2022-04-13T13:57:07Z</time>
      </trkpt>
      <trkpt lat="49.87627" lon="2.41802">
        <ele>55.5</ele>
        <time>2022-04-13T13:57:08Z</time>
      </trkpt>
      <trkpt lat="49.87626" lon="2.41801">
        <ele>55.5</ele>
        <time>2022-04-13T13:57:09Z</time>
      </trkpt>
      <trkpt lat="49.87625" lon="2.41798">
        <ele>55.6</ele>
        <time>2022-04-13T13:57:10Z</time>
      </trkpt>
      <trkpt lat="49.87625" lon="2.41797">
        <ele>55.6</ele>
        <time>2022-04-13T13:57:11Z</time>
      </trkpt>
      <trkpt lat="49.87624" lon="2.41796">
        <ele>55.6</ele>
        <time>2022-04-13T13:57:12Z</time>
      </trkpt>
      <trkpt lat="49.87623" lon="2.41792">
        <ele>55.6</ele>
        <time>2022-04-13T13:57:13Z</time>
      </trkpt>
      <trkpt lat="49.87623" lon="2.41791">
        <ele>55.6</ele>
        <time>2022-04-13T13:57:14Z</time>
      </trkpt>
      <trkpt lat="49.87622" lon="2.41789">
        <ele>55.6</ele>
        <time>2022-04-13T13:57:15Z</time>
      </trkpt>
      <trkpt lat="49.87621" lon="2.41786">
        <ele>55.7</ele>
        <time>2022-04-13T13:57:17Z</time>
      </trkpt>
      <trkpt lat="49.87621" lon="2.41785">
        <ele>55.7</ele>
        <time>2022-04-13T13:57:18Z</time>
      </trkpt>
      <trkpt lat="49.87621" lon="2.41784">
        <ele>55.7</ele>
        <time>2022-04-13T13:57:19Z</time>
      </trkpt>
      <trkpt lat="49.8762" lon="2.41782">
        <ele>55.7</ele>
        <time>2022-04-13T13:57:20Z</time>
      </trkpt>
      <trkpt lat="49.87619" lon="2.4178">
        <ele>55.7</ele>
        <time>2022-04-13T13:57:21Z</time>
      </trkpt>
      <trkpt lat="49.87619" lon="2.41778">
        <ele>55.8</ele>
        <time>2022-04-13T13:57:22Z</time>
      </trkpt>
      <trkpt lat="49.87618" lon="2.41777">
        <ele>55.8</ele>
        <time>2022-04-13T13:57:23Z</time>
      </trkpt>
      <trkpt lat="49.87617" lon="2.41775">
        <ele>55.8</ele>
        <time>2022-04-13T13:57:24Z</time>
      </trkpt>
      <trkpt lat="49.87617" lon="2.41774">
        <ele>55.8</ele>
        <time>2022-04-13T13:57:25Z</time>
      </trkpt>
      <trkpt lat="49.87616" lon="2.41771">
        <ele>55.8</ele>
        <time>2022-04-13T13:57:26Z</time>
      </trkpt>
      <trkpt lat="49.87615" lon="2.41769">
        <ele>55.8</ele>
        <time>2022-04-13T13:57:27Z</time>
      </trkpt>
      <trkpt lat="49.87614" lon="2.41768">
        <ele>55.9</ele>
        <time>2022-04-13T13:57:28Z</time>
      </trkpt>
      <trkpt lat="49.87613" lon="2.41765">
        <ele>55.9</ele>
        <time>2022-04-13T13:57:30Z</time>
      </trkpt>
      <trkpt lat="49.87613" lon="2.41763">
        <ele>55.9</ele>
        <time>2022-04-13T13:57:31Z</time>
      </trkpt>
      <trkpt lat="49.87612" lon="2.41761">
        <ele>55.9</ele>
        <time>2022-04-13T13:57:32Z</time>
      </trkpt>
      <trkpt lat="49.87611" lon="2.41759">
        <ele>55.9</ele>
        <time>2022-04-13T13:57:33Z</time>
      </trkpt>
      <trkpt lat="49.8761" lon="2.41756">
        <ele>55.9</ele>
        <time>2022-04-13T13:57:34Z</time>
      </trkpt>
      <trkpt lat="49.87609" lon="2.41754">
        <ele>55.9</ele>
        <time>2022-04-13T13:57:36Z</time>
      </trkpt>
      <trkpt lat="49.87609" lon="2.41753">
        <ele>55.9</ele>
        <time>2022-04-13T13:57:37Z</time>
      </trkpt>
      <trkpt lat="49.87608" lon="2.41751">
        <ele>55.9</ele>
        <time>2022-04-13T13:57:38Z</time>
      </trkpt>
      <trkpt lat="49.87608" lon="2.4175">
        <ele>56</ele>
        <time>2022-04-13T13:57:39Z</time>
      </trkpt>
      <trkpt lat="49.87607" lon="2.41747">
        <ele>56</ele>
        <time>2022-04-13T13:57:41Z</time>
      </trkpt>
      <trkpt lat="49.87606" lon="2.41745">
        <ele>56</ele>
        <time>2022-04-13T13:57:42Z</time>
      </trkpt>
      <trkpt lat="49.87605" lon="2.41742">
        <ele>56</ele>
        <time>2022-04-13T13:57:43Z</time>
      </trkpt>
      <trkpt lat="49.87605" lon="2.41741">
        <ele>56</ele>
        <time>2022-04-13T13:57:44Z</time>
      </trkpt>
      <trkpt lat="49.87604" lon="2.4174">
        <ele>56</ele>
        <time>2022-04-13T13:57:45Z</time>
      </trkpt>
      <trkpt lat="49.87604" lon="2.41739">
        <ele>56</ele>
        <time>2022-04-13T13:57:46Z</time>
      </trkpt>
      <trkpt lat="49.87603" lon="2.41738">
        <ele>56</ele>
        <time>2022-04-13T13:57:47Z</time>
      </trkpt>
      <trkpt lat="49.87603" lon="2.41737">
        <ele>56</ele>
        <time>2022-04-13T13:57:48Z</time>
      </trkpt>
      <trkpt lat="49.87603" lon="2.41736">
        <ele>56</ele>
        <time>2022-04-13T13:57:49Z</time>
      </trkpt>
      <trkpt lat="49.87602" lon="2.41734">
        <ele>56</ele>
        <time>2022-04-13T13:57:51Z</time>
      </trkpt>
      <trkpt lat="49.87602" lon="2.41732">
        <ele>56</ele>
        <time>2022-04-13T13:57:52Z</time>
      </trkpt>
      <trkpt lat="49.876" lon="2.41729">
        <ele>56</ele>
        <time>2022-04-13T13:57:53Z</time>
      </trkpt>
      <trkpt lat="49.876" lon="2.41727">
        <ele>56</ele>
        <time>2022-04-13T13:57:54Z</time>
      </trkpt>
      <trkpt lat="49.87599" lon="2.41726">
        <ele>56</ele>
        <time>2022-04-13T13:57:55Z</time>
      </trkpt>
      <trkpt lat="49.87599" lon="2.41725">
        <ele>56</ele>
        <time>2022-04-13T13:57:56Z</time>
      </trkpt>
      <trkpt lat="49.87598" lon="2.41723">
        <ele>56</ele>
        <time>2022-04-13T13:57:58Z</time>
      </trkpt>
      <trkpt lat="49.87598" lon="2.41721">
        <ele>56</ele>
        <time>2022-04-13T13:57:59Z</time>
      </trkpt>
      <trkpt lat="49.87597" lon="2.4172">
        <ele>56</ele>
        <time>2022-04-13T13:58:00Z</time>
      </trkpt>
      <trkpt lat="49.87597" lon="2.41718">
        <ele>56</ele>
        <time>2022-04-13T13:58:01Z</time>
      </trkpt>
      <trkpt lat="49.87596" lon="2.41716">
        <ele>56</ele>
        <time>2022-04-13T13:58:02Z</time>
      </trkpt>
      <trkpt lat="49.87595" lon="2.41714">
        <ele>56</ele>
        <time>2022-04-13T13:58:03Z</time>
      </trkpt>
      <trkpt lat="49.87594" lon="2.41711">
        <ele>56</ele>
        <time>2022-04-13T13:58:04Z</time>
      </trkpt>
      <trkpt lat="49.87594" lon="2.4171">
        <ele>56</ele>
        <time>2022-04-13T13:58:05Z</time>
      </trkpt>
      <trkpt lat="49.87593" lon="2.41709">
        <ele>56</ele>
        <time>2022-04-13T13:58:06Z</time>
      </trkpt>
      <trkpt lat="49.87592" lon="2.41707">
        <ele>56</ele>
        <time>2022-04-13T13:58:07Z</time>
      </trkpt>
      <trkpt lat="49.87591" lon="2.41705">
        <ele>55.9</ele>
        <time>2022-04-13T13:58:08Z</time>
      </trkpt>
      <trkpt lat="49.87591" lon="2.41703">
        <ele>55.9</ele>
        <time>2022-04-13T13:58:09Z</time>
      </trkpt>
      <trkpt lat="49.8759" lon="2.41701">
        <ele>55.9</ele>
        <time>2022-04-13T13:58:10Z</time>
      </trkpt>
      <trkpt lat="49.87588" lon="2.41697">
        <ele>55.9</ele>
        <time>2022-04-13T13:58:11Z</time>
      </trkpt>
      <trkpt lat="49.87588" lon="2.41696">
        <ele>55.9</ele>
        <time>2022-04-13T13:58:13Z</time>
      </trkpt>
      <trkpt lat="49.87587" lon="2.41694">
        <ele>55.9</ele>
        <time>2022-04-13T13:58:14Z</time>
      </trkpt>
      <trkpt lat="49.87586" lon="2.41692">
        <ele>55.9</ele>
        <time>2022-04-13T13:58:15Z</time>
      </trkpt>
      <trkpt lat="49.87586" lon="2.41691">
        <ele>55.9</ele>
        <time>2022-04-13T13:58:16Z</time>
      </trkpt>
      <trkpt lat="49.87585" lon="2.41688">
        <ele>55.9</ele>
        <time>2022-04-13T13:58:17Z</time>
      </trkpt>
      <trkpt lat="49.87584" lon="2.41685">
        <ele>56</ele>
        <time>2022-04-13T13:58:19Z</time>
      </trkpt>
      <trkpt lat="49.87583" lon="2.41683">
        <ele>56</ele>
        <time>2022-04-13T13:58:20Z</time>
      </trkpt>
      <trkpt lat="49.87582" lon="2.4168">
        <ele>56</ele>
        <time>2022-04-13T13:58:21Z</time>
      </trkpt>
      <trkpt lat="49.87581" lon="2.41678">
        <ele>56</ele>
        <time>2022-04-13T13:58:22Z</time>
      </trkpt>
      <trkpt lat="49.87581" lon="2.41676">
        <ele>56</ele>
        <time>2022-04-13T13:58:23Z</time>
      </trkpt>
      <trkpt lat="49.8758" lon="2.41674">
        <ele>56</ele>
        <time>2022-04-13T13:58:24Z</time>
      </trkpt>
      <trkpt lat="49.8758" lon="2.41673">
        <ele>56</ele>
        <time>2022-04-13T13:58:25Z</time>
      </trkpt>
      <trkpt lat="49.8758" lon="2.41672">
        <ele>56</ele>
        <time>2022-04-13T13:58:26Z</time>
      </trkpt>
      <trkpt lat="49.8758" lon="2.41671">
        <ele>56</ele>
        <time>2022-04-13T13:58:27Z</time>
      </trkpt>
      <trkpt lat="49.8758" lon="2.41669">
        <ele>56</ele>
        <time>2022-04-13T13:58:29Z</time>
      </trkpt>
      <trkpt lat="49.87579" lon="2.41667">
        <ele>56</ele>
        <time>2022-04-13T13:58:30Z</time>
      </trkpt>
      <trkpt lat="49.87579" lon="2.41665">
        <ele>56</ele>
        <time>2022-04-13T13:58:31Z</time>
      </trkpt>
      <trkpt lat="49.87578" lon="2.41662">
        <ele>56</ele>
        <time>2022-04-13T13:58:32Z</time>
      </trkpt>
      <trkpt lat="49.87578" lon="2.41661">
        <ele>56</ele>
        <time>2022-04-13T13:58:33Z</time>
      </trkpt>
      <trkpt lat="49.87578" lon="2.4166">
        <ele>56</ele>
        <time>2022-04-13T13:58:34Z</time>
      </trkpt>
      <trkpt lat="49.87578" lon="2.41658">
        <ele>56</ele>
        <time>2022-04-13T13:58:35Z</time>
      </trkpt>
      <trkpt lat="49.87577" lon="2.41656">
        <ele>56</ele>
        <time>2022-04-13T13:58:36Z</time>
      </trkpt>
      <trkpt lat="49.87577" lon="2.41654">
        <ele>56</ele>
        <time>2022-04-13T13:58:37Z</time>
      </trkpt>
      <trkpt lat="49.87577" lon="2.41653">
        <ele>56</ele>
        <time>2022-04-13T13:58:38Z</time>
      </trkpt>
      <trkpt lat="49.87577" lon="2.41652">
        <ele>56</ele>
        <time>2022-04-13T13:58:39Z</time>
      </trkpt>
      <trkpt lat="49.87577" lon="2.4165">
        <ele>56</ele>
        <time>2022-04-13T13:58:41Z</time>
      </trkpt>
      <trkpt lat="49.87576" lon="2.41649">
        <ele>56</ele>
        <time>2022-04-13T13:58:42Z</time>
      </trkpt>
      <trkpt lat="49.87576" lon="2.41647">
        <ele>56</ele>
        <time>2022-04-13T13:58:43Z</time>
      </trkpt>
      <trkpt lat="49.87576" lon="2.41646">
        <ele>56</ele>
        <time>2022-04-13T13:58:44Z</time>
      </trkpt>
      <trkpt lat="49.87575" lon="2.41644">
        <ele>56</ele>
        <time>2022-04-13T13:58:45Z</time>
      </trkpt>
      <trkpt lat="49.87575" lon="2.41643">
        <ele>56</ele>
        <time>2022-04-13T13:58:46Z</time>
      </trkpt>
      <trkpt lat="49.87575" lon="2.41641">
        <ele>56</ele>
        <time>2022-04-13T13:58:47Z</time>
      </trkpt>
      <trkpt lat="49.87575" lon="2.41638">
        <ele>56</ele>
        <time>2022-04-13T13:58:48Z</time>
      </trkpt>
      <trkpt lat="49.87574" lon="2.41637">
        <ele>56</ele>
        <time>2022-04-13T13:58:49Z</time>
      </trkpt>
      <trkpt lat="49.87574" lon="2.41636">
        <ele>56</ele>
        <time>2022-04-13T13:58:50Z</time>
      </trkpt>
      <trkpt lat="49.87574" lon="2.41632">
        <ele>56</ele>
        <time>2022-04-13T13:58:51Z</time>
      </trkpt>
      <trkpt lat="49.87573" lon="2.41631">
        <ele>56</ele>
        <time>2022-04-13T13:58:53Z</time>
      </trkpt>
      <trkpt lat="49.87573" lon="2.41629">
        <ele>56</ele>
        <time>2022-04-13T13:58:54Z</time>
      </trkpt>
      <trkpt lat="49.87573" lon="2.41627">
        <ele>56</ele>
        <time>2022-04-13T13:58:55Z</time>
      </trkpt>
      <trkpt lat="49.87572" lon="2.41626">
        <ele>56</ele>
        <time>2022-04-13T13:58:56Z</time>
      </trkpt>
      <trkpt lat="49.87572" lon="2.41621">
        <ele>56</ele>
        <time>2022-04-13T13:58:57Z</time>
      </trkpt>
      <trkpt lat="49.87571" lon="2.4162">
        <ele>56</ele>
        <time>2022-04-13T13:58:58Z</time>
      </trkpt>
      <trkpt lat="49.87571" lon="2.41617">
        <ele>56</ele>
        <time>2022-04-13T13:58:59Z</time>
      </trkpt>
      <trkpt lat="49.87571" lon="2.41615">
        <ele>55.9</ele>
        <time>2022-04-13T13:59:01Z</time>
      </trkpt>
      <trkpt lat="49.8757" lon="2.41613">
        <ele>55.9</ele>
        <time>2022-04-13T13:59:02Z</time>
      </trkpt>
      <trkpt lat="49.8757" lon="2.41611">
        <ele>55.9</ele>
        <time>2022-04-13T13:59:03Z</time>
      </trkpt>
      <trkpt lat="49.8757" lon="2.41608">
        <ele>55.9</ele>
        <time>2022-04-13T13:59:04Z</time>
      </trkpt>
      <trkpt lat="49.8757" lon="2.41606">
        <ele>55.9</ele>
        <time>2022-04-13T13:59:05Z</time>
      </trkpt>
      <trkpt lat="49.8757" lon="2.41603">
        <ele>55.9</ele>
        <time>2022-04-13T13:59:06Z</time>
      </trkpt>
      <trkpt lat="49.87569" lon="2.41601">
        <ele>55.9</ele>
        <time>2022-04-13T13:59:07Z</time>
      </trkpt>
      <trkpt lat="49.87569" lon="2.41598">
        <ele>55.9</ele>
        <time>2022-04-13T13:59:08Z</time>
      </trkpt>
      <trkpt lat="49.87569" lon="2.41597">
        <ele>56</ele>
        <time>2022-04-13T13:59:10Z</time>
      </trkpt>
      <trkpt lat="49.87569" lon="2.41595">
        <ele>56</ele>
        <time>2022-04-13T13:59:11Z</time>
      </trkpt>
      <trkpt lat="49.87568" lon="2.41592">
        <ele>56</ele>
        <time>2022-04-13T13:59:12Z</time>
      </trkpt>
      <trkpt lat="49.87568" lon="2.41591">
        <ele>56</ele>
        <time>2022-04-13T13:59:13Z</time>
      </trkpt>
      <trkpt lat="49.87568" lon="2.4159">
        <ele>56</ele>
        <time>2022-04-13T13:59:14Z</time>
      </trkpt>
      <trkpt lat="49.87568" lon="2.41587">
        <ele>56</ele>
        <time>2022-04-13T13:59:15Z</time>
      </trkpt>
      <trkpt lat="49.87567" lon="2.41585">
        <ele>56</ele>
        <time>2022-04-13T13:59:17Z</time>
      </trkpt>
      <trkpt lat="49.87567" lon="2.41583">
        <ele>56</ele>
        <time>2022-04-13T13:59:18Z</time>
      </trkpt>
      <trkpt lat="49.87567" lon="2.41582">
        <ele>56</ele>
        <time>2022-04-13T13:59:19Z</time>
      </trkpt>
      <trkpt lat="49.87567" lon="2.41582">
        <ele>56</ele>
        <time>2022-04-13T13:59:20Z</time>
      </trkpt>
      <trkpt lat="49.87567" lon="2.4158">
        <ele>56</ele>
        <time>2022-04-13T13:59:21Z</time>
      </trkpt>
      <trkpt lat="49.87566" lon="2.41579">
        <ele>56</ele>
        <time>2022-04-13T13:59:22Z</time>
      </trkpt>
      <trkpt lat="49.87566" lon="2.41577">
        <ele>56</ele>
        <time>2022-04-13T13:59:23Z</time>
      </trkpt>
      <trkpt lat="49.87566" lon="2.41575">
        <ele>56</ele>
        <time>2022-04-13T13:59:24Z</time>
      </trkpt>
      <trkpt lat="49.87565" lon="2.41572">
        <ele>56</ele>
        <time>2022-04-13T13:59:25Z</time>
      </trkpt>
      <trkpt lat="49.87565" lon="2.4157">
        <ele>56</ele>
        <time>2022-04-13T13:59:26Z</time>
      </trkpt>
      <trkpt lat="49.87565" lon="2.41569">
        <ele>56</ele>
        <time>2022-04-13T13:59:27Z</time>
      </trkpt>
      <trkpt lat="49.87565" lon="2.41567">
        <ele>56</ele>
        <time>2022-04-13T13:59:28Z</time>
      </trkpt>
      <trkpt lat="49.87565" lon="2.41565">
        <ele>56</ele>
        <time>2022-04-13T13:59:30Z</time>
      </trkpt>
      <trkpt lat="49.87565" lon="2.41564">
        <ele>56.1</ele>
        <time>2022-04-13T13:59:31Z</time>
      </trkpt>
      <trkpt lat="49.87565" lon="2.41562">
        <ele>56.1</ele>
        <time>2022-04-13T13:59:32Z</time>
      </trkpt>
      <trkpt lat="49.87565" lon="2.4156">
        <ele>56.1</ele>
        <time>2022-04-13T13:59:33Z</time>
      </trkpt>
      <trkpt lat="49.87565" lon="2.41559">
        <ele>56.1</ele>
        <time>2022-04-13T13:59:34Z</time>
      </trkpt>
      <trkpt lat="49.87565" lon="2.41555">
        <ele>56.1</ele>
        <time>2022-04-13T13:59:35Z</time>
      </trkpt>
      <trkpt lat="49.87564" lon="2.41554">
        <ele>56.1</ele>
        <time>2022-04-13T13:59:36Z</time>
      </trkpt>
      <trkpt lat="49.87564" lon="2.41553">
        <ele>56.1</ele>
        <time>2022-04-13T13:59:37Z</time>
      </trkpt>
      <trkpt lat="49.87564" lon="2.41549">
        <ele>56.1</ele>
        <time>2022-04-13T13:59:38Z</time>
      </trkpt>
      <trkpt lat="49.87564" lon="2.41548">
        <ele>56.1</ele>
        <time>2022-04-13T13:59:39Z</time>
      </trkpt>
      <trkpt lat="49.87564" lon="2.41547">
        <ele>56.1</ele>
        <time>2022-04-13T13:59:40Z</time>
      </trkpt>
      <trkpt lat="49.87563" lon="2.41544">
        <ele>56.1</ele>
        <time>2022-04-13T13:59:41Z</time>
      </trkpt>
      <trkpt lat="49.87563" lon="2.41542">
        <ele>56.1</ele>
        <time>2022-04-13T13:59:43Z</time>
      </trkpt>
      <trkpt lat="49.87563" lon="2.41541">
        <ele>56.1</ele>
        <time>2022-04-13T13:59:44Z</time>
      </trkpt>
      <trkpt lat="49.87563" lon="2.41539">
        <ele>56.1</ele>
        <time>2022-04-13T13:59:45Z</time>
      </trkpt>
      <trkpt lat="49.87562" lon="2.41539">
        <ele>56.1</ele>
        <time>2022-04-13T13:59:46Z</time>
      </trkpt>
      <trkpt lat="49.87562" lon="2.41538">
        <ele>56.1</ele>
        <time>2022-04-13T13:59:47Z</time>
      </trkpt>
      <trkpt lat="49.87561" lon="2.41536">
        <ele>56.1</ele>
        <time>2022-04-13T13:59:48Z</time>
      </trkpt>
      <trkpt lat="49.87561" lon="2.41534">
        <ele>56.2</ele>
        <time>2022-04-13T13:59:49Z</time>
      </trkpt>
      <trkpt lat="49.87561" lon="2.41532">
        <ele>56.2</ele>
        <time>2022-04-13T13:59:50Z</time>
      </trkpt>
      <trkpt lat="49.8756" lon="2.4153">
        <ele>56.2</ele>
        <time>2022-04-13T13:59:51Z</time>
      </trkpt>
      <trkpt lat="49.8756" lon="2.41527">
        <ele>56.2</ele>
        <time>2022-04-13T13:59:53Z</time>
      </trkpt>
      <trkpt lat="49.87559" lon="2.41523">
        <ele>56.2</ele>
        <time>2022-04-13T13:59:54Z</time>
      </trkpt>
      <trkpt lat="49.87559" lon="2.41522">
        <ele>56.2</ele>
        <time>2022-04-13T13:59:55Z</time>
      </trkpt>
      <trkpt lat="49.87559" lon="2.41521">
        <ele>56.2</ele>
        <time>2022-04-13T13:59:56Z</time>
      </trkpt>
      <trkpt lat="49.87559" lon="2.41518">
        <ele>56.2</ele>
        <time>2022-04-13T13:59:57Z</time>
      </trkpt>
      <trkpt lat="49.87559" lon="2.41516">
        <ele>56.2</ele>
        <time>2022-04-13T13:59:58Z</time>
      </trkpt>
      <trkpt lat="49.87558" lon="2.41511">
        <ele>56.2</ele>
        <time>2022-04-13T14:00:00Z</time>
      </trkpt>
      <trkpt lat="49.87558" lon="2.4151">
        <ele>56.1</ele>
        <time>2022-04-13T14:00:01Z</time>
      </trkpt>
      <trkpt lat="49.87558" lon="2.41508">
        <ele>56.1</ele>
        <time>2022-04-13T14:00:02Z</time>
      </trkpt>
      <trkpt lat="49.87557" lon="2.41505">
        <ele>56.1</ele>
        <time>2022-04-13T14:00:03Z</time>
      </trkpt>
      <trkpt lat="49.87557" lon="2.41503">
        <ele>56.1</ele>
        <time>2022-04-13T14:00:04Z</time>
      </trkpt>
      <trkpt lat="49.87557" lon="2.41502">
        <ele>56.1</ele>
        <time>2022-04-13T14:00:05Z</time>
      </trkpt>
      <trkpt lat="49.87557" lon="2.415">
        <ele>56.1</ele>
        <time>2022-04-13T14:00:06Z</time>
      </trkpt>
      <trkpt lat="49.87557" lon="2.41499">
        <ele>56.1</ele>
        <time>2022-04-13T14:00:07Z</time>
      </trkpt>
      <trkpt lat="49.87557" lon="2.41497">
        <ele>56.1</ele>
        <time>2022-04-13T14:00:08Z</time>
      </trkpt>
      <trkpt lat="49.87557" lon="2.41496">
        <ele>56.1</ele>
        <time>2022-04-13T14:00:09Z</time>
      </trkpt>
      <trkpt lat="49.87557" lon="2.41493">
        <ele>56.1</ele>
        <time>2022-04-13T14:00:11Z</time>
      </trkpt>
      <trkpt lat="49.87557" lon="2.4149">
        <ele>56.1</ele>
        <time>2022-04-13T14:00:12Z</time>
      </trkpt>
      <trkpt lat="49.87556" lon="2.41488">
        <ele>56.1</ele>
        <time>2022-04-13T14:00:13Z</time>
      </trkpt>
      <trkpt lat="49.87556" lon="2.41486">
        <ele>56.1</ele>
        <time>2022-04-13T14:00:14Z</time>
      </trkpt>
      <trkpt lat="49.87556" lon="2.41484">
        <ele>56</ele>
        <time>2022-04-13T14:00:15Z</time>
      </trkpt>
      <trkpt lat="49.87557" lon="2.41483">
        <ele>56</ele>
        <time>2022-04-13T14:00:16Z</time>
      </trkpt>
      <trkpt lat="49.87557" lon="2.41482">
        <ele>56</ele>
        <time>2022-04-13T14:00:17Z</time>
      </trkpt>
      <trkpt lat="49.87557" lon="2.41479">
        <ele>56</ele>
        <time>2022-04-13T14:00:19Z</time>
      </trkpt>
      <trkpt lat="49.87557" lon="2.41477">
        <ele>56</ele>
        <time>2022-04-13T14:00:20Z</time>
      </trkpt>
      <trkpt lat="49.87557" lon="2.41474">
        <ele>56</ele>
        <time>2022-04-13T14:00:21Z</time>
      </trkpt>
      <trkpt lat="49.87556" lon="2.41473">
        <ele>56</ele>
        <time>2022-04-13T14:00:22Z</time>
      </trkpt>
      <trkpt lat="49.87556" lon="2.41472">
        <ele>56</ele>
        <time>2022-04-13T14:00:23Z</time>
      </trkpt>
      <trkpt lat="49.87556" lon="2.41468">
        <ele>55.9</ele>
        <time>2022-04-13T14:00:24Z</time>
      </trkpt>
      <trkpt lat="49.87556" lon="2.41467">
        <ele>55.9</ele>
        <time>2022-04-13T14:00:25Z</time>
      </trkpt>
      <trkpt lat="49.87556" lon="2.41465">
        <ele>55.9</ele>
        <time>2022-04-13T14:00:26Z</time>
      </trkpt>
      <trkpt lat="49.87555" lon="2.41463">
        <ele>55.9</ele>
        <time>2022-04-13T14:00:27Z</time>
      </trkpt>
      <trkpt lat="49.87555" lon="2.41462">
        <ele>55.9</ele>
        <time>2022-04-13T14:00:28Z</time>
      </trkpt>
      <trkpt lat="49.87555" lon="2.4146">
        <ele>55.9</ele>
        <time>2022-04-13T14:00:30Z</time>
      </trkpt>
      <trkpt lat="49.87555" lon="2.41459">
        <ele>55.9</ele>
        <time>2022-04-13T14:00:31Z</time>
      </trkpt>
      <trkpt lat="49.87555" lon="2.41457">
        <ele>55.9</ele>
        <time>2022-04-13T14:00:32Z</time>
      </trkpt>
      <trkpt lat="49.87555" lon="2.41455">
        <ele>55.9</ele>
        <time>2022-04-13T14:00:33Z</time>
      </trkpt>
      <trkpt lat="49.87555" lon="2.41454">
        <ele>55.8</ele>
        <time>2022-04-13T14:00:34Z</time>
      </trkpt>
      <trkpt lat="49.87555" lon="2.41451">
        <ele>55.8</ele>
        <time>2022-04-13T14:00:35Z</time>
      </trkpt>
      <trkpt lat="49.87555" lon="2.41448">
        <ele>55.8</ele>
        <time>2022-04-13T14:00:37Z</time>
      </trkpt>
      <trkpt lat="49.87555" lon="2.41445">
        <ele>55.8</ele>
        <time>2022-04-13T14:00:38Z</time>
      </trkpt>
      <trkpt lat="49.87555" lon="2.41443">
        <ele>55.8</ele>
        <time>2022-04-13T14:00:39Z</time>
      </trkpt>
      <trkpt lat="49.87555" lon="2.41442">
        <ele>55.8</ele>
        <time>2022-04-13T14:00:40Z</time>
      </trkpt>
      <trkpt lat="49.87555" lon="2.4144">
        <ele>55.7</ele>
        <time>2022-04-13T14:00:41Z</time>
      </trkpt>
      <trkpt lat="49.87555" lon="2.41438">
        <ele>55.7</ele>
        <time>2022-04-13T14:00:42Z</time>
      </trkpt>
      <trkpt lat="49.87555" lon="2.41435">
        <ele>55.7</ele>
        <time>2022-04-13T14:00:43Z</time>
      </trkpt>
      <trkpt lat="49.87555" lon="2.41432">
        <ele>55.7</ele>
        <time>2022-04-13T14:00:44Z</time>
      </trkpt>
      <trkpt lat="49.87555" lon="2.4143">
        <ele>55.7</ele>
        <time>2022-04-13T14:00:45Z</time>
      </trkpt>
      <trkpt lat="49.87555" lon="2.41427">
        <ele>55.7</ele>
        <time>2022-04-13T14:00:46Z</time>
      </trkpt>
      <trkpt lat="49.87555" lon="2.41426">
        <ele>55.7</ele>
        <time>2022-04-13T14:00:47Z</time>
      </trkpt>
      <trkpt lat="49.87555" lon="2.41424">
        <ele>55.7</ele>
        <time>2022-04-13T14:00:48Z</time>
      </trkpt>
      <trkpt lat="49.87555" lon="2.41423">
        <ele>55.6</ele>
        <time>2022-04-13T14:00:49Z</time>
      </trkpt>
      <trkpt lat="49.87555" lon="2.41422">
        <ele>55.6</ele>
        <time>2022-04-13T14:00:50Z</time>
      </trkpt>
      <trkpt lat="49.87556" lon="2.4142">
        <ele>55.6</ele>
        <time>2022-04-13T14:00:51Z</time>
      </trkpt>
      <trkpt lat="49.87556" lon="2.41418">
        <ele>55.6</ele>
        <time>2022-04-13T14:00:52Z</time>
      </trkpt>
      <trkpt lat="49.87556" lon="2.41415">
        <ele>55.6</ele>
        <time>2022-04-13T14:00:54Z</time>
      </trkpt>
      <trkpt lat="49.87556" lon="2.41413">
        <ele>55.6</ele>
        <time>2022-04-13T14:00:55Z</time>
      </trkpt>
      <trkpt lat="49.87556" lon="2.41411">
        <ele>55.6</ele>
        <time>2022-04-13T14:00:56Z</time>
      </trkpt>
      <trkpt lat="49.87556" lon="2.41409">
        <ele>55.6</ele>
        <time>2022-04-13T14:00:57Z</time>
      </trkpt>
      <trkpt lat="49.87556" lon="2.41407">
        <ele>55.5</ele>
        <time>2022-04-13T14:00:58Z</time>
      </trkpt>
      <trkpt lat="49.87556" lon="2.41404">
        <ele>55.5</ele>
        <time>2022-04-13T14:00:59Z</time>
      </trkpt>
      <trkpt lat="49.87555" lon="2.41401">
        <ele>55.5</ele>
        <time>2022-04-13T14:01:00Z</time>
      </trkpt>
      <trkpt lat="49.87555" lon="2.414">
        <ele>55.5</ele>
        <time>2022-04-13T14:01:01Z</time>
      </trkpt>
      <trkpt lat="49.87555" lon="2.41399">
        <ele>55.5</ele>
        <time>2022-04-13T14:01:02Z</time>
      </trkpt>
      <trkpt lat="49.87555" lon="2.41395">
        <ele>55.4</ele>
        <time>2022-04-13T14:01:03Z</time>
      </trkpt>
      <trkpt lat="49.87555" lon="2.41394">
        <ele>55.4</ele>
        <time>2022-04-13T14:01:04Z</time>
      </trkpt>
      <trkpt lat="49.87555" lon="2.41392">
        <ele>55.4</ele>
        <time>2022-04-13T14:01:05Z</time>
      </trkpt>
      <trkpt lat="49.87556" lon="2.4139">
        <ele>55.4</ele>
        <time>2022-04-13T14:01:06Z</time>
      </trkpt>
      <trkpt lat="49.87556" lon="2.41389">
        <ele>55.4</ele>
        <time>2022-04-13T14:01:07Z</time>
      </trkpt>
      <trkpt lat="49.87556" lon="2.41387">
        <ele>55.3</ele>
        <time>2022-04-13T14:01:09Z</time>
      </trkpt>
      <trkpt lat="49.87556" lon="2.41385">
        <ele>55.3</ele>
        <time>2022-04-13T14:01:10Z</time>
      </trkpt>
      <trkpt lat="49.87556" lon="2.41384">
        <ele>55.3</ele>
        <time>2022-04-13T14:01:11Z</time>
      </trkpt>
      <trkpt lat="49.87556" lon="2.41382">
        <ele>55.3</ele>
        <time>2022-04-13T14:01:12Z</time>
      </trkpt>
      <trkpt lat="49.87556" lon="2.4138">
        <ele>55.3</ele>
        <time>2022-04-13T14:01:13Z</time>
      </trkpt>
      <trkpt lat="49.87556" lon="2.41378">
        <ele>55.2</ele>
        <time>2022-04-13T14:01:14Z</time>
      </trkpt>
      <trkpt lat="49.87556" lon="2.41377">
        <ele>55.2</ele>
        <time>2022-04-13T14:01:15Z</time>
      </trkpt>
      <trkpt lat="49.87556" lon="2.41373">
        <ele>55.2</ele>
        <time>2022-04-13T14:01:16Z</time>
      </trkpt>
      <trkpt lat="49.87556" lon="2.41372">
        <ele>55.2</ele>
        <time>2022-04-13T14:01:17Z</time>
      </trkpt>
      <trkpt lat="49.87556" lon="2.41371">
        <ele>55.2</ele>
        <time>2022-04-13T14:01:18Z</time>
      </trkpt>
      <trkpt lat="49.87556" lon="2.41368">
        <ele>55.1</ele>
        <time>2022-04-13T14:01:19Z</time>
      </trkpt>
      <trkpt lat="49.87556" lon="2.41366">
        <ele>55.1</ele>
        <time>2022-04-13T14:01:21Z</time>
      </trkpt>
      <trkpt lat="49.87556" lon="2.41365">
        <ele>55.1</ele>
        <time>2022-04-13T14:01:22Z</time>
      </trkpt>
      <trkpt lat="49.87556" lon="2.41363">
        <ele>55.1</ele>
        <time>2022-04-13T14:01:23Z</time>
      </trkpt>
      <trkpt lat="49.87556" lon="2.41361">
        <ele>55.1</ele>
        <time>2022-04-13T14:01:24Z</time>
      </trkpt>
      <trkpt lat="49.87556" lon="2.4136">
        <ele>55.1</ele>
        <time>2022-04-13T14:01:25Z</time>
      </trkpt>
      <trkpt lat="49.87556" lon="2.41358">
        <ele>55</ele>
        <time>2022-04-13T14:01:26Z</time>
      </trkpt>
      <trkpt lat="49.87556" lon="2.41356">
        <ele>55</ele>
        <time>2022-04-13T14:01:27Z</time>
      </trkpt>
      <trkpt lat="49.87556" lon="2.41353">
        <ele>55</ele>
        <time>2022-04-13T14:01:29Z</time>
      </trkpt>
      <trkpt lat="49.87556" lon="2.41352">
        <ele>55</ele>
        <time>2022-04-13T14:01:30Z</time>
      </trkpt>
      <trkpt lat="49.87556" lon="2.4135">
        <ele>55</ele>
        <time>2022-04-13T14:01:31Z</time>
      </trkpt>
      <trkpt lat="49.87557" lon="2.41347">
        <ele>55</ele>
        <time>2022-04-13T14:01:33Z</time>
      </trkpt>
      <trkpt lat="49.87557" lon="2.41345">
        <ele>54.9</ele>
        <time>2022-04-13T14:01:34Z</time>
      </trkpt>
      <trkpt lat="49.87557" lon="2.41343">
        <ele>54.9</ele>
        <time>2022-04-13T14:01:35Z</time>
      </trkpt>
      <trkpt lat="49.87557" lon="2.41342">
        <ele>54.9</ele>
        <time>2022-04-13T14:01:36Z</time>
      </trkpt>
      <trkpt lat="49.87557" lon="2.41339">
        <ele>54.9</ele>
        <time>2022-04-13T14:01:37Z</time>
      </trkpt>
      <trkpt lat="49.87557" lon="2.41337">
        <ele>54.9</ele>
        <time>2022-04-13T14:01:38Z</time>
      </trkpt>
      <trkpt lat="49.87557" lon="2.41336">
        <ele>54.9</ele>
        <time>2022-04-13T14:01:39Z</time>
      </trkpt>
      <trkpt lat="49.87557" lon="2.41333">
        <ele>54.9</ele>
        <time>2022-04-13T14:01:41Z</time>
      </trkpt>
      <trkpt lat="49.87557" lon="2.41331">
        <ele>54.9</ele>
        <time>2022-04-13T14:01:42Z</time>
      </trkpt>
      <trkpt lat="49.87557" lon="2.41328">
        <ele>54.9</ele>
        <time>2022-04-13T14:01:43Z</time>
      </trkpt>
      <trkpt lat="49.87557" lon="2.41327">
        <ele>54.9</ele>
        <time>2022-04-13T14:01:44Z</time>
      </trkpt>
      <trkpt lat="49.87557" lon="2.41326">
        <ele>54.9</ele>
        <time>2022-04-13T14:01:45Z</time>
      </trkpt>
      <trkpt lat="49.87557" lon="2.41324">
        <ele>54.9</ele>
        <time>2022-04-13T14:01:46Z</time>
      </trkpt>
      <trkpt lat="49.87557" lon="2.41321">
        <ele>54.9</ele>
        <time>2022-04-13T14:01:47Z</time>
      </trkpt>
      <trkpt lat="49.87557" lon="2.41318">
        <ele>54.8</ele>
        <time>2022-04-13T14:01:48Z</time>
      </trkpt>
      <trkpt lat="49.87557" lon="2.41317">
        <ele>54.8</ele>
        <time>2022-04-13T14:01:49Z</time>
      </trkpt>
      <trkpt lat="49.87557" lon="2.41315">
        <ele>54.8</ele>
        <time>2022-04-13T14:01:50Z</time>
      </trkpt>
      <trkpt lat="49.87557" lon="2.41313">
        <ele>54.8</ele>
        <time>2022-04-13T14:01:51Z</time>
      </trkpt>
      <trkpt lat="49.87557" lon="2.4131">
        <ele>54.8</ele>
        <time>2022-04-13T14:01:52Z</time>
      </trkpt>
      <trkpt lat="49.87556" lon="2.41306">
        <ele>54.7</ele>
        <time>2022-04-13T14:01:54Z</time>
      </trkpt>
      <trkpt lat="49.87556" lon="2.41304">
        <ele>54.7</ele>
        <time>2022-04-13T14:01:55Z</time>
      </trkpt>
      <trkpt lat="49.87556" lon="2.41302">
        <ele>54.7</ele>
        <time>2022-04-13T14:01:56Z</time>
      </trkpt>
      <trkpt lat="49.87556" lon="2.41299">
        <ele>54.7</ele>
        <time>2022-04-13T14:01:57Z</time>
      </trkpt>
      <trkpt lat="49.87556" lon="2.41297">
        <ele>54.7</ele>
        <time>2022-04-13T14:01:58Z</time>
      </trkpt>
      <trkpt lat="49.87556" lon="2.41294">
        <ele>54.6</ele>
        <time>2022-04-13T14:01:59Z</time>
      </trkpt>
      <trkpt lat="49.87556" lon="2.4129">
        <ele>54.5</ele>
        <time>2022-04-13T14:02:01Z</time>
      </trkpt>
      <trkpt lat="49.87556" lon="2.41289">
        <ele>54.5</ele>
        <time>2022-04-13T14:02:02Z</time>
      </trkpt>
      <trkpt lat="49.87556" lon="2.41287">
        <ele>54.5</ele>
        <time>2022-04-13T14:02:03Z</time>
      </trkpt>
      <trkpt lat="49.87556" lon="2.41284">
        <ele>54.5</ele>
        <time>2022-04-13T14:02:04Z</time>
      </trkpt>
      <trkpt lat="49.87555" lon="2.4128">
        <ele>54.4</ele>
        <time>2022-04-13T14:02:05Z</time>
      </trkpt>
      <trkpt lat="49.87555" lon="2.41279">
        <ele>54.4</ele>
        <time>2022-04-13T14:02:06Z</time>
      </trkpt>
      <trkpt lat="49.87555" lon="2.41275">
        <ele>54.3</ele>
        <time>2022-04-13T14:02:08Z</time>
      </trkpt>
      <trkpt lat="49.87555" lon="2.41274">
        <ele>54.3</ele>
        <time>2022-04-13T14:02:10Z</time>
      </trkpt>
      <trkpt lat="49.87556" lon="2.41274">
        <ele>54.3</ele>
        <time>2022-04-13T14:02:11Z</time>
      </trkpt>
      <trkpt lat="49.87556" lon="2.41273">
        <ele>54.3</ele>
        <time>2022-04-13T14:02:12Z</time>
      </trkpt>
      <trkpt lat="49.87556" lon="2.4127">
        <ele>54.2</ele>
        <time>2022-04-13T14:02:13Z</time>
      </trkpt>
      <trkpt lat="49.87556" lon="2.41268">
        <ele>54.2</ele>
        <time>2022-04-13T14:02:14Z</time>
      </trkpt>
      <trkpt lat="49.87556" lon="2.41267">
        <ele>54.2</ele>
        <time>2022-04-13T14:02:15Z</time>
      </trkpt>
      <trkpt lat="49.87556" lon="2.41264">
        <ele>54.1</ele>
        <time>2022-04-13T14:02:16Z</time>
      </trkpt>
      <trkpt lat="49.87556" lon="2.41263">
        <ele>54.1</ele>
        <time>2022-04-13T14:02:17Z</time>
      </trkpt>
      <trkpt lat="49.87557" lon="2.41262">
        <ele>54.1</ele>
        <time>2022-04-13T14:02:18Z</time>
      </trkpt>
      <trkpt lat="49.87557" lon="2.4126">
        <ele>54</ele>
        <time>2022-04-13T14:02:20Z</time>
      </trkpt>
      <trkpt lat="49.87557" lon="2.41258">
        <ele>54</ele>
        <time>2022-04-13T14:02:21Z</time>
      </trkpt>
      <trkpt lat="49.87557" lon="2.41257">
        <ele>54</ele>
        <time>2022-04-13T14:02:22Z</time>
      </trkpt>
      <trkpt lat="49.87557" lon="2.41255">
        <ele>54</ele>
        <time>2022-04-13T14:02:23Z</time>
      </trkpt>
      <trkpt lat="49.87558" lon="2.41253">
        <ele>53.9</ele>
        <time>2022-04-13T14:02:24Z</time>
      </trkpt>
      <trkpt lat="49.87558" lon="2.41252">
        <ele>53.9</ele>
        <time>2022-04-13T14:02:25Z</time>
      </trkpt>
      <trkpt lat="49.87558" lon="2.4125">
        <ele>53.9</ele>
        <time>2022-04-13T14:02:26Z</time>
      </trkpt>
      <trkpt lat="49.87558" lon="2.41248">
        <ele>53.8</ele>
        <time>2022-04-13T14:02:27Z</time>
      </trkpt>
      <trkpt lat="49.87558" lon="2.41246">
        <ele>53.8</ele>
        <time>2022-04-13T14:02:29Z</time>
      </trkpt>
      <trkpt lat="49.87558" lon="2.41243">
        <ele>53.7</ele>
        <time>2022-04-13T14:02:30Z</time>
      </trkpt>
      <trkpt lat="49.87558" lon="2.41241">
        <ele>53.7</ele>
        <time>2022-04-13T14:02:31Z</time>
      </trkpt>
      <trkpt lat="49.87558" lon="2.4124">
        <ele>53.7</ele>
        <time>2022-04-13T14:02:32Z</time>
      </trkpt>
      <trkpt lat="49.87558" lon="2.41237">
        <ele>53.6</ele>
        <time>2022-04-13T14:02:34Z</time>
      </trkpt>
      <trkpt lat="49.87558" lon="2.41235">
        <ele>53.6</ele>
        <time>2022-04-13T14:02:35Z</time>
      </trkpt>
      <trkpt lat="49.87558" lon="2.41233">
        <ele>53.6</ele>
        <time>2022-04-13T14:02:36Z</time>
      </trkpt>
      <trkpt lat="49.87559" lon="2.41231">
        <ele>53.5</ele>
        <time>2022-04-13T14:02:37Z</time>
      </trkpt>
      <trkpt lat="49.87559" lon="2.41228">
        <ele>53.5</ele>
        <time>2022-04-13T14:02:39Z</time>
      </trkpt>
      <trkpt lat="49.8756" lon="2.41226">
        <ele>53.4</ele>
        <time>2022-04-13T14:02:40Z</time>
      </trkpt>
      <trkpt lat="49.8756" lon="2.41224">
        <ele>53.4</ele>
        <time>2022-04-13T14:02:41Z</time>
      </trkpt>
      <trkpt lat="49.87561" lon="2.41222">
        <ele>53.3</ele>
        <time>2022-04-13T14:02:42Z</time>
      </trkpt>
      <trkpt lat="49.87561" lon="2.4122">
        <ele>53.3</ele>
        <time>2022-04-13T14:02:43Z</time>
      </trkpt>
      <trkpt lat="49.87561" lon="2.41218">
        <ele>53.2</ele>
        <time>2022-04-13T14:02:44Z</time>
      </trkpt>
      <trkpt lat="49.87561" lon="2.41215">
        <ele>53.2</ele>
        <time>2022-04-13T14:02:45Z</time>
      </trkpt>
      <trkpt lat="49.87561" lon="2.41213">
        <ele>53.1</ele>
        <time>2022-04-13T14:02:46Z</time>
      </trkpt>
      <trkpt lat="49.87562" lon="2.4121">
        <ele>53.1</ele>
        <time>2022-04-13T14:02:48Z</time>
      </trkpt>
      <trkpt lat="49.87562" lon="2.41209">
        <ele>53</ele>
        <time>2022-04-13T14:02:49Z</time>
      </trkpt>
      <trkpt lat="49.87562" lon="2.41207">
        <ele>53</ele>
        <time>2022-04-13T14:02:50Z</time>
      </trkpt>
      <trkpt lat="49.87562" lon="2.41206">
        <ele>53</ele>
        <time>2022-04-13T14:02:51Z</time>
      </trkpt>
      <trkpt lat="49.87562" lon="2.41204">
        <ele>52.9</ele>
        <time>2022-04-13T14:02:52Z</time>
      </trkpt>
      <trkpt lat="49.87562" lon="2.41199">
        <ele>52.8</ele>
        <time>2022-04-13T14:02:53Z</time>
      </trkpt>
      <trkpt lat="49.87562" lon="2.41197">
        <ele>52.8</ele>
        <time>2022-04-13T14:02:55Z</time>
      </trkpt>
      <trkpt lat="49.87562" lon="2.41195">
        <ele>52.7</ele>
        <time>2022-04-13T14:02:57Z</time>
      </trkpt>
      <trkpt lat="49.87562" lon="2.41193">
        <ele>52.7</ele>
        <time>2022-04-13T14:02:58Z</time>
      </trkpt>
      <trkpt lat="49.87562" lon="2.4119">
        <ele>52.6</ele>
        <time>2022-04-13T14:02:59Z</time>
      </trkpt>
      <trkpt lat="49.87562" lon="2.41188">
        <ele>52.5</ele>
        <time>2022-04-13T14:03:00Z</time>
      </trkpt>
      <trkpt lat="49.87562" lon="2.41186">
        <ele>52.5</ele>
        <time>2022-04-13T14:03:01Z</time>
      </trkpt>
      <trkpt lat="49.87562" lon="2.41184">
        <ele>52.4</ele>
        <time>2022-04-13T14:03:02Z</time>
      </trkpt>
      <trkpt lat="49.87563" lon="2.41182">
        <ele>52.4</ele>
        <time>2022-04-13T14:03:03Z</time>
      </trkpt>
      <trkpt lat="49.87563" lon="2.41181">
        <ele>52.4</ele>
        <time>2022-04-13T14:03:04Z</time>
      </trkpt>
      <trkpt lat="49.87563" lon="2.4118">
        <ele>52.3</ele>
        <time>2022-04-13T14:03:05Z</time>
      </trkpt>
      <trkpt lat="49.87563" lon="2.41177">
        <ele>52.3</ele>
        <time>2022-04-13T14:03:06Z</time>
      </trkpt>
      <trkpt lat="49.87563" lon="2.41175">
        <ele>52.2</ele>
        <time>2022-04-13T14:03:07Z</time>
      </trkpt>
      <trkpt lat="49.87563" lon="2.4117">
        <ele>52.1</ele>
        <time>2022-04-13T14:03:09Z</time>
      </trkpt>
      <trkpt lat="49.87563" lon="2.41169">
        <ele>52</ele>
        <time>2022-04-13T14:03:10Z</time>
      </trkpt>
      <trkpt lat="49.87564" lon="2.41167">
        <ele>52</ele>
        <time>2022-04-13T14:03:11Z</time>
      </trkpt>
      <trkpt lat="49.87564" lon="2.41164">
        <ele>51.9</ele>
        <time>2022-04-13T14:03:12Z</time>
      </trkpt>
      <trkpt lat="49.87564" lon="2.41163">
        <ele>51.9</ele>
        <time>2022-04-13T14:03:13Z</time>
      </trkpt>
      <trkpt lat="49.87564" lon="2.41161">
        <ele>51.8</ele>
        <time>2022-04-13T14:03:14Z</time>
      </trkpt>
      <trkpt lat="49.87564" lon="2.41159">
        <ele>51.8</ele>
        <time>2022-04-13T14:03:15Z</time>
      </trkpt>
      <trkpt lat="49.87564" lon="2.41156">
        <ele>51.7</ele>
        <time>2022-04-13T14:03:16Z</time>
      </trkpt>
      <trkpt lat="49.87565" lon="2.41154">
        <ele>51.6</ele>
        <time>2022-04-13T14:03:17Z</time>
      </trkpt>
      <trkpt lat="49.87565" lon="2.41153">
        <ele>51.6</ele>
        <time>2022-04-13T14:03:18Z</time>
      </trkpt>
      <trkpt lat="49.87565" lon="2.4115">
        <ele>51.5</ele>
        <time>2022-04-13T14:03:19Z</time>
      </trkpt>
      <trkpt lat="49.87565" lon="2.41149">
        <ele>51.5</ele>
        <time>2022-04-13T14:03:20Z</time>
      </trkpt>
      <trkpt lat="49.87566" lon="2.41148">
        <ele>51.5</ele>
        <time>2022-04-13T14:03:21Z</time>
      </trkpt>
      <trkpt lat="49.87566" lon="2.41147">
        <ele>51.4</ele>
        <time>2022-04-13T14:03:22Z</time>
      </trkpt>
      <trkpt lat="49.87566" lon="2.41144">
        <ele>51.4</ele>
        <time>2022-04-13T14:03:23Z</time>
      </trkpt>
      <trkpt lat="49.87566" lon="2.41142">
        <ele>51.3</ele>
        <time>2022-04-13T14:03:25Z</time>
      </trkpt>
      <trkpt lat="49.87566" lon="2.41141">
        <ele>51.3</ele>
        <time>2022-04-13T14:03:26Z</time>
      </trkpt>
      <trkpt lat="49.87567" lon="2.41138">
        <ele>51.2</ele>
        <time>2022-04-13T14:03:27Z</time>
      </trkpt>
      <trkpt lat="49.87567" lon="2.41137">
        <ele>51.2</ele>
        <time>2022-04-13T14:03:28Z</time>
      </trkpt>
      <trkpt lat="49.87567" lon="2.41135">
        <ele>51.2</ele>
        <time>2022-04-13T14:03:29Z</time>
      </trkpt>
      <trkpt lat="49.87567" lon="2.41134">
        <ele>51.1</ele>
        <time>2022-04-13T14:03:30Z</time>
      </trkpt>
      <trkpt lat="49.87567" lon="2.41132">
        <ele>51.1</ele>
        <time>2022-04-13T14:03:31Z</time>
      </trkpt>
      <trkpt lat="49.87567" lon="2.41129">
        <ele>51</ele>
        <time>2022-04-13T14:03:33Z</time>
      </trkpt>
      <trkpt lat="49.87568" lon="2.41126">
        <ele>51</ele>
        <time>2022-04-13T14:03:34Z</time>
      </trkpt>
      <trkpt lat="49.87568" lon="2.41125">
        <ele>50.9</ele>
        <time>2022-04-13T14:03:35Z</time>
      </trkpt>
      <trkpt lat="49.87568" lon="2.41123">
        <ele>50.9</ele>
        <time>2022-04-13T14:03:36Z</time>
      </trkpt>
      <trkpt lat="49.87568" lon="2.41121">
        <ele>50.9</ele>
        <time>2022-04-13T14:03:37Z</time>
      </trkpt>
      <trkpt lat="49.87568" lon="2.41119">
        <ele>50.8</ele>
        <time>2022-04-13T14:03:38Z</time>
      </trkpt>
      <trkpt lat="49.87568" lon="2.41118">
        <ele>50.8</ele>
        <time>2022-04-13T14:03:39Z</time>
      </trkpt>
      <trkpt lat="49.87569" lon="2.41116">
        <ele>50.8</ele>
        <time>2022-04-13T14:03:40Z</time>
      </trkpt>
      <trkpt lat="49.87569" lon="2.41115">
        <ele>50.7</ele>
        <time>2022-04-13T14:03:41Z</time>
      </trkpt>
      <trkpt lat="49.87569" lon="2.41114">
        <ele>50.7</ele>
        <time>2022-04-13T14:03:42Z</time>
      </trkpt>
      <trkpt lat="49.87569" lon="2.41113">
        <ele>50.7</ele>
        <time>2022-04-13T14:03:43Z</time>
      </trkpt>
      <trkpt lat="49.87569" lon="2.41111">
        <ele>50.7</ele>
        <time>2022-04-13T14:03:44Z</time>
      </trkpt>
      <trkpt lat="49.87569" lon="2.41109">
        <ele>50.6</ele>
        <time>2022-04-13T14:03:46Z</time>
      </trkpt>
      <trkpt lat="49.87569" lon="2.41106">
        <ele>50.6</ele>
        <time>2022-04-13T14:03:47Z</time>
      </trkpt>
      <trkpt lat="49.87569" lon="2.41105">
        <ele>50.6</ele>
        <time>2022-04-13T14:03:48Z</time>
      </trkpt>
      <trkpt lat="49.87569" lon="2.41103">
        <ele>50.6</ele>
        <time>2022-04-13T14:03:49Z</time>
      </trkpt>
      <trkpt lat="49.87569" lon="2.41101">
        <ele>50.5</ele>
        <time>2022-04-13T14:03:50Z</time>
      </trkpt>
      <trkpt lat="49.87569" lon="2.41099">
        <ele>50.5</ele>
        <time>2022-04-13T14:03:51Z</time>
      </trkpt>
      <trkpt lat="49.87569" lon="2.41097">
        <ele>50.5</ele>
        <time>2022-04-13T14:03:53Z</time>
      </trkpt>
      <trkpt lat="49.87569" lon="2.41093">
        <ele>50.5</ele>
        <time>2022-04-13T14:03:54Z</time>
      </trkpt>
      <trkpt lat="49.87569" lon="2.41092">
        <ele>50.5</ele>
        <time>2022-04-13T14:03:55Z</time>
      </trkpt>
      <trkpt lat="49.87569" lon="2.41091">
        <ele>50.4</ele>
        <time>2022-04-13T14:03:56Z</time>
      </trkpt>
      <trkpt lat="49.87569" lon="2.41089">
        <ele>50.4</ele>
        <time>2022-04-13T14:03:57Z</time>
      </trkpt>
      <trkpt lat="49.87569" lon="2.41088">
        <ele>50.4</ele>
        <time>2022-04-13T14:03:58Z</time>
      </trkpt>
      <trkpt lat="49.87569" lon="2.41087">
        <ele>50.4</ele>
        <time>2022-04-13T14:03:59Z</time>
      </trkpt>
      <trkpt lat="49.87569" lon="2.41086">
        <ele>50.4</ele>
        <time>2022-04-13T14:04:00Z</time>
      </trkpt>
      <trkpt lat="49.87569" lon="2.41083">
        <ele>50.4</ele>
        <time>2022-04-13T14:04:02Z</time>
      </trkpt>
      <trkpt lat="49.87569" lon="2.41081">
        <ele>50.4</ele>
        <time>2022-04-13T14:04:03Z</time>
      </trkpt>
      <trkpt lat="49.87569" lon="2.41079">
        <ele>50.4</ele>
        <time>2022-04-13T14:04:04Z</time>
      </trkpt>
      <trkpt lat="49.87569" lon="2.41077">
        <ele>50.4</ele>
        <time>2022-04-13T14:04:05Z</time>
      </trkpt>
      <trkpt lat="49.87569" lon="2.41073">
        <ele>50.3</ele>
        <time>2022-04-13T14:04:06Z</time>
      </trkpt>
      <trkpt lat="49.87569" lon="2.41071">
        <ele>50.3</ele>
        <time>2022-04-13T14:04:08Z</time>
      </trkpt>
      <trkpt lat="49.8757" lon="2.4107">
        <ele>50.3</ele>
        <time>2022-04-13T14:04:09Z</time>
      </trkpt>
      <trkpt lat="49.8757" lon="2.41068">
        <ele>50.3</ele>
        <time>2022-04-13T14:04:10Z</time>
      </trkpt>
      <trkpt lat="49.8757" lon="2.41067">
        <ele>50.3</ele>
        <time>2022-04-13T14:04:11Z</time>
      </trkpt>
      <trkpt lat="49.8757" lon="2.41064">
        <ele>50.3</ele>
        <time>2022-04-13T14:04:12Z</time>
      </trkpt>
      <trkpt lat="49.8757" lon="2.41062">
        <ele>50.3</ele>
        <time>2022-04-13T14:04:13Z</time>
      </trkpt>
      <trkpt lat="49.8757" lon="2.4106">
        <ele>50.3</ele>
        <time>2022-04-13T14:04:14Z</time>
      </trkpt>
      <trkpt lat="49.8757" lon="2.41057">
        <ele>50.3</ele>
        <time>2022-04-13T14:04:15Z</time>
      </trkpt>
      <trkpt lat="49.8757" lon="2.41055">
        <ele>50.3</ele>
        <time>2022-04-13T14:04:16Z</time>
      </trkpt>
      <trkpt lat="49.8757" lon="2.41052">
        <ele>50.3</ele>
        <time>2022-04-13T14:04:18Z</time>
      </trkpt>
      <trkpt lat="49.8757" lon="2.41049">
        <ele>50.3</ele>
        <time>2022-04-13T14:04:19Z</time>
      </trkpt>
      <trkpt lat="49.87569" lon="2.41047">
        <ele>50.3</ele>
        <time>2022-04-13T14:04:20Z</time>
      </trkpt>
      <trkpt lat="49.87569" lon="2.41047">
        <ele>50.3</ele>
        <time>2022-04-13T14:04:21Z</time>
      </trkpt>
      <trkpt lat="49.87569" lon="2.41046">
        <ele>50.3</ele>
        <time>2022-04-13T14:04:22Z</time>
      </trkpt>
      <trkpt lat="49.87569" lon="2.41044">
        <ele>50.3</ele>
        <time>2022-04-13T14:04:23Z</time>
      </trkpt>
      <trkpt lat="49.87569" lon="2.41042">
        <ele>50.3</ele>
        <time>2022-04-13T14:04:24Z</time>
      </trkpt>
      <trkpt lat="49.87569" lon="2.41039">
        <ele>50.2</ele>
        <time>2022-04-13T14:04:25Z</time>
      </trkpt>
      <trkpt lat="49.87569" lon="2.41038">
        <ele>50.2</ele>
        <time>2022-04-13T14:04:26Z</time>
      </trkpt>
      <trkpt lat="49.87569" lon="2.41037">
        <ele>50.2</ele>
        <time>2022-04-13T14:04:27Z</time>
      </trkpt>
      <trkpt lat="49.87569" lon="2.41035">
        <ele>50.2</ele>
        <time>2022-04-13T14:04:28Z</time>
      </trkpt>
      <trkpt lat="49.87569" lon="2.41033">
        <ele>50.2</ele>
        <time>2022-04-13T14:04:29Z</time>
      </trkpt>
      <trkpt lat="49.87568" lon="2.41029">
        <ele>50.2</ele>
        <time>2022-04-13T14:04:30Z</time>
      </trkpt>
      <trkpt lat="49.87568" lon="2.41027">
        <ele>50.2</ele>
        <time>2022-04-13T14:04:32Z</time>
      </trkpt>
      <trkpt lat="49.87568" lon="2.41025">
        <ele>50.2</ele>
        <time>2022-04-13T14:04:33Z</time>
      </trkpt>
      <trkpt lat="49.87568" lon="2.41024">
        <ele>50.2</ele>
        <time>2022-04-13T14:04:34Z</time>
      </trkpt>
      <trkpt lat="49.87568" lon="2.41022">
        <ele>50.2</ele>
        <time>2022-04-13T14:04:35Z</time>
      </trkpt>
      <trkpt lat="49.87568" lon="2.41019">
        <ele>50.2</ele>
        <time>2022-04-13T14:04:36Z</time>
      </trkpt>
      <trkpt lat="49.87568" lon="2.41017">
        <ele>50.2</ele>
        <time>2022-04-13T14:04:37Z</time>
      </trkpt>
      <trkpt lat="49.87568" lon="2.41016">
        <ele>50.3</ele>
        <time>2022-04-13T14:04:38Z</time>
      </trkpt>
      <trkpt lat="49.87568" lon="2.41014">
        <ele>50.3</ele>
        <time>2022-04-13T14:04:39Z</time>
      </trkpt>
      <trkpt lat="49.87568" lon="2.41012">
        <ele>50.3</ele>
        <time>2022-04-13T14:04:40Z</time>
      </trkpt>
      <trkpt lat="49.87568" lon="2.41011">
        <ele>50.3</ele>
        <time>2022-04-13T14:04:41Z</time>
      </trkpt>
      <trkpt lat="49.87568" lon="2.41008">
        <ele>50.3</ele>
        <time>2022-04-13T14:04:43Z</time>
      </trkpt>
      <trkpt lat="49.87568" lon="2.41006">
        <ele>50.3</ele>
        <time>2022-04-13T14:04:44Z</time>
      </trkpt>
      <trkpt lat="49.87569" lon="2.41005">
        <ele>50.3</ele>
        <time>2022-04-13T14:04:45Z</time>
      </trkpt>
      <trkpt lat="49.87569" lon="2.41003">
        <ele>50.3</ele>
        <time>2022-04-13T14:04:46Z</time>
      </trkpt>
      <trkpt lat="49.87568" lon="2.41002">
        <ele>50.3</ele>
        <time>2022-04-13T14:04:47Z</time>
      </trkpt>
      <trkpt lat="49.87568" lon="2.41">
        <ele>50.4</ele>
        <time>2022-04-13T14:04:48Z</time>
      </trkpt>
      <trkpt lat="49.87568" lon="2.40996">
        <ele>50.4</ele>
        <time>2022-04-13T14:04:49Z</time>
      </trkpt>
      <trkpt lat="49.87568" lon="2.40994">
        <ele>50.4</ele>
        <time>2022-04-13T14:04:51Z</time>
      </trkpt>
      <trkpt lat="49.87568" lon="2.40993">
        <ele>50.4</ele>
        <time>2022-04-13T14:04:52Z</time>
      </trkpt>
      <trkpt lat="49.87568" lon="2.40992">
        <ele>50.4</ele>
        <time>2022-04-13T14:04:53Z</time>
      </trkpt>
      <trkpt lat="49.87568" lon="2.4099">
        <ele>50.4</ele>
        <time>2022-04-13T14:04:54Z</time>
      </trkpt>
      <trkpt lat="49.87568" lon="2.40987">
        <ele>50.5</ele>
        <time>2022-04-13T14:04:55Z</time>
      </trkpt>
      <trkpt lat="49.87568" lon="2.40985">
        <ele>50.5</ele>
        <time>2022-04-13T14:04:56Z</time>
      </trkpt>
      <trkpt lat="49.87568" lon="2.40983">
        <ele>50.5</ele>
        <time>2022-04-13T14:04:58Z</time>
      </trkpt>
      <trkpt lat="49.87569" lon="2.40981">
        <ele>50.5</ele>
        <time>2022-04-13T14:04:59Z</time>
      </trkpt>
      <trkpt lat="49.87569" lon="2.40978">
        <ele>50.6</ele>
        <time>2022-04-13T14:05:00Z</time>
      </trkpt>
      <trkpt lat="49.87569" lon="2.40976">
        <ele>50.6</ele>
        <time>2022-04-13T14:05:01Z</time>
      </trkpt>
      <trkpt lat="49.87569" lon="2.40974">
        <ele>50.6</ele>
        <time>2022-04-13T14:05:02Z</time>
      </trkpt>
      <trkpt lat="49.8757" lon="2.40972">
        <ele>50.6</ele>
        <time>2022-04-13T14:05:03Z</time>
      </trkpt>
      <trkpt lat="49.8757" lon="2.4097">
        <ele>50.7</ele>
        <time>2022-04-13T14:05:04Z</time>
      </trkpt>
      <trkpt lat="49.8757" lon="2.40967">
        <ele>50.7</ele>
        <time>2022-04-13T14:05:06Z</time>
      </trkpt>
      <trkpt lat="49.8757" lon="2.40965">
        <ele>50.7</ele>
        <time>2022-04-13T14:05:07Z</time>
      </trkpt>
      <trkpt lat="49.8757" lon="2.40963">
        <ele>50.7</ele>
        <time>2022-04-13T14:05:08Z</time>
      </trkpt>
      <trkpt lat="49.8757" lon="2.4096">
        <ele>50.8</ele>
        <time>2022-04-13T14:05:10Z</time>
      </trkpt>
      <trkpt lat="49.8757" lon="2.40957">
        <ele>50.8</ele>
        <time>2022-04-13T14:05:11Z</time>
      </trkpt>
      <trkpt lat="49.8757" lon="2.40955">
        <ele>50.8</ele>
        <time>2022-04-13T14:05:12Z</time>
      </trkpt>
      <trkpt lat="49.8757" lon="2.40954">
        <ele>50.9</ele>
        <time>2022-04-13T14:05:13Z</time>
      </trkpt>
      <trkpt lat="49.8757" lon="2.40951">
        <ele>50.9</ele>
        <time>2022-04-13T14:05:14Z</time>
      </trkpt>
      <trkpt lat="49.8757" lon="2.40949">
        <ele>50.9</ele>
        <time>2022-04-13T14:05:15Z</time>
      </trkpt>
      <trkpt lat="49.8757" lon="2.40948">
        <ele>50.9</ele>
        <time>2022-04-13T14:05:16Z</time>
      </trkpt>
      <trkpt lat="49.8757" lon="2.40946">
        <ele>51</ele>
        <time>2022-04-13T14:05:17Z</time>
      </trkpt>
      <trkpt lat="49.8757" lon="2.40943">
        <ele>51</ele>
        <time>2022-04-13T14:05:18Z</time>
      </trkpt>
      <trkpt lat="49.8757" lon="2.40941">
        <ele>51</ele>
        <time>2022-04-13T14:05:19Z</time>
      </trkpt>
      <trkpt lat="49.8757" lon="2.4094">
        <ele>51</ele>
        <time>2022-04-13T14:05:20Z</time>
      </trkpt>
      <trkpt lat="49.87569" lon="2.40938">
        <ele>51.1</ele>
        <time>2022-04-13T14:05:22Z</time>
      </trkpt>
      <trkpt lat="49.87569" lon="2.40936">
        <ele>51.1</ele>
        <time>2022-04-13T14:05:23Z</time>
      </trkpt>
      <trkpt lat="49.87569" lon="2.40934">
        <ele>51.1</ele>
        <time>2022-04-13T14:05:24Z</time>
      </trkpt>
      <trkpt lat="49.8757" lon="2.40931">
        <ele>51.1</ele>
        <time>2022-04-13T14:05:25Z</time>
      </trkpt>
      <trkpt lat="49.8757" lon="2.4093">
        <ele>51.2</ele>
        <time>2022-04-13T14:05:26Z</time>
      </trkpt>
      <trkpt lat="49.8757" lon="2.40928">
        <ele>51.2</ele>
        <time>2022-04-13T14:05:27Z</time>
      </trkpt>
      <trkpt lat="49.8757" lon="2.40927">
        <ele>51.2</ele>
        <time>2022-04-13T14:05:28Z</time>
      </trkpt>
      <trkpt lat="49.87569" lon="2.40924">
        <ele>51.2</ele>
        <time>2022-04-13T14:05:29Z</time>
      </trkpt>
      <trkpt lat="49.87569" lon="2.40921">
        <ele>51.3</ele>
        <time>2022-04-13T14:05:30Z</time>
      </trkpt>
      <trkpt lat="49.87569" lon="2.40919">
        <ele>51.3</ele>
        <time>2022-04-13T14:05:31Z</time>
      </trkpt>
      <trkpt lat="49.87569" lon="2.40918">
        <ele>51.3</ele>
        <time>2022-04-13T14:05:32Z</time>
      </trkpt>
      <trkpt lat="49.87568" lon="2.40916">
        <ele>51.3</ele>
        <time>2022-04-13T14:05:33Z</time>
      </trkpt>
      <trkpt lat="49.87568" lon="2.40913">
        <ele>51.4</ele>
        <time>2022-04-13T14:05:35Z</time>
      </trkpt>
      <trkpt lat="49.87567" lon="2.40911">
        <ele>51.4</ele>
        <time>2022-04-13T14:05:36Z</time>
      </trkpt>
      <trkpt lat="49.87567" lon="2.40908">
        <ele>51.4</ele>
        <time>2022-04-13T14:05:37Z</time>
      </trkpt>
      <trkpt lat="49.87567" lon="2.40905">
        <ele>51.4</ele>
        <time>2022-04-13T14:05:38Z</time>
      </trkpt>
      <trkpt lat="49.87567" lon="2.40903">
        <ele>51.4</ele>
        <time>2022-04-13T14:05:39Z</time>
      </trkpt>
      <trkpt lat="49.87567" lon="2.40902">
        <ele>51.4</ele>
        <time>2022-04-13T14:05:40Z</time>
      </trkpt>
      <trkpt lat="49.87566" lon="2.409">
        <ele>51.5</ele>
        <time>2022-04-13T14:05:41Z</time>
      </trkpt>
      <trkpt lat="49.87566" lon="2.40898">
        <ele>51.5</ele>
        <time>2022-04-13T14:05:43Z</time>
      </trkpt>
      <trkpt lat="49.87566" lon="2.40895">
        <ele>51.5</ele>
        <time>2022-04-13T14:05:44Z</time>
      </trkpt>
      <trkpt lat="49.87566" lon="2.40892">
        <ele>51.6</ele>
        <time>2022-04-13T14:05:46Z</time>
      </trkpt>
      <trkpt lat="49.87566" lon="2.4089">
        <ele>51.6</ele>
        <time>2022-04-13T14:05:47Z</time>
      </trkpt>
      <trkpt lat="49.87566" lon="2.40889">
        <ele>51.6</ele>
        <time>2022-04-13T14:05:48Z</time>
      </trkpt>
      <trkpt lat="49.87566" lon="2.40888">
        <ele>51.6</ele>
        <time>2022-04-13T14:05:49Z</time>
      </trkpt>
      <trkpt lat="49.87566" lon="2.40887">
        <ele>51.6</ele>
        <time>2022-04-13T14:05:50Z</time>
      </trkpt>
      <trkpt lat="49.87566" lon="2.40885">
        <ele>51.6</ele>
        <time>2022-04-13T14:05:51Z</time>
      </trkpt>
      <trkpt lat="49.87565" lon="2.40883">
        <ele>51.7</ele>
        <time>2022-04-13T14:05:52Z</time>
      </trkpt>
      <trkpt lat="49.87565" lon="2.40881">
        <ele>51.7</ele>
        <time>2022-04-13T14:05:53Z</time>
      </trkpt>
      <trkpt lat="49.87565" lon="2.40878">
        <ele>51.7</ele>
        <time>2022-04-13T14:05:54Z</time>
      </trkpt>
      <trkpt lat="49.87565" lon="2.40876">
        <ele>51.7</ele>
        <time>2022-04-13T14:05:55Z</time>
      </trkpt>
      <trkpt lat="49.87565" lon="2.40874">
        <ele>51.8</ele>
        <time>2022-04-13T14:05:56Z</time>
      </trkpt>
      <trkpt lat="49.87564" lon="2.40871">
        <ele>51.8</ele>
        <time>2022-04-13T14:05:58Z</time>
      </trkpt>
      <trkpt lat="49.87564" lon="2.4087">
        <ele>51.8</ele>
        <time>2022-04-13T14:05:59Z</time>
      </trkpt>
      <trkpt lat="49.87564" lon="2.40868">
        <ele>51.8</ele>
        <time>2022-04-13T14:06:00Z</time>
      </trkpt>
      <trkpt lat="49.87564" lon="2.40865">
        <ele>51.9</ele>
        <time>2022-04-13T14:06:01Z</time>
      </trkpt>
      <trkpt lat="49.87564" lon="2.40864">
        <ele>51.9</ele>
        <time>2022-04-13T14:06:02Z</time>
      </trkpt>
      <trkpt lat="49.87564" lon="2.40862">
        <ele>51.9</ele>
        <time>2022-04-13T14:06:03Z</time>
      </trkpt>
      <trkpt lat="49.87563" lon="2.4086">
        <ele>51.9</ele>
        <time>2022-04-13T14:06:04Z</time>
      </trkpt>
      <trkpt lat="49.87563" lon="2.40857">
        <ele>51.9</ele>
        <time>2022-04-13T14:06:05Z</time>
      </trkpt>
      <trkpt lat="49.87563" lon="2.40855">
        <ele>51.9</ele>
        <time>2022-04-13T14:06:06Z</time>
      </trkpt>
      <trkpt lat="49.87563" lon="2.40853">
        <ele>52</ele>
        <time>2022-04-13T14:06:07Z</time>
      </trkpt>
      <trkpt lat="49.87563" lon="2.40851">
        <ele>52</ele>
        <time>2022-04-13T14:06:08Z</time>
      </trkpt>
      <trkpt lat="49.87563" lon="2.4085">
        <ele>52</ele>
        <time>2022-04-13T14:06:09Z</time>
      </trkpt>
      <trkpt lat="49.87564" lon="2.4085">
        <ele>52</ele>
        <time>2022-04-13T14:06:10Z</time>
      </trkpt>
      <trkpt lat="49.87564" lon="2.40848">
        <ele>52</ele>
        <time>2022-04-13T14:06:12Z</time>
      </trkpt>
      <trkpt lat="49.87563" lon="2.40847">
        <ele>52</ele>
        <time>2022-04-13T14:06:13Z</time>
      </trkpt>
      <trkpt lat="49.87563" lon="2.40845">
        <ele>52</ele>
        <time>2022-04-13T14:06:14Z</time>
      </trkpt>
      <trkpt lat="49.87563" lon="2.40843">
        <ele>52</ele>
        <time>2022-04-13T14:06:15Z</time>
      </trkpt>
      <trkpt lat="49.87563" lon="2.40842">
        <ele>52.1</ele>
        <time>2022-04-13T14:06:16Z</time>
      </trkpt>
      <trkpt lat="49.87563" lon="2.40841">
        <ele>52.1</ele>
        <time>2022-04-13T14:06:17Z</time>
      </trkpt>
      <trkpt lat="49.87564" lon="2.40839">
        <ele>52.1</ele>
        <time>2022-04-13T14:06:18Z</time>
      </trkpt>
      <trkpt lat="49.87564" lon="2.40838">
        <ele>52.1</ele>
        <time>2022-04-13T14:06:19Z</time>
      </trkpt>
      <trkpt lat="49.87564" lon="2.40836">
        <ele>52.1</ele>
        <time>2022-04-13T14:06:20Z</time>
      </trkpt>
      <trkpt lat="49.87564" lon="2.40834">
        <ele>52.1</ele>
        <time>2022-04-13T14:06:21Z</time>
      </trkpt>
      <trkpt lat="49.87565" lon="2.40831">
        <ele>52.2</ele>
        <time>2022-04-13T14:06:22Z</time>
      </trkpt>
      <trkpt lat="49.87565" lon="2.4083">
        <ele>52.2</ele>
        <time>2022-04-13T14:06:23Z</time>
      </trkpt>
      <trkpt lat="49.87565" lon="2.40828">
        <ele>52.2</ele>
        <time>2022-04-13T14:06:24Z</time>
      </trkpt>
      <trkpt lat="49.87566" lon="2.40827">
        <ele>52.2</ele>
        <time>2022-04-13T14:06:25Z</time>
      </trkpt>
      <trkpt lat="49.87566" lon="2.40825">
        <ele>52.2</ele>
        <time>2022-04-13T14:06:26Z</time>
      </trkpt>
      <trkpt lat="49.87567" lon="2.40823">
        <ele>52.2</ele>
        <time>2022-04-13T14:06:28Z</time>
      </trkpt>
      <trkpt lat="49.87567" lon="2.40821">
        <ele>52.2</ele>
        <time>2022-04-13T14:06:29Z</time>
      </trkpt>
      <trkpt lat="49.87567" lon="2.4082">
        <ele>52.3</ele>
        <time>2022-04-13T14:06:30Z</time>
      </trkpt>
      <trkpt lat="49.87568" lon="2.40818">
        <ele>52.3</ele>
        <time>2022-04-13T14:06:31Z</time>
      </trkpt>
      <trkpt lat="49.87568" lon="2.40817">
        <ele>52.3</ele>
        <time>2022-04-13T14:06:32Z</time>
      </trkpt>
      <trkpt lat="49.87568" lon="2.40815">
        <ele>52.3</ele>
        <time>2022-04-13T14:06:33Z</time>
      </trkpt>
      <trkpt lat="49.87568" lon="2.40813">
        <ele>52.3</ele>
        <time>2022-04-13T14:06:34Z</time>
      </trkpt>
      <trkpt lat="49.87568" lon="2.40811">
        <ele>52.3</ele>
        <time>2022-04-13T14:06:35Z</time>
      </trkpt>
      <trkpt lat="49.87568" lon="2.40809">
        <ele>52.3</ele>
        <time>2022-04-13T14:06:36Z</time>
      </trkpt>
      <trkpt lat="49.87567" lon="2.40806">
        <ele>52.4</ele>
        <time>2022-04-13T14:06:38Z</time>
      </trkpt>
      <trkpt lat="49.87567" lon="2.40804">
        <ele>52.4</ele>
        <time>2022-04-13T14:06:39Z</time>
      </trkpt>
      <trkpt lat="49.87567" lon="2.40801">
        <ele>52.4</ele>
        <time>2022-04-13T14:06:40Z</time>
      </trkpt>
      <trkpt lat="49.87567" lon="2.40799">
        <ele>52.4</ele>
        <time>2022-04-13T14:06:41Z</time>
      </trkpt>
      <trkpt lat="49.87567" lon="2.40797">
        <ele>52.5</ele>
        <time>2022-04-13T14:06:42Z</time>
      </trkpt>
      <trkpt lat="49.87566" lon="2.40794">
        <ele>52.5</ele>
        <time>2022-04-13T14:06:43Z</time>
      </trkpt>
      <trkpt lat="49.87566" lon="2.40792">
        <ele>52.5</ele>
        <time>2022-04-13T14:06:44Z</time>
      </trkpt>
      <trkpt lat="49.87565" lon="2.40789">
        <ele>52.5</ele>
        <time>2022-04-13T14:06:45Z</time>
      </trkpt>
      <trkpt lat="49.87565" lon="2.40786">
        <ele>52.5</ele>
        <time>2022-04-13T14:06:46Z</time>
      </trkpt>
      <trkpt lat="49.87565" lon="2.40784">
        <ele>52.5</ele>
        <time>2022-04-13T14:06:47Z</time>
      </trkpt>
      <trkpt lat="49.87565" lon="2.40781">
        <ele>52.6</ele>
        <time>2022-04-13T14:06:48Z</time>
      </trkpt>
      <trkpt lat="49.87564" lon="2.40779">
        <ele>52.6</ele>
        <time>2022-04-13T14:06:50Z</time>
      </trkpt>
      <trkpt lat="49.87564" lon="2.40776">
        <ele>52.6</ele>
        <time>2022-04-13T14:06:51Z</time>
      </trkpt>
      <trkpt lat="49.87564" lon="2.40774">
        <ele>52.6</ele>
        <time>2022-04-13T14:06:52Z</time>
      </trkpt>
      <trkpt lat="49.87564" lon="2.40772">
        <ele>52.6</ele>
        <time>2022-04-13T14:06:53Z</time>
      </trkpt>
      <trkpt lat="49.87564" lon="2.40769">
        <ele>52.6</ele>
        <time>2022-04-13T14:06:54Z</time>
      </trkpt>
      <trkpt lat="49.87564" lon="2.40767">
        <ele>52.6</ele>
        <time>2022-04-13T14:06:55Z</time>
      </trkpt>
      <trkpt lat="49.87564" lon="2.40765">
        <ele>52.7</ele>
        <time>2022-04-13T14:06:56Z</time>
      </trkpt>
      <trkpt lat="49.87564" lon="2.40763">
        <ele>52.7</ele>
        <time>2022-04-13T14:06:57Z</time>
      </trkpt>
      <trkpt lat="49.87563" lon="2.4076">
        <ele>52.7</ele>
        <time>2022-04-13T14:06:59Z</time>
      </trkpt>
      <trkpt lat="49.87563" lon="2.40759">
        <ele>52.7</ele>
        <time>2022-04-13T14:07:00Z</time>
      </trkpt>
      <trkpt lat="49.87563" lon="2.40757">
        <ele>52.7</ele>
        <time>2022-04-13T14:07:01Z</time>
      </trkpt>
      <trkpt lat="49.87563" lon="2.40756">
        <ele>52.7</ele>
        <time>2022-04-13T14:07:02Z</time>
      </trkpt>
      <trkpt lat="49.87563" lon="2.40753">
        <ele>52.7</ele>
        <time>2022-04-13T14:07:03Z</time>
      </trkpt>
      <trkpt lat="49.87563" lon="2.40751">
        <ele>52.7</ele>
        <time>2022-04-13T14:07:05Z</time>
      </trkpt>
      <trkpt lat="49.87563" lon="2.40749">
        <ele>52.7</ele>
        <time>2022-04-13T14:07:06Z</time>
      </trkpt>
      <trkpt lat="49.87563" lon="2.40747">
        <ele>52.8</ele>
        <time>2022-04-13T14:07:07Z</time>
      </trkpt>
      <trkpt lat="49.87562" lon="2.40746">
        <ele>52.8</ele>
        <time>2022-04-13T14:07:08Z</time>
      </trkpt>
      <trkpt lat="49.87562" lon="2.40742">
        <ele>52.8</ele>
        <time>2022-04-13T14:07:10Z</time>
      </trkpt>
      <trkpt lat="49.87562" lon="2.40742">
        <ele>52.8</ele>
        <time>2022-04-13T14:07:11Z</time>
      </trkpt>
      <trkpt lat="49.87562" lon="2.40741">
        <ele>52.8</ele>
        <time>2022-04-13T14:07:12Z</time>
      </trkpt>
      <trkpt lat="49.87562" lon="2.4074">
        <ele>52.8</ele>
        <time>2022-04-13T14:07:13Z</time>
      </trkpt>
      <trkpt lat="49.87562" lon="2.40739">
        <ele>52.8</ele>
        <time>2022-04-13T14:07:14Z</time>
      </trkpt>
      <trkpt lat="49.87562" lon="2.40737">
        <ele>52.8</ele>
        <time>2022-04-13T14:07:15Z</time>
      </trkpt>
      <trkpt lat="49.87562" lon="2.40735">
        <ele>52.8</ele>
        <time>2022-04-13T14:07:16Z</time>
      </trkpt>
      <trkpt lat="49.87562" lon="2.40734">
        <ele>52.8</ele>
        <time>2022-04-13T14:07:17Z</time>
      </trkpt>
      <trkpt lat="49.87562" lon="2.40732">
        <ele>52.9</ele>
        <time>2022-04-13T14:07:18Z</time>
      </trkpt>
      <trkpt lat="49.87562" lon="2.40731">
        <ele>52.9</ele>
        <time>2022-04-13T14:07:19Z</time>
      </trkpt>
      <trkpt lat="49.87562" lon="2.4073">
        <ele>52.9</ele>
        <time>2022-04-13T14:07:20Z</time>
      </trkpt>
      <trkpt lat="49.87562" lon="2.40728">
        <ele>52.9</ele>
        <time>2022-04-13T14:07:21Z</time>
      </trkpt>
      <trkpt lat="49.87562" lon="2.40727">
        <ele>52.9</ele>
        <time>2022-04-13T14:07:22Z</time>
      </trkpt>
      <trkpt lat="49.87562" lon="2.40725">
        <ele>52.9</ele>
        <time>2022-04-13T14:07:23Z</time>
      </trkpt>
      <trkpt lat="49.87562" lon="2.40722">
        <ele>53</ele>
        <time>2022-04-13T14:07:25Z</time>
      </trkpt>
      <trkpt lat="49.87562" lon="2.40721">
        <ele>53</ele>
        <time>2022-04-13T14:07:26Z</time>
      </trkpt>
      <trkpt lat="49.87562" lon="2.40719">
        <ele>53</ele>
        <time>2022-04-13T14:07:27Z</time>
      </trkpt>
      <trkpt lat="49.87562" lon="2.40718">
        <ele>53</ele>
        <time>2022-04-13T14:07:28Z</time>
      </trkpt>
      <trkpt lat="49.87562" lon="2.40716">
        <ele>53</ele>
        <time>2022-04-13T14:07:29Z</time>
      </trkpt>
      <trkpt lat="49.87563" lon="2.40715">
        <ele>53</ele>
        <time>2022-04-13T14:07:30Z</time>
      </trkpt>
      <trkpt lat="49.87563" lon="2.40713">
        <ele>53.1</ele>
        <time>2022-04-13T14:07:31Z</time>
      </trkpt>
      <trkpt lat="49.87563" lon="2.40712">
        <ele>53.1</ele>
        <time>2022-04-13T14:07:32Z</time>
      </trkpt>
      <trkpt lat="49.87563" lon="2.4071">
        <ele>53.1</ele>
        <time>2022-04-13T14:07:33Z</time>
      </trkpt>
      <trkpt lat="49.87563" lon="2.40709">
        <ele>53.1</ele>
        <time>2022-04-13T14:07:34Z</time>
      </trkpt>
      <trkpt lat="49.87563" lon="2.40708">
        <ele>53.1</ele>
        <time>2022-04-13T14:07:35Z</time>
      </trkpt>
      <trkpt lat="49.87563" lon="2.40707">
        <ele>53.1</ele>
        <time>2022-04-13T14:07:36Z</time>
      </trkpt>
      <trkpt lat="49.87564" lon="2.40706">
        <ele>53.1</ele>
        <time>2022-04-13T14:07:37Z</time>
      </trkpt>
      <trkpt lat="49.87564" lon="2.40706">
        <ele>53.1</ele>
        <time>2022-04-13T14:07:38Z</time>
      </trkpt>
      <trkpt lat="49.87564" lon="2.40706">
        <ele>53.1</ele>
        <time>2022-04-13T14:07:39Z</time>
      </trkpt>
      <trkpt lat="49.87564" lon="2.40706">
        <ele>53.2</ele>
        <time>2022-04-13T14:07:40Z</time>
      </trkpt>
      <trkpt lat="49.87565" lon="2.40707">
        <ele>53.2</ele>
        <time>2022-04-13T14:07:41Z</time>
      </trkpt>
      <trkpt lat="49.87564" lon="2.40708">
        <ele>53.2</ele>
        <time>2022-04-13T14:07:43Z</time>
      </trkpt>
      <trkpt lat="49.87564" lon="2.40707">
        <ele>53.2</ele>
        <time>2022-04-13T14:07:44Z</time>
      </trkpt>
      <trkpt lat="49.87564" lon="2.40707">
        <ele>53.2</ele>
        <time>2022-04-13T14:07:45Z</time>
      </trkpt>
      <trkpt lat="49.87564" lon="2.40707">
        <ele>53.2</ele>
        <time>2022-04-13T14:07:46Z</time>
      </trkpt>
      <trkpt lat="49.87564" lon="2.40707">
        <ele>53.2</ele>
        <time>2022-04-13T14:07:47Z</time>
      </trkpt>
      <trkpt lat="49.87564" lon="2.40707">
        <ele>53.2</ele>
        <time>2022-04-13T14:07:48Z</time>
      </trkpt>
      <trkpt lat="49.87564" lon="2.40707">
        <ele>53.2</ele>
        <time>2022-04-13T14:07:49Z</time>
      </trkpt>
      <trkpt lat="49.87564" lon="2.40707">
        <ele>53.2</ele>
        <time>2022-04-13T14:07:50Z</time>
      </trkpt>
      <trkpt lat="49.87564" lon="2.40707">
        <ele>53.2</ele>
        <time>2022-04-13T14:07:51Z</time>
      </trkpt>
      <trkpt lat="49.87564" lon="2.40707">
        <ele>53.2</ele>
        <time>2022-04-13T14:07:52Z</time>
      </trkpt>
      <trkpt lat="49.87564" lon="2.40707">
        <ele>53.2</ele>
        <time>2022-04-13T14:07:53Z</time>
      </trkpt>
      <trkpt lat="49.87564" lon="2.40707">
        <ele>53.2</ele>
        <time>2022-04-13T14:07:54Z</time>
      </trkpt>
      <trkpt lat="49.87564" lon="2.40707">
        <ele>53.2</ele>
        <time>2022-04-13T14:07:55Z</time>
      </trkpt>
      <trkpt lat="49.87564" lon="2.40707">
        <ele>53.2</ele>
        <time>2022-04-13T14:07:56Z</time>
      </trkpt>
      <trkpt lat="49.87564" lon="2.40706">
        <ele>53.2</ele>
        <time>2022-04-13T14:07:57Z</time>
      </trkpt>
      <trkpt lat="49.87564" lon="2.40707">
        <ele>53.2</ele>
        <time>2022-04-13T14:07:58Z</time>
      </trkpt>
      <trkpt lat="49.87564" lon="2.40707">
        <ele>53.2</ele>
        <time>2022-04-13T14:07:59Z</time>
      </trkpt>
      <trkpt lat="49.87564" lon="2.40707">
        <ele>53.2</ele>
        <time>2022-04-13T14:08:00Z</time>
      </trkpt>
      <trkpt lat="49.87564" lon="2.40707">
        <ele>53.2</ele>
        <time>2022-04-13T14:08:01Z</time>
      </trkpt>
      <trkpt lat="49.87564" lon="2.40707">
        <ele>53.2</ele>
        <time>2022-04-13T14:08:02Z</time>
      </trkpt>
      <trkpt lat="49.87564" lon="2.40707">
        <ele>53.2</ele>
        <time>2022-04-13T14:08:03Z</time>
      </trkpt>
      <trkpt lat="49.87564" lon="2.40707">
        <ele>53.2</ele>
        <time>2022-04-13T14:08:04Z</time>
      </trkpt>
      <trkpt lat="49.87564" lon="2.40707">
        <ele>53.2</ele>
        <time>2022-04-13T14:08:05Z</time>
      </trkpt>
      <trkpt lat="49.87564" lon="2.40707">
        <ele>53.2</ele>
        <time>2022-04-13T14:08:06Z</time>
      </trkpt>
      <trkpt lat="49.87564" lon="2.40707">
        <ele>53.2</ele>
        <time>2022-04-13T14:08:07Z</time>
      </trkpt>
      <trkpt lat="49.87564" lon="2.40707">
        <ele>53.2</ele>
        <time>2022-04-13T14:08:08Z</time>
      </trkpt>
      <trkpt lat="49.87564" lon="2.40707">
        <ele>53.2</ele>
        <time>2022-04-13T14:08:09Z</time>
      </trkpt>
      <trkpt lat="49.87564" lon="2.40707">
        <ele>53.2</ele>
        <time>2022-04-13T14:08:10Z</time>
      </trkpt>
      <trkpt lat="49.87564" lon="2.40707">
        <ele>53.2</ele>
        <time>2022-04-13T14:08:11Z</time>
      </trkpt>
      <trkpt lat="49.87564" lon="2.40707">
        <ele>53.2</ele>
        <time>2022-04-13T14:08:12Z</time>
      </trkpt>
      <trkpt lat="49.87564" lon="2.40707">
        <ele>53.2</ele>
        <time>2022-04-13T14:08:13Z</time>
      </trkpt>
      <trkpt lat="49.87564" lon="2.40707">
        <ele>53.2</ele>
        <time>2022-04-13T14:08:14Z</time>
      </trkpt>
      <trkpt lat="49.87564" lon="2.40707">
        <ele>53.2</ele>
        <time>2022-04-13T14:08:15Z</time>
      </trkpt>
      <trkpt lat="49.87564" lon="2.40707">
        <ele>53.2</ele>
        <time>2022-04-13T14:08:16Z</time>
      </trkpt>
      <trkpt lat="49.87564" lon="2.40707">
        <ele>53.2</ele>
        <time>2022-04-13T14:08:17Z</time>
      </trkpt>
      <trkpt lat="49.87564" lon="2.40707">
        <ele>53.2</ele>
        <time>2022-04-13T14:08:18Z</time>
      </trkpt>
      <trkpt lat="49.87564" lon="2.40707">
        <ele>53.2</ele>
        <time>2022-04-13T14:08:19Z</time>
      </trkpt>
      <trkpt lat="49.87564" lon="2.40707">
        <ele>53.2</ele>
        <time>2022-04-13T14:08:20Z</time>
      </trkpt>
      <trkpt lat="49.87564" lon="2.40707">
        <ele>53.2</ele>
        <time>2022-04-13T14:08:21Z</time>
      </trkpt>
      <trkpt lat="49.87564" lon="2.40707">
        <ele>53.2</ele>
        <time>2022-04-13T14:08:22Z</time>
      </trkpt>
      <trkpt lat="49.87564" lon="2.40707">
        <ele>53.2</ele>
        <time>2022-04-13T14:08:23Z</time>
      </trkpt>
      <trkpt lat="49.87564" lon="2.40707">
        <ele>53.2</ele>
        <time>2022-04-13T14:08:24Z</time>
      </trkpt>
      <trkpt lat="49.87564" lon="2.40707">
        <ele>53.2</ele>
        <time>2022-04-13T14:08:25Z</time>
      </trkpt>
      <trkpt lat="49.87564" lon="2.40707">
        <ele>53.2</ele>
        <time>2022-04-13T14:08:26Z</time>
      </trkpt>
      <trkpt lat="49.87564" lon="2.40707">
        <ele>53.2</ele>
        <time>2022-04-13T14:08:27Z</time>
      </trkpt>
      <trkpt lat="49.87564" lon="2.40707">
        <ele>53.2</ele>
        <time>2022-04-13T14:08:28Z</time>
      </trkpt>
      <trkpt lat="49.87564" lon="2.40707">
        <ele>53.2</ele>
        <time>2022-04-13T14:08:29Z</time>
      </trkpt>
      <trkpt lat="49.87564" lon="2.40707">
        <ele>53.2</ele>
        <time>2022-04-13T14:08:30Z</time>
      </trkpt>
      <trkpt lat="49.87564" lon="2.40707">
        <ele>53.2</ele>
        <time>2022-04-13T14:08:31Z</time>
      </trkpt>
      <trkpt lat="49.87564" lon="2.40707">
        <ele>53.2</ele>
        <time>2022-04-13T14:08:32Z</time>
      </trkpt>
      <trkpt lat="49.87564" lon="2.40707">
        <ele>53.2</ele>
        <time>2022-04-13T14:08:33Z</time>
      </trkpt>
      <trkpt lat="49.87564" lon="2.40707">
        <ele>53.2</ele>
        <time>2022-04-13T14:08:34Z</time>
      </trkpt>
      <trkpt lat="49.87564" lon="2.40707">
        <ele>53.2</ele>
        <time>2022-04-13T14:08:35Z</time>
      </trkpt>
      <trkpt lat="49.87564" lon="2.40707">
        <ele>53.2</ele>
        <time>2022-04-13T14:08:36Z</time>
      </trkpt>
      <trkpt lat="49.87564" lon="2.40707">
        <ele>53.2</ele>
        <time>2022-04-13T14:08:37Z</time>
      </trkpt>
      <trkpt lat="49.87564" lon="2.40707">
        <ele>53.2</ele>
        <time>2022-04-13T14:08:38Z</time>
      </trkpt>
      <trkpt lat="49.87564" lon="2.40707">
        <ele>53.2</ele>
        <time>2022-04-13T14:08:39Z</time>
      </trkpt>
      <trkpt lat="49.87564" lon="2.40707">
        <ele>53.2</ele>
        <time>2022-04-13T14:08:40Z</time>
      </trkpt>
      <trkpt lat="49.87564" lon="2.40707">
        <ele>53.2</ele>
        <time>2022-04-13T14:08:41Z</time>
      </trkpt>
      <trkpt lat="49.87564" lon="2.40707">
        <ele>53.2</ele>
        <time>2022-04-13T14:08:42Z</time>
      </trkpt>
      <trkpt lat="49.87564" lon="2.40707">
        <ele>53.2</ele>
        <time>2022-04-13T14:08:43Z</time>
      </trkpt>
      <trkpt lat="49.87564" lon="2.40707">
        <ele>53.2</ele>
        <time>2022-04-13T14:08:44Z</time>
      </trkpt>
      <trkpt lat="49.87564" lon="2.40707">
        <ele>53.2</ele>
        <time>2022-04-13T14:08:45Z</time>
      </trkpt>
      <trkpt lat="49.87564" lon="2.40707">
        <ele>53.2</ele>
        <time>2022-04-13T14:08:46Z</time>
      </trkpt>
      <trkpt lat="49.87564" lon="2.40707">
        <ele>53.2</ele>
        <time>2022-04-13T14:08:47Z</time>
      </trkpt>
      <trkpt lat="49.87564" lon="2.40707">
        <ele>53.2</ele>
        <time>2022-04-13T14:08:48Z</time>
      </trkpt>
      <trkpt lat="49.87564" lon="2.40707">
        <ele>53.2</ele>
        <time>2022-04-13T14:08:49Z</time>
      </trkpt>
      <trkpt lat="49.87564" lon="2.40707">
        <ele>53.2</ele>
        <time>2022-04-13T14:08:50Z</time>
      </trkpt>
      <trkpt lat="49.87564" lon="2.40707">
        <ele>53.2</ele>
        <time>2022-04-13T14:08:51Z</time>
      </trkpt>
      <trkpt lat="49.87564" lon="2.40707">
        <ele>53.2</ele>
        <time>2022-04-13T14:08:52Z</time>
      </trkpt>
      <trkpt lat="49.87564" lon="2.40707">
        <ele>53.2</ele>
        <time>2022-04-13T14:08:53Z</time>
      </trkpt>
      <trkpt lat="49.87564" lon="2.40707">
        <ele>53.2</ele>
        <time>2022-04-13T14:08:54Z</time>
      </trkpt>
      <trkpt lat="49.87564" lon="2.40707">
        <ele>53.2</ele>
        <time>2022-04-13T14:08:55Z</time>
      </trkpt>
      <trkpt lat="49.87564" lon="2.40707">
        <ele>53.2</ele>
        <time>2022-04-13T14:08:56Z</time>
      </trkpt>
      <trkpt lat="49.87564" lon="2.40709">
        <ele>53.2</ele>
        <time>2022-04-13T14:08:57Z</time>
      </trkpt>
      <trkpt lat="49.87564" lon="2.4071">
        <ele>53.2</ele>
        <time>2022-04-13T14:08:58Z</time>
      </trkpt>
      <trkpt lat="49.87564" lon="2.4071">
        <ele>53.2</ele>
        <time>2022-04-13T14:08:59Z</time>
      </trkpt>
      <trkpt lat="49.87564" lon="2.4071">
        <ele>53.2</ele>
        <time>2022-04-13T14:09:00Z</time>
      </trkpt>
      <trkpt lat="49.87564" lon="2.4071">
        <ele>53.2</ele>
        <time>2022-04-13T14:09:02Z</time>
      </trkpt>
      <trkpt lat="49.87564" lon="2.4071">
        <ele>53.2</ele>
        <time>2022-04-13T14:09:03Z</time>
      </trkpt>
      <trkpt lat="49.87564" lon="2.4071">
        <ele>53.2</ele>
        <time>2022-04-13T14:09:04Z</time>
      </trkpt>
      <trkpt lat="49.87564" lon="2.4071">
        <ele>53.2</ele>
        <time>2022-04-13T14:09:05Z</time>
      </trkpt>
      <trkpt lat="49.87564" lon="2.4071">
        <ele>53.2</ele>
        <time>2022-04-13T14:09:06Z</time>
      </trkpt>
      <trkpt lat="49.87564" lon="2.4071">
        <ele>53.2</ele>
        <time>2022-04-13T14:09:07Z</time>
      </trkpt>
      <trkpt lat="49.87564" lon="2.4071">
        <ele>53.2</ele>
        <time>2022-04-13T14:09:08Z</time>
      </trkpt>
      <trkpt lat="49.87564" lon="2.4071">
        <ele>53.2</ele>
        <time>2022-04-13T14:09:09Z</time>
      </trkpt>
      <trkpt lat="49.87564" lon="2.4071">
        <ele>53.2</ele>
        <time>2022-04-13T14:09:10Z</time>
      </trkpt>
      <trkpt lat="49.87564" lon="2.4071">
        <ele>53.2</ele>
        <time>2022-04-13T14:09:11Z</time>
      </trkpt>
      <trkpt lat="49.87564" lon="2.4071">
        <ele>53.2</ele>
        <time>2022-04-13T14:09:12Z</time>
      </trkpt>
      <trkpt lat="49.87564" lon="2.4071">
        <ele>53.2</ele>
        <time>2022-04-13T14:09:13Z</time>
      </trkpt>
      <trkpt lat="49.87564" lon="2.4071">
        <ele>53.2</ele>
        <time>2022-04-13T14:09:14Z</time>
      </trkpt>
      <trkpt lat="49.87564" lon="2.4071">
        <ele>53.2</ele>
        <time>2022-04-13T14:09:15Z</time>
      </trkpt>
      <trkpt lat="49.87564" lon="2.4071">
        <ele>53.2</ele>
        <time>2022-04-13T14:09:16Z</time>
      </trkpt>
      <trkpt lat="49.87564" lon="2.4071">
        <ele>53.2</ele>
        <time>2022-04-13T14:09:17Z</time>
      </trkpt>
      <trkpt lat="49.87564" lon="2.4071">
        <ele>53.2</ele>
        <time>2022-04-13T14:09:18Z</time>
      </trkpt>
      <trkpt lat="49.87564" lon="2.4071">
        <ele>53.2</ele>
        <time>2022-04-13T14:09:19Z</time>
      </trkpt>
      <trkpt lat="49.87564" lon="2.4071">
        <ele>53.2</ele>
        <time>2022-04-13T14:09:20Z</time>
      </trkpt>
      <trkpt lat="49.87564" lon="2.4071">
        <ele>53.2</ele>
        <time>2022-04-13T14:09:21Z</time>
      </trkpt>
      <trkpt lat="49.87564" lon="2.4071">
        <ele>53.2</ele>
        <time>2022-04-13T14:09:22Z</time>
      </trkpt>
      <trkpt lat="49.87564" lon="2.4071">
        <ele>53.2</ele>
        <time>2022-04-13T14:09:23Z</time>
      </trkpt>
      <trkpt lat="49.87564" lon="2.4071">
        <ele>53.2</ele>
        <time>2022-04-13T14:09:24Z</time>
      </trkpt>
      <trkpt lat="49.87564" lon="2.4071">
        <ele>53.2</ele>
        <time>2022-04-13T14:09:25Z</time>
      </trkpt>
      <trkpt lat="49.87564" lon="2.4071">
        <ele>53.2</ele>
        <time>2022-04-13T14:09:26Z</time>
      </trkpt>
      <trkpt lat="49.87564" lon="2.4071">
        <ele>53.2</ele>
        <time>2022-04-13T14:09:27Z</time>
      </trkpt>
      <trkpt lat="49.87564" lon="2.4071">
        <ele>53.2</ele>
        <time>2022-04-13T14:09:28Z</time>
      </trkpt>
      <trkpt lat="49.87564" lon="2.4071">
        <ele>53.2</ele>
        <time>2022-04-13T14:09:29Z</time>
      </trkpt>
      <trkpt lat="49.87564" lon="2.4071">
        <ele>53.2</ele>
        <time>2022-04-13T14:09:30Z</time>
      </trkpt>
      <trkpt lat="49.87564" lon="2.4071">
        <ele>53.2</ele>
        <time>2022-04-13T14:09:31Z</time>
      </trkpt>
      <trkpt lat="49.87564" lon="2.4071">
        <ele>53.2</ele>
        <time>2022-04-13T14:09:32Z</time>
      </trkpt>
      <trkpt lat="49.87564" lon="2.4071">
        <ele>53.2</ele>
        <time>2022-04-13T14:09:33Z</time>
      </trkpt>
      <trkpt lat="49.87564" lon="2.4071">
        <ele>53.2</ele>
        <time>2022-04-13T14:09:34Z</time>
      </trkpt>
      <trkpt lat="49.87564" lon="2.4071">
        <ele>53.2</ele>
        <time>2022-04-13T14:09:35Z</time>
      </trkpt>
      <trkpt lat="49.87564" lon="2.4071">
        <ele>53.2</ele>
        <time>2022-04-13T14:09:36Z</time>
      </trkpt>
      <trkpt lat="49.87564" lon="2.4071">
        <ele>53.2</ele>
        <time>2022-04-13T14:09:37Z</time>
      </trkpt>
      <trkpt lat="49.87564" lon="2.4071">
        <ele>53.2</ele>
        <time>2022-04-13T14:09:38Z</time>
      </trkpt>
      <trkpt lat="49.87564" lon="2.4071">
        <ele>53.2</ele>
        <time>2022-04-13T14:09:39Z</time>
      </trkpt>
      <trkpt lat="49.87564" lon="2.4071">
        <ele>53.2</ele>
        <time>2022-04-13T14:09:40Z</time>
      </trkpt>
      <trkpt lat="49.87564" lon="2.4071">
        <ele>53.2</ele>
        <time>2022-04-13T14:09:41Z</time>
      </trkpt>
      <trkpt lat="49.87564" lon="2.4071">
        <ele>53.2</ele>
        <time>2022-04-13T14:09:42Z</time>
      </trkpt>
      <trkpt lat="49.87564" lon="2.4071">
        <ele>53.2</ele>
        <time>2022-04-13T14:09:43Z</time>
      </trkpt>
      <trkpt lat="49.87564" lon="2.4071">
        <ele>53.2</ele>
        <time>2022-04-13T14:09:44Z</time>
      </trkpt>
      <trkpt lat="49.87564" lon="2.4071">
        <ele>53.2</ele>
        <time>2022-04-13T14:09:45Z</time>
      </trkpt>
      <trkpt lat="49.87564" lon="2.4071">
        <ele>53.2</ele>
        <time>2022-04-13T14:09:46Z</time>
      </trkpt>
      <trkpt lat="49.87564" lon="2.4071">
        <ele>53.2</ele>
        <time>2022-04-13T14:09:47Z</time>
      </trkpt>
      <trkpt lat="49.87564" lon="2.4071">
        <ele>53.2</ele>
        <time>2022-04-13T14:09:48Z</time>
      </trkpt>
      <trkpt lat="49.87564" lon="2.4071">
        <ele>53.2</ele>
        <time>2022-04-13T14:09:49Z</time>
      </trkpt>
      <trkpt lat="49.87564" lon="2.4071">
        <ele>53.2</ele>
        <time>2022-04-13T14:09:50Z</time>
      </trkpt>
      <trkpt lat="49.87564" lon="2.4071">
        <ele>53.2</ele>
        <time>2022-04-13T14:09:51Z</time>
      </trkpt>
      <trkpt lat="49.87564" lon="2.4071">
        <ele>53.2</ele>
        <time>2022-04-13T14:09:52Z</time>
      </trkpt>
      <trkpt lat="49.87564" lon="2.4071">
        <ele>53.2</ele>
        <time>2022-04-13T14:09:53Z</time>
      </trkpt>
      <trkpt lat="49.87564" lon="2.4071">
        <ele>53.2</ele>
        <time>2022-04-13T14:09:54Z</time>
      </trkpt>
      <trkpt lat="49.87564" lon="2.4071">
        <ele>53.2</ele>
        <time>2022-04-13T14:09:55Z</time>
      </trkpt>
      <trkpt lat="49.87564" lon="2.4071">
        <ele>53.2</ele>
        <time>2022-04-13T14:09:56Z</time>
      </trkpt>
      <trkpt lat="49.87564" lon="2.4071">
        <ele>53.2</ele>
        <time>2022-04-13T14:09:57Z</time>
      </trkpt>
      <trkpt lat="49.87564" lon="2.4071">
        <ele>53.2</ele>
        <time>2022-04-13T14:09:58Z</time>
      </trkpt>
      <trkpt lat="49.87564" lon="2.4071">
        <ele>53.2</ele>
        <time>2022-04-13T14:09:59Z</time>
      </trkpt>
      <trkpt lat="49.87564" lon="2.4071">
        <ele>53.2</ele>
        <time>2022-04-13T14:10:00Z</time>
      </trkpt>
      <trkpt lat="49.87564" lon="2.4071">
        <ele>53.2</ele>
        <time>2022-04-13T14:10:01Z</time>
      </trkpt>
      <trkpt lat="49.87564" lon="2.4071">
        <ele>53.2</ele>
        <time>2022-04-13T14:10:02Z</time>
      </trkpt>
      <trkpt lat="49.87564" lon="2.4071">
        <ele>53.2</ele>
        <time>2022-04-13T14:10:03Z</time>
      </trkpt>
      <trkpt lat="49.87564" lon="2.4071">
        <ele>53.2</ele>
        <time>2022-04-13T14:10:04Z</time>
      </trkpt>
      <trkpt lat="49.87564" lon="2.4071">
        <ele>53.2</ele>
        <time>2022-04-13T14:10:05Z</time>
      </trkpt>
      <trkpt lat="49.87564" lon="2.4071">
        <ele>53.2</ele>
        <time>2022-04-13T14:10:06Z</time>
      </trkpt>
      <trkpt lat="49.87564" lon="2.4071">
        <ele>53.2</ele>
        <time>2022-04-13T14:10:07Z</time>
      </trkpt>
      <trkpt lat="49.87564" lon="2.4071">
        <ele>53.2</ele>
        <time>2022-04-13T14:10:08Z</time>
      </trkpt>
      <trkpt lat="49.87564" lon="2.4071">
        <ele>53.2</ele>
        <time>2022-04-13T14:10:09Z</time>
      </trkpt>
      <trkpt lat="49.87564" lon="2.4071">
        <ele>53.2</ele>
        <time>2022-04-13T14:10:10Z</time>
      </trkpt>
      <trkpt lat="49.87564" lon="2.4071">
        <ele>53.2</ele>
        <time>2022-04-13T14:10:11Z</time>
      </trkpt>
      <trkpt lat="49.87564" lon="2.4071">
        <ele>53.2</ele>
        <time>2022-04-13T14:10:12Z</time>
      </trkpt>
      <trkpt lat="49.87564" lon="2.4071">
        <ele>53.2</ele>
        <time>2022-04-13T14:10:13Z</time>
      </trkpt>
      <trkpt lat="49.87564" lon="2.4071">
        <ele>53.2</ele>
        <time>2022-04-13T14:10:14Z</time>
      </trkpt>
      <trkpt lat="49.87564" lon="2.4071">
        <ele>53.2</ele>
        <time>2022-04-13T14:10:15Z</time>
      </trkpt>
      <trkpt lat="49.87564" lon="2.4071">
        <ele>53.2</ele>
        <time>2022-04-13T14:10:16Z</time>
      </trkpt>
      <trkpt lat="49.87564" lon="2.4071">
        <ele>53.2</ele>
        <time>2022-04-13T14:10:17Z</time>
      </trkpt>
      <trkpt lat="49.87564" lon="2.4071">
        <ele>53.2</ele>
        <time>2022-04-13T14:10:18Z</time>
      </trkpt>
      <trkpt lat="49.87564" lon="2.4071">
        <ele>53.2</ele>
        <time>2022-04-13T14:10:19Z</time>
      </trkpt>
      <trkpt lat="49.87564" lon="2.4071">
        <ele>53.2</ele>
        <time>2022-04-13T14:10:20Z</time>
      </trkpt>
      <trkpt lat="49.87563" lon="2.40711">
        <ele>53.3</ele>
        <time>2022-04-13T14:10:21Z</time>
      </trkpt>
      <trkpt lat="49.87562" lon="2.40711">
        <ele>53.3</ele>
        <time>2022-04-13T14:10:22Z</time>
      </trkpt>
      <trkpt lat="49.87562" lon="2.4071">
        <ele>53.3</ele>
        <time>2022-04-13T14:10:23Z</time>
      </trkpt>
      <trkpt lat="49.87562" lon="2.40709">
        <ele>53.3</ele>
        <time>2022-04-13T14:10:24Z</time>
      </trkpt>
      <trkpt lat="49.87562" lon="2.40707">
        <ele>53.3</ele>
        <time>2022-04-13T14:10:25Z</time>
      </trkpt>
      <trkpt lat="49.87562" lon="2.40706">
        <ele>53.3</ele>
        <time>2022-04-13T14:10:26Z</time>
      </trkpt>
      <trkpt lat="49.87562" lon="2.40705">
        <ele>53.3</ele>
        <time>2022-04-13T14:10:27Z</time>
      </trkpt>
      <trkpt lat="49.87562" lon="2.40703">
        <ele>53.4</ele>
        <time>2022-04-13T14:10:28Z</time>
      </trkpt>
      <trkpt lat="49.87562" lon="2.40703">
        <ele>53.4</ele>
        <time>2022-04-13T14:10:29Z</time>
      </trkpt>
      <trkpt lat="49.87562" lon="2.40702">
        <ele>53.4</ele>
        <time>2022-04-13T14:10:30Z</time>
      </trkpt>
      <trkpt lat="49.87563" lon="2.40701">
        <ele>53.4</ele>
        <time>2022-04-13T14:10:31Z</time>
      </trkpt>
      <trkpt lat="49.87564" lon="2.40699">
        <ele>53.4</ele>
        <time>2022-04-13T14:10:32Z</time>
      </trkpt>
      <trkpt lat="49.87564" lon="2.40698">
        <ele>53.4</ele>
        <time>2022-04-13T14:10:33Z</time>
      </trkpt>
      <trkpt lat="49.87565" lon="2.40695">
        <ele>53.4</ele>
        <time>2022-04-13T14:10:34Z</time>
      </trkpt>
      <trkpt lat="49.87566" lon="2.40691">
        <ele>53.5</ele>
        <time>2022-04-13T14:10:36Z</time>
      </trkpt>
      <trkpt lat="49.87566" lon="2.40689">
        <ele>53.5</ele>
        <time>2022-04-13T14:10:37Z</time>
      </trkpt>
      <trkpt lat="49.87566" lon="2.40687">
        <ele>53.6</ele>
        <time>2022-04-13T14:10:38Z</time>
      </trkpt>
      <trkpt lat="49.87565" lon="2.40683">
        <ele>53.6</ele>
        <time>2022-04-13T14:10:39Z</time>
      </trkpt>
      <trkpt lat="49.87565" lon="2.40682">
        <ele>53.6</ele>
        <time>2022-04-13T14:10:40Z</time>
      </trkpt>
      <trkpt lat="49.87565" lon="2.40681">
        <ele>53.7</ele>
        <time>2022-04-13T14:10:41Z</time>
      </trkpt>
      <trkpt lat="49.87564" lon="2.40679">
        <ele>53.7</ele>
        <time>2022-04-13T14:10:43Z</time>
      </trkpt>
      <trkpt lat="49.87564" lon="2.40678">
        <ele>53.7</ele>
        <time>2022-04-13T14:10:44Z</time>
      </trkpt>
      <trkpt lat="49.87564" lon="2.40678">
        <ele>53.7</ele>
        <time>2022-04-13T14:10:45Z</time>
      </trkpt>
      <trkpt lat="49.87564" lon="2.40677">
        <ele>53.7</ele>
        <time>2022-04-13T14:10:46Z</time>
      </trkpt>
      <trkpt lat="49.87564" lon="2.40675">
        <ele>53.7</ele>
        <time>2022-04-13T14:10:47Z</time>
      </trkpt>
      <trkpt lat="49.87563" lon="2.40673">
        <ele>53.8</ele>
        <time>2022-04-13T14:10:48Z</time>
      </trkpt>
      <trkpt lat="49.87562" lon="2.40671">
        <ele>53.8</ele>
        <time>2022-04-13T14:10:50Z</time>
      </trkpt>
      <trkpt lat="49.87562" lon="2.40669">
        <ele>53.8</ele>
        <time>2022-04-13T14:10:51Z</time>
      </trkpt>
      <trkpt lat="49.87562" lon="2.40667">
        <ele>53.9</ele>
        <time>2022-04-13T14:10:52Z</time>
      </trkpt>
      <trkpt lat="49.87561" lon="2.40666">
        <ele>53.9</ele>
        <time>2022-04-13T14:10:53Z</time>
      </trkpt>
      <trkpt lat="49.87561" lon="2.40664">
        <ele>53.9</ele>
        <time>2022-04-13T14:10:54Z</time>
      </trkpt>
      <trkpt lat="49.8756" lon="2.40663">
        <ele>53.9</ele>
        <time>2022-04-13T14:10:55Z</time>
      </trkpt>
      <trkpt lat="49.8756" lon="2.40661">
        <ele>53.9</ele>
        <time>2022-04-13T14:10:56Z</time>
      </trkpt>
      <trkpt lat="49.8756" lon="2.4066">
        <ele>53.9</ele>
        <time>2022-04-13T14:10:57Z</time>
      </trkpt>
      <trkpt lat="49.87559" lon="2.40655">
        <ele>54</ele>
        <time>2022-04-13T14:10:58Z</time>
      </trkpt>
      <trkpt lat="49.87559" lon="2.40653">
        <ele>54</ele>
        <time>2022-04-13T14:11:00Z</time>
      </trkpt>
      <trkpt lat="49.87559" lon="2.40651">
        <ele>54</ele>
        <time>2022-04-13T14:11:01Z</time>
      </trkpt>
      <trkpt lat="49.87558" lon="2.40648">
        <ele>54</ele>
        <time>2022-04-13T14:11:02Z</time>
      </trkpt>
      <trkpt lat="49.87558" lon="2.40646">
        <ele>54.1</ele>
        <time>2022-04-13T14:11:03Z</time>
      </trkpt>
      <trkpt lat="49.87558" lon="2.40643">
        <ele>54.1</ele>
        <time>2022-04-13T14:11:04Z</time>
      </trkpt>
      <trkpt lat="49.87558" lon="2.40641">
        <ele>54.1</ele>
        <time>2022-04-13T14:11:05Z</time>
      </trkpt>
      <trkpt lat="49.87557" lon="2.40639">
        <ele>54.1</ele>
        <time>2022-04-13T14:11:07Z</time>
      </trkpt>
      <trkpt lat="49.87557" lon="2.40637">
        <ele>54.2</ele>
        <time>2022-04-13T14:11:08Z</time>
      </trkpt>
      <trkpt lat="49.87557" lon="2.40635">
        <ele>54.2</ele>
        <time>2022-04-13T14:11:09Z</time>
      </trkpt>
      <trkpt lat="49.87557" lon="2.40634">
        <ele>54.2</ele>
        <time>2022-04-13T14:11:10Z</time>
      </trkpt>
      <trkpt lat="49.87556" lon="2.40632">
        <ele>54.2</ele>
        <time>2022-04-13T14:11:11Z</time>
      </trkpt>
      <trkpt lat="49.87556" lon="2.4063">
        <ele>54.2</ele>
        <time>2022-04-13T14:11:12Z</time>
      </trkpt>
      <trkpt lat="49.87556" lon="2.40628">
        <ele>54.2</ele>
        <time>2022-04-13T14:11:13Z</time>
      </trkpt>
      <trkpt lat="49.87556" lon="2.40625">
        <ele>54.3</ele>
        <time>2022-04-13T14:11:14Z</time>
      </trkpt>
      <trkpt lat="49.87556" lon="2.40624">
        <ele>54.3</ele>
        <time>2022-04-13T14:11:15Z</time>
      </trkpt>
      <trkpt lat="49.87556" lon="2.40623">
        <ele>54.3</ele>
        <time>2022-04-13T14:11:16Z</time>
      </trkpt>
      <trkpt lat="49.87556" lon="2.40621">
        <ele>54.3</ele>
        <time>2022-04-13T14:11:17Z</time>
      </trkpt>
      <trkpt lat="49.87555" lon="2.4062">
        <ele>54.3</ele>
        <time>2022-04-13T14:11:19Z</time>
      </trkpt>
      <trkpt lat="49.87555" lon="2.40618">
        <ele>54.3</ele>
        <time>2022-04-13T14:11:20Z</time>
      </trkpt>
      <trkpt lat="49.87555" lon="2.40617">
        <ele>54.4</ele>
        <time>2022-04-13T14:11:21Z</time>
      </trkpt>
      <trkpt lat="49.87555" lon="2.40615">
        <ele>54.4</ele>
        <time>2022-04-13T14:11:22Z</time>
      </trkpt>
      <trkpt lat="49.87555" lon="2.40613">
        <ele>54.4</ele>
        <time>2022-04-13T14:11:23Z</time>
      </trkpt>
      <trkpt lat="49.87554" lon="2.40612">
        <ele>54.4</ele>
        <time>2022-04-13T14:11:24Z</time>
      </trkpt>
      <trkpt lat="49.87554" lon="2.4061">
        <ele>54.4</ele>
        <time>2022-04-13T14:11:25Z</time>
      </trkpt>
      <trkpt lat="49.87554" lon="2.40608">
        <ele>54.4</ele>
        <time>2022-04-13T14:11:27Z</time>
      </trkpt>
      <trkpt lat="49.87554" lon="2.40607">
        <ele>54.4</ele>
        <time>2022-04-13T14:11:28Z</time>
      </trkpt>
      <trkpt lat="49.87554" lon="2.40605">
        <ele>54.4</ele>
        <time>2022-04-13T14:11:29Z</time>
      </trkpt>
      <trkpt lat="49.87554" lon="2.40604">
        <ele>54.5</ele>
        <time>2022-04-13T14:11:30Z</time>
      </trkpt>
      <trkpt lat="49.87554" lon="2.40602">
        <ele>54.5</ele>
        <time>2022-04-13T14:11:31Z</time>
      </trkpt>
      <trkpt lat="49.87554" lon="2.40601">
        <ele>54.5</ele>
        <time>2022-04-13T14:11:32Z</time>
      </trkpt>
      <trkpt lat="49.87554" lon="2.40599">
        <ele>54.5</ele>
        <time>2022-04-13T14:11:33Z</time>
      </trkpt>
      <trkpt lat="49.87554" lon="2.40597">
        <ele>54.5</ele>
        <time>2022-04-13T14:11:34Z</time>
      </trkpt>
      <trkpt lat="49.87553" lon="2.40595">
        <ele>54.5</ele>
        <time>2022-04-13T14:11:35Z</time>
      </trkpt>
      <trkpt lat="49.87553" lon="2.40592">
        <ele>54.6</ele>
        <time>2022-04-13T14:11:36Z</time>
      </trkpt>
      <trkpt lat="49.87553" lon="2.4059">
        <ele>54.6</ele>
        <time>2022-04-13T14:11:38Z</time>
      </trkpt>
      <trkpt lat="49.87553" lon="2.40589">
        <ele>54.6</ele>
        <time>2022-04-13T14:11:39Z</time>
      </trkpt>
      <trkpt lat="49.87553" lon="2.40587">
        <ele>54.6</ele>
        <time>2022-04-13T14:11:40Z</time>
      </trkpt>
      <trkpt lat="49.87552" lon="2.40585">
        <ele>54.6</ele>
        <time>2022-04-13T14:11:41Z</time>
      </trkpt>
      <trkpt lat="49.87552" lon="2.40582">
        <ele>54.6</ele>
        <time>2022-04-13T14:11:42Z</time>
      </trkpt>
      <trkpt lat="49.87552" lon="2.4058">
        <ele>54.7</ele>
        <time>2022-04-13T14:11:43Z</time>
      </trkpt>
      <trkpt lat="49.87551" lon="2.40579">
        <ele>54.7</ele>
        <time>2022-04-13T14:11:44Z</time>
      </trkpt>
      <trkpt lat="49.87551" lon="2.40576">
        <ele>54.7</ele>
        <time>2022-04-13T14:11:46Z</time>
      </trkpt>
      <trkpt lat="49.87551" lon="2.40574">
        <ele>54.7</ele>
        <time>2022-04-13T14:11:47Z</time>
      </trkpt>
      <trkpt lat="49.8755" lon="2.40571">
        <ele>54.7</ele>
        <time>2022-04-13T14:11:48Z</time>
      </trkpt>
      <trkpt lat="49.8755" lon="2.4057">
        <ele>54.7</ele>
        <time>2022-04-13T14:11:49Z</time>
      </trkpt>
      <trkpt lat="49.87549" lon="2.40568">
        <ele>54.7</ele>
        <time>2022-04-13T14:11:50Z</time>
      </trkpt>
      <trkpt lat="49.87549" lon="2.40566">
        <ele>54.7</ele>
        <time>2022-04-13T14:11:51Z</time>
      </trkpt>
      <trkpt lat="49.87548" lon="2.40565">
        <ele>54.8</ele>
        <time>2022-04-13T14:11:52Z</time>
      </trkpt>
      <trkpt lat="49.87548" lon="2.40564">
        <ele>54.8</ele>
        <time>2022-04-13T14:11:53Z</time>
      </trkpt>
      <trkpt lat="49.87547" lon="2.40561">
        <ele>54.8</ele>
        <time>2022-04-13T14:11:55Z</time>
      </trkpt>
      <trkpt lat="49.87547" lon="2.40559">
        <ele>54.8</ele>
        <time>2022-04-13T14:11:56Z</time>
      </trkpt>
      <trkpt lat="49.87546" lon="2.40558">
        <ele>54.8</ele>
        <time>2022-04-13T14:11:57Z</time>
      </trkpt>
      <trkpt lat="49.87546" lon="2.40555">
        <ele>54.8</ele>
        <time>2022-04-13T14:11:58Z</time>
      </trkpt>
      <trkpt lat="49.87545" lon="2.40554">
        <ele>54.8</ele>
        <time>2022-04-13T14:11:59Z</time>
      </trkpt>
      <trkpt lat="49.87545" lon="2.40552">
        <ele>54.8</ele>
        <time>2022-04-13T14:12:00Z</time>
      </trkpt>
      <trkpt lat="49.87545" lon="2.4055">
        <ele>54.8</ele>
        <time>2022-04-13T14:12:01Z</time>
      </trkpt>
      <trkpt lat="49.87545" lon="2.40549">
        <ele>54.8</ele>
        <time>2022-04-13T14:12:02Z</time>
      </trkpt>
      <trkpt lat="49.87544" lon="2.40547">
        <ele>54.8</ele>
        <time>2022-04-13T14:12:04Z</time>
      </trkpt>
      <trkpt lat="49.87544" lon="2.40545">
        <ele>54.8</ele>
        <time>2022-04-13T14:12:05Z</time>
      </trkpt>
      <trkpt lat="49.87544" lon="2.40544">
        <ele>54.8</ele>
        <time>2022-04-13T14:12:06Z</time>
      </trkpt>
      <trkpt lat="49.87544" lon="2.40542">
        <ele>54.8</ele>
        <time>2022-04-13T14:12:07Z</time>
      </trkpt>
      <trkpt lat="49.87543" lon="2.4054">
        <ele>54.8</ele>
        <time>2022-04-13T14:12:08Z</time>
      </trkpt>
      <trkpt lat="49.87543" lon="2.40538">
        <ele>54.8</ele>
        <time>2022-04-13T14:12:09Z</time>
      </trkpt>
      <trkpt lat="49.87543" lon="2.40537">
        <ele>54.8</ele>
        <time>2022-04-13T14:12:10Z</time>
      </trkpt>
      <trkpt lat="49.87542" lon="2.40533">
        <ele>54.8</ele>
        <time>2022-04-13T14:12:11Z</time>
      </trkpt>
      <trkpt lat="49.87542" lon="2.40532">
        <ele>54.8</ele>
        <time>2022-04-13T14:12:13Z</time>
      </trkpt>
      <trkpt lat="49.87542" lon="2.40531">
        <ele>54.8</ele>
        <time>2022-04-13T14:12:14Z</time>
      </trkpt>
      <trkpt lat="49.87541" lon="2.40528">
        <ele>54.8</ele>
        <time>2022-04-13T14:12:15Z</time>
      </trkpt>
      <trkpt lat="49.87541" lon="2.40526">
        <ele>54.8</ele>
        <time>2022-04-13T14:12:16Z</time>
      </trkpt>
      <trkpt lat="49.8754" lon="2.40525">
        <ele>54.8</ele>
        <time>2022-04-13T14:12:17Z</time>
      </trkpt>
      <trkpt lat="49.8754" lon="2.40523">
        <ele>54.8</ele>
        <time>2022-04-13T14:12:18Z</time>
      </trkpt>
      <trkpt lat="49.8754" lon="2.40521">
        <ele>54.8</ele>
        <time>2022-04-13T14:12:19Z</time>
      </trkpt>
      <trkpt lat="49.87539" lon="2.40518">
        <ele>54.8</ele>
        <time>2022-04-13T14:12:21Z</time>
      </trkpt>
      <trkpt lat="49.87539" lon="2.40516">
        <ele>54.7</ele>
        <time>2022-04-13T14:12:22Z</time>
      </trkpt>
      <trkpt lat="49.87538" lon="2.40515">
        <ele>54.7</ele>
        <time>2022-04-13T14:12:23Z</time>
      </trkpt>
      <trkpt lat="49.87538" lon="2.40513">
        <ele>54.7</ele>
        <time>2022-04-13T14:12:24Z</time>
      </trkpt>
      <trkpt lat="49.87537" lon="2.40511">
        <ele>54.7</ele>
        <time>2022-04-13T14:12:25Z</time>
      </trkpt>
      <trkpt lat="49.87537" lon="2.40509">
        <ele>54.7</ele>
        <time>2022-04-13T14:12:26Z</time>
      </trkpt>
      <trkpt lat="49.87537" lon="2.40508">
        <ele>54.7</ele>
        <time>2022-04-13T14:12:27Z</time>
      </trkpt>
      <trkpt lat="49.87537" lon="2.40506">
        <ele>54.7</ele>
        <time>2022-04-13T14:12:28Z</time>
      </trkpt>
      <trkpt lat="49.87536" lon="2.40504">
        <ele>54.6</ele>
        <time>2022-04-13T14:12:29Z</time>
      </trkpt>
      <trkpt lat="49.87536" lon="2.40503">
        <ele>54.6</ele>
        <time>2022-04-13T14:12:30Z</time>
      </trkpt>
      <trkpt lat="49.87536" lon="2.40501">
        <ele>54.6</ele>
        <time>2022-04-13T14:12:32Z</time>
      </trkpt>
      <trkpt lat="49.87535" lon="2.40499">
        <ele>54.6</ele>
        <time>2022-04-13T14:12:33Z</time>
      </trkpt>
      <trkpt lat="49.87535" lon="2.40498">
        <ele>54.6</ele>
        <time>2022-04-13T14:12:34Z</time>
      </trkpt>
      <trkpt lat="49.87534" lon="2.40495">
        <ele>54.5</ele>
        <time>2022-04-13T14:12:35Z</time>
      </trkpt>
      <trkpt lat="49.87534" lon="2.40493">
        <ele>54.5</ele>
        <time>2022-04-13T14:12:37Z</time>
      </trkpt>
      <trkpt lat="49.87533" lon="2.40491">
        <ele>54.5</ele>
        <time>2022-04-13T14:12:38Z</time>
      </trkpt>
      <trkpt lat="49.87533" lon="2.4049">
        <ele>54.5</ele>
        <time>2022-04-13T14:12:39Z</time>
      </trkpt>
      <trkpt lat="49.87532" lon="2.40488">
        <ele>54.4</ele>
        <time>2022-04-13T14:12:40Z</time>
      </trkpt>
      <trkpt lat="49.87531" lon="2.40485">
        <ele>54.4</ele>
        <time>2022-04-13T14:12:41Z</time>
      </trkpt>
      <trkpt lat="49.87531" lon="2.40484">
        <ele>54.4</ele>
        <time>2022-04-13T14:12:42Z</time>
      </trkpt>
      <trkpt lat="49.8753" lon="2.40483">
        <ele>54.3</ele>
        <time>2022-04-13T14:12:43Z</time>
      </trkpt>
      <trkpt lat="49.87529" lon="2.4048">
        <ele>54.3</ele>
        <time>2022-04-13T14:12:44Z</time>
      </trkpt>
      <trkpt lat="49.87528" lon="2.40479">
        <ele>54.3</ele>
        <time>2022-04-13T14:12:45Z</time>
      </trkpt>
      <trkpt lat="49.87528" lon="2.40478">
        <ele>54.2</ele>
        <time>2022-04-13T14:12:46Z</time>
      </trkpt>
      <trkpt lat="49.87527" lon="2.40476">
        <ele>54.2</ele>
        <time>2022-04-13T14:12:47Z</time>
      </trkpt>
      <trkpt lat="49.87527" lon="2.40474">
        <ele>54.2</ele>
        <time>2022-04-13T14:12:48Z</time>
      </trkpt>
      <trkpt lat="49.87526" lon="2.40472">
        <ele>54.1</ele>
        <time>2022-04-13T14:12:50Z</time>
      </trkpt>
      <trkpt lat="49.87525" lon="2.4047">
        <ele>54.1</ele>
        <time>2022-04-13T14:12:51Z</time>
      </trkpt>
      <trkpt lat="49.87525" lon="2.40468">
        <ele>54.1</ele>
        <time>2022-04-13T14:12:52Z</time>
      </trkpt>
      <trkpt lat="49.87524" lon="2.40467">
        <ele>54</ele>
        <time>2022-04-13T14:12:53Z</time>
      </trkpt>
      <trkpt lat="49.87524" lon="2.40465">
        <ele>54</ele>
        <time>2022-04-13T14:12:55Z</time>
      </trkpt>
      <trkpt lat="49.87523" lon="2.40463">
        <ele>53.9</ele>
        <time>2022-04-13T14:12:56Z</time>
      </trkpt>
      <trkpt lat="49.87523" lon="2.4046">
        <ele>53.9</ele>
        <time>2022-04-13T14:12:57Z</time>
      </trkpt>
      <trkpt lat="49.87523" lon="2.40458">
        <ele>53.8</ele>
        <time>2022-04-13T14:12:58Z</time>
      </trkpt>
      <trkpt lat="49.87522" lon="2.40456">
        <ele>53.8</ele>
        <time>2022-04-13T14:12:59Z</time>
      </trkpt>
      <trkpt lat="49.87522" lon="2.40455">
        <ele>53.7</ele>
        <time>2022-04-13T14:13:00Z</time>
      </trkpt>
      <trkpt lat="49.87521" lon="2.40452">
        <ele>53.7</ele>
        <time>2022-04-13T14:13:02Z</time>
      </trkpt>
      <trkpt lat="49.8752" lon="2.4045">
        <ele>53.6</ele>
        <time>2022-04-13T14:13:03Z</time>
      </trkpt>
      <trkpt lat="49.8752" lon="2.40448">
        <ele>53.5</ele>
        <time>2022-04-13T14:13:04Z</time>
      </trkpt>
      <trkpt lat="49.87519" lon="2.40446">
        <ele>53.5</ele>
        <time>2022-04-13T14:13:05Z</time>
      </trkpt>
      <trkpt lat="49.87519" lon="2.40444">
        <ele>53.4</ele>
        <time>2022-04-13T14:13:06Z</time>
      </trkpt>
      <trkpt lat="49.87518" lon="2.40442">
        <ele>53.4</ele>
        <time>2022-04-13T14:13:07Z</time>
      </trkpt>
      <trkpt lat="49.87517" lon="2.4044">
        <ele>53.3</ele>
        <time>2022-04-13T14:13:08Z</time>
      </trkpt>
      <trkpt lat="49.87517" lon="2.40437">
        <ele>53.2</ele>
        <time>2022-04-13T14:13:09Z</time>
      </trkpt>
      <trkpt lat="49.87516" lon="2.40436">
        <ele>53.2</ele>
        <time>2022-04-13T14:13:10Z</time>
      </trkpt>
      <trkpt lat="49.87516" lon="2.40434">
        <ele>53.2</ele>
        <time>2022-04-13T14:13:11Z</time>
      </trkpt>
      <trkpt lat="49.87516" lon="2.40432">
        <ele>53.1</ele>
        <time>2022-04-13T14:13:13Z</time>
      </trkpt>
      <trkpt lat="49.87516" lon="2.4043">
        <ele>53</ele>
        <time>2022-04-13T14:13:14Z</time>
      </trkpt>
      <trkpt lat="49.87515" lon="2.40428">
        <ele>53</ele>
        <time>2022-04-13T14:13:15Z</time>
      </trkpt>
      <trkpt lat="49.87515" lon="2.40427">
        <ele>53</ele>
        <time>2022-04-13T14:13:16Z</time>
      </trkpt>
      <trkpt lat="49.87515" lon="2.40425">
        <ele>52.9</ele>
        <time>2022-04-13T14:13:17Z</time>
      </trkpt>
      <trkpt lat="49.87515" lon="2.40423">
        <ele>52.8</ele>
        <time>2022-04-13T14:13:18Z</time>
      </trkpt>
      <trkpt lat="49.87514" lon="2.40421">
        <ele>52.8</ele>
        <time>2022-04-13T14:13:19Z</time>
      </trkpt>
      <trkpt lat="49.87514" lon="2.40419">
        <ele>52.7</ele>
        <time>2022-04-13T14:13:20Z</time>
      </trkpt>
      <trkpt lat="49.87513" lon="2.40417">
        <ele>52.7</ele>
        <time>2022-04-13T14:13:21Z</time>
      </trkpt>
      <trkpt lat="49.87513" lon="2.40413">
        <ele>52.6</ele>
        <time>2022-04-13T14:13:23Z</time>
      </trkpt>
      <trkpt lat="49.87513" lon="2.40412">
        <ele>52.5</ele>
        <time>2022-04-13T14:13:24Z</time>
      </trkpt>
      <trkpt lat="49.87513" lon="2.40411">
        <ele>52.5</ele>
        <time>2022-04-13T14:13:25Z</time>
      </trkpt>
      <trkpt lat="49.87512" lon="2.40408">
        <ele>52.4</ele>
        <time>2022-04-13T14:13:26Z</time>
      </trkpt>
      <trkpt lat="49.87512" lon="2.40407">
        <ele>52.4</ele>
        <time>2022-04-13T14:13:27Z</time>
      </trkpt>
      <trkpt lat="49.87512" lon="2.40405">
        <ele>52.4</ele>
        <time>2022-04-13T14:13:28Z</time>
      </trkpt>
      <trkpt lat="49.87511" lon="2.40402">
        <ele>52.3</ele>
        <time>2022-04-13T14:13:29Z</time>
      </trkpt>
      <trkpt lat="49.87511" lon="2.40401">
        <ele>52.3</ele>
        <time>2022-04-13T14:13:30Z</time>
      </trkpt>
      <trkpt lat="49.87511" lon="2.404">
        <ele>52.2</ele>
        <time>2022-04-13T14:13:31Z</time>
      </trkpt>
      <trkpt lat="49.8751" lon="2.40396">
        <ele>52.2</ele>
        <time>2022-04-13T14:13:33Z</time>
      </trkpt>
      <trkpt lat="49.8751" lon="2.40394">
        <ele>52.1</ele>
        <time>2022-04-13T14:13:34Z</time>
      </trkpt>
      <trkpt lat="49.87509" lon="2.40392">
        <ele>52.1</ele>
        <time>2022-04-13T14:13:35Z</time>
      </trkpt>
      <trkpt lat="49.87509" lon="2.4039">
        <ele>52</ele>
        <time>2022-04-13T14:13:36Z</time>
      </trkpt>
      <trkpt lat="49.87508" lon="2.40386">
        <ele>51.9</ele>
        <time>2022-04-13T14:13:38Z</time>
      </trkpt>
      <trkpt lat="49.87508" lon="2.40385">
        <ele>51.9</ele>
        <time>2022-04-13T14:13:39Z</time>
      </trkpt>
      <trkpt lat="49.87509" lon="2.40383">
        <ele>51.9</ele>
        <time>2022-04-13T14:13:40Z</time>
      </trkpt>
      <trkpt lat="49.87509" lon="2.40382">
        <ele>51.9</ele>
        <time>2022-04-13T14:13:41Z</time>
      </trkpt>
      <trkpt lat="49.87508" lon="2.40379">
        <ele>51.8</ele>
        <time>2022-04-13T14:13:43Z</time>
      </trkpt>
      <trkpt lat="49.87508" lon="2.40377">
        <ele>51.8</ele>
        <time>2022-04-13T14:13:44Z</time>
      </trkpt>
      <trkpt lat="49.87507" lon="2.40375">
        <ele>51.8</ele>
        <time>2022-04-13T14:13:45Z</time>
      </trkpt>
      <trkpt lat="49.87507" lon="2.40374">
        <ele>51.7</ele>
        <time>2022-04-13T14:13:46Z</time>
      </trkpt>
      <trkpt lat="49.87507" lon="2.40371">
        <ele>51.7</ele>
        <time>2022-04-13T14:13:47Z</time>
      </trkpt>
      <trkpt lat="49.87507" lon="2.40369">
        <ele>51.7</ele>
        <time>2022-04-13T14:13:48Z</time>
      </trkpt>
      <trkpt lat="49.87507" lon="2.40368">
        <ele>51.7</ele>
        <time>2022-04-13T14:13:49Z</time>
      </trkpt>
      <trkpt lat="49.87506" lon="2.40365">
        <ele>51.6</ele>
        <time>2022-04-13T14:13:50Z</time>
      </trkpt>
      <trkpt lat="49.87506" lon="2.40363">
        <ele>51.6</ele>
        <time>2022-04-13T14:13:52Z</time>
      </trkpt>
      <trkpt lat="49.87506" lon="2.40362">
        <ele>51.6</ele>
        <time>2022-04-13T14:13:53Z</time>
      </trkpt>
      <trkpt lat="49.87505" lon="2.4036">
        <ele>51.6</ele>
        <time>2022-04-13T14:13:54Z</time>
      </trkpt>
      <trkpt lat="49.87505" lon="2.40359">
        <ele>51.6</ele>
        <time>2022-04-13T14:13:55Z</time>
      </trkpt>
      <trkpt lat="49.87505" lon="2.40358">
        <ele>51.6</ele>
        <time>2022-04-13T14:13:56Z</time>
      </trkpt>
      <trkpt lat="49.87505" lon="2.40356">
        <ele>51.6</ele>
        <time>2022-04-13T14:13:57Z</time>
      </trkpt>
      <trkpt lat="49.87505" lon="2.40354">
        <ele>51.5</ele>
        <time>2022-04-13T14:13:58Z</time>
      </trkpt>
      <trkpt lat="49.87505" lon="2.40351">
        <ele>51.5</ele>
        <time>2022-04-13T14:14:00Z</time>
      </trkpt>
      <trkpt lat="49.87505" lon="2.40349">
        <ele>51.5</ele>
        <time>2022-04-13T14:14:01Z</time>
      </trkpt>
      <trkpt lat="49.87505" lon="2.40347">
        <ele>51.5</ele>
        <time>2022-04-13T14:14:02Z</time>
      </trkpt>
      <trkpt lat="49.87505" lon="2.40345">
        <ele>51.5</ele>
        <time>2022-04-13T14:14:03Z</time>
      </trkpt>
      <trkpt lat="49.87505" lon="2.40343">
        <ele>51.5</ele>
        <time>2022-04-13T14:14:04Z</time>
      </trkpt>
      <trkpt lat="49.87505" lon="2.40341">
        <ele>51.5</ele>
        <time>2022-04-13T14:14:05Z</time>
      </trkpt>
      <trkpt lat="49.87505" lon="2.40339">
        <ele>51.5</ele>
        <time>2022-04-13T14:14:06Z</time>
      </trkpt>
      <trkpt lat="49.87506" lon="2.40337">
        <ele>51.5</ele>
        <time>2022-04-13T14:14:07Z</time>
      </trkpt>
      <trkpt lat="49.87506" lon="2.40335">
        <ele>51.5</ele>
        <time>2022-04-13T14:14:08Z</time>
      </trkpt>
      <trkpt lat="49.87506" lon="2.40333">
        <ele>51.5</ele>
        <time>2022-04-13T14:14:09Z</time>
      </trkpt>
      <trkpt lat="49.87506" lon="2.40332">
        <ele>51.5</ele>
        <time>2022-04-13T14:14:10Z</time>
      </trkpt>
      <trkpt lat="49.87505" lon="2.4033">
        <ele>51.5</ele>
        <time>2022-04-13T14:14:11Z</time>
      </trkpt>
      <trkpt lat="49.87505" lon="2.40329">
        <ele>51.5</ele>
        <time>2022-04-13T14:14:12Z</time>
      </trkpt>
      <trkpt lat="49.87504" lon="2.40327">
        <ele>51.5</ele>
        <time>2022-04-13T14:14:14Z</time>
      </trkpt>
      <trkpt lat="49.87504" lon="2.40326">
        <ele>51.4</ele>
        <time>2022-04-13T14:14:15Z</time>
      </trkpt>
      <trkpt lat="49.87503" lon="2.40324">
        <ele>51.4</ele>
        <time>2022-04-13T14:14:16Z</time>
      </trkpt>
      <trkpt lat="49.87502" lon="2.40322">
        <ele>51.4</ele>
        <time>2022-04-13T14:14:17Z</time>
      </trkpt>
      <trkpt lat="49.87501" lon="2.40319">
        <ele>51.4</ele>
        <time>2022-04-13T14:14:18Z</time>
      </trkpt>
      <trkpt lat="49.87501" lon="2.40318">
        <ele>51.4</ele>
        <time>2022-04-13T14:14:19Z</time>
      </trkpt>
      <trkpt lat="49.87501" lon="2.40317">
        <ele>51.4</ele>
        <time>2022-04-13T14:14:20Z</time>
      </trkpt>
      <trkpt lat="49.87501" lon="2.40313">
        <ele>51.4</ele>
        <time>2022-04-13T14:14:21Z</time>
      </trkpt>
      <trkpt lat="49.87501" lon="2.40311">
        <ele>51.4</ele>
        <time>2022-04-13T14:14:23Z</time>
      </trkpt>
      <trkpt lat="49.87501" lon="2.4031">
        <ele>51.4</ele>
        <time>2022-04-13T14:14:24Z</time>
      </trkpt>
      <trkpt lat="49.87501" lon="2.40308">
        <ele>51.4</ele>
        <time>2022-04-13T14:14:25Z</time>
      </trkpt>
      <trkpt lat="49.87501" lon="2.40306">
        <ele>51.4</ele>
        <time>2022-04-13T14:14:26Z</time>
      </trkpt>
      <trkpt lat="49.87501" lon="2.40304">
        <ele>51.4</ele>
        <time>2022-04-13T14:14:27Z</time>
      </trkpt>
      <trkpt lat="49.87501" lon="2.40301">
        <ele>51.4</ele>
        <time>2022-04-13T14:14:28Z</time>
      </trkpt>
      <trkpt lat="49.87502" lon="2.40299">
        <ele>51.4</ele>
        <time>2022-04-13T14:14:30Z</time>
      </trkpt>
      <trkpt lat="49.87502" lon="2.40296">
        <ele>51.4</ele>
        <time>2022-04-13T14:14:31Z</time>
      </trkpt>
      <trkpt lat="49.87503" lon="2.40293">
        <ele>51.4</ele>
        <time>2022-04-13T14:14:32Z</time>
      </trkpt>
      <trkpt lat="49.87503" lon="2.40292">
        <ele>51.4</ele>
        <time>2022-04-13T14:14:33Z</time>
      </trkpt>
      <trkpt lat="49.87503" lon="2.4029">
        <ele>51.4</ele>
        <time>2022-04-13T14:14:34Z</time>
      </trkpt>
      <trkpt lat="49.87503" lon="2.40288">
        <ele>51.4</ele>
        <time>2022-04-13T14:14:35Z</time>
      </trkpt>
      <trkpt lat="49.87504" lon="2.40287">
        <ele>51.4</ele>
        <time>2022-04-13T14:14:36Z</time>
      </trkpt>
      <trkpt lat="49.87504" lon="2.40285">
        <ele>51.4</ele>
        <time>2022-04-13T14:14:38Z</time>
      </trkpt>
      <trkpt lat="49.87503" lon="2.40282">
        <ele>51.4</ele>
        <time>2022-04-13T14:14:40Z</time>
      </trkpt>
      <trkpt lat="49.87503" lon="2.4028">
        <ele>51.4</ele>
        <time>2022-04-13T14:14:41Z</time>
      </trkpt>
      <trkpt lat="49.87502" lon="2.40279">
        <ele>51.4</ele>
        <time>2022-04-13T14:14:42Z</time>
      </trkpt>
      <trkpt lat="49.87502" lon="2.40277">
        <ele>51.4</ele>
        <time>2022-04-13T14:14:43Z</time>
      </trkpt>
      <trkpt lat="49.87502" lon="2.40276">
        <ele>51.4</ele>
        <time>2022-04-13T14:14:44Z</time>
      </trkpt>
      <trkpt lat="49.87503" lon="2.40273">
        <ele>51.4</ele>
        <time>2022-04-13T14:14:45Z</time>
      </trkpt>
      <trkpt lat="49.87503" lon="2.40272">
        <ele>51.4</ele>
        <time>2022-04-13T14:14:46Z</time>
      </trkpt>
      <trkpt lat="49.87503" lon="2.4027">
        <ele>51.4</ele>
        <time>2022-04-13T14:14:47Z</time>
      </trkpt>
      <trkpt lat="49.87503" lon="2.40267">
        <ele>51.4</ele>
        <time>2022-04-13T14:14:48Z</time>
      </trkpt>
      <trkpt lat="49.87503" lon="2.40266">
        <ele>51.4</ele>
        <time>2022-04-13T14:14:49Z</time>
      </trkpt>
      <trkpt lat="49.87503" lon="2.40264">
        <ele>51.4</ele>
        <time>2022-04-13T14:14:50Z</time>
      </trkpt>
      <trkpt lat="49.87503" lon="2.40262">
        <ele>51.4</ele>
        <time>2022-04-13T14:14:52Z</time>
      </trkpt>
      <trkpt lat="49.87503" lon="2.4026">
        <ele>51.4</ele>
        <time>2022-04-13T14:14:53Z</time>
      </trkpt>
      <trkpt lat="49.87503" lon="2.40258">
        <ele>51.4</ele>
        <time>2022-04-13T14:14:54Z</time>
      </trkpt>
      <trkpt lat="49.87503" lon="2.40256">
        <ele>51.4</ele>
        <time>2022-04-13T14:14:55Z</time>
      </trkpt>
      <trkpt lat="49.87503" lon="2.40253">
        <ele>51.4</ele>
        <time>2022-04-13T14:14:57Z</time>
      </trkpt>
      <trkpt lat="49.87503" lon="2.40252">
        <ele>51.4</ele>
        <time>2022-04-13T14:14:58Z</time>
      </trkpt>
      <trkpt lat="49.87503" lon="2.4025">
        <ele>51.4</ele>
        <time>2022-04-13T14:14:59Z</time>
      </trkpt>
      <trkpt lat="49.87503" lon="2.40248">
        <ele>51.4</ele>
        <time>2022-04-13T14:15:00Z</time>
      </trkpt>
      <trkpt lat="49.87503" lon="2.40246">
        <ele>51.4</ele>
        <time>2022-04-13T14:15:01Z</time>
      </trkpt>
      <trkpt lat="49.87503" lon="2.40245">
        <ele>51.4</ele>
        <time>2022-04-13T14:15:02Z</time>
      </trkpt>
      <trkpt lat="49.87503" lon="2.40243">
        <ele>51.4</ele>
        <time>2022-04-13T14:15:03Z</time>
      </trkpt>
      <trkpt lat="49.87503" lon="2.40241">
        <ele>51.4</ele>
        <time>2022-04-13T14:15:04Z</time>
      </trkpt>
      <trkpt lat="49.87503" lon="2.4024">
        <ele>51.4</ele>
        <time>2022-04-13T14:15:05Z</time>
      </trkpt>
      <trkpt lat="49.87503" lon="2.40238">
        <ele>51.4</ele>
        <time>2022-04-13T14:15:06Z</time>
      </trkpt>
      <trkpt lat="49.87503" lon="2.40236">
        <ele>51.5</ele>
        <time>2022-04-13T14:15:07Z</time>
      </trkpt>
      <trkpt lat="49.87503" lon="2.40234">
        <ele>51.5</ele>
        <time>2022-04-13T14:15:08Z</time>
      </trkpt>
      <trkpt lat="49.87504" lon="2.40233">
        <ele>51.5</ele>
        <time>2022-04-13T14:15:09Z</time>
      </trkpt>
      <trkpt lat="49.87504" lon="2.40231">
        <ele>51.5</ele>
        <time>2022-04-13T14:15:11Z</time>
      </trkpt>
      <trkpt lat="49.87504" lon="2.40229">
        <ele>51.5</ele>
        <time>2022-04-13T14:15:12Z</time>
      </trkpt>
      <trkpt lat="49.87504" lon="2.40228">
        <ele>51.5</ele>
        <time>2022-04-13T14:15:13Z</time>
      </trkpt>
      <trkpt lat="49.87505" lon="2.40227">
        <ele>51.5</ele>
        <time>2022-04-13T14:15:14Z</time>
      </trkpt>
      <trkpt lat="49.87505" lon="2.40225">
        <ele>51.5</ele>
        <time>2022-04-13T14:15:15Z</time>
      </trkpt>
      <trkpt lat="49.87505" lon="2.40223">
        <ele>51.5</ele>
        <time>2022-04-13T14:15:16Z</time>
      </trkpt>
      <trkpt lat="49.87506" lon="2.4022">
        <ele>51.5</ele>
        <time>2022-04-13T14:15:18Z</time>
      </trkpt>
      <trkpt lat="49.87506" lon="2.40219">
        <ele>51.5</ele>
        <time>2022-04-13T14:15:19Z</time>
      </trkpt>
      <trkpt lat="49.87506" lon="2.40218">
        <ele>51.5</ele>
        <time>2022-04-13T14:15:20Z</time>
      </trkpt>
      <trkpt lat="49.87506" lon="2.40216">
        <ele>51.6</ele>
        <time>2022-04-13T14:15:21Z</time>
      </trkpt>
      <trkpt lat="49.87507" lon="2.40214">
        <ele>51.6</ele>
        <time>2022-04-13T14:15:22Z</time>
      </trkpt>
      <trkpt lat="49.87507" lon="2.40211">
        <ele>51.6</ele>
        <time>2022-04-13T14:15:24Z</time>
      </trkpt>
      <trkpt lat="49.87507" lon="2.40209">
        <ele>51.6</ele>
        <time>2022-04-13T14:15:25Z</time>
      </trkpt>
      <trkpt lat="49.87507" lon="2.40208">
        <ele>51.6</ele>
        <time>2022-04-13T14:15:26Z</time>
      </trkpt>
      <trkpt lat="49.87507" lon="2.40206">
        <ele>51.6</ele>
        <time>2022-04-13T14:15:27Z</time>
      </trkpt>
      <trkpt lat="49.87508" lon="2.40204">
        <ele>51.6</ele>
        <time>2022-04-13T14:15:28Z</time>
      </trkpt>
      <trkpt lat="49.87508" lon="2.40202">
        <ele>51.6</ele>
        <time>2022-04-13T14:15:29Z</time>
      </trkpt>
      <trkpt lat="49.87507" lon="2.40201">
        <ele>51.6</ele>
        <time>2022-04-13T14:15:30Z</time>
      </trkpt>
      <trkpt lat="49.87507" lon="2.40197">
        <ele>51.7</ele>
        <time>2022-04-13T14:15:31Z</time>
      </trkpt>
      <trkpt lat="49.87507" lon="2.40196">
        <ele>51.7</ele>
        <time>2022-04-13T14:15:32Z</time>
      </trkpt>
      <trkpt lat="49.87507" lon="2.40195">
        <ele>51.7</ele>
        <time>2022-04-13T14:15:33Z</time>
      </trkpt>
      <trkpt lat="49.87507" lon="2.40193">
        <ele>51.7</ele>
        <time>2022-04-13T14:15:34Z</time>
      </trkpt>
      <trkpt lat="49.87507" lon="2.40191">
        <ele>51.7</ele>
        <time>2022-04-13T14:15:35Z</time>
      </trkpt>
      <trkpt lat="49.87506" lon="2.40188">
        <ele>51.7</ele>
        <time>2022-04-13T14:15:37Z</time>
      </trkpt>
      <trkpt lat="49.87506" lon="2.40186">
        <ele>51.8</ele>
        <time>2022-04-13T14:15:38Z</time>
      </trkpt>
      <trkpt lat="49.87506" lon="2.40184">
        <ele>51.8</ele>
        <time>2022-04-13T14:15:39Z</time>
      </trkpt>
      <trkpt lat="49.87505" lon="2.40181">
        <ele>51.8</ele>
        <time>2022-04-13T14:15:40Z</time>
      </trkpt>
      <trkpt lat="49.87505" lon="2.40179">
        <ele>51.8</ele>
        <time>2022-04-13T14:15:41Z</time>
      </trkpt>
      <trkpt lat="49.87505" lon="2.40178">
        <ele>51.8</ele>
        <time>2022-04-13T14:15:42Z</time>
      </trkpt>
      <trkpt lat="49.87505" lon="2.40175">
        <ele>51.8</ele>
        <time>2022-04-13T14:15:43Z</time>
      </trkpt>
      <trkpt lat="49.87505" lon="2.40174">
        <ele>51.9</ele>
        <time>2022-04-13T14:15:44Z</time>
      </trkpt>
      <trkpt lat="49.87505" lon="2.40172">
        <ele>51.9</ele>
        <time>2022-04-13T14:15:45Z</time>
      </trkpt>
      <trkpt lat="49.87504" lon="2.40169">
        <ele>51.9</ele>
        <time>2022-04-13T14:15:46Z</time>
      </trkpt>
      <trkpt lat="49.87504" lon="2.40168">
        <ele>51.9</ele>
        <time>2022-04-13T14:15:47Z</time>
      </trkpt>
      <trkpt lat="49.87504" lon="2.40167">
        <ele>51.9</ele>
        <time>2022-04-13T14:15:48Z</time>
      </trkpt>
      <trkpt lat="49.87504" lon="2.40163">
        <ele>51.9</ele>
        <time>2022-04-13T14:15:49Z</time>
      </trkpt>
      <trkpt lat="49.87504" lon="2.40162">
        <ele>52</ele>
        <time>2022-04-13T14:15:51Z</time>
      </trkpt>
      <trkpt lat="49.87504" lon="2.40161">
        <ele>52</ele>
        <time>2022-04-13T14:15:52Z</time>
      </trkpt>
      <trkpt lat="49.87504" lon="2.40159">
        <ele>52</ele>
        <time>2022-04-13T14:15:53Z</time>
      </trkpt>
      <trkpt lat="49.87504" lon="2.40157">
        <ele>52</ele>
        <time>2022-04-13T14:15:54Z</time>
      </trkpt>
      <trkpt lat="49.87504" lon="2.40156">
        <ele>52</ele>
        <time>2022-04-13T14:15:55Z</time>
      </trkpt>
      <trkpt lat="49.87503" lon="2.40153">
        <ele>52</ele>
        <time>2022-04-13T14:15:56Z</time>
      </trkpt>
      <trkpt lat="49.87503" lon="2.40151">
        <ele>52</ele>
        <time>2022-04-13T14:15:57Z</time>
      </trkpt>
      <trkpt lat="49.87503" lon="2.4015">
        <ele>52.1</ele>
        <time>2022-04-13T14:15:58Z</time>
      </trkpt>
      <trkpt lat="49.87503" lon="2.40148">
        <ele>52.1</ele>
        <time>2022-04-13T14:16:00Z</time>
      </trkpt>
      <trkpt lat="49.87503" lon="2.40146">
        <ele>52.1</ele>
        <time>2022-04-13T14:16:01Z</time>
      </trkpt>
      <trkpt lat="49.87502" lon="2.40145">
        <ele>52.1</ele>
        <time>2022-04-13T14:16:02Z</time>
      </trkpt>
      <trkpt lat="49.87502" lon="2.40144">
        <ele>52.1</ele>
        <time>2022-04-13T14:16:03Z</time>
      </trkpt>
      <trkpt lat="49.87501" lon="2.40143">
        <ele>52.1</ele>
        <time>2022-04-13T14:16:04Z</time>
      </trkpt>
      <trkpt lat="49.87501" lon="2.40143">
        <ele>52.1</ele>
        <time>2022-04-13T14:16:05Z</time>
      </trkpt>
      <trkpt lat="49.875" lon="2.40142">
        <ele>52.1</ele>
        <time>2022-04-13T14:16:06Z</time>
      </trkpt>
      <trkpt lat="49.875" lon="2.40141">
        <ele>52.1</ele>
        <time>2022-04-13T14:16:07Z</time>
      </trkpt>
      <trkpt lat="49.875" lon="2.4014">
        <ele>52.1</ele>
        <time>2022-04-13T14:16:08Z</time>
      </trkpt>
      <trkpt lat="49.875" lon="2.4014">
        <ele>52.1</ele>
        <time>2022-04-13T14:16:09Z</time>
      </trkpt>
      <trkpt lat="49.875" lon="2.40139">
        <ele>52.2</ele>
        <time>2022-04-13T14:16:10Z</time>
      </trkpt>
      <trkpt lat="49.875" lon="2.40138">
        <ele>52.2</ele>
        <time>2022-04-13T14:16:11Z</time>
      </trkpt>
      <trkpt lat="49.875" lon="2.40138">
        <ele>52.2</ele>
        <time>2022-04-13T14:16:12Z</time>
      </trkpt>
      <trkpt lat="49.875" lon="2.40137">
        <ele>52.2</ele>
        <time>2022-04-13T14:16:13Z</time>
      </trkpt>
      <trkpt lat="49.875" lon="2.40137">
        <ele>52.2</ele>
        <time>2022-04-13T14:16:14Z</time>
      </trkpt>
      <trkpt lat="49.875" lon="2.40137">
        <ele>52.2</ele>
        <time>2022-04-13T14:16:15Z</time>
      </trkpt>
      <trkpt lat="49.87499" lon="2.40137">
        <ele>52.2</ele>
        <time>2022-04-13T14:16:16Z</time>
      </trkpt>
      <trkpt lat="49.87499" lon="2.40136">
        <ele>52.2</ele>
        <time>2022-04-13T14:16:17Z</time>
      </trkpt>
      <trkpt lat="49.87499" lon="2.40136">
        <ele>52.2</ele>
        <time>2022-04-13T14:16:18Z</time>
      </trkpt>
      <trkpt lat="49.87499" lon="2.40136">
        <ele>52.2</ele>
        <time>2022-04-13T14:16:19Z</time>
      </trkpt>
      <trkpt lat="49.87499" lon="2.40136">
        <ele>52.2</ele>
        <time>2022-04-13T14:16:20Z</time>
      </trkpt>
      <trkpt lat="49.87499" lon="2.40136">
        <ele>52.2</ele>
        <time>2022-04-13T14:16:21Z</time>
      </trkpt>
      <trkpt lat="49.87499" lon="2.40136">
        <ele>52.2</ele>
        <time>2022-04-13T14:16:22Z</time>
      </trkpt>
      <trkpt lat="49.87499" lon="2.40135">
        <ele>52.2</ele>
        <time>2022-04-13T14:16:24Z</time>
      </trkpt>
      <trkpt lat="49.87499" lon="2.40135">
        <ele>52.2</ele>
        <time>2022-04-13T14:16:25Z</time>
      </trkpt>
      <trkpt lat="49.87499" lon="2.40134">
        <ele>52.2</ele>
        <time>2022-04-13T14:16:26Z</time>
      </trkpt>
      <trkpt lat="49.87499" lon="2.40133">
        <ele>52.2</ele>
        <time>2022-04-13T14:16:27Z</time>
      </trkpt>
      <trkpt lat="49.87499" lon="2.40132">
        <ele>52.2</ele>
        <time>2022-04-13T14:16:29Z</time>
      </trkpt>
      <trkpt lat="49.875" lon="2.40131">
        <ele>52.2</ele>
        <time>2022-04-13T14:16:30Z</time>
      </trkpt>
      <trkpt lat="49.875" lon="2.4013">
        <ele>52.2</ele>
        <time>2022-04-13T14:16:31Z</time>
      </trkpt>
      <trkpt lat="49.875" lon="2.40129">
        <ele>52.3</ele>
        <time>2022-04-13T14:16:32Z</time>
      </trkpt>
      <trkpt lat="49.875" lon="2.40127">
        <ele>52.3</ele>
        <time>2022-04-13T14:16:33Z</time>
      </trkpt>
      <trkpt lat="49.87501" lon="2.40126">
        <ele>52.3</ele>
        <time>2022-04-13T14:16:34Z</time>
      </trkpt>
      <trkpt lat="49.87501" lon="2.40124">
        <ele>52.3</ele>
        <time>2022-04-13T14:16:35Z</time>
      </trkpt>
      <trkpt lat="49.87501" lon="2.40121">
        <ele>52.3</ele>
        <time>2022-04-13T14:16:36Z</time>
      </trkpt>
      <trkpt lat="49.87501" lon="2.40119">
        <ele>52.3</ele>
        <time>2022-04-13T14:16:37Z</time>
      </trkpt>
      <trkpt lat="49.87501" lon="2.40118">
        <ele>52.4</ele>
        <time>2022-04-13T14:16:39Z</time>
      </trkpt>
      <trkpt lat="49.87502" lon="2.40116">
        <ele>52.4</ele>
        <time>2022-04-13T14:16:40Z</time>
      </trkpt>
      <trkpt lat="49.87502" lon="2.40115">
        <ele>52.4</ele>
        <time>2022-04-13T14:16:41Z</time>
      </trkpt>
      <trkpt lat="49.87502" lon="2.40113">
        <ele>52.4</ele>
        <time>2022-04-13T14:16:42Z</time>
      </trkpt>
      <trkpt lat="49.87502" lon="2.40111">
        <ele>52.4</ele>
        <time>2022-04-13T14:16:44Z</time>
      </trkpt>
      <trkpt lat="49.87502" lon="2.40109">
        <ele>52.5</ele>
        <time>2022-04-13T14:16:45Z</time>
      </trkpt>
      <trkpt lat="49.87502" lon="2.40105">
        <ele>52.5</ele>
        <time>2022-04-13T14:16:46Z</time>
      </trkpt>
      <trkpt lat="49.87502" lon="2.40104">
        <ele>52.5</ele>
        <time>2022-04-13T14:16:47Z</time>
      </trkpt>
      <trkpt lat="49.87502" lon="2.40103">
        <ele>52.5</ele>
        <time>2022-04-13T14:16:48Z</time>
      </trkpt>
      <trkpt lat="49.87502" lon="2.40101">
        <ele>52.6</ele>
        <time>2022-04-13T14:16:49Z</time>
      </trkpt>
      <trkpt lat="49.87502" lon="2.40098">
        <ele>52.6</ele>
        <time>2022-04-13T14:16:50Z</time>
      </trkpt>
      <trkpt lat="49.87502" lon="2.40096">
        <ele>52.6</ele>
        <time>2022-04-13T14:16:51Z</time>
      </trkpt>
      <trkpt lat="49.87502" lon="2.40094">
        <ele>52.7</ele>
        <time>2022-04-13T14:16:52Z</time>
      </trkpt>
      <trkpt lat="49.87502" lon="2.4009">
        <ele>52.7</ele>
        <time>2022-04-13T14:16:53Z</time>
      </trkpt>
      <trkpt lat="49.87502" lon="2.40089">
        <ele>52.7</ele>
        <time>2022-04-13T14:16:55Z</time>
      </trkpt>
      <trkpt lat="49.87502" lon="2.40088">
        <ele>52.7</ele>
        <time>2022-04-13T14:16:56Z</time>
      </trkpt>
      <trkpt lat="49.87502" lon="2.40086">
        <ele>52.8</ele>
        <time>2022-04-13T14:16:57Z</time>
      </trkpt>
      <trkpt lat="49.87502" lon="2.40084">
        <ele>52.8</ele>
        <time>2022-04-13T14:16:58Z</time>
      </trkpt>
      <trkpt lat="49.87502" lon="2.40082">
        <ele>52.8</ele>
        <time>2022-04-13T14:16:59Z</time>
      </trkpt>
      <trkpt lat="49.87503" lon="2.4008">
        <ele>52.8</ele>
        <time>2022-04-13T14:17:00Z</time>
      </trkpt>
      <trkpt lat="49.87503" lon="2.40078">
        <ele>52.9</ele>
        <time>2022-04-13T14:17:01Z</time>
      </trkpt>
      <trkpt lat="49.87503" lon="2.40075">
        <ele>52.9</ele>
        <time>2022-04-13T14:17:02Z</time>
      </trkpt>
      <trkpt lat="49.87503" lon="2.40074">
        <ele>52.9</ele>
        <time>2022-04-13T14:17:03Z</time>
      </trkpt>
      <trkpt lat="49.87503" lon="2.40072">
        <ele>52.9</ele>
        <time>2022-04-13T14:17:04Z</time>
      </trkpt>
      <trkpt lat="49.87503" lon="2.40069">
        <ele>53</ele>
        <time>2022-04-13T14:17:05Z</time>
      </trkpt>
      <trkpt lat="49.87503" lon="2.40068">
        <ele>53</ele>
        <time>2022-04-13T14:17:07Z</time>
      </trkpt>
      <trkpt lat="49.87503" lon="2.40067">
        <ele>53</ele>
        <time>2022-04-13T14:17:08Z</time>
      </trkpt>
      <trkpt lat="49.87503" lon="2.40063">
        <ele>53.1</ele>
        <time>2022-04-13T14:17:09Z</time>
      </trkpt>
      <trkpt lat="49.87503" lon="2.40062">
        <ele>53.1</ele>
        <time>2022-04-13T14:17:10Z</time>
      </trkpt>
      <trkpt lat="49.87503" lon="2.4006">
        <ele>53.1</ele>
        <time>2022-04-13T14:17:11Z</time>
      </trkpt>
      <trkpt lat="49.87503" lon="2.40057">
        <ele>53.1</ele>
        <time>2022-04-13T14:17:12Z</time>
      </trkpt>
      <trkpt lat="49.87503" lon="2.40056">
        <ele>53.2</ele>
        <time>2022-04-13T14:17:13Z</time>
      </trkpt>
      <trkpt lat="49.87503" lon="2.40055">
        <ele>53.2</ele>
        <time>2022-04-13T14:17:14Z</time>
      </trkpt>
      <trkpt lat="49.87503" lon="2.40052">
        <ele>53.2</ele>
        <time>2022-04-13T14:17:16Z</time>
      </trkpt>
      <trkpt lat="49.87503" lon="2.4005">
        <ele>53.3</ele>
        <time>2022-04-13T14:17:17Z</time>
      </trkpt>
      <trkpt lat="49.87503" lon="2.40049">
        <ele>53.3</ele>
        <time>2022-04-13T14:17:18Z</time>
      </trkpt>
      <trkpt lat="49.87503" lon="2.40045">
        <ele>53.3</ele>
        <time>2022-04-13T14:17:19Z</time>
      </trkpt>
      <trkpt lat="49.87503" lon="2.40044">
        <ele>53.3</ele>
        <time>2022-04-13T14:17:20Z</time>
      </trkpt>
      <trkpt lat="49.87503" lon="2.40043">
        <ele>53.4</ele>
        <time>2022-04-13T14:17:21Z</time>
      </trkpt>
      <trkpt lat="49.87504" lon="2.40041">
        <ele>53.4</ele>
        <time>2022-04-13T14:17:22Z</time>
      </trkpt>
      <trkpt lat="49.87504" lon="2.40038">
        <ele>53.4</ele>
        <time>2022-04-13T14:17:23Z</time>
      </trkpt>
      <trkpt lat="49.87504" lon="2.40035">
        <ele>53.5</ele>
        <time>2022-04-13T14:17:24Z</time>
      </trkpt>
      <trkpt lat="49.87504" lon="2.40034">
        <ele>53.5</ele>
        <time>2022-04-13T14:17:26Z</time>
      </trkpt>
      <trkpt lat="49.87505" lon="2.40032">
        <ele>53.5</ele>
        <time>2022-04-13T14:17:27Z</time>
      </trkpt>
      <trkpt lat="49.87505" lon="2.40029">
        <ele>53.6</ele>
        <time>2022-04-13T14:17:28Z</time>
      </trkpt>
      <trkpt lat="49.87505" lon="2.40028">
        <ele>53.6</ele>
        <time>2022-04-13T14:17:29Z</time>
      </trkpt>
      <trkpt lat="49.87506" lon="2.40027">
        <ele>53.6</ele>
        <time>2022-04-13T14:17:30Z</time>
      </trkpt>
      <trkpt lat="49.87506" lon="2.40023">
        <ele>53.7</ele>
        <time>2022-04-13T14:17:31Z</time>
      </trkpt>
      <trkpt lat="49.87506" lon="2.40022">
        <ele>53.7</ele>
        <time>2022-04-13T14:17:32Z</time>
      </trkpt>
      <trkpt lat="49.87506" lon="2.40021">
        <ele>53.7</ele>
        <time>2022-04-13T14:17:33Z</time>
      </trkpt>
      <trkpt lat="49.87506" lon="2.40019">
        <ele>53.7</ele>
        <time>2022-04-13T14:17:35Z</time>
      </trkpt>
      <trkpt lat="49.87506" lon="2.40016">
        <ele>53.8</ele>
        <time>2022-04-13T14:17:36Z</time>
      </trkpt>
      <trkpt lat="49.87506" lon="2.40014">
        <ele>53.8</ele>
        <time>2022-04-13T14:17:37Z</time>
      </trkpt>
      <trkpt lat="49.87506" lon="2.40012">
        <ele>53.8</ele>
        <time>2022-04-13T14:17:38Z</time>
      </trkpt>
      <trkpt lat="49.87505" lon="2.40009">
        <ele>53.9</ele>
        <time>2022-04-13T14:17:39Z</time>
      </trkpt>
      <trkpt lat="49.87505" lon="2.40008">
        <ele>53.9</ele>
        <time>2022-04-13T14:17:40Z</time>
      </trkpt>
      <trkpt lat="49.87505" lon="2.40006">
        <ele>53.9</ele>
        <time>2022-04-13T14:17:41Z</time>
      </trkpt>
      <trkpt lat="49.87505" lon="2.40004">
        <ele>54</ele>
        <time>2022-04-13T14:17:42Z</time>
      </trkpt>
      <trkpt lat="49.87505" lon="2.40002">
        <ele>54</ele>
        <time>2022-04-13T14:17:44Z</time>
      </trkpt>
      <trkpt lat="49.87505" lon="2.4">
        <ele>54</ele>
        <time>2022-04-13T14:17:45Z</time>
      </trkpt>
      <trkpt lat="49.87505" lon="2.39998">
        <ele>54</ele>
        <time>2022-04-13T14:17:46Z</time>
      </trkpt>
      <trkpt lat="49.87505" lon="2.39996">
        <ele>54.1</ele>
        <time>2022-04-13T14:17:47Z</time>
      </trkpt>
      <trkpt lat="49.87505" lon="2.39995">
        <ele>54.1</ele>
        <time>2022-04-13T14:17:48Z</time>
      </trkpt>
      <trkpt lat="49.87505" lon="2.39993">
        <ele>54.1</ele>
        <time>2022-04-13T14:17:49Z</time>
      </trkpt>
      <trkpt lat="49.87505" lon="2.39991">
        <ele>54.1</ele>
        <time>2022-04-13T14:17:50Z</time>
      </trkpt>
      <trkpt lat="49.87505" lon="2.39988">
        <ele>54.2</ele>
        <time>2022-04-13T14:17:51Z</time>
      </trkpt>
      <trkpt lat="49.87505" lon="2.39987">
        <ele>54.2</ele>
        <time>2022-04-13T14:17:52Z</time>
      </trkpt>
      <trkpt lat="49.87505" lon="2.39986">
        <ele>54.2</ele>
        <time>2022-04-13T14:17:53Z</time>
      </trkpt>
      <trkpt lat="49.87505" lon="2.39983">
        <ele>55</ele>
        <time>2022-04-13T14:17:54Z</time>
      </trkpt>
      <trkpt lat="49.87505" lon="2.39981">
        <ele>55</ele>
        <time>2022-04-13T14:17:55Z</time>
      </trkpt>
      <trkpt lat="49.87505" lon="2.3998">
        <ele>55</ele>
        <time>2022-04-13T14:17:56Z</time>
      </trkpt>
      <trkpt lat="49.87505" lon="2.39978">
        <ele>55</ele>
        <time>2022-04-13T14:17:57Z</time>
      </trkpt>
      <trkpt lat="49.87505" lon="2.39976">
        <ele>55.1</ele>
        <time>2022-04-13T14:17:59Z</time>
      </trkpt>
      <trkpt lat="49.87505" lon="2.39974">
        <ele>55.1</ele>
        <time>2022-04-13T14:18:00Z</time>
      </trkpt>
      <trkpt lat="49.87506" lon="2.39973">
        <ele>55.1</ele>
        <time>2022-04-13T14:18:01Z</time>
      </trkpt>
      <trkpt lat="49.87506" lon="2.39971">
        <ele>55.2</ele>
        <time>2022-04-13T14:18:02Z</time>
      </trkpt>
      <trkpt lat="49.87506" lon="2.39969">
        <ele>55.2</ele>
        <time>2022-04-13T14:18:03Z</time>
      </trkpt>
      <trkpt lat="49.87508" lon="2.39966">
        <ele>55.2</ele>
        <time>2022-04-13T14:18:04Z</time>
      </trkpt>
      <trkpt lat="49.87508" lon="2.39965">
        <ele>55.3</ele>
        <time>2022-04-13T14:18:05Z</time>
      </trkpt>
      <trkpt lat="49.87508" lon="2.39964">
        <ele>55.3</ele>
        <time>2022-04-13T14:18:06Z</time>
      </trkpt>
      <trkpt lat="49.8751" lon="2.39961">
        <ele>55.3</ele>
        <time>2022-04-13T14:18:07Z</time>
      </trkpt>
      <trkpt lat="49.87511" lon="2.3996">
        <ele>55.4</ele>
        <time>2022-04-13T14:18:08Z</time>
      </trkpt>
      <trkpt lat="49.87511" lon="2.39959">
        <ele>55.4</ele>
        <time>2022-04-13T14:18:09Z</time>
      </trkpt>
      <trkpt lat="49.87512" lon="2.39957">
        <ele>55.4</ele>
        <time>2022-04-13T14:18:10Z</time>
      </trkpt>
      <trkpt lat="49.87513" lon="2.39956">
        <ele>55.4</ele>
        <time>2022-04-13T14:18:11Z</time>
      </trkpt>
      <trkpt lat="49.87514" lon="2.39953">
        <ele>55.5</ele>
        <time>2022-04-13T14:18:12Z</time>
      </trkpt>
      <trkpt lat="49.87515" lon="2.39951">
        <ele>55.5</ele>
        <time>2022-04-13T14:18:14Z</time>
      </trkpt>
      <trkpt lat="49.87516" lon="2.3995">
        <ele>55.6</ele>
        <time>2022-04-13T14:18:15Z</time>
      </trkpt>
      <trkpt lat="49.87516" lon="2.39949">
        <ele>55.6</ele>
        <time>2022-04-13T14:18:16Z</time>
      </trkpt>
      <trkpt lat="49.87517" lon="2.39948">
        <ele>55.6</ele>
        <time>2022-04-13T14:18:17Z</time>
      </trkpt>
      <trkpt lat="49.87518" lon="2.39944">
        <ele>55.7</ele>
        <time>2022-04-13T14:18:18Z</time>
      </trkpt>
      <trkpt lat="49.87518" lon="2.39943">
        <ele>55.7</ele>
        <time>2022-04-13T14:18:20Z</time>
      </trkpt>
      <trkpt lat="49.87519" lon="2.39941">
        <ele>55.7</ele>
        <time>2022-04-13T14:18:21Z</time>
      </trkpt>
      <trkpt lat="49.87519" lon="2.3994">
        <ele>55.7</ele>
        <time>2022-04-13T14:18:22Z</time>
      </trkpt>
      <trkpt lat="49.8752" lon="2.39938">
        <ele>55.8</ele>
        <time>2022-04-13T14:18:23Z</time>
      </trkpt>
      <trkpt lat="49.8752" lon="2.39935">
        <ele>55.8</ele>
        <time>2022-04-13T14:18:24Z</time>
      </trkpt>
      <trkpt lat="49.8752" lon="2.39934">
        <ele>55.8</ele>
        <time>2022-04-13T14:18:25Z</time>
      </trkpt>
      <trkpt lat="49.8752" lon="2.39932">
        <ele>55.9</ele>
        <time>2022-04-13T14:18:26Z</time>
      </trkpt>
      <trkpt lat="49.8752" lon="2.3993">
        <ele>55.9</ele>
        <time>2022-04-13T14:18:27Z</time>
      </trkpt>
      <trkpt lat="49.8752" lon="2.39929">
        <ele>55.9</ele>
        <time>2022-04-13T14:18:28Z</time>
      </trkpt>
      <trkpt lat="49.87521" lon="2.39927">
        <ele>55.9</ele>
        <time>2022-04-13T14:18:30Z</time>
      </trkpt>
      <trkpt lat="49.87521" lon="2.39926">
        <ele>56</ele>
        <time>2022-04-13T14:18:31Z</time>
      </trkpt>
      <trkpt lat="49.87521" lon="2.39924">
        <ele>56</ele>
        <time>2022-04-13T14:18:32Z</time>
      </trkpt>
      <trkpt lat="49.87521" lon="2.39922">
        <ele>56</ele>
        <time>2022-04-13T14:18:33Z</time>
      </trkpt>
      <trkpt lat="49.87521" lon="2.3992">
        <ele>56.1</ele>
        <time>2022-04-13T14:18:34Z</time>
      </trkpt>
      <trkpt lat="49.87521" lon="2.39918">
        <ele>56.1</ele>
        <time>2022-04-13T14:18:35Z</time>
      </trkpt>
      <trkpt lat="49.87521" lon="2.39917">
        <ele>56.1</ele>
        <time>2022-04-13T14:18:36Z</time>
      </trkpt>
      <trkpt lat="49.87521" lon="2.39915">
        <ele>56.1</ele>
        <time>2022-04-13T14:18:38Z</time>
      </trkpt>
      <trkpt lat="49.87521" lon="2.39913">
        <ele>56.2</ele>
        <time>2022-04-13T14:18:39Z</time>
      </trkpt>
      <trkpt lat="49.87521" lon="2.39912">
        <ele>56.2</ele>
        <time>2022-04-13T14:18:40Z</time>
      </trkpt>
      <trkpt lat="49.87521" lon="2.3991">
        <ele>56.2</ele>
        <time>2022-04-13T14:18:41Z</time>
      </trkpt>
      <trkpt lat="49.87521" lon="2.39909">
        <ele>56.2</ele>
        <time>2022-04-13T14:18:42Z</time>
      </trkpt>
      <trkpt lat="49.87522" lon="2.39907">
        <ele>56.3</ele>
        <time>2022-04-13T14:18:44Z</time>
      </trkpt>
      <trkpt lat="49.87522" lon="2.39906">
        <ele>56.3</ele>
        <time>2022-04-13T14:18:45Z</time>
      </trkpt>
      <trkpt lat="49.87522" lon="2.39904">
        <ele>56.4</ele>
        <time>2022-04-13T14:18:46Z</time>
      </trkpt>
      <trkpt lat="49.87522" lon="2.39903">
        <ele>56.4</ele>
        <time>2022-04-13T14:18:47Z</time>
      </trkpt>
      <trkpt lat="49.87523" lon="2.39901">
        <ele>56.4</ele>
        <time>2022-04-13T14:18:48Z</time>
      </trkpt>
      <trkpt lat="49.87522" lon="2.399">
        <ele>56.4</ele>
        <time>2022-04-13T14:18:50Z</time>
      </trkpt>
      <trkpt lat="49.87522" lon="2.39898">
        <ele>56.4</ele>
        <time>2022-04-13T14:18:51Z</time>
      </trkpt>
      <trkpt lat="49.87522" lon="2.39897">
        <ele>56.4</ele>
        <time>2022-04-13T14:18:52Z</time>
      </trkpt>
      <trkpt lat="49.87521" lon="2.39896">
        <ele>56.4</ele>
        <time>2022-04-13T14:18:54Z</time>
      </trkpt>
      <trkpt lat="49.8752" lon="2.39896">
        <ele>56.4</ele>
        <time>2022-04-13T14:18:55Z</time>
      </trkpt>
      <trkpt lat="49.87519" lon="2.39895">
        <ele>56.4</ele>
        <time>2022-04-13T14:18:56Z</time>
      </trkpt>
      <trkpt lat="49.87518" lon="2.39895">
        <ele>56.4</ele>
        <time>2022-04-13T14:18:58Z</time>
      </trkpt>
      <trkpt lat="49.87517" lon="2.39895">
        <ele>56.4</ele>
        <time>2022-04-13T14:18:59Z</time>
      </trkpt>
      <trkpt lat="49.87516" lon="2.39895">
        <ele>56.4</ele>
        <time>2022-04-13T14:19:00Z</time>
      </trkpt>
      <trkpt lat="49.87515" lon="2.39895">
        <ele>56.4</ele>
        <time>2022-04-13T14:19:01Z</time>
      </trkpt>
      <trkpt lat="49.87514" lon="2.39895">
        <ele>56.4</ele>
        <time>2022-04-13T14:19:02Z</time>
      </trkpt>
      <trkpt lat="49.87513" lon="2.39895">
        <ele>56.4</ele>
        <time>2022-04-13T14:19:03Z</time>
      </trkpt>
      <trkpt lat="49.87511" lon="2.39895">
        <ele>56.4</ele>
        <time>2022-04-13T14:19:04Z</time>
      </trkpt>
      <trkpt lat="49.8751" lon="2.39894">
        <ele>56.4</ele>
        <time>2022-04-13T14:19:06Z</time>
      </trkpt>
      <trkpt lat="49.87509" lon="2.39894">
        <ele>56.4</ele>
        <time>2022-04-13T14:19:07Z</time>
      </trkpt>
      <trkpt lat="49.87509" lon="2.39893">
        <ele>56.4</ele>
        <time>2022-04-13T14:19:08Z</time>
      </trkpt>
      <trkpt lat="49.87508" lon="2.39893">
        <ele>56.4</ele>
        <time>2022-04-13T14:19:09Z</time>
      </trkpt>
      <trkpt lat="49.87507" lon="2.39891">
        <ele>56.4</ele>
        <time>2022-04-13T14:19:10Z</time>
      </trkpt>
      <trkpt lat="49.87507" lon="2.3989">
        <ele>56.4</ele>
        <time>2022-04-13T14:19:12Z</time>
      </trkpt>
      <trkpt lat="49.87508" lon="2.39888">
        <ele>56.4</ele>
        <time>2022-04-13T14:19:13Z</time>
      </trkpt>
      <trkpt lat="49.87508" lon="2.39887">
        <ele>56.4</ele>
        <time>2022-04-13T14:19:14Z</time>
      </trkpt>
      <trkpt lat="49.87509" lon="2.39886">
        <ele>56.4</ele>
        <time>2022-04-13T14:19:15Z</time>
      </trkpt>
      <trkpt lat="49.87509" lon="2.39883">
        <ele>56.5</ele>
        <time>2022-04-13T14:19:16Z</time>
      </trkpt>
      <trkpt lat="49.8751" lon="2.39882">
        <ele>56.5</ele>
        <time>2022-04-13T14:19:17Z</time>
      </trkpt>
      <trkpt lat="49.8751" lon="2.39881">
        <ele>56.5</ele>
        <time>2022-04-13T14:19:18Z</time>
      </trkpt>
      <trkpt lat="49.87511" lon="2.39878">
        <ele>56.5</ele>
        <time>2022-04-13T14:19:19Z</time>
      </trkpt>
      <trkpt lat="49.87511" lon="2.39876">
        <ele>56.5</ele>
        <time>2022-04-13T14:19:20Z</time>
      </trkpt>
      <trkpt lat="49.87512" lon="2.39875">
        <ele>56.5</ele>
        <time>2022-04-13T14:19:21Z</time>
      </trkpt>
      <trkpt lat="49.87512" lon="2.39874">
        <ele>56.5</ele>
        <time>2022-04-13T14:19:23Z</time>
      </trkpt>
      <trkpt lat="49.87512" lon="2.39872">
        <ele>56.5</ele>
        <time>2022-04-13T14:19:24Z</time>
      </trkpt>
      <trkpt lat="49.87513" lon="2.39871">
        <ele>56.5</ele>
        <time>2022-04-13T14:19:25Z</time>
      </trkpt>
      <trkpt lat="49.87514" lon="2.39868">
        <ele>56.6</ele>
        <time>2022-04-13T14:19:26Z</time>
      </trkpt>
      <trkpt lat="49.87514" lon="2.39867">
        <ele>56.6</ele>
        <time>2022-04-13T14:19:27Z</time>
      </trkpt>
      <trkpt lat="49.87514" lon="2.39865">
        <ele>56.6</ele>
        <time>2022-04-13T14:19:28Z</time>
      </trkpt>
      <trkpt lat="49.87515" lon="2.39864">
        <ele>56.6</ele>
        <time>2022-04-13T14:19:29Z</time>
      </trkpt>
      <trkpt lat="49.87515" lon="2.39862">
        <ele>56.6</ele>
        <time>2022-04-13T14:19:31Z</time>
      </trkpt>
      <trkpt lat="49.87516" lon="2.3986">
        <ele>56.6</ele>
        <time>2022-04-13T14:19:32Z</time>
      </trkpt>
      <trkpt lat="49.87516" lon="2.39857">
        <ele>56.6</ele>
        <time>2022-04-13T14:19:33Z</time>
      </trkpt>
      <trkpt lat="49.87516" lon="2.39856">
        <ele>56.6</ele>
        <time>2022-04-13T14:19:34Z</time>
      </trkpt>
      <trkpt lat="49.87516" lon="2.39854">
        <ele>56.6</ele>
        <time>2022-04-13T14:19:35Z</time>
      </trkpt>
      <trkpt lat="49.87517" lon="2.39852">
        <ele>56.7</ele>
        <time>2022-04-13T14:19:36Z</time>
      </trkpt>
      <trkpt lat="49.87517" lon="2.3985">
        <ele>56.7</ele>
        <time>2022-04-13T14:19:37Z</time>
      </trkpt>
      <trkpt lat="49.87517" lon="2.39849">
        <ele>56.7</ele>
        <time>2022-04-13T14:19:39Z</time>
      </trkpt>
      <trkpt lat="49.87516" lon="2.39846">
        <ele>56.7</ele>
        <time>2022-04-13T14:19:40Z</time>
      </trkpt>
      <trkpt lat="49.87516" lon="2.39845">
        <ele>56.7</ele>
        <time>2022-04-13T14:19:41Z</time>
      </trkpt>
      <trkpt lat="49.87515" lon="2.39844">
        <ele>56.7</ele>
        <time>2022-04-13T14:19:42Z</time>
      </trkpt>
      <trkpt lat="49.87514" lon="2.39842">
        <ele>56.7</ele>
        <time>2022-04-13T14:19:43Z</time>
      </trkpt>
      <trkpt lat="49.87513" lon="2.39841">
        <ele>56.7</ele>
        <time>2022-04-13T14:19:44Z</time>
      </trkpt>
      <trkpt lat="49.87511" lon="2.3984">
        <ele>56.8</ele>
        <time>2022-04-13T14:19:45Z</time>
      </trkpt>
      <trkpt lat="49.8751" lon="2.39839">
        <ele>56.8</ele>
        <time>2022-04-13T14:19:47Z</time>
      </trkpt>
      <trkpt lat="49.87509" lon="2.39839">
        <ele>56.8</ele>
        <time>2022-04-13T14:19:48Z</time>
      </trkpt>
      <trkpt lat="49.87508" lon="2.39838">
        <ele>56.8</ele>
        <time>2022-04-13T14:19:49Z</time>
      </trkpt>
      <trkpt lat="49.87507" lon="2.39838">
        <ele>56.8</ele>
        <time>2022-04-13T14:19:50Z</time>
      </trkpt>
      <trkpt lat="49.87505" lon="2.39837">
        <ele>56.8</ele>
        <time>2022-04-13T14:19:51Z</time>
      </trkpt>
      <trkpt lat="49.87504" lon="2.39836">
        <ele>56.8</ele>
        <time>2022-04-13T14:19:52Z</time>
      </trkpt>
      <trkpt lat="49.87503" lon="2.39835">
        <ele>56.8</ele>
        <time>2022-04-13T14:19:54Z</time>
      </trkpt>
      <trkpt lat="49.87503" lon="2.39834">
        <ele>56.9</ele>
        <time>2022-04-13T14:19:55Z</time>
      </trkpt>
      <trkpt lat="49.87502" lon="2.39832">
        <ele>56.9</ele>
        <time>2022-04-13T14:19:56Z</time>
      </trkpt>
      <trkpt lat="49.87503" lon="2.3983">
        <ele>56.9</ele>
        <time>2022-04-13T14:19:57Z</time>
      </trkpt>
      <trkpt lat="49.87503" lon="2.39828">
        <ele>56.9</ele>
        <time>2022-04-13T14:19:59Z</time>
      </trkpt>
      <trkpt lat="49.87504" lon="2.39826">
        <ele>56.9</ele>
        <time>2022-04-13T14:20:00Z</time>
      </trkpt>
      <trkpt lat="49.87506" lon="2.39825">
        <ele>56.9</ele>
        <time>2022-04-13T14:20:01Z</time>
      </trkpt>
      <trkpt lat="49.87507" lon="2.39824">
        <ele>56.9</ele>
        <time>2022-04-13T14:20:02Z</time>
      </trkpt>
      <trkpt lat="49.87507" lon="2.39821">
        <ele>57</ele>
        <time>2022-04-13T14:20:04Z</time>
      </trkpt>
      <trkpt lat="49.87506" lon="2.3982">
        <ele>57</ele>
        <time>2022-04-13T14:20:05Z</time>
      </trkpt>
      <trkpt lat="49.87506" lon="2.39819">
        <ele>57</ele>
        <time>2022-04-13T14:20:06Z</time>
      </trkpt>
      <trkpt lat="49.87506" lon="2.39817">
        <ele>57</ele>
        <time>2022-04-13T14:20:07Z</time>
      </trkpt>
      <trkpt lat="49.87505" lon="2.39815">
        <ele>57</ele>
        <time>2022-04-13T14:20:08Z</time>
      </trkpt>
      <trkpt lat="49.87505" lon="2.39814">
        <ele>57</ele>
        <time>2022-04-13T14:20:09Z</time>
      </trkpt>
      <trkpt lat="49.87504" lon="2.39813">
        <ele>57</ele>
        <time>2022-04-13T14:20:11Z</time>
      </trkpt>
      <trkpt lat="49.87504" lon="2.39811">
        <ele>57</ele>
        <time>2022-04-13T14:20:12Z</time>
      </trkpt>
      <trkpt lat="49.87503" lon="2.3981">
        <ele>57</ele>
        <time>2022-04-13T14:20:13Z</time>
      </trkpt>
      <trkpt lat="49.87502" lon="2.39809">
        <ele>57</ele>
        <time>2022-04-13T14:20:14Z</time>
      </trkpt>
      <trkpt lat="49.87501" lon="2.39809">
        <ele>57.1</ele>
        <time>2022-04-13T14:20:16Z</time>
      </trkpt>
      <trkpt lat="49.875" lon="2.39809">
        <ele>57.1</ele>
        <time>2022-04-13T14:20:17Z</time>
      </trkpt>
      <trkpt lat="49.87498" lon="2.39808">
        <ele>57.1</ele>
        <time>2022-04-13T14:20:18Z</time>
      </trkpt>
      <trkpt lat="49.87497" lon="2.39808">
        <ele>57.1</ele>
        <time>2022-04-13T14:20:20Z</time>
      </trkpt>
      <trkpt lat="49.87496" lon="2.39808">
        <ele>57.1</ele>
        <time>2022-04-13T14:20:21Z</time>
      </trkpt>
      <trkpt lat="49.87495" lon="2.39807">
        <ele>57.1</ele>
        <time>2022-04-13T14:20:22Z</time>
      </trkpt>
      <trkpt lat="49.87494" lon="2.39807">
        <ele>57.1</ele>
        <time>2022-04-13T14:20:23Z</time>
      </trkpt>
      <trkpt lat="49.87493" lon="2.39808">
        <ele>57.1</ele>
        <time>2022-04-13T14:20:25Z</time>
      </trkpt>
      <trkpt lat="49.87492" lon="2.39808">
        <ele>57.1</ele>
        <time>2022-04-13T14:20:26Z</time>
      </trkpt>
      <trkpt lat="49.87491" lon="2.39807">
        <ele>57.1</ele>
        <time>2022-04-13T14:20:27Z</time>
      </trkpt>
      <trkpt lat="49.87491" lon="2.39807">
        <ele>57.1</ele>
        <time>2022-04-13T14:20:28Z</time>
      </trkpt>
      <trkpt lat="49.8749" lon="2.39806">
        <ele>57.1</ele>
        <time>2022-04-13T14:20:29Z</time>
      </trkpt>
      <trkpt lat="49.87489" lon="2.39806">
        <ele>57.1</ele>
        <time>2022-04-13T14:20:30Z</time>
      </trkpt>
      <trkpt lat="49.87488" lon="2.39805">
        <ele>57.1</ele>
        <time>2022-04-13T14:20:31Z</time>
      </trkpt>
      <trkpt lat="49.87487" lon="2.39804">
        <ele>57.1</ele>
        <time>2022-04-13T14:20:32Z</time>
      </trkpt>
      <trkpt lat="49.87486" lon="2.39803">
        <ele>57.1</ele>
        <time>2022-04-13T14:20:33Z</time>
      </trkpt>
      <trkpt lat="49.87485" lon="2.39802">
        <ele>57.1</ele>
        <time>2022-04-13T14:20:35Z</time>
      </trkpt>
      <trkpt lat="49.87485" lon="2.39801">
        <ele>57.1</ele>
        <time>2022-04-13T14:20:36Z</time>
      </trkpt>
      <trkpt lat="49.87485" lon="2.39802">
        <ele>57.1</ele>
        <time>2022-04-13T14:20:37Z</time>
      </trkpt>
      <trkpt lat="49.87484" lon="2.39801">
        <ele>57.1</ele>
        <time>2022-04-13T14:20:38Z</time>
      </trkpt>
      <trkpt lat="49.87483" lon="2.39802">
        <ele>57.1</ele>
        <time>2022-04-13T14:20:40Z</time>
      </trkpt>
      <trkpt lat="49.87483" lon="2.39802">
        <ele>57.1</ele>
        <time>2022-04-13T14:20:41Z</time>
      </trkpt>
      <trkpt lat="49.87482" lon="2.39802">
        <ele>57.1</ele>
        <time>2022-04-13T14:20:42Z</time>
      </trkpt>
      <trkpt lat="49.87481" lon="2.39802">
        <ele>57.1</ele>
        <time>2022-04-13T14:20:43Z</time>
      </trkpt>
      <trkpt lat="49.87481" lon="2.39802">
        <ele>57.1</ele>
        <time>2022-04-13T14:20:44Z</time>
      </trkpt>
      <trkpt lat="49.87481" lon="2.39801">
        <ele>57.1</ele>
        <time>2022-04-13T14:20:45Z</time>
      </trkpt>
      <trkpt lat="49.8748" lon="2.39801">
        <ele>57.1</ele>
        <time>2022-04-13T14:20:47Z</time>
      </trkpt>
      <trkpt lat="49.87479" lon="2.39801">
        <ele>57.1</ele>
        <time>2022-04-13T14:20:48Z</time>
      </trkpt>
      <trkpt lat="49.87478" lon="2.39801">
        <ele>57.2</ele>
        <time>2022-04-13T14:20:49Z</time>
      </trkpt>
      <trkpt lat="49.87477" lon="2.39801">
        <ele>57.2</ele>
        <time>2022-04-13T14:20:51Z</time>
      </trkpt>
      <trkpt lat="49.87476" lon="2.39801">
        <ele>57.2</ele>
        <time>2022-04-13T14:20:52Z</time>
      </trkpt>
      <trkpt lat="49.87476" lon="2.39802">
        <ele>57.2</ele>
        <time>2022-04-13T14:20:53Z</time>
      </trkpt>
      <trkpt lat="49.87476" lon="2.39803">
        <ele>57.2</ele>
        <time>2022-04-13T14:20:54Z</time>
      </trkpt>
      <trkpt lat="49.87476" lon="2.39803">
        <ele>57.2</ele>
        <time>2022-04-13T14:20:55Z</time>
      </trkpt>
      <trkpt lat="49.87477" lon="2.39803">
        <ele>57.2</ele>
        <time>2022-04-13T14:20:56Z</time>
      </trkpt>
      <trkpt lat="49.87477" lon="2.39803">
        <ele>57.2</ele>
        <time>2022-04-13T14:20:57Z</time>
      </trkpt>
      <trkpt lat="49.87477" lon="2.39803">
        <ele>57.2</ele>
        <time>2022-04-13T14:20:58Z</time>
      </trkpt>
      <trkpt lat="49.87477" lon="2.39803">
        <ele>57.2</ele>
        <time>2022-04-13T14:20:59Z</time>
      </trkpt>
      <trkpt lat="49.87477" lon="2.39802">
        <ele>57.2</ele>
        <time>2022-04-13T14:21:00Z</time>
      </trkpt>
      <trkpt lat="49.87477" lon="2.39802">
        <ele>57.2</ele>
        <time>2022-04-13T14:21:01Z</time>
      </trkpt>
      <trkpt lat="49.87477" lon="2.39802">
        <ele>57.2</ele>
        <time>2022-04-13T14:21:02Z</time>
      </trkpt>
      <trkpt lat="49.87478" lon="2.39802">
        <ele>57.2</ele>
        <time>2022-04-13T14:21:03Z</time>
      </trkpt>
      <trkpt lat="49.87478" lon="2.39802">
        <ele>57.2</ele>
        <time>2022-04-13T14:21:04Z</time>
      </trkpt>
      <trkpt lat="49.87478" lon="2.39802">
        <ele>57.2</ele>
        <time>2022-04-13T14:21:05Z</time>
      </trkpt>
      <trkpt lat="49.87478" lon="2.39802">
        <ele>57.2</ele>
        <time>2022-04-13T14:21:06Z</time>
      </trkpt>
      <trkpt lat="49.87478" lon="2.39802">
        <ele>57.2</ele>
        <time>2022-04-13T14:21:07Z</time>
      </trkpt>
      <trkpt lat="49.87478" lon="2.39802">
        <ele>57.2</ele>
        <time>2022-04-13T14:21:08Z</time>
      </trkpt>
      <trkpt lat="49.87478" lon="2.39801">
        <ele>57.2</ele>
        <time>2022-04-13T14:21:09Z</time>
      </trkpt>
      <trkpt lat="49.87478" lon="2.39801">
        <ele>57.2</ele>
        <time>2022-04-13T14:21:10Z</time>
      </trkpt>
      <trkpt lat="49.87478" lon="2.39801">
        <ele>57.2</ele>
        <time>2022-04-13T14:21:11Z</time>
      </trkpt>
      <trkpt lat="49.87478" lon="2.39801">
        <ele>57.2</ele>
        <time>2022-04-13T14:21:12Z</time>
      </trkpt>
      <trkpt lat="49.87478" lon="2.39801">
        <ele>57.2</ele>
        <time>2022-04-13T14:21:13Z</time>
      </trkpt>
      <trkpt lat="49.87478" lon="2.39801">
        <ele>57.2</ele>
        <time>2022-04-13T14:21:14Z</time>
      </trkpt>
      <trkpt lat="49.87478" lon="2.39801">
        <ele>57.2</ele>
        <time>2022-04-13T14:21:15Z</time>
      </trkpt>
      <trkpt lat="49.87478" lon="2.39801">
        <ele>57.2</ele>
        <time>2022-04-13T14:21:16Z</time>
      </trkpt>
      <trkpt lat="49.87478" lon="2.39801">
        <ele>57.2</ele>
        <time>2022-04-13T14:21:17Z</time>
      </trkpt>
      <trkpt lat="49.87478" lon="2.39801">
        <ele>57.2</ele>
        <time>2022-04-13T14:21:18Z</time>
      </trkpt>
      <trkpt lat="49.87478" lon="2.39801">
        <ele>57.2</ele>
        <time>2022-04-13T14:21:19Z</time>
      </trkpt>
      <trkpt lat="49.87478" lon="2.39801">
        <ele>57.2</ele>
        <time>2022-04-13T14:21:20Z</time>
      </trkpt>
      <trkpt lat="49.87478" lon="2.39801">
        <ele>57.2</ele>
        <time>2022-04-13T14:21:21Z</time>
      </trkpt>
      <trkpt lat="49.87478" lon="2.39801">
        <ele>57.2</ele>
        <time>2022-04-13T14:21:22Z</time>
      </trkpt>
      <trkpt lat="49.87478" lon="2.39801">
        <ele>57.2</ele>
        <time>2022-04-13T14:21:23Z</time>
      </trkpt>
      <trkpt lat="49.87478" lon="2.39801">
        <ele>57.2</ele>
        <time>2022-04-13T14:21:24Z</time>
      </trkpt>
      <trkpt lat="49.87478" lon="2.39801">
        <ele>57.2</ele>
        <time>2022-04-13T14:21:25Z</time>
      </trkpt>
      <trkpt lat="49.87478" lon="2.39801">
        <ele>57.2</ele>
        <time>2022-04-13T14:21:26Z</time>
      </trkpt>
      <trkpt lat="49.87478" lon="2.39801">
        <ele>57.2</ele>
        <time>2022-04-13T14:21:27Z</time>
      </trkpt>
      <trkpt lat="49.87478" lon="2.39801">
        <ele>57.2</ele>
        <time>2022-04-13T14:21:28Z</time>
      </trkpt>
      <trkpt lat="49.87478" lon="2.39801">
        <ele>57.2</ele>
        <time>2022-04-13T14:21:29Z</time>
      </trkpt>
      <trkpt lat="49.87478" lon="2.39801">
        <ele>57.2</ele>
        <time>2022-04-13T14:21:30Z</time>
      </trkpt>
      <trkpt lat="49.87478" lon="2.39801">
        <ele>57.2</ele>
        <time>2022-04-13T14:21:31Z</time>
      </trkpt>
      <trkpt lat="49.87478" lon="2.39801">
        <ele>57.2</ele>
        <time>2022-04-13T14:21:32Z</time>
      </trkpt>
      <trkpt lat="49.87478" lon="2.39801">
        <ele>57.2</ele>
        <time>2022-04-13T14:21:33Z</time>
      </trkpt>
      <trkpt lat="49.87478" lon="2.39801">
        <ele>57.2</ele>
        <time>2022-04-13T14:21:34Z</time>
      </trkpt>
      <trkpt lat="49.87478" lon="2.39801">
        <ele>57.2</ele>
        <time>2022-04-13T14:21:35Z</time>
      </trkpt>
      <trkpt lat="49.87478" lon="2.39801">
        <ele>57.2</ele>
        <time>2022-04-13T14:21:36Z</time>
      </trkpt>
      <trkpt lat="49.87478" lon="2.39801">
        <ele>57.2</ele>
        <time>2022-04-13T14:21:37Z</time>
      </trkpt>
      <trkpt lat="49.87478" lon="2.39801">
        <ele>57.2</ele>
        <time>2022-04-13T14:21:38Z</time>
      </trkpt>
      <trkpt lat="49.87478" lon="2.39801">
        <ele>57.2</ele>
        <time>2022-04-13T14:21:39Z</time>
      </trkpt>
      <trkpt lat="49.87478" lon="2.39801">
        <ele>57.2</ele>
        <time>2022-04-13T14:21:40Z</time>
      </trkpt>
      <trkpt lat="49.87478" lon="2.39801">
        <ele>57.2</ele>
        <time>2022-04-13T14:21:41Z</time>
      </trkpt>
      <trkpt lat="49.87478" lon="2.39801">
        <ele>57.2</ele>
        <time>2022-04-13T14:21:42Z</time>
      </trkpt>
      <trkpt lat="49.87478" lon="2.39801">
        <ele>57.2</ele>
        <time>2022-04-13T14:21:43Z</time>
      </trkpt>
      <trkpt lat="49.87478" lon="2.39801">
        <ele>57.2</ele>
        <time>2022-04-13T14:21:44Z</time>
      </trkpt>
      <trkpt lat="49.87478" lon="2.39801">
        <ele>57.2</ele>
        <time>2022-04-13T14:21:45Z</time>
      </trkpt>
      <trkpt lat="49.87478" lon="2.39801">
        <ele>57.2</ele>
        <time>2022-04-13T14:21:46Z</time>
      </trkpt>
      <trkpt lat="49.87478" lon="2.39801">
        <ele>57.2</ele>
        <time>2022-04-13T14:21:47Z</time>
      </trkpt>
      <trkpt lat="49.87478" lon="2.39801">
        <ele>57.2</ele>
        <time>2022-04-13T14:21:48Z</time>
      </trkpt>
      <trkpt lat="49.87478" lon="2.39801">
        <ele>57.2</ele>
        <time>2022-04-13T14:21:49Z</time>
      </trkpt>
      <trkpt lat="49.87478" lon="2.39801">
        <ele>57.2</ele>
        <time>2022-04-13T14:21:50Z</time>
      </trkpt>
      <trkpt lat="49.87478" lon="2.39801">
        <ele>57.2</ele>
        <time>2022-04-13T14:21:51Z</time>
      </trkpt>
      <trkpt lat="49.87478" lon="2.39801">
        <ele>57.2</ele>
        <time>2022-04-13T14:21:52Z</time>
      </trkpt>
      <trkpt lat="49.87478" lon="2.39801">
        <ele>57.2</ele>
        <time>2022-04-13T14:21:53Z</time>
      </trkpt>
      <trkpt lat="49.87478" lon="2.39801">
        <ele>57.2</ele>
        <time>2022-04-13T14:21:54Z</time>
      </trkpt>
      <trkpt lat="49.87478" lon="2.39801">
        <ele>57.2</ele>
        <time>2022-04-13T14:21:55Z</time>
      </trkpt>
      <trkpt lat="49.87478" lon="2.39801">
        <ele>57.2</ele>
        <time>2022-04-13T14:21:56Z</time>
      </trkpt>
      <trkpt lat="49.87478" lon="2.39801">
        <ele>57.2</ele>
        <time>2022-04-13T14:21:57Z</time>
      </trkpt>
      <trkpt lat="49.87478" lon="2.39801">
        <ele>57.2</ele>
        <time>2022-04-13T14:21:58Z</time>
      </trkpt>
      <trkpt lat="49.87478" lon="2.39801">
        <ele>57.2</ele>
        <time>2022-04-13T14:21:59Z</time>
      </trkpt>
      <trkpt lat="49.87478" lon="2.39801">
        <ele>57.2</ele>
        <time>2022-04-13T14:22:00Z</time>
      </trkpt>
      <trkpt lat="49.87478" lon="2.39801">
        <ele>57.2</ele>
        <time>2022-04-13T14:22:01Z</time>
      </trkpt>
      <trkpt lat="49.87478" lon="2.39801">
        <ele>57.2</ele>
        <time>2022-04-13T14:22:02Z</time>
      </trkpt>
      <trkpt lat="49.87478" lon="2.39801">
        <ele>57.2</ele>
        <time>2022-04-13T14:22:03Z</time>
      </trkpt>
      <trkpt lat="49.87478" lon="2.39801">
        <ele>57.2</ele>
        <time>2022-04-13T14:22:04Z</time>
      </trkpt>
      <trkpt lat="49.87478" lon="2.39801">
        <ele>57.2</ele>
        <time>2022-04-13T14:22:05Z</time>
      </trkpt>
      <trkpt lat="49.87478" lon="2.39801">
        <ele>57.2</ele>
        <time>2022-04-13T14:22:06Z</time>
      </trkpt>
      <trkpt lat="49.87478" lon="2.39801">
        <ele>57.2</ele>
        <time>2022-04-13T14:22:07Z</time>
      </trkpt>
      <trkpt lat="49.87478" lon="2.39801">
        <ele>57.2</ele>
        <time>2022-04-13T14:22:08Z</time>
      </trkpt>
      <trkpt lat="49.87478" lon="2.39801">
        <ele>57.2</ele>
        <time>2022-04-13T14:22:09Z</time>
      </trkpt>
      <trkpt lat="49.87478" lon="2.39801">
        <ele>57.2</ele>
        <time>2022-04-13T14:22:10Z</time>
      </trkpt>
      <trkpt lat="49.87478" lon="2.39801">
        <ele>57.2</ele>
        <time>2022-04-13T14:22:11Z</time>
      </trkpt>
      <trkpt lat="49.87478" lon="2.39801">
        <ele>57.2</ele>
        <time>2022-04-13T14:22:12Z</time>
      </trkpt>
      <trkpt lat="49.87478" lon="2.39801">
        <ele>57.2</ele>
        <time>2022-04-13T14:22:13Z</time>
      </trkpt>
      <trkpt lat="49.87478" lon="2.39801">
        <ele>57.2</ele>
        <time>2022-04-13T14:22:14Z</time>
      </trkpt>
      <trkpt lat="49.87478" lon="2.39801">
        <ele>57.2</ele>
        <time>2022-04-13T14:22:15Z</time>
      </trkpt>
      <trkpt lat="49.87478" lon="2.39801">
        <ele>57.2</ele>
        <time>2022-04-13T14:22:16Z</time>
      </trkpt>
      <trkpt lat="49.87478" lon="2.39801">
        <ele>57.2</ele>
        <time>2022-04-13T14:22:17Z</time>
      </trkpt>
      <trkpt lat="49.87478" lon="2.39801">
        <ele>57.2</ele>
        <time>2022-04-13T14:22:18Z</time>
      </trkpt>
      <trkpt lat="49.87478" lon="2.39801">
        <ele>57.2</ele>
        <time>2022-04-13T14:22:19Z</time>
      </trkpt>
      <trkpt lat="49.87478" lon="2.39801">
        <ele>57.2</ele>
        <time>2022-04-13T14:22:20Z</time>
      </trkpt>
      <trkpt lat="49.87478" lon="2.39801">
        <ele>57.2</ele>
        <time>2022-04-13T14:22:21Z</time>
      </trkpt>
      <trkpt lat="49.87478" lon="2.39801">
        <ele>57.2</ele>
        <time>2022-04-13T14:22:22Z</time>
      </trkpt>
      <trkpt lat="49.87478" lon="2.39801">
        <ele>57.2</ele>
        <time>2022-04-13T14:22:23Z</time>
      </trkpt>
      <trkpt lat="49.87478" lon="2.39801">
        <ele>57.2</ele>
        <time>2022-04-13T14:22:24Z</time>
      </trkpt>
      <trkpt lat="49.87478" lon="2.39801">
        <ele>57.2</ele>
        <time>2022-04-13T14:22:25Z</time>
      </trkpt>
      <trkpt lat="49.87478" lon="2.39801">
        <ele>57.2</ele>
        <time>2022-04-13T14:22:26Z</time>
      </trkpt>
      <trkpt lat="49.87478" lon="2.39801">
        <ele>57.2</ele>
        <time>2022-04-13T14:22:27Z</time>
      </trkpt>
      <trkpt lat="49.87478" lon="2.39801">
        <ele>57.2</ele>
        <time>2022-04-13T14:22:28Z</time>
      </trkpt>
      <trkpt lat="49.87478" lon="2.39801">
        <ele>57.2</ele>
        <time>2022-04-13T14:22:29Z</time>
      </trkpt>
      <trkpt lat="49.87478" lon="2.39801">
        <ele>57.2</ele>
        <time>2022-04-13T14:22:30Z</time>
      </trkpt>
      <trkpt lat="49.87478" lon="2.39801">
        <ele>57.2</ele>
        <time>2022-04-13T14:22:31Z</time>
      </trkpt>
      <trkpt lat="49.87478" lon="2.39801">
        <ele>57.2</ele>
        <time>2022-04-13T14:22:32Z</time>
      </trkpt>
      <trkpt lat="49.87478" lon="2.39801">
        <ele>57.2</ele>
        <time>2022-04-13T14:22:33Z</time>
      </trkpt>
      <trkpt lat="49.87478" lon="2.39801">
        <ele>57.2</ele>
        <time>2022-04-13T14:22:34Z</time>
      </trkpt>
      <trkpt lat="49.87478" lon="2.39801">
        <ele>57.2</ele>
        <time>2022-04-13T14:22:35Z</time>
      </trkpt>
      <trkpt lat="49.87478" lon="2.39801">
        <ele>57.2</ele>
        <time>2022-04-13T14:22:36Z</time>
      </trkpt>
      <trkpt lat="49.87478" lon="2.39801">
        <ele>57.2</ele>
        <time>2022-04-13T14:22:37Z</time>
      </trkpt>
      <trkpt lat="49.87478" lon="2.39801">
        <ele>57.2</ele>
        <time>2022-04-13T14:22:38Z</time>
      </trkpt>
      <trkpt lat="49.87478" lon="2.39801">
        <ele>57.2</ele>
        <time>2022-04-13T14:22:39Z</time>
      </trkpt>
      <trkpt lat="49.87478" lon="2.39801">
        <ele>57.2</ele>
        <time>2022-04-13T14:22:40Z</time>
      </trkpt>
      <trkpt lat="49.87478" lon="2.39801">
        <ele>57.2</ele>
        <time>2022-04-13T14:22:41Z</time>
      </trkpt>
      <trkpt lat="49.87478" lon="2.39801">
        <ele>57.2</ele>
        <time>2022-04-13T14:22:42Z</time>
      </trkpt>
      <trkpt lat="49.87476" lon="2.398">
        <ele>57.2</ele>
        <time>2022-04-13T14:22:43Z</time>
      </trkpt>
      <trkpt lat="49.87474" lon="2.398">
        <ele>57.2</ele>
        <time>2022-04-13T14:22:44Z</time>
      </trkpt>
      <trkpt lat="49.87474" lon="2.398">
        <ele>57.2</ele>
        <time>2022-04-13T14:22:45Z</time>
      </trkpt>
      <trkpt lat="49.87473" lon="2.398">
        <ele>57.2</ele>
        <time>2022-04-13T14:22:46Z</time>
      </trkpt>
      <trkpt lat="49.87475" lon="2.39801">
        <ele>57.2</ele>
        <time>2022-04-13T14:22:47Z</time>
      </trkpt>
      <trkpt lat="49.87475" lon="2.398">
        <ele>57.2</ele>
        <time>2022-04-13T14:22:48Z</time>
      </trkpt>
      <trkpt lat="49.87474" lon="2.398">
        <ele>57.2</ele>
        <time>2022-04-13T14:22:50Z</time>
      </trkpt>
      <trkpt lat="49.87473" lon="2.398">
        <ele>57.2</ele>
        <time>2022-04-13T14:22:51Z</time>
      </trkpt>
      <trkpt lat="49.87473" lon="2.39801">
        <ele>57.2</ele>
        <time>2022-04-13T14:22:52Z</time>
      </trkpt>
      <trkpt lat="49.87472" lon="2.39802">
        <ele>57.2</ele>
        <time>2022-04-13T14:22:53Z</time>
      </trkpt>
      <trkpt lat="49.87473" lon="2.39802">
        <ele>57.2</ele>
        <time>2022-04-13T14:22:54Z</time>
      </trkpt>
      <trkpt lat="49.87473" lon="2.39802">
        <ele>57.3</ele>
        <time>2022-04-13T14:22:55Z</time>
      </trkpt>
      <trkpt lat="49.87473" lon="2.39802">
        <ele>57.3</ele>
        <time>2022-04-13T14:22:56Z</time>
      </trkpt>
      <trkpt lat="49.87473" lon="2.39802">
        <ele>57.3</ele>
        <time>2022-04-13T14:22:57Z</time>
      </trkpt>
      <trkpt lat="49.87473" lon="2.39802">
        <ele>57.3</ele>
        <time>2022-04-13T14:22:58Z</time>
      </trkpt>
      <trkpt lat="49.87473" lon="2.39803">
        <ele>57.3</ele>
        <time>2022-04-13T14:22:59Z</time>
      </trkpt>
      <trkpt lat="49.87473" lon="2.39803">
        <ele>57.3</ele>
        <time>2022-04-13T14:23:00Z</time>
      </trkpt>
      <trkpt lat="49.87473" lon="2.39803">
        <ele>57.3</ele>
        <time>2022-04-13T14:23:01Z</time>
      </trkpt>
      <trkpt lat="49.87473" lon="2.39803">
        <ele>57.3</ele>
        <time>2022-04-13T14:23:02Z</time>
      </trkpt>
      <trkpt lat="49.87473" lon="2.39803">
        <ele>57.3</ele>
        <time>2022-04-13T14:23:03Z</time>
      </trkpt>
      <trkpt lat="49.87473" lon="2.39803">
        <ele>57.3</ele>
        <time>2022-04-13T14:23:05Z</time>
      </trkpt>
      <trkpt lat="49.87473" lon="2.39803">
        <ele>57.3</ele>
        <time>2022-04-13T14:23:06Z</time>
      </trkpt>
      <trkpt lat="49.87473" lon="2.39803">
        <ele>57.3</ele>
        <time>2022-04-13T14:23:07Z</time>
      </trkpt>
      <trkpt lat="49.87472" lon="2.39803">
        <ele>57.3</ele>
        <time>2022-04-13T14:23:09Z</time>
      </trkpt>
      <trkpt lat="49.87472" lon="2.39804">
        <ele>57.3</ele>
        <time>2022-04-13T14:23:10Z</time>
      </trkpt>
      <trkpt lat="49.87472" lon="2.39804">
        <ele>57.3</ele>
        <time>2022-04-13T14:23:11Z</time>
      </trkpt>
      <trkpt lat="49.87472" lon="2.39804">
        <ele>57.3</ele>
        <time>2022-04-13T14:23:12Z</time>
      </trkpt>
      <trkpt lat="49.87472" lon="2.39804">
        <ele>57.3</ele>
        <time>2022-04-13T14:23:13Z</time>
      </trkpt>
      <trkpt lat="49.87472" lon="2.39805">
        <ele>57.3</ele>
        <time>2022-04-13T14:23:14Z</time>
      </trkpt>
      <trkpt lat="49.87472" lon="2.39805">
        <ele>57.3</ele>
        <time>2022-04-13T14:23:15Z</time>
      </trkpt>
      <trkpt lat="49.87473" lon="2.39805">
        <ele>57.3</ele>
        <time>2022-04-13T14:23:16Z</time>
      </trkpt>
      <trkpt lat="49.87473" lon="2.39806">
        <ele>57.3</ele>
        <time>2022-04-13T14:23:17Z</time>
      </trkpt>
      <trkpt lat="49.87473" lon="2.39806">
        <ele>57.3</ele>
        <time>2022-04-13T14:23:18Z</time>
      </trkpt>
      <trkpt lat="49.87473" lon="2.39806">
        <ele>57.3</ele>
        <time>2022-04-13T14:23:19Z</time>
      </trkpt>
      <trkpt lat="49.87473" lon="2.39806">
        <ele>57.3</ele>
        <time>2022-04-13T14:23:20Z</time>
      </trkpt>
      <trkpt lat="49.87473" lon="2.39806">
        <ele>57.3</ele>
        <time>2022-04-13T14:23:21Z</time>
      </trkpt>
      <trkpt lat="49.87473" lon="2.39806">
        <ele>57.3</ele>
        <time>2022-04-13T14:23:22Z</time>
      </trkpt>
      <trkpt lat="49.87473" lon="2.39806">
        <ele>57.3</ele>
        <time>2022-04-13T14:23:23Z</time>
      </trkpt>
      <trkpt lat="49.87473" lon="2.39806">
        <ele>57.3</ele>
        <time>2022-04-13T14:23:24Z</time>
      </trkpt>
      <trkpt lat="49.87472" lon="2.39807">
        <ele>57.3</ele>
        <time>2022-04-13T14:23:25Z</time>
      </trkpt>
      <trkpt lat="49.87472" lon="2.39807">
        <ele>57.3</ele>
        <time>2022-04-13T14:23:26Z</time>
      </trkpt>
      <trkpt lat="49.87472" lon="2.39807">
        <ele>57.3</ele>
        <time>2022-04-13T14:23:27Z</time>
      </trkpt>
      <trkpt lat="49.87472" lon="2.39807">
        <ele>57.3</ele>
        <time>2022-04-13T14:23:28Z</time>
      </trkpt>
      <trkpt lat="49.87472" lon="2.39807">
        <ele>57.3</ele>
        <time>2022-04-13T14:23:29Z</time>
      </trkpt>
      <trkpt lat="49.87472" lon="2.39807">
        <ele>57.3</ele>
        <time>2022-04-13T14:23:30Z</time>
      </trkpt>
      <trkpt lat="49.87472" lon="2.39807">
        <ele>57.3</ele>
        <time>2022-04-13T14:23:31Z</time>
      </trkpt>
      <trkpt lat="49.87472" lon="2.39807">
        <ele>57.3</ele>
        <time>2022-04-13T14:23:32Z</time>
      </trkpt>
      <trkpt lat="49.87472" lon="2.39807">
        <ele>57.3</ele>
        <time>2022-04-13T14:23:33Z</time>
      </trkpt>
      <trkpt lat="49.87472" lon="2.39807">
        <ele>57.3</ele>
        <time>2022-04-13T14:23:34Z</time>
      </trkpt>
      <trkpt lat="49.87472" lon="2.39807">
        <ele>57.3</ele>
        <time>2022-04-13T14:23:35Z</time>
      </trkpt>
      <trkpt lat="49.87472" lon="2.39807">
        <ele>57.3</ele>
        <time>2022-04-13T14:23:36Z</time>
      </trkpt>
      <trkpt lat="49.87472" lon="2.39807">
        <ele>57.3</ele>
        <time>2022-04-13T14:23:37Z</time>
      </trkpt>
      <trkpt lat="49.87472" lon="2.39807">
        <ele>57.3</ele>
        <time>2022-04-13T14:23:38Z</time>
      </trkpt>
      <trkpt lat="49.87472" lon="2.39807">
        <ele>57.3</ele>
        <time>2022-04-13T14:23:39Z</time>
      </trkpt>
      <trkpt lat="49.87472" lon="2.39807">
        <ele>57.3</ele>
        <time>2022-04-13T14:23:40Z</time>
      </trkpt>
      <trkpt lat="49.87472" lon="2.39807">
        <ele>57.3</ele>
        <time>2022-04-13T14:23:41Z</time>
      </trkpt>
      <trkpt lat="49.87472" lon="2.39807">
        <ele>57.3</ele>
        <time>2022-04-13T14:23:42Z</time>
      </trkpt>
      <trkpt lat="49.87472" lon="2.39807">
        <ele>57.3</ele>
        <time>2022-04-13T14:23:43Z</time>
      </trkpt>
      <trkpt lat="49.87472" lon="2.39807">
        <ele>57.3</ele>
        <time>2022-04-13T14:23:44Z</time>
      </trkpt>
      <trkpt lat="49.87472" lon="2.39807">
        <ele>57.3</ele>
        <time>2022-04-13T14:23:45Z</time>
      </trkpt>
      <trkpt lat="49.87472" lon="2.39807">
        <ele>57.3</ele>
        <time>2022-04-13T14:23:46Z</time>
      </trkpt>
      <trkpt lat="49.87472" lon="2.39807">
        <ele>57.3</ele>
        <time>2022-04-13T14:23:47Z</time>
      </trkpt>
      <trkpt lat="49.87472" lon="2.39807">
        <ele>57.3</ele>
        <time>2022-04-13T14:23:48Z</time>
      </trkpt>
      <trkpt lat="49.87472" lon="2.39807">
        <ele>57.3</ele>
        <time>2022-04-13T14:23:49Z</time>
      </trkpt>
      <trkpt lat="49.87472" lon="2.39807">
        <ele>57.3</ele>
        <time>2022-04-13T14:23:50Z</time>
      </trkpt>
      <trkpt lat="49.87472" lon="2.39807">
        <ele>57.3</ele>
        <time>2022-04-13T14:23:51Z</time>
      </trkpt>
      <trkpt lat="49.87472" lon="2.39807">
        <ele>57.3</ele>
        <time>2022-04-13T14:23:52Z</time>
      </trkpt>
      <trkpt lat="49.87472" lon="2.39807">
        <ele>57.3</ele>
        <time>2022-04-13T14:23:53Z</time>
      </trkpt>
      <trkpt lat="49.87472" lon="2.39807">
        <ele>57.3</ele>
        <time>2022-04-13T14:23:54Z</time>
      </trkpt>
      <trkpt lat="49.87472" lon="2.39807">
        <ele>57.3</ele>
        <time>2022-04-13T14:23:55Z</time>
      </trkpt>
      <trkpt lat="49.87472" lon="2.39807">
        <ele>57.3</ele>
        <time>2022-04-13T14:23:56Z</time>
      </trkpt>
      <trkpt lat="49.87472" lon="2.39807">
        <ele>57.3</ele>
        <time>2022-04-13T14:23:57Z</time>
      </trkpt>
      <trkpt lat="49.87472" lon="2.39807">
        <ele>57.3</ele>
        <time>2022-04-13T14:23:58Z</time>
      </trkpt>
      <trkpt lat="49.87472" lon="2.39807">
        <ele>57.3</ele>
        <time>2022-04-13T14:23:59Z</time>
      </trkpt>
      <trkpt lat="49.87472" lon="2.39807">
        <ele>57.3</ele>
        <time>2022-04-13T14:24:00Z</time>
      </trkpt>
      <trkpt lat="49.87472" lon="2.39807">
        <ele>57.3</ele>
        <time>2022-04-13T14:24:01Z</time>
      </trkpt>
      <trkpt lat="49.87472" lon="2.39807">
        <ele>57.3</ele>
        <time>2022-04-13T14:24:02Z</time>
      </trkpt>
      <trkpt lat="49.87472" lon="2.39807">
        <ele>57.3</ele>
        <time>2022-04-13T14:24:03Z</time>
      </trkpt>
      <trkpt lat="49.87472" lon="2.39807">
        <ele>57.3</ele>
        <time>2022-04-13T14:24:04Z</time>
      </trkpt>
      <trkpt lat="49.87472" lon="2.39807">
        <ele>57.3</ele>
        <time>2022-04-13T14:24:05Z</time>
      </trkpt>
      <trkpt lat="49.87472" lon="2.39807">
        <ele>57.3</ele>
        <time>2022-04-13T14:24:06Z</time>
      </trkpt>
      <trkpt lat="49.87472" lon="2.39807">
        <ele>57.3</ele>
        <time>2022-04-13T14:24:07Z</time>
      </trkpt>
      <trkpt lat="49.87472" lon="2.39807">
        <ele>57.3</ele>
        <time>2022-04-13T14:24:08Z</time>
      </trkpt>
      <trkpt lat="49.87472" lon="2.39807">
        <ele>57.3</ele>
        <time>2022-04-13T14:24:09Z</time>
      </trkpt>
      <trkpt lat="49.87472" lon="2.39807">
        <ele>57.3</ele>
        <time>2022-04-13T14:24:10Z</time>
      </trkpt>
      <trkpt lat="49.87472" lon="2.39808">
        <ele>57.3</ele>
        <time>2022-04-13T14:24:11Z</time>
      </trkpt>
      <trkpt lat="49.87472" lon="2.39808">
        <ele>57.3</ele>
        <time>2022-04-13T14:24:12Z</time>
      </trkpt>
      <trkpt lat="49.87472" lon="2.39808">
        <ele>57.3</ele>
        <time>2022-04-13T14:24:13Z</time>
      </trkpt>
      <trkpt lat="49.87472" lon="2.39808">
        <ele>57.3</ele>
        <time>2022-04-13T14:24:14Z</time>
      </trkpt>
      <trkpt lat="49.87472" lon="2.39809">
        <ele>57.3</ele>
        <time>2022-04-13T14:24:15Z</time>
      </trkpt>
      <trkpt lat="49.87472" lon="2.39809">
        <ele>57.3</ele>
        <time>2022-04-13T14:24:16Z</time>
      </trkpt>
      <trkpt lat="49.87472" lon="2.39809">
        <ele>57.3</ele>
        <time>2022-04-13T14:24:17Z</time>
      </trkpt>
      <trkpt lat="49.87472" lon="2.39808">
        <ele>57.3</ele>
        <time>2022-04-13T14:24:18Z</time>
      </trkpt>
      <trkpt lat="49.87472" lon="2.39808">
        <ele>57.3</ele>
        <time>2022-04-13T14:24:19Z</time>
      </trkpt>
      <trkpt lat="49.87472" lon="2.39808">
        <ele>57.3</ele>
        <time>2022-04-13T14:24:20Z</time>
      </trkpt>
      <trkpt lat="49.87472" lon="2.39808">
        <ele>57.3</ele>
        <time>2022-04-13T14:24:21Z</time>
      </trkpt>
      <trkpt lat="49.87472" lon="2.39808">
        <ele>57.3</ele>
        <time>2022-04-13T14:24:22Z</time>
      </trkpt>
      <trkpt lat="49.87472" lon="2.39808">
        <ele>57.3</ele>
        <time>2022-04-13T14:24:23Z</time>
      </trkpt>
      <trkpt lat="49.87472" lon="2.39808">
        <ele>57.3</ele>
        <time>2022-04-13T14:24:24Z</time>
      </trkpt>
      <trkpt lat="49.87472" lon="2.39808">
        <ele>57.3</ele>
        <time>2022-04-13T14:24:25Z</time>
      </trkpt>
      <trkpt lat="49.87472" lon="2.39808">
        <ele>57.3</ele>
        <time>2022-04-13T14:24:26Z</time>
      </trkpt>
      <trkpt lat="49.87472" lon="2.39808">
        <ele>57.3</ele>
        <time>2022-04-13T14:24:27Z</time>
      </trkpt>
      <trkpt lat="49.87472" lon="2.39808">
        <ele>57.3</ele>
        <time>2022-04-13T14:24:28Z</time>
      </trkpt>
      <trkpt lat="49.87472" lon="2.39808">
        <ele>57.3</ele>
        <time>2022-04-13T14:24:29Z</time>
      </trkpt>
      <trkpt lat="49.87472" lon="2.39808">
        <ele>57.3</ele>
        <time>2022-04-13T14:24:30Z</time>
      </trkpt>
      <trkpt lat="49.87472" lon="2.39808">
        <ele>57.3</ele>
        <time>2022-04-13T14:24:31Z</time>
      </trkpt>
      <trkpt lat="49.87472" lon="2.39808">
        <ele>57.3</ele>
        <time>2022-04-13T14:24:32Z</time>
      </trkpt>
      <trkpt lat="49.87472" lon="2.39808">
        <ele>57.3</ele>
        <time>2022-04-13T14:24:33Z</time>
      </trkpt>
      <trkpt lat="49.87472" lon="2.39808">
        <ele>57.3</ele>
        <time>2022-04-13T14:24:34Z</time>
      </trkpt>
      <trkpt lat="49.87472" lon="2.39808">
        <ele>57.3</ele>
        <time>2022-04-13T14:24:35Z</time>
      </trkpt>
      <trkpt lat="49.87472" lon="2.39808">
        <ele>57.3</ele>
        <time>2022-04-13T14:24:36Z</time>
      </trkpt>
      <trkpt lat="49.87472" lon="2.39808">
        <ele>57.3</ele>
        <time>2022-04-13T14:24:37Z</time>
      </trkpt>
      <trkpt lat="49.87472" lon="2.39808">
        <ele>57.3</ele>
        <time>2022-04-13T14:24:38Z</time>
      </trkpt>
      <trkpt lat="49.87472" lon="2.39808">
        <ele>57.3</ele>
        <time>2022-04-13T14:24:39Z</time>
      </trkpt>
      <trkpt lat="49.87472" lon="2.39808">
        <ele>57.3</ele>
        <time>2022-04-13T14:24:40Z</time>
      </trkpt>
      <trkpt lat="49.87472" lon="2.39808">
        <ele>57.3</ele>
        <time>2022-04-13T14:24:41Z</time>
      </trkpt>
      <trkpt lat="49.87472" lon="2.39808">
        <ele>57.3</ele>
        <time>2022-04-13T14:24:42Z</time>
      </trkpt>
      <trkpt lat="49.87472" lon="2.39808">
        <ele>57.3</ele>
        <time>2022-04-13T14:24:43Z</time>
      </trkpt>
      <trkpt lat="49.87472" lon="2.39808">
        <ele>57.3</ele>
        <time>2022-04-13T14:24:44Z</time>
      </trkpt>
      <trkpt lat="49.87472" lon="2.39808">
        <ele>57.3</ele>
        <time>2022-04-13T14:24:45Z</time>
      </trkpt>
      <trkpt lat="49.87472" lon="2.39808">
        <ele>57.3</ele>
        <time>2022-04-13T14:24:46Z</time>
      </trkpt>
      <trkpt lat="49.87472" lon="2.39808">
        <ele>57.3</ele>
        <time>2022-04-13T14:24:47Z</time>
      </trkpt>
      <trkpt lat="49.87472" lon="2.39808">
        <ele>57.3</ele>
        <time>2022-04-13T14:24:48Z</time>
      </trkpt>
      <trkpt lat="49.87472" lon="2.39808">
        <ele>57.3</ele>
        <time>2022-04-13T14:24:49Z</time>
      </trkpt>
      <trkpt lat="49.87472" lon="2.39808">
        <ele>57.3</ele>
        <time>2022-04-13T14:24:50Z</time>
      </trkpt>
      <trkpt lat="49.87472" lon="2.39808">
        <ele>57.3</ele>
        <time>2022-04-13T14:24:51Z</time>
      </trkpt>
      <trkpt lat="49.87472" lon="2.39808">
        <ele>57.3</ele>
        <time>2022-04-13T14:24:52Z</time>
      </trkpt>
      <trkpt lat="49.87472" lon="2.39808">
        <ele>57.3</ele>
        <time>2022-04-13T14:24:53Z</time>
      </trkpt>
      <trkpt lat="49.87472" lon="2.39808">
        <ele>57.3</ele>
        <time>2022-04-13T14:24:54Z</time>
      </trkpt>
      <trkpt lat="49.87472" lon="2.39808">
        <ele>57.3</ele>
        <time>2022-04-13T14:24:55Z</time>
      </trkpt>
      <trkpt lat="49.87472" lon="2.39808">
        <ele>57.3</ele>
        <time>2022-04-13T14:24:56Z</time>
      </trkpt>
      <trkpt lat="49.87472" lon="2.39808">
        <ele>57.3</ele>
        <time>2022-04-13T14:24:57Z</time>
      </trkpt>
      <trkpt lat="49.87472" lon="2.39808">
        <ele>57.3</ele>
        <time>2022-04-13T14:24:58Z</time>
      </trkpt>
      <trkpt lat="49.87472" lon="2.39808">
        <ele>57.3</ele>
        <time>2022-04-13T14:24:59Z</time>
      </trkpt>
      <trkpt lat="49.87472" lon="2.39808">
        <ele>57.3</ele>
        <time>2022-04-13T14:25:00Z</time>
      </trkpt>
      <trkpt lat="49.87472" lon="2.39808">
        <ele>57.3</ele>
        <time>2022-04-13T14:25:01Z</time>
      </trkpt>
      <trkpt lat="49.87472" lon="2.39808">
        <ele>57.3</ele>
        <time>2022-04-13T14:25:02Z</time>
      </trkpt>
      <trkpt lat="49.87472" lon="2.39808">
        <ele>57.3</ele>
        <time>2022-04-13T14:25:03Z</time>
      </trkpt>
      <trkpt lat="49.87472" lon="2.39808">
        <ele>57.3</ele>
        <time>2022-04-13T14:25:04Z</time>
      </trkpt>
      <trkpt lat="49.87472" lon="2.39808">
        <ele>57.3</ele>
        <time>2022-04-13T14:25:05Z</time>
      </trkpt>
      <trkpt lat="49.87472" lon="2.39808">
        <ele>57.3</ele>
        <time>2022-04-13T14:25:06Z</time>
      </trkpt>
      <trkpt lat="49.87472" lon="2.39808">
        <ele>57.3</ele>
        <time>2022-04-13T14:25:07Z</time>
      </trkpt>
      <trkpt lat="49.87472" lon="2.39808">
        <ele>57.3</ele>
        <time>2022-04-13T14:25:08Z</time>
      </trkpt>
      <trkpt lat="49.87472" lon="2.39809">
        <ele>57.3</ele>
        <time>2022-04-13T14:25:09Z</time>
      </trkpt>
      <trkpt lat="49.87472" lon="2.39809">
        <ele>57.3</ele>
        <time>2022-04-13T14:25:10Z</time>
      </trkpt>
      <trkpt lat="49.87472" lon="2.39809">
        <ele>57.3</ele>
        <time>2022-04-13T14:25:11Z</time>
      </trkpt>
      <trkpt lat="49.87472" lon="2.39809">
        <ele>57.3</ele>
        <time>2022-04-13T14:25:12Z</time>
      </trkpt>
      <trkpt lat="49.87472" lon="2.3981">
        <ele>57.3</ele>
        <time>2022-04-13T14:25:13Z</time>
      </trkpt>
      <trkpt lat="49.87472" lon="2.3981">
        <ele>57.3</ele>
        <time>2022-04-13T14:25:14Z</time>
      </trkpt>
      <trkpt lat="49.87472" lon="2.3981">
        <ele>57.3</ele>
        <time>2022-04-13T14:25:15Z</time>
      </trkpt>
      <trkpt lat="49.87472" lon="2.3981">
        <ele>57.3</ele>
        <time>2022-04-13T14:25:16Z</time>
      </trkpt>
      <trkpt lat="49.87472" lon="2.39809">
        <ele>57.3</ele>
        <time>2022-04-13T14:25:17Z</time>
      </trkpt>
      <trkpt lat="49.87472" lon="2.39809">
        <ele>57.3</ele>
        <time>2022-04-13T14:25:18Z</time>
      </trkpt>
      <trkpt lat="49.87472" lon="2.39809">
        <ele>57.3</ele>
        <time>2022-04-13T14:25:19Z</time>
      </trkpt>
      <trkpt lat="49.87472" lon="2.39809">
        <ele>57.3</ele>
        <time>2022-04-13T14:25:20Z</time>
      </trkpt>
      <trkpt lat="49.87472" lon="2.39809">
        <ele>57.3</ele>
        <time>2022-04-13T14:25:21Z</time>
      </trkpt>
      <trkpt lat="49.87472" lon="2.39809">
        <ele>57.3</ele>
        <time>2022-04-13T14:25:22Z</time>
      </trkpt>
      <trkpt lat="49.87472" lon="2.39809">
        <ele>57.3</ele>
        <time>2022-04-13T14:25:23Z</time>
      </trkpt>
      <trkpt lat="49.87472" lon="2.39809">
        <ele>57.3</ele>
        <time>2022-04-13T14:25:24Z</time>
      </trkpt>
      <trkpt lat="49.87472" lon="2.39809">
        <ele>57.3</ele>
        <time>2022-04-13T14:25:25Z</time>
      </trkpt>
      <trkpt lat="49.87472" lon="2.39809">
        <ele>57.3</ele>
        <time>2022-04-13T14:25:26Z</time>
      </trkpt>
      <trkpt lat="49.87472" lon="2.39809">
        <ele>57.3</ele>
        <time>2022-04-13T14:25:27Z</time>
      </trkpt>
      <trkpt lat="49.87472" lon="2.39809">
        <ele>57.3</ele>
        <time>2022-04-13T14:25:28Z</time>
      </trkpt>
      <trkpt lat="49.87472" lon="2.39809">
        <ele>57.3</ele>
        <time>2022-04-13T14:25:29Z</time>
      </trkpt>
      <trkpt lat="49.87472" lon="2.39809">
        <ele>57.3</ele>
        <time>2022-04-13T14:25:30Z</time>
      </trkpt>
      <trkpt lat="49.87472" lon="2.39809">
        <ele>57.3</ele>
        <time>2022-04-13T14:25:31Z</time>
      </trkpt>
      <trkpt lat="49.87472" lon="2.39809">
        <ele>57.3</ele>
        <time>2022-04-13T14:25:32Z</time>
      </trkpt>
      <trkpt lat="49.87472" lon="2.39809">
        <ele>57.3</ele>
        <time>2022-04-13T14:25:33Z</time>
      </trkpt>
      <trkpt lat="49.87472" lon="2.39809">
        <ele>57.3</ele>
        <time>2022-04-13T14:25:34Z</time>
      </trkpt>
      <trkpt lat="49.87472" lon="2.39809">
        <ele>57.3</ele>
        <time>2022-04-13T14:25:35Z</time>
      </trkpt>
      <trkpt lat="49.87472" lon="2.39809">
        <ele>57.3</ele>
        <time>2022-04-13T14:25:36Z</time>
      </trkpt>
      <trkpt lat="49.87472" lon="2.39809">
        <ele>57.3</ele>
        <time>2022-04-13T14:25:37Z</time>
      </trkpt>
      <trkpt lat="49.87472" lon="2.39809">
        <ele>57.3</ele>
        <time>2022-04-13T14:25:38Z</time>
      </trkpt>
      <trkpt lat="49.87472" lon="2.39809">
        <ele>57.3</ele>
        <time>2022-04-13T14:25:39Z</time>
      </trkpt>
      <trkpt lat="49.87472" lon="2.39809">
        <ele>57.3</ele>
        <time>2022-04-13T14:25:40Z</time>
      </trkpt>
      <trkpt lat="49.87472" lon="2.39809">
        <ele>57.3</ele>
        <time>2022-04-13T14:25:41Z</time>
      </trkpt>
      <trkpt lat="49.87472" lon="2.39809">
        <ele>57.3</ele>
        <time>2022-04-13T14:25:42Z</time>
      </trkpt>
      <trkpt lat="49.87472" lon="2.39809">
        <ele>57.3</ele>
        <time>2022-04-13T14:25:43Z</time>
      </trkpt>
      <trkpt lat="49.87472" lon="2.39809">
        <ele>57.3</ele>
        <time>2022-04-13T14:25:44Z</time>
      </trkpt>
      <trkpt lat="49.87472" lon="2.39809">
        <ele>57.3</ele>
        <time>2022-04-13T14:25:45Z</time>
      </trkpt>
      <trkpt lat="49.87472" lon="2.39809">
        <ele>57.3</ele>
        <time>2022-04-13T14:25:46Z</time>
      </trkpt>
      <trkpt lat="49.87472" lon="2.39809">
        <ele>57.3</ele>
        <time>2022-04-13T14:25:47Z</time>
      </trkpt>
      <trkpt lat="49.87472" lon="2.39809">
        <ele>57.3</ele>
        <time>2022-04-13T14:25:48Z</time>
      </trkpt>
      <trkpt lat="49.87472" lon="2.39809">
        <ele>57.3</ele>
        <time>2022-04-13T14:25:49Z</time>
      </trkpt>
      <trkpt lat="49.87472" lon="2.39809">
        <ele>57.3</ele>
        <time>2022-04-13T14:25:50Z</time>
      </trkpt>
      <trkpt lat="49.87472" lon="2.39809">
        <ele>57.3</ele>
        <time>2022-04-13T14:25:51Z</time>
      </trkpt>
      <trkpt lat="49.87472" lon="2.39809">
        <ele>57.3</ele>
        <time>2022-04-13T14:25:52Z</time>
      </trkpt>
      <trkpt lat="49.87472" lon="2.39809">
        <ele>57.3</ele>
        <time>2022-04-13T14:25:53Z</time>
      </trkpt>
      <trkpt lat="49.87472" lon="2.39809">
        <ele>57.3</ele>
        <time>2022-04-13T14:25:54Z</time>
      </trkpt>
      <trkpt lat="49.87472" lon="2.39809">
        <ele>57.3</ele>
        <time>2022-04-13T14:25:55Z</time>
      </trkpt>
      <trkpt lat="49.87472" lon="2.39809">
        <ele>57.3</ele>
        <time>2022-04-13T14:25:56Z</time>
      </trkpt>
      <trkpt lat="49.87472" lon="2.39809">
        <ele>57.3</ele>
        <time>2022-04-13T14:25:57Z</time>
      </trkpt>
      <trkpt lat="49.87472" lon="2.39809">
        <ele>57.3</ele>
        <time>2022-04-13T14:25:58Z</time>
      </trkpt>
      <trkpt lat="49.87472" lon="2.39809">
        <ele>57.3</ele>
        <time>2022-04-13T14:25:59Z</time>
      </trkpt>
      <trkpt lat="49.87472" lon="2.39809">
        <ele>57.3</ele>
        <time>2022-04-13T14:26:00Z</time>
      </trkpt>
      <trkpt lat="49.87472" lon="2.39809">
        <ele>57.3</ele>
        <time>2022-04-13T14:26:01Z</time>
      </trkpt>
      <trkpt lat="49.87472" lon="2.39809">
        <ele>57.3</ele>
        <time>2022-04-13T14:26:02Z</time>
      </trkpt>
      <trkpt lat="49.87472" lon="2.39809">
        <ele>57.3</ele>
        <time>2022-04-13T14:26:03Z</time>
      </trkpt>
      <trkpt lat="49.87472" lon="2.39809">
        <ele>57.3</ele>
        <time>2022-04-13T14:26:04Z</time>
      </trkpt>
      <trkpt lat="49.87472" lon="2.39809">
        <ele>57.3</ele>
        <time>2022-04-13T14:26:05Z</time>
      </trkpt>
      <trkpt lat="49.87472" lon="2.39809">
        <ele>57.3</ele>
        <time>2022-04-13T14:26:06Z</time>
      </trkpt>
      <trkpt lat="49.87472" lon="2.39809">
        <ele>57.3</ele>
        <time>2022-04-13T14:26:07Z</time>
      </trkpt>
      <trkpt lat="49.87472" lon="2.39809">
        <ele>57.3</ele>
        <time>2022-04-13T14:26:08Z</time>
      </trkpt>
      <trkpt lat="49.87472" lon="2.39809">
        <ele>57.3</ele>
        <time>2022-04-13T14:26:09Z</time>
      </trkpt>
      <trkpt lat="49.87472" lon="2.39809">
        <ele>57.3</ele>
        <time>2022-04-13T14:26:10Z</time>
      </trkpt>
      <trkpt lat="49.87472" lon="2.39809">
        <ele>57.3</ele>
        <time>2022-04-13T14:26:11Z</time>
      </trkpt>
      <trkpt lat="49.87472" lon="2.39809">
        <ele>57.3</ele>
        <time>2022-04-13T14:26:12Z</time>
      </trkpt>
      <trkpt lat="49.87472" lon="2.39809">
        <ele>57.3</ele>
        <time>2022-04-13T14:26:13Z</time>
      </trkpt>
      <trkpt lat="49.87472" lon="2.39809">
        <ele>57.3</ele>
        <time>2022-04-13T14:26:14Z</time>
      </trkpt>
      <trkpt lat="49.87472" lon="2.39809">
        <ele>57.3</ele>
        <time>2022-04-13T14:26:15Z</time>
      </trkpt>
      <trkpt lat="49.87472" lon="2.39809">
        <ele>57.3</ele>
        <time>2022-04-13T14:26:16Z</time>
      </trkpt>
      <trkpt lat="49.87472" lon="2.39809">
        <ele>57.3</ele>
        <time>2022-04-13T14:26:17Z</time>
      </trkpt>
      <trkpt lat="49.87472" lon="2.39809">
        <ele>57.3</ele>
        <time>2022-04-13T14:26:18Z</time>
      </trkpt>
      <trkpt lat="49.87472" lon="2.39809">
        <ele>57.3</ele>
        <time>2022-04-13T14:26:19Z</time>
      </trkpt>
      <trkpt lat="49.87472" lon="2.39809">
        <ele>57.3</ele>
        <time>2022-04-13T14:26:20Z</time>
      </trkpt>
      <trkpt lat="49.87472" lon="2.39809">
        <ele>57.3</ele>
        <time>2022-04-13T14:26:21Z</time>
      </trkpt>
      <trkpt lat="49.87472" lon="2.39809">
        <ele>57.3</ele>
        <time>2022-04-13T14:26:22Z</time>
      </trkpt>
      <trkpt lat="49.87472" lon="2.39809">
        <ele>57.3</ele>
        <time>2022-04-13T14:26:23Z</time>
      </trkpt>
      <trkpt lat="49.87472" lon="2.39809">
        <ele>57.3</ele>
        <time>2022-04-13T14:26:24Z</time>
      </trkpt>
      <trkpt lat="49.87472" lon="2.39809">
        <ele>57.3</ele>
        <time>2022-04-13T14:26:25Z</time>
      </trkpt>
      <trkpt lat="49.87472" lon="2.39809">
        <ele>57.3</ele>
        <time>2022-04-13T14:26:26Z</time>
      </trkpt>
      <trkpt lat="49.87472" lon="2.39809">
        <ele>57.3</ele>
        <time>2022-04-13T14:26:27Z</time>
      </trkpt>
      <trkpt lat="49.87472" lon="2.39809">
        <ele>57.3</ele>
        <time>2022-04-13T14:26:28Z</time>
      </trkpt>
      <trkpt lat="49.87472" lon="2.39809">
        <ele>57.3</ele>
        <time>2022-04-13T14:26:29Z</time>
      </trkpt>
      <trkpt lat="49.87472" lon="2.39809">
        <ele>57.3</ele>
        <time>2022-04-13T14:26:30Z</time>
      </trkpt>
      <trkpt lat="49.87472" lon="2.39809">
        <ele>57.3</ele>
        <time>2022-04-13T14:26:31Z</time>
      </trkpt>
      <trkpt lat="49.87472" lon="2.39809">
        <ele>57.3</ele>
        <time>2022-04-13T14:26:32Z</time>
      </trkpt>
      <trkpt lat="49.87472" lon="2.39809">
        <ele>57.3</ele>
        <time>2022-04-13T14:26:33Z</time>
      </trkpt>
      <trkpt lat="49.87472" lon="2.39809">
        <ele>57.3</ele>
        <time>2022-04-13T14:26:34Z</time>
      </trkpt>
      <trkpt lat="49.87472" lon="2.39809">
        <ele>57.3</ele>
        <time>2022-04-13T14:26:35Z</time>
      </trkpt>
      <trkpt lat="49.87472" lon="2.39809">
        <ele>57.3</ele>
        <time>2022-04-13T14:26:36Z</time>
      </trkpt>
      <trkpt lat="49.87472" lon="2.39809">
        <ele>57.3</ele>
        <time>2022-04-13T14:26:37Z</time>
      </trkpt>
      <trkpt lat="49.87472" lon="2.39809">
        <ele>57.3</ele>
        <time>2022-04-13T14:26:38Z</time>
      </trkpt>
      <trkpt lat="49.87472" lon="2.39809">
        <ele>57.3</ele>
        <time>2022-04-13T14:26:39Z</time>
      </trkpt>
      <trkpt lat="49.87472" lon="2.39809">
        <ele>57.3</ele>
        <time>2022-04-13T14:26:40Z</time>
      </trkpt>
      <trkpt lat="49.87472" lon="2.39809">
        <ele>57.3</ele>
        <time>2022-04-13T14:26:41Z</time>
      </trkpt>
      <trkpt lat="49.87472" lon="2.39809">
        <ele>57.3</ele>
        <time>2022-04-13T14:26:42Z</time>
      </trkpt>
      <trkpt lat="49.87472" lon="2.39809">
        <ele>57.3</ele>
        <time>2022-04-13T14:26:43Z</time>
      </trkpt>
      <trkpt lat="49.87472" lon="2.39809">
        <ele>57.3</ele>
        <time>2022-04-13T14:26:44Z</time>
      </trkpt>
      <trkpt lat="49.87472" lon="2.39809">
        <ele>57.3</ele>
        <time>2022-04-13T14:26:45Z</time>
      </trkpt>
      <trkpt lat="49.87472" lon="2.39809">
        <ele>57.3</ele>
        <time>2022-04-13T14:26:46Z</time>
      </trkpt>
      <trkpt lat="49.87472" lon="2.39809">
        <ele>57.3</ele>
        <time>2022-04-13T14:26:47Z</time>
      </trkpt>
      <trkpt lat="49.87472" lon="2.39809">
        <ele>57.3</ele>
        <time>2022-04-13T14:26:48Z</time>
      </trkpt>
      <trkpt lat="49.87472" lon="2.39809">
        <ele>57.3</ele>
        <time>2022-04-13T14:26:49Z</time>
      </trkpt>
      <trkpt lat="49.87472" lon="2.39809">
        <ele>57.3</ele>
        <time>2022-04-13T14:26:50Z</time>
      </trkpt>
      <trkpt lat="49.87472" lon="2.39809">
        <ele>57.3</ele>
        <time>2022-04-13T14:26:51Z</time>
      </trkpt>
      <trkpt lat="49.87472" lon="2.39809">
        <ele>57.3</ele>
        <time>2022-04-13T14:26:52Z</time>
      </trkpt>
      <trkpt lat="49.87472" lon="2.39809">
        <ele>57.3</ele>
        <time>2022-04-13T14:26:53Z</time>
      </trkpt>
      <trkpt lat="49.87472" lon="2.39809">
        <ele>57.3</ele>
        <time>2022-04-13T14:26:54Z</time>
      </trkpt>
      <trkpt lat="49.87472" lon="2.39809">
        <ele>57.3</ele>
        <time>2022-04-13T14:26:55Z</time>
      </trkpt>
      <trkpt lat="49.87472" lon="2.39809">
        <ele>57.3</ele>
        <time>2022-04-13T14:26:56Z</time>
      </trkpt>
      <trkpt lat="49.87472" lon="2.39809">
        <ele>57.3</ele>
        <time>2022-04-13T14:26:57Z</time>
      </trkpt>
      <trkpt lat="49.87472" lon="2.39809">
        <ele>57.3</ele>
        <time>2022-04-13T14:26:58Z</time>
      </trkpt>
      <trkpt lat="49.87472" lon="2.39809">
        <ele>57.3</ele>
        <time>2022-04-13T14:26:59Z</time>
      </trkpt>
      <trkpt lat="49.87472" lon="2.39809">
        <ele>57.3</ele>
        <time>2022-04-13T14:27:00Z</time>
      </trkpt>
      <trkpt lat="49.87472" lon="2.39809">
        <ele>57.3</ele>
        <time>2022-04-13T14:27:01Z</time>
      </trkpt>
      <trkpt lat="49.87472" lon="2.39809">
        <ele>57.3</ele>
        <time>2022-04-13T14:27:02Z</time>
      </trkpt>
      <trkpt lat="49.87472" lon="2.39809">
        <ele>57.3</ele>
        <time>2022-04-13T14:27:03Z</time>
      </trkpt>
      <trkpt lat="49.87472" lon="2.39809">
        <ele>57.3</ele>
        <time>2022-04-13T14:27:04Z</time>
      </trkpt>
      <trkpt lat="49.87472" lon="2.39809">
        <ele>57.3</ele>
        <time>2022-04-13T14:27:05Z</time>
      </trkpt>
    </trkseg>
  </trk>
</gpx>